<?xml version="1.0" encoding="UTF-8"?>
<gpx xmlns="http://www.topografix.com/GPX/1/1"
     creator="GpsDumpMac 0.36"
     version="1.1"
     xmlns:xsi="http://www.w3.org/2001/XMLSchema-instance"
     xsi:schemaLocation="http://www.topografix.com/GPX/1/1 http://www.topografix.com/GPX/1/1/gpx.xsd">
  <metadata>
    <link href="http://www.gethome.no/stein.sorensen/">
      <text>GPS dump for www.flightlog.org</text>
    </link>
    <time>2015-08-29T11:51:21Z</time>
    <bounds minlat="40.181533" minlon="-5.017283" maxlat="40.257917" maxlon="-4.833817"/>
  </metadata>
  <trk>
    <name>Track 001</name>
    <trkseg>
      <trkpt lat="40.256400" lon="-4.906033">
        <ele>1259.0</ele>
        <time>2015-08-01T12:03:27Z</time>
      </trkpt>
      <trkpt lat="40.256367" lon="-4.906150">
        <ele>1261.0</ele>
        <time>2015-08-01T12:03:29Z</time>
      </trkpt>
      <trkpt lat="40.256333" lon="-4.906233">
        <ele>1261.0</ele>
        <time>2015-08-01T12:03:31Z</time>
      </trkpt>
      <trkpt lat="40.256283" lon="-4.906350">
        <ele>1262.0</ele>
        <time>2015-08-01T12:03:33Z</time>
      </trkpt>
      <trkpt lat="40.256267" lon="-4.906450">
        <ele>1262.0</ele>
        <time>2015-08-01T12:03:35Z</time>
      </trkpt>
      <trkpt lat="40.256250" lon="-4.906617">
        <ele>1261.0</ele>
        <time>2015-08-01T12:03:37Z</time>
      </trkpt>
      <trkpt lat="40.256233" lon="-4.906800">
        <ele>1261.0</ele>
        <time>2015-08-01T12:03:39Z</time>
      </trkpt>
      <trkpt lat="40.256217" lon="-4.906967">
        <ele>1259.0</ele>
        <time>2015-08-01T12:03:41Z</time>
      </trkpt>
      <trkpt lat="40.256200" lon="-4.907167">
        <ele>1258.0</ele>
        <time>2015-08-01T12:03:43Z</time>
      </trkpt>
      <trkpt lat="40.256217" lon="-4.907333">
        <ele>1258.0</ele>
        <time>2015-08-01T12:03:45Z</time>
      </trkpt>
      <trkpt lat="40.256233" lon="-4.907483">
        <ele>1256.0</ele>
        <time>2015-08-01T12:03:47Z</time>
      </trkpt>
      <trkpt lat="40.256300" lon="-4.907700">
        <ele>1253.0</ele>
        <time>2015-08-01T12:03:49Z</time>
      </trkpt>
      <trkpt lat="40.256383" lon="-4.907933">
        <ele>1253.0</ele>
        <time>2015-08-01T12:03:51Z</time>
      </trkpt>
      <trkpt lat="40.256450" lon="-4.908150">
        <ele>1254.0</ele>
        <time>2015-08-01T12:03:53Z</time>
      </trkpt>
      <trkpt lat="40.256483" lon="-4.908417">
        <ele>1254.0</ele>
        <time>2015-08-01T12:03:55Z</time>
      </trkpt>
      <trkpt lat="40.256517" lon="-4.908667">
        <ele>1259.0</ele>
        <time>2015-08-01T12:03:57Z</time>
      </trkpt>
      <trkpt lat="40.256583" lon="-4.908900">
        <ele>1263.0</ele>
        <time>2015-08-01T12:03:59Z</time>
      </trkpt>
      <trkpt lat="40.256650" lon="-4.909100">
        <ele>1265.0</ele>
        <time>2015-08-01T12:04:01Z</time>
      </trkpt>
      <trkpt lat="40.256683" lon="-4.909333">
        <ele>1266.0</ele>
        <time>2015-08-01T12:04:03Z</time>
      </trkpt>
      <trkpt lat="40.256617" lon="-4.909533">
        <ele>1271.0</ele>
        <time>2015-08-01T12:04:05Z</time>
      </trkpt>
      <trkpt lat="40.256567" lon="-4.909633">
        <ele>1279.0</ele>
        <time>2015-08-01T12:04:07Z</time>
      </trkpt>
      <trkpt lat="40.256517" lon="-4.909683">
        <ele>1284.0</ele>
        <time>2015-08-01T12:04:09Z</time>
      </trkpt>
      <trkpt lat="40.256417" lon="-4.909750">
        <ele>1285.0</ele>
        <time>2015-08-01T12:04:11Z</time>
      </trkpt>
      <trkpt lat="40.256350" lon="-4.909917">
        <ele>1289.0</ele>
        <time>2015-08-01T12:04:13Z</time>
      </trkpt>
      <trkpt lat="40.256383" lon="-4.910067">
        <ele>1293.0</ele>
        <time>2015-08-01T12:04:15Z</time>
      </trkpt>
      <trkpt lat="40.256433" lon="-4.910233">
        <ele>1293.0</ele>
        <time>2015-08-01T12:04:17Z</time>
      </trkpt>
      <trkpt lat="40.256500" lon="-4.910467">
        <ele>1291.0</ele>
        <time>2015-08-01T12:04:19Z</time>
      </trkpt>
      <trkpt lat="40.256533" lon="-4.910667">
        <ele>1294.0</ele>
        <time>2015-08-01T12:04:21Z</time>
      </trkpt>
      <trkpt lat="40.256500" lon="-4.910833">
        <ele>1293.0</ele>
        <time>2015-08-01T12:04:23Z</time>
      </trkpt>
      <trkpt lat="40.256433" lon="-4.911033">
        <ele>1288.0</ele>
        <time>2015-08-01T12:04:25Z</time>
      </trkpt>
      <trkpt lat="40.256367" lon="-4.911267">
        <ele>1284.0</ele>
        <time>2015-08-01T12:04:27Z</time>
      </trkpt>
      <trkpt lat="40.256333" lon="-4.911500">
        <ele>1283.0</ele>
        <time>2015-08-01T12:04:29Z</time>
      </trkpt>
      <trkpt lat="40.256333" lon="-4.911717">
        <ele>1278.0</ele>
        <time>2015-08-01T12:04:31Z</time>
      </trkpt>
      <trkpt lat="40.256350" lon="-4.911917">
        <ele>1274.0</ele>
        <time>2015-08-01T12:04:33Z</time>
      </trkpt>
      <trkpt lat="40.256333" lon="-4.912117">
        <ele>1271.0</ele>
        <time>2015-08-01T12:04:35Z</time>
      </trkpt>
      <trkpt lat="40.256250" lon="-4.912300">
        <ele>1265.0</ele>
        <time>2015-08-01T12:04:37Z</time>
      </trkpt>
      <trkpt lat="40.256133" lon="-4.912467">
        <ele>1261.0</ele>
        <time>2015-08-01T12:04:39Z</time>
      </trkpt>
      <trkpt lat="40.256033" lon="-4.912633">
        <ele>1256.0</ele>
        <time>2015-08-01T12:04:41Z</time>
      </trkpt>
      <trkpt lat="40.255933" lon="-4.912783">
        <ele>1251.0</ele>
        <time>2015-08-01T12:04:43Z</time>
      </trkpt>
      <trkpt lat="40.255817" lon="-4.912967">
        <ele>1246.0</ele>
        <time>2015-08-01T12:04:45Z</time>
      </trkpt>
      <trkpt lat="40.255667" lon="-4.913133">
        <ele>1243.0</ele>
        <time>2015-08-01T12:04:47Z</time>
      </trkpt>
      <trkpt lat="40.255533" lon="-4.913317">
        <ele>1242.0</ele>
        <time>2015-08-01T12:04:49Z</time>
      </trkpt>
      <trkpt lat="40.255417" lon="-4.913483">
        <ele>1243.0</ele>
        <time>2015-08-01T12:04:51Z</time>
      </trkpt>
      <trkpt lat="40.255300" lon="-4.913600">
        <ele>1242.0</ele>
        <time>2015-08-01T12:04:53Z</time>
      </trkpt>
      <trkpt lat="40.255183" lon="-4.913750">
        <ele>1239.0</ele>
        <time>2015-08-01T12:04:55Z</time>
      </trkpt>
      <trkpt lat="40.255050" lon="-4.913917">
        <ele>1239.0</ele>
        <time>2015-08-01T12:04:57Z</time>
      </trkpt>
      <trkpt lat="40.254917" lon="-4.914067">
        <ele>1241.0</ele>
        <time>2015-08-01T12:04:59Z</time>
      </trkpt>
      <trkpt lat="40.254800" lon="-4.914217">
        <ele>1245.0</ele>
        <time>2015-08-01T12:05:01Z</time>
      </trkpt>
      <trkpt lat="40.254750" lon="-4.914433">
        <ele>1245.0</ele>
        <time>2015-08-01T12:05:03Z</time>
      </trkpt>
      <trkpt lat="40.254667" lon="-4.914667">
        <ele>1245.0</ele>
        <time>2015-08-01T12:05:05Z</time>
      </trkpt>
      <trkpt lat="40.254550" lon="-4.914800">
        <ele>1246.0</ele>
        <time>2015-08-01T12:05:07Z</time>
      </trkpt>
      <trkpt lat="40.254433" lon="-4.914833">
        <ele>1246.0</ele>
        <time>2015-08-01T12:05:09Z</time>
      </trkpt>
      <trkpt lat="40.254317" lon="-4.914850">
        <ele>1243.0</ele>
        <time>2015-08-01T12:05:11Z</time>
      </trkpt>
      <trkpt lat="40.254167" lon="-4.914850">
        <ele>1241.0</ele>
        <time>2015-08-01T12:05:13Z</time>
      </trkpt>
      <trkpt lat="40.254050" lon="-4.914867">
        <ele>1241.0</ele>
        <time>2015-08-01T12:05:15Z</time>
      </trkpt>
      <trkpt lat="40.253950" lon="-4.914867">
        <ele>1237.0</ele>
        <time>2015-08-01T12:05:17Z</time>
      </trkpt>
      <trkpt lat="40.253800" lon="-4.914883">
        <ele>1232.0</ele>
        <time>2015-08-01T12:05:19Z</time>
      </trkpt>
      <trkpt lat="40.253667" lon="-4.914917">
        <ele>1228.0</ele>
        <time>2015-08-01T12:05:21Z</time>
      </trkpt>
      <trkpt lat="40.253517" lon="-4.914900">
        <ele>1224.0</ele>
        <time>2015-08-01T12:05:23Z</time>
      </trkpt>
      <trkpt lat="40.253350" lon="-4.914900">
        <ele>1221.0</ele>
        <time>2015-08-01T12:05:25Z</time>
      </trkpt>
      <trkpt lat="40.253217" lon="-4.914933">
        <ele>1219.0</ele>
        <time>2015-08-01T12:05:27Z</time>
      </trkpt>
      <trkpt lat="40.253100" lon="-4.914950">
        <ele>1213.0</ele>
        <time>2015-08-01T12:05:29Z</time>
      </trkpt>
      <trkpt lat="40.252900" lon="-4.915017">
        <ele>1207.0</ele>
        <time>2015-08-01T12:05:31Z</time>
      </trkpt>
      <trkpt lat="40.252750" lon="-4.915117">
        <ele>1209.0</ele>
        <time>2015-08-01T12:05:33Z</time>
      </trkpt>
      <trkpt lat="40.252667" lon="-4.915200">
        <ele>1210.0</ele>
        <time>2015-08-01T12:05:35Z</time>
      </trkpt>
      <trkpt lat="40.252533" lon="-4.915283">
        <ele>1206.0</ele>
        <time>2015-08-01T12:05:37Z</time>
      </trkpt>
      <trkpt lat="40.252367" lon="-4.915350">
        <ele>1209.0</ele>
        <time>2015-08-01T12:05:39Z</time>
      </trkpt>
      <trkpt lat="40.252267" lon="-4.915450">
        <ele>1213.0</ele>
        <time>2015-08-01T12:05:41Z</time>
      </trkpt>
      <trkpt lat="40.252183" lon="-4.915617">
        <ele>1212.0</ele>
        <time>2015-08-01T12:05:43Z</time>
      </trkpt>
      <trkpt lat="40.252050" lon="-4.915800">
        <ele>1214.0</ele>
        <time>2015-08-01T12:05:45Z</time>
      </trkpt>
      <trkpt lat="40.251983" lon="-4.916000">
        <ele>1221.0</ele>
        <time>2015-08-01T12:05:47Z</time>
      </trkpt>
      <trkpt lat="40.251883" lon="-4.916067">
        <ele>1228.0</ele>
        <time>2015-08-01T12:05:49Z</time>
      </trkpt>
      <trkpt lat="40.251783" lon="-4.916100">
        <ele>1234.0</ele>
        <time>2015-08-01T12:05:51Z</time>
      </trkpt>
      <trkpt lat="40.251717" lon="-4.916033">
        <ele>1238.0</ele>
        <time>2015-08-01T12:05:53Z</time>
      </trkpt>
      <trkpt lat="40.251617" lon="-4.915917">
        <ele>1236.0</ele>
        <time>2015-08-01T12:05:55Z</time>
      </trkpt>
      <trkpt lat="40.251483" lon="-4.915717">
        <ele>1236.0</ele>
        <time>2015-08-01T12:05:57Z</time>
      </trkpt>
      <trkpt lat="40.251433" lon="-4.915417">
        <ele>1242.0</ele>
        <time>2015-08-01T12:05:59Z</time>
      </trkpt>
      <trkpt lat="40.251483" lon="-4.915100">
        <ele>1248.0</ele>
        <time>2015-08-01T12:06:01Z</time>
      </trkpt>
      <trkpt lat="40.251550" lon="-4.914800">
        <ele>1250.0</ele>
        <time>2015-08-01T12:06:03Z</time>
      </trkpt>
      <trkpt lat="40.251733" lon="-4.914567">
        <ele>1250.0</ele>
        <time>2015-08-01T12:06:05Z</time>
      </trkpt>
      <trkpt lat="40.251983" lon="-4.914533">
        <ele>1250.0</ele>
        <time>2015-08-01T12:06:07Z</time>
      </trkpt>
      <trkpt lat="40.252150" lon="-4.914650">
        <ele>1252.0</ele>
        <time>2015-08-01T12:06:09Z</time>
      </trkpt>
      <trkpt lat="40.252200" lon="-4.914800">
        <ele>1255.0</ele>
        <time>2015-08-01T12:06:11Z</time>
      </trkpt>
      <trkpt lat="40.252217" lon="-4.914883">
        <ele>1261.0</ele>
        <time>2015-08-01T12:06:13Z</time>
      </trkpt>
      <trkpt lat="40.252200" lon="-4.914950">
        <ele>1263.0</ele>
        <time>2015-08-01T12:06:15Z</time>
      </trkpt>
      <trkpt lat="40.252183" lon="-4.915033">
        <ele>1265.0</ele>
        <time>2015-08-01T12:06:17Z</time>
      </trkpt>
      <trkpt lat="40.252200" lon="-4.915133">
        <ele>1268.0</ele>
        <time>2015-08-01T12:06:19Z</time>
      </trkpt>
      <trkpt lat="40.252233" lon="-4.915217">
        <ele>1268.0</ele>
        <time>2015-08-01T12:06:21Z</time>
      </trkpt>
      <trkpt lat="40.252200" lon="-4.915300">
        <ele>1263.0</ele>
        <time>2015-08-01T12:06:23Z</time>
      </trkpt>
      <trkpt lat="40.252133" lon="-4.915433">
        <ele>1262.0</ele>
        <time>2015-08-01T12:06:25Z</time>
      </trkpt>
      <trkpt lat="40.252117" lon="-4.915583">
        <ele>1266.0</ele>
        <time>2015-08-01T12:06:27Z</time>
      </trkpt>
      <trkpt lat="40.252100" lon="-4.915717">
        <ele>1269.0</ele>
        <time>2015-08-01T12:06:29Z</time>
      </trkpt>
      <trkpt lat="40.252033" lon="-4.915850">
        <ele>1271.0</ele>
        <time>2015-08-01T12:06:31Z</time>
      </trkpt>
      <trkpt lat="40.251983" lon="-4.916017">
        <ele>1276.0</ele>
        <time>2015-08-01T12:06:33Z</time>
      </trkpt>
      <trkpt lat="40.251950" lon="-4.916150">
        <ele>1281.0</ele>
        <time>2015-08-01T12:06:35Z</time>
      </trkpt>
      <trkpt lat="40.251917" lon="-4.916283">
        <ele>1283.0</ele>
        <time>2015-08-01T12:06:37Z</time>
      </trkpt>
      <trkpt lat="40.251867" lon="-4.916383">
        <ele>1284.0</ele>
        <time>2015-08-01T12:06:39Z</time>
      </trkpt>
      <trkpt lat="40.251783" lon="-4.916333">
        <ele>1286.0</ele>
        <time>2015-08-01T12:06:41Z</time>
      </trkpt>
      <trkpt lat="40.251700" lon="-4.916217">
        <ele>1287.0</ele>
        <time>2015-08-01T12:06:43Z</time>
      </trkpt>
      <trkpt lat="40.251667" lon="-4.916067">
        <ele>1289.0</ele>
        <time>2015-08-01T12:06:45Z</time>
      </trkpt>
      <trkpt lat="40.251717" lon="-4.915850">
        <ele>1287.0</ele>
        <time>2015-08-01T12:06:47Z</time>
      </trkpt>
      <trkpt lat="40.251883" lon="-4.915633">
        <ele>1286.0</ele>
        <time>2015-08-01T12:06:49Z</time>
      </trkpt>
      <trkpt lat="40.252133" lon="-4.915583">
        <ele>1289.0</ele>
        <time>2015-08-01T12:06:51Z</time>
      </trkpt>
      <trkpt lat="40.252317" lon="-4.915633">
        <ele>1295.0</ele>
        <time>2015-08-01T12:06:53Z</time>
      </trkpt>
      <trkpt lat="40.252450" lon="-4.915750">
        <ele>1297.0</ele>
        <time>2015-08-01T12:06:55Z</time>
      </trkpt>
      <trkpt lat="40.252517" lon="-4.915933">
        <ele>1299.0</ele>
        <time>2015-08-01T12:06:57Z</time>
      </trkpt>
      <trkpt lat="40.252483" lon="-4.916050">
        <ele>1301.0</ele>
        <time>2015-08-01T12:06:59Z</time>
      </trkpt>
      <trkpt lat="40.252433" lon="-4.916100">
        <ele>1303.0</ele>
        <time>2015-08-01T12:07:01Z</time>
      </trkpt>
      <trkpt lat="40.252367" lon="-4.916067">
        <ele>1303.0</ele>
        <time>2015-08-01T12:07:03Z</time>
      </trkpt>
      <trkpt lat="40.252300" lon="-4.915933">
        <ele>1301.0</ele>
        <time>2015-08-01T12:07:05Z</time>
      </trkpt>
      <trkpt lat="40.252300" lon="-4.915700">
        <ele>1302.0</ele>
        <time>2015-08-01T12:07:07Z</time>
      </trkpt>
      <trkpt lat="40.252383" lon="-4.915500">
        <ele>1306.0</ele>
        <time>2015-08-01T12:07:09Z</time>
      </trkpt>
      <trkpt lat="40.252533" lon="-4.915367">
        <ele>1305.0</ele>
        <time>2015-08-01T12:07:11Z</time>
      </trkpt>
      <trkpt lat="40.252750" lon="-4.915233">
        <ele>1303.0</ele>
        <time>2015-08-01T12:07:13Z</time>
      </trkpt>
      <trkpt lat="40.252950" lon="-4.915200">
        <ele>1306.0</ele>
        <time>2015-08-01T12:07:15Z</time>
      </trkpt>
      <trkpt lat="40.253150" lon="-4.915267">
        <ele>1305.0</ele>
        <time>2015-08-01T12:07:17Z</time>
      </trkpt>
      <trkpt lat="40.253300" lon="-4.915467">
        <ele>1304.0</ele>
        <time>2015-08-01T12:07:19Z</time>
      </trkpt>
      <trkpt lat="40.253367" lon="-4.915667">
        <ele>1308.0</ele>
        <time>2015-08-01T12:07:21Z</time>
      </trkpt>
      <trkpt lat="40.253400" lon="-4.915783">
        <ele>1311.0</ele>
        <time>2015-08-01T12:07:23Z</time>
      </trkpt>
      <trkpt lat="40.253367" lon="-4.915900">
        <ele>1310.0</ele>
        <time>2015-08-01T12:07:25Z</time>
      </trkpt>
      <trkpt lat="40.253317" lon="-4.916017">
        <ele>1310.0</ele>
        <time>2015-08-01T12:07:27Z</time>
      </trkpt>
      <trkpt lat="40.253267" lon="-4.916133">
        <ele>1312.0</ele>
        <time>2015-08-01T12:07:29Z</time>
      </trkpt>
      <trkpt lat="40.253183" lon="-4.916233">
        <ele>1311.0</ele>
        <time>2015-08-01T12:07:31Z</time>
      </trkpt>
      <trkpt lat="40.253083" lon="-4.916333">
        <ele>1310.0</ele>
        <time>2015-08-01T12:07:33Z</time>
      </trkpt>
      <trkpt lat="40.252983" lon="-4.916367">
        <ele>1311.0</ele>
        <time>2015-08-01T12:07:35Z</time>
      </trkpt>
      <trkpt lat="40.252850" lon="-4.916333">
        <ele>1314.0</ele>
        <time>2015-08-01T12:07:37Z</time>
      </trkpt>
      <trkpt lat="40.252717" lon="-4.916333">
        <ele>1318.0</ele>
        <time>2015-08-01T12:07:39Z</time>
      </trkpt>
      <trkpt lat="40.252617" lon="-4.916333">
        <ele>1320.0</ele>
        <time>2015-08-01T12:07:41Z</time>
      </trkpt>
      <trkpt lat="40.252550" lon="-4.916183">
        <ele>1319.0</ele>
        <time>2015-08-01T12:07:43Z</time>
      </trkpt>
      <trkpt lat="40.252533" lon="-4.915950">
        <ele>1318.0</ele>
        <time>2015-08-01T12:07:45Z</time>
      </trkpt>
      <trkpt lat="40.252583" lon="-4.915700">
        <ele>1317.0</ele>
        <time>2015-08-01T12:07:47Z</time>
      </trkpt>
      <trkpt lat="40.252733" lon="-4.915483">
        <ele>1316.0</ele>
        <time>2015-08-01T12:07:49Z</time>
      </trkpt>
      <trkpt lat="40.252917" lon="-4.915350">
        <ele>1318.0</ele>
        <time>2015-08-01T12:07:51Z</time>
      </trkpt>
      <trkpt lat="40.253100" lon="-4.915300">
        <ele>1317.0</ele>
        <time>2015-08-01T12:07:53Z</time>
      </trkpt>
      <trkpt lat="40.253333" lon="-4.915350">
        <ele>1316.0</ele>
        <time>2015-08-01T12:07:55Z</time>
      </trkpt>
      <trkpt lat="40.253517" lon="-4.915500">
        <ele>1320.0</ele>
        <time>2015-08-01T12:07:57Z</time>
      </trkpt>
      <trkpt lat="40.253633" lon="-4.915617">
        <ele>1325.0</ele>
        <time>2015-08-01T12:07:59Z</time>
      </trkpt>
      <trkpt lat="40.253650" lon="-4.915767">
        <ele>1325.0</ele>
        <time>2015-08-01T12:08:01Z</time>
      </trkpt>
      <trkpt lat="40.253617" lon="-4.915900">
        <ele>1326.0</ele>
        <time>2015-08-01T12:08:03Z</time>
      </trkpt>
      <trkpt lat="40.253550" lon="-4.916000">
        <ele>1326.0</ele>
        <time>2015-08-01T12:08:05Z</time>
      </trkpt>
      <trkpt lat="40.253467" lon="-4.916050">
        <ele>1326.0</ele>
        <time>2015-08-01T12:08:07Z</time>
      </trkpt>
      <trkpt lat="40.253383" lon="-4.916067">
        <ele>1324.0</ele>
        <time>2015-08-01T12:08:09Z</time>
      </trkpt>
      <trkpt lat="40.253267" lon="-4.916050">
        <ele>1323.0</ele>
        <time>2015-08-01T12:08:11Z</time>
      </trkpt>
      <trkpt lat="40.253200" lon="-4.915967">
        <ele>1323.0</ele>
        <time>2015-08-01T12:08:13Z</time>
      </trkpt>
      <trkpt lat="40.253150" lon="-4.915850">
        <ele>1320.0</ele>
        <time>2015-08-01T12:08:15Z</time>
      </trkpt>
      <trkpt lat="40.253067" lon="-4.915717">
        <ele>1318.0</ele>
        <time>2015-08-01T12:08:17Z</time>
      </trkpt>
      <trkpt lat="40.253017" lon="-4.915550">
        <ele>1317.0</ele>
        <time>2015-08-01T12:08:19Z</time>
      </trkpt>
      <trkpt lat="40.253000" lon="-4.915333">
        <ele>1313.0</ele>
        <time>2015-08-01T12:08:21Z</time>
      </trkpt>
      <trkpt lat="40.252950" lon="-4.915100">
        <ele>1309.0</ele>
        <time>2015-08-01T12:08:23Z</time>
      </trkpt>
      <trkpt lat="40.252833" lon="-4.914933">
        <ele>1306.0</ele>
        <time>2015-08-01T12:08:25Z</time>
      </trkpt>
      <trkpt lat="40.252700" lon="-4.914883">
        <ele>1305.0</ele>
        <time>2015-08-01T12:08:27Z</time>
      </trkpt>
      <trkpt lat="40.252617" lon="-4.914933">
        <ele>1304.0</ele>
        <time>2015-08-01T12:08:29Z</time>
      </trkpt>
      <trkpt lat="40.252600" lon="-4.915083">
        <ele>1300.0</ele>
        <time>2015-08-01T12:08:31Z</time>
      </trkpt>
      <trkpt lat="40.252600" lon="-4.915233">
        <ele>1296.0</ele>
        <time>2015-08-01T12:08:33Z</time>
      </trkpt>
      <trkpt lat="40.252567" lon="-4.915383">
        <ele>1292.0</ele>
        <time>2015-08-01T12:08:35Z</time>
      </trkpt>
      <trkpt lat="40.252550" lon="-4.915533">
        <ele>1287.0</ele>
        <time>2015-08-01T12:08:37Z</time>
      </trkpt>
      <trkpt lat="40.252500" lon="-4.915667">
        <ele>1282.0</ele>
        <time>2015-08-01T12:08:39Z</time>
      </trkpt>
      <trkpt lat="40.252450" lon="-4.915783">
        <ele>1279.0</ele>
        <time>2015-08-01T12:08:41Z</time>
      </trkpt>
      <trkpt lat="40.252400" lon="-4.915917">
        <ele>1277.0</ele>
        <time>2015-08-01T12:08:43Z</time>
      </trkpt>
      <trkpt lat="40.252350" lon="-4.916050">
        <ele>1275.0</ele>
        <time>2015-08-01T12:08:45Z</time>
      </trkpt>
      <trkpt lat="40.252317" lon="-4.916200">
        <ele>1274.0</ele>
        <time>2015-08-01T12:08:47Z</time>
      </trkpt>
      <trkpt lat="40.252300" lon="-4.916350">
        <ele>1273.0</ele>
        <time>2015-08-01T12:08:49Z</time>
      </trkpt>
      <trkpt lat="40.252300" lon="-4.916533">
        <ele>1269.0</ele>
        <time>2015-08-01T12:08:51Z</time>
      </trkpt>
      <trkpt lat="40.252300" lon="-4.916750">
        <ele>1266.0</ele>
        <time>2015-08-01T12:08:53Z</time>
      </trkpt>
      <trkpt lat="40.252267" lon="-4.916917">
        <ele>1265.0</ele>
        <time>2015-08-01T12:08:55Z</time>
      </trkpt>
      <trkpt lat="40.252233" lon="-4.917050">
        <ele>1261.0</ele>
        <time>2015-08-01T12:08:57Z</time>
      </trkpt>
      <trkpt lat="40.252167" lon="-4.917200">
        <ele>1254.0</ele>
        <time>2015-08-01T12:08:59Z</time>
      </trkpt>
      <trkpt lat="40.252100" lon="-4.917350">
        <ele>1250.0</ele>
        <time>2015-08-01T12:09:01Z</time>
      </trkpt>
      <trkpt lat="40.252033" lon="-4.917483">
        <ele>1248.0</ele>
        <time>2015-08-01T12:09:03Z</time>
      </trkpt>
      <trkpt lat="40.251967" lon="-4.917617">
        <ele>1243.0</ele>
        <time>2015-08-01T12:09:05Z</time>
      </trkpt>
      <trkpt lat="40.251883" lon="-4.917800">
        <ele>1239.0</ele>
        <time>2015-08-01T12:09:07Z</time>
      </trkpt>
      <trkpt lat="40.251817" lon="-4.917950">
        <ele>1237.0</ele>
        <time>2015-08-01T12:09:09Z</time>
      </trkpt>
      <trkpt lat="40.251733" lon="-4.918100">
        <ele>1232.0</ele>
        <time>2015-08-01T12:09:11Z</time>
      </trkpt>
      <trkpt lat="40.251650" lon="-4.918250">
        <ele>1229.0</ele>
        <time>2015-08-01T12:09:13Z</time>
      </trkpt>
      <trkpt lat="40.251567" lon="-4.918383">
        <ele>1228.0</ele>
        <time>2015-08-01T12:09:15Z</time>
      </trkpt>
      <trkpt lat="40.251467" lon="-4.918500">
        <ele>1224.0</ele>
        <time>2015-08-01T12:09:17Z</time>
      </trkpt>
      <trkpt lat="40.251350" lon="-4.918617">
        <ele>1219.0</ele>
        <time>2015-08-01T12:09:19Z</time>
      </trkpt>
      <trkpt lat="40.251233" lon="-4.918717">
        <ele>1213.0</ele>
        <time>2015-08-01T12:09:21Z</time>
      </trkpt>
      <trkpt lat="40.251100" lon="-4.918833">
        <ele>1206.0</ele>
        <time>2015-08-01T12:09:23Z</time>
      </trkpt>
      <trkpt lat="40.250950" lon="-4.918950">
        <ele>1200.0</ele>
        <time>2015-08-01T12:09:25Z</time>
      </trkpt>
      <trkpt lat="40.250800" lon="-4.919083">
        <ele>1195.0</ele>
        <time>2015-08-01T12:09:27Z</time>
      </trkpt>
      <trkpt lat="40.250683" lon="-4.919233">
        <ele>1190.0</ele>
        <time>2015-08-01T12:09:29Z</time>
      </trkpt>
      <trkpt lat="40.250533" lon="-4.919400">
        <ele>1185.0</ele>
        <time>2015-08-01T12:09:31Z</time>
      </trkpt>
      <trkpt lat="40.250400" lon="-4.919600">
        <ele>1181.0</ele>
        <time>2015-08-01T12:09:33Z</time>
      </trkpt>
      <trkpt lat="40.250250" lon="-4.919833">
        <ele>1178.0</ele>
        <time>2015-08-01T12:09:35Z</time>
      </trkpt>
      <trkpt lat="40.250117" lon="-4.920050">
        <ele>1181.0</ele>
        <time>2015-08-01T12:09:37Z</time>
      </trkpt>
      <trkpt lat="40.250017" lon="-4.920217">
        <ele>1189.0</ele>
        <time>2015-08-01T12:09:39Z</time>
      </trkpt>
      <trkpt lat="40.249967" lon="-4.920367">
        <ele>1192.0</ele>
        <time>2015-08-01T12:09:41Z</time>
      </trkpt>
      <trkpt lat="40.249883" lon="-4.920483">
        <ele>1194.0</ele>
        <time>2015-08-01T12:09:43Z</time>
      </trkpt>
      <trkpt lat="40.249783" lon="-4.920533">
        <ele>1195.0</ele>
        <time>2015-08-01T12:09:45Z</time>
      </trkpt>
      <trkpt lat="40.249650" lon="-4.920483">
        <ele>1194.0</ele>
        <time>2015-08-01T12:09:47Z</time>
      </trkpt>
      <trkpt lat="40.249500" lon="-4.920367">
        <ele>1195.0</ele>
        <time>2015-08-01T12:09:49Z</time>
      </trkpt>
      <trkpt lat="40.249367" lon="-4.920250">
        <ele>1198.0</ele>
        <time>2015-08-01T12:09:51Z</time>
      </trkpt>
      <trkpt lat="40.249250" lon="-4.920083">
        <ele>1201.0</ele>
        <time>2015-08-01T12:09:53Z</time>
      </trkpt>
      <trkpt lat="40.249217" lon="-4.919867">
        <ele>1204.0</ele>
        <time>2015-08-01T12:09:55Z</time>
      </trkpt>
      <trkpt lat="40.249250" lon="-4.919650">
        <ele>1206.0</ele>
        <time>2015-08-01T12:09:57Z</time>
      </trkpt>
      <trkpt lat="40.249350" lon="-4.919500">
        <ele>1207.0</ele>
        <time>2015-08-01T12:09:59Z</time>
      </trkpt>
      <trkpt lat="40.249517" lon="-4.919433">
        <ele>1206.0</ele>
        <time>2015-08-01T12:10:01Z</time>
      </trkpt>
      <trkpt lat="40.249717" lon="-4.919483">
        <ele>1207.0</ele>
        <time>2015-08-01T12:10:03Z</time>
      </trkpt>
      <trkpt lat="40.249850" lon="-4.919583">
        <ele>1211.0</ele>
        <time>2015-08-01T12:10:05Z</time>
      </trkpt>
      <trkpt lat="40.249950" lon="-4.919700">
        <ele>1212.0</ele>
        <time>2015-08-01T12:10:07Z</time>
      </trkpt>
      <trkpt lat="40.250067" lon="-4.919850">
        <ele>1213.0</ele>
        <time>2015-08-01T12:10:09Z</time>
      </trkpt>
      <trkpt lat="40.250183" lon="-4.920000">
        <ele>1218.0</ele>
        <time>2015-08-01T12:10:11Z</time>
      </trkpt>
      <trkpt lat="40.250300" lon="-4.920117">
        <ele>1224.0</ele>
        <time>2015-08-01T12:10:13Z</time>
      </trkpt>
      <trkpt lat="40.250383" lon="-4.920250">
        <ele>1225.0</ele>
        <time>2015-08-01T12:10:15Z</time>
      </trkpt>
      <trkpt lat="40.250417" lon="-4.920450">
        <ele>1224.0</ele>
        <time>2015-08-01T12:10:17Z</time>
      </trkpt>
      <trkpt lat="40.250417" lon="-4.920633">
        <ele>1227.0</ele>
        <time>2015-08-01T12:10:19Z</time>
      </trkpt>
      <trkpt lat="40.250400" lon="-4.920750">
        <ele>1225.0</ele>
        <time>2015-08-01T12:10:21Z</time>
      </trkpt>
      <trkpt lat="40.250283" lon="-4.920850">
        <ele>1219.0</ele>
        <time>2015-08-01T12:10:23Z</time>
      </trkpt>
      <trkpt lat="40.250100" lon="-4.920783">
        <ele>1214.0</ele>
        <time>2015-08-01T12:10:25Z</time>
      </trkpt>
      <trkpt lat="40.249950" lon="-4.920683">
        <ele>1217.0</ele>
        <time>2015-08-01T12:10:27Z</time>
      </trkpt>
      <trkpt lat="40.249833" lon="-4.920567">
        <ele>1218.0</ele>
        <time>2015-08-01T12:10:29Z</time>
      </trkpt>
      <trkpt lat="40.249750" lon="-4.920333">
        <ele>1217.0</ele>
        <time>2015-08-01T12:10:31Z</time>
      </trkpt>
      <trkpt lat="40.249683" lon="-4.920100">
        <ele>1224.0</ele>
        <time>2015-08-01T12:10:33Z</time>
      </trkpt>
      <trkpt lat="40.249617" lon="-4.919967">
        <ele>1227.0</ele>
        <time>2015-08-01T12:10:35Z</time>
      </trkpt>
      <trkpt lat="40.249533" lon="-4.919833">
        <ele>1225.0</ele>
        <time>2015-08-01T12:10:37Z</time>
      </trkpt>
      <trkpt lat="40.249567" lon="-4.919600">
        <ele>1221.0</ele>
        <time>2015-08-01T12:10:39Z</time>
      </trkpt>
      <trkpt lat="40.249667" lon="-4.919417">
        <ele>1222.0</ele>
        <time>2015-08-01T12:10:41Z</time>
      </trkpt>
      <trkpt lat="40.249800" lon="-4.919317">
        <ele>1222.0</ele>
        <time>2015-08-01T12:10:43Z</time>
      </trkpt>
      <trkpt lat="40.249983" lon="-4.919283">
        <ele>1219.0</ele>
        <time>2015-08-01T12:10:45Z</time>
      </trkpt>
      <trkpt lat="40.250183" lon="-4.919300">
        <ele>1221.0</ele>
        <time>2015-08-01T12:10:47Z</time>
      </trkpt>
      <trkpt lat="40.250333" lon="-4.919317">
        <ele>1227.0</ele>
        <time>2015-08-01T12:10:49Z</time>
      </trkpt>
      <trkpt lat="40.250467" lon="-4.919317">
        <ele>1231.0</ele>
        <time>2015-08-01T12:10:51Z</time>
      </trkpt>
      <trkpt lat="40.250600" lon="-4.919417">
        <ele>1232.0</ele>
        <time>2015-08-01T12:10:53Z</time>
      </trkpt>
      <trkpt lat="40.250667" lon="-4.919650">
        <ele>1235.0</ele>
        <time>2015-08-01T12:10:55Z</time>
      </trkpt>
      <trkpt lat="40.250667" lon="-4.919817">
        <ele>1240.0</ele>
        <time>2015-08-01T12:10:57Z</time>
      </trkpt>
      <trkpt lat="40.250633" lon="-4.919983">
        <ele>1242.0</ele>
        <time>2015-08-01T12:10:59Z</time>
      </trkpt>
      <trkpt lat="40.250533" lon="-4.920150">
        <ele>1244.0</ele>
        <time>2015-08-01T12:11:01Z</time>
      </trkpt>
      <trkpt lat="40.250417" lon="-4.920267">
        <ele>1249.0</ele>
        <time>2015-08-01T12:11:03Z</time>
      </trkpt>
      <trkpt lat="40.250300" lon="-4.920317">
        <ele>1252.0</ele>
        <time>2015-08-01T12:11:05Z</time>
      </trkpt>
      <trkpt lat="40.250133" lon="-4.920333">
        <ele>1254.0</ele>
        <time>2015-08-01T12:11:07Z</time>
      </trkpt>
      <trkpt lat="40.249983" lon="-4.920233">
        <ele>1259.0</ele>
        <time>2015-08-01T12:11:09Z</time>
      </trkpt>
      <trkpt lat="40.249917" lon="-4.920133">
        <ele>1264.0</ele>
        <time>2015-08-01T12:11:11Z</time>
      </trkpt>
      <trkpt lat="40.249867" lon="-4.920000">
        <ele>1264.0</ele>
        <time>2015-08-01T12:11:13Z</time>
      </trkpt>
      <trkpt lat="40.249883" lon="-4.919767">
        <ele>1260.0</ele>
        <time>2015-08-01T12:11:15Z</time>
      </trkpt>
      <trkpt lat="40.250000" lon="-4.919583">
        <ele>1265.0</ele>
        <time>2015-08-01T12:11:17Z</time>
      </trkpt>
      <trkpt lat="40.250100" lon="-4.919500">
        <ele>1267.0</ele>
        <time>2015-08-01T12:11:19Z</time>
      </trkpt>
      <trkpt lat="40.250283" lon="-4.919467">
        <ele>1265.0</ele>
        <time>2015-08-01T12:11:21Z</time>
      </trkpt>
      <trkpt lat="40.250483" lon="-4.919467">
        <ele>1272.0</ele>
        <time>2015-08-01T12:11:23Z</time>
      </trkpt>
      <trkpt lat="40.250633" lon="-4.919450">
        <ele>1277.0</ele>
        <time>2015-08-01T12:11:25Z</time>
      </trkpt>
      <trkpt lat="40.250800" lon="-4.919450">
        <ele>1277.0</ele>
        <time>2015-08-01T12:11:27Z</time>
      </trkpt>
      <trkpt lat="40.250983" lon="-4.919550">
        <ele>1279.0</ele>
        <time>2015-08-01T12:11:29Z</time>
      </trkpt>
      <trkpt lat="40.251100" lon="-4.919700">
        <ele>1285.0</ele>
        <time>2015-08-01T12:11:31Z</time>
      </trkpt>
      <trkpt lat="40.251167" lon="-4.919883">
        <ele>1287.0</ele>
        <time>2015-08-01T12:11:33Z</time>
      </trkpt>
      <trkpt lat="40.251150" lon="-4.920117">
        <ele>1288.0</ele>
        <time>2015-08-01T12:11:35Z</time>
      </trkpt>
      <trkpt lat="40.251083" lon="-4.920283">
        <ele>1291.0</ele>
        <time>2015-08-01T12:11:37Z</time>
      </trkpt>
      <trkpt lat="40.250983" lon="-4.920417">
        <ele>1294.0</ele>
        <time>2015-08-01T12:11:39Z</time>
      </trkpt>
      <trkpt lat="40.250833" lon="-4.920483">
        <ele>1297.0</ele>
        <time>2015-08-01T12:11:41Z</time>
      </trkpt>
      <trkpt lat="40.250683" lon="-4.920467">
        <ele>1302.0</ele>
        <time>2015-08-01T12:11:43Z</time>
      </trkpt>
      <trkpt lat="40.250550" lon="-4.920367">
        <ele>1306.0</ele>
        <time>2015-08-01T12:11:45Z</time>
      </trkpt>
      <trkpt lat="40.250450" lon="-4.920200">
        <ele>1311.0</ele>
        <time>2015-08-01T12:11:47Z</time>
      </trkpt>
      <trkpt lat="40.250367" lon="-4.920067">
        <ele>1317.0</ele>
        <time>2015-08-01T12:11:49Z</time>
      </trkpt>
      <trkpt lat="40.250367" lon="-4.919900">
        <ele>1320.0</ele>
        <time>2015-08-01T12:11:51Z</time>
      </trkpt>
      <trkpt lat="40.250467" lon="-4.919733">
        <ele>1320.0</ele>
        <time>2015-08-01T12:11:53Z</time>
      </trkpt>
      <trkpt lat="40.250617" lon="-4.919583">
        <ele>1324.0</ele>
        <time>2015-08-01T12:11:55Z</time>
      </trkpt>
      <trkpt lat="40.250767" lon="-4.919467">
        <ele>1329.0</ele>
        <time>2015-08-01T12:11:57Z</time>
      </trkpt>
      <trkpt lat="40.250950" lon="-4.919433">
        <ele>1332.0</ele>
        <time>2015-08-01T12:11:59Z</time>
      </trkpt>
      <trkpt lat="40.251133" lon="-4.919517">
        <ele>1338.0</ele>
        <time>2015-08-01T12:12:01Z</time>
      </trkpt>
      <trkpt lat="40.251233" lon="-4.919600">
        <ele>1345.0</ele>
        <time>2015-08-01T12:12:03Z</time>
      </trkpt>
      <trkpt lat="40.251317" lon="-4.919767">
        <ele>1346.0</ele>
        <time>2015-08-01T12:12:05Z</time>
      </trkpt>
      <trkpt lat="40.251350" lon="-4.920017">
        <ele>1349.0</ele>
        <time>2015-08-01T12:12:07Z</time>
      </trkpt>
      <trkpt lat="40.251300" lon="-4.920233">
        <ele>1355.0</ele>
        <time>2015-08-01T12:12:09Z</time>
      </trkpt>
      <trkpt lat="40.251233" lon="-4.920400">
        <ele>1363.0</ele>
        <time>2015-08-01T12:12:11Z</time>
      </trkpt>
      <trkpt lat="40.251183" lon="-4.920550">
        <ele>1369.0</ele>
        <time>2015-08-01T12:12:13Z</time>
      </trkpt>
      <trkpt lat="40.251067" lon="-4.920617">
        <ele>1371.0</ele>
        <time>2015-08-01T12:12:15Z</time>
      </trkpt>
      <trkpt lat="40.250917" lon="-4.920617">
        <ele>1375.0</ele>
        <time>2015-08-01T12:12:17Z</time>
      </trkpt>
      <trkpt lat="40.250817" lon="-4.920567">
        <ele>1380.0</ele>
        <time>2015-08-01T12:12:19Z</time>
      </trkpt>
      <trkpt lat="40.250733" lon="-4.920433">
        <ele>1383.0</ele>
        <time>2015-08-01T12:12:21Z</time>
      </trkpt>
      <trkpt lat="40.250700" lon="-4.920217">
        <ele>1386.0</ele>
        <time>2015-08-01T12:12:23Z</time>
      </trkpt>
      <trkpt lat="40.250783" lon="-4.920033">
        <ele>1389.0</ele>
        <time>2015-08-01T12:12:25Z</time>
      </trkpt>
      <trkpt lat="40.250900" lon="-4.919867">
        <ele>1392.0</ele>
        <time>2015-08-01T12:12:27Z</time>
      </trkpt>
      <trkpt lat="40.251067" lon="-4.919733">
        <ele>1395.0</ele>
        <time>2015-08-01T12:12:29Z</time>
      </trkpt>
      <trkpt lat="40.251267" lon="-4.919700">
        <ele>1401.0</ele>
        <time>2015-08-01T12:12:31Z</time>
      </trkpt>
      <trkpt lat="40.251450" lon="-4.919717">
        <ele>1409.0</ele>
        <time>2015-08-01T12:12:33Z</time>
      </trkpt>
      <trkpt lat="40.251633" lon="-4.919767">
        <ele>1416.0</ele>
        <time>2015-08-01T12:12:35Z</time>
      </trkpt>
      <trkpt lat="40.251800" lon="-4.919883">
        <ele>1422.0</ele>
        <time>2015-08-01T12:12:37Z</time>
      </trkpt>
      <trkpt lat="40.251917" lon="-4.920067">
        <ele>1426.0</ele>
        <time>2015-08-01T12:12:39Z</time>
      </trkpt>
      <trkpt lat="40.251933" lon="-4.920300">
        <ele>1428.0</ele>
        <time>2015-08-01T12:12:41Z</time>
      </trkpt>
      <trkpt lat="40.251883" lon="-4.920500">
        <ele>1433.0</ele>
        <time>2015-08-01T12:12:43Z</time>
      </trkpt>
      <trkpt lat="40.251800" lon="-4.920617">
        <ele>1439.0</ele>
        <time>2015-08-01T12:12:45Z</time>
      </trkpt>
      <trkpt lat="40.251683" lon="-4.920650">
        <ele>1440.0</ele>
        <time>2015-08-01T12:12:47Z</time>
      </trkpt>
      <trkpt lat="40.251533" lon="-4.920550">
        <ele>1440.0</ele>
        <time>2015-08-01T12:12:49Z</time>
      </trkpt>
      <trkpt lat="40.251450" lon="-4.920383">
        <ele>1448.0</ele>
        <time>2015-08-01T12:12:51Z</time>
      </trkpt>
      <trkpt lat="40.251417" lon="-4.920217">
        <ele>1455.0</ele>
        <time>2015-08-01T12:12:53Z</time>
      </trkpt>
      <trkpt lat="40.251450" lon="-4.920017">
        <ele>1457.0</ele>
        <time>2015-08-01T12:12:55Z</time>
      </trkpt>
      <trkpt lat="40.251533" lon="-4.919783">
        <ele>1461.0</ele>
        <time>2015-08-01T12:12:57Z</time>
      </trkpt>
      <trkpt lat="40.251667" lon="-4.919600">
        <ele>1471.0</ele>
        <time>2015-08-01T12:12:59Z</time>
      </trkpt>
      <trkpt lat="40.251800" lon="-4.919517">
        <ele>1479.0</ele>
        <time>2015-08-01T12:13:01Z</time>
      </trkpt>
      <trkpt lat="40.251983" lon="-4.919467">
        <ele>1483.0</ele>
        <time>2015-08-01T12:13:03Z</time>
      </trkpt>
      <trkpt lat="40.252167" lon="-4.919567">
        <ele>1488.0</ele>
        <time>2015-08-01T12:13:05Z</time>
      </trkpt>
      <trkpt lat="40.252317" lon="-4.919733">
        <ele>1495.0</ele>
        <time>2015-08-01T12:13:07Z</time>
      </trkpt>
      <trkpt lat="40.252400" lon="-4.919900">
        <ele>1502.0</ele>
        <time>2015-08-01T12:13:09Z</time>
      </trkpt>
      <trkpt lat="40.252400" lon="-4.920117">
        <ele>1504.0</ele>
        <time>2015-08-01T12:13:11Z</time>
      </trkpt>
      <trkpt lat="40.252333" lon="-4.920300">
        <ele>1509.0</ele>
        <time>2015-08-01T12:13:13Z</time>
      </trkpt>
      <trkpt lat="40.252250" lon="-4.920400">
        <ele>1515.0</ele>
        <time>2015-08-01T12:13:15Z</time>
      </trkpt>
      <trkpt lat="40.252150" lon="-4.920450">
        <ele>1517.0</ele>
        <time>2015-08-01T12:13:17Z</time>
      </trkpt>
      <trkpt lat="40.252000" lon="-4.920417">
        <ele>1518.0</ele>
        <time>2015-08-01T12:13:19Z</time>
      </trkpt>
      <trkpt lat="40.251833" lon="-4.920317">
        <ele>1522.0</ele>
        <time>2015-08-01T12:13:21Z</time>
      </trkpt>
      <trkpt lat="40.251767" lon="-4.920150">
        <ele>1529.0</ele>
        <time>2015-08-01T12:13:23Z</time>
      </trkpt>
      <trkpt lat="40.251767" lon="-4.919967">
        <ele>1534.0</ele>
        <time>2015-08-01T12:13:25Z</time>
      </trkpt>
      <trkpt lat="40.251817" lon="-4.919767">
        <ele>1538.0</ele>
        <time>2015-08-01T12:13:27Z</time>
      </trkpt>
      <trkpt lat="40.251950" lon="-4.919533">
        <ele>1543.0</ele>
        <time>2015-08-01T12:13:29Z</time>
      </trkpt>
      <trkpt lat="40.252083" lon="-4.919400">
        <ele>1553.0</ele>
        <time>2015-08-01T12:13:31Z</time>
      </trkpt>
      <trkpt lat="40.252217" lon="-4.919317">
        <ele>1560.0</ele>
        <time>2015-08-01T12:13:33Z</time>
      </trkpt>
      <trkpt lat="40.252417" lon="-4.919267">
        <ele>1564.0</ele>
        <time>2015-08-01T12:13:35Z</time>
      </trkpt>
      <trkpt lat="40.252633" lon="-4.919350">
        <ele>1571.0</ele>
        <time>2015-08-01T12:13:37Z</time>
      </trkpt>
      <trkpt lat="40.252767" lon="-4.919567">
        <ele>1576.0</ele>
        <time>2015-08-01T12:13:39Z</time>
      </trkpt>
      <trkpt lat="40.252850" lon="-4.919800">
        <ele>1583.0</ele>
        <time>2015-08-01T12:13:41Z</time>
      </trkpt>
      <trkpt lat="40.252867" lon="-4.919983">
        <ele>1589.0</ele>
        <time>2015-08-01T12:13:43Z</time>
      </trkpt>
      <trkpt lat="40.252817" lon="-4.920150">
        <ele>1590.0</ele>
        <time>2015-08-01T12:13:45Z</time>
      </trkpt>
      <trkpt lat="40.252667" lon="-4.920233">
        <ele>1595.0</ele>
        <time>2015-08-01T12:13:47Z</time>
      </trkpt>
      <trkpt lat="40.252550" lon="-4.920200">
        <ele>1603.0</ele>
        <time>2015-08-01T12:13:49Z</time>
      </trkpt>
      <trkpt lat="40.252450" lon="-4.920083">
        <ele>1609.0</ele>
        <time>2015-08-01T12:13:51Z</time>
      </trkpt>
      <trkpt lat="40.252383" lon="-4.919900">
        <ele>1612.0</ele>
        <time>2015-08-01T12:13:53Z</time>
      </trkpt>
      <trkpt lat="40.252383" lon="-4.919650">
        <ele>1618.0</ele>
        <time>2015-08-01T12:13:55Z</time>
      </trkpt>
      <trkpt lat="40.252467" lon="-4.919433">
        <ele>1627.0</ele>
        <time>2015-08-01T12:13:57Z</time>
      </trkpt>
      <trkpt lat="40.252550" lon="-4.919283">
        <ele>1636.0</ele>
        <time>2015-08-01T12:13:59Z</time>
      </trkpt>
      <trkpt lat="40.252683" lon="-4.919133">
        <ele>1640.0</ele>
        <time>2015-08-01T12:14:01Z</time>
      </trkpt>
      <trkpt lat="40.252883" lon="-4.919033">
        <ele>1644.0</ele>
        <time>2015-08-01T12:14:03Z</time>
      </trkpt>
      <trkpt lat="40.253100" lon="-4.919017">
        <ele>1653.0</ele>
        <time>2015-08-01T12:14:05Z</time>
      </trkpt>
      <trkpt lat="40.253300" lon="-4.919067">
        <ele>1660.0</ele>
        <time>2015-08-01T12:14:07Z</time>
      </trkpt>
      <trkpt lat="40.253467" lon="-4.919217">
        <ele>1664.0</ele>
        <time>2015-08-01T12:14:09Z</time>
      </trkpt>
      <trkpt lat="40.253583" lon="-4.919433">
        <ele>1665.0</ele>
        <time>2015-08-01T12:14:11Z</time>
      </trkpt>
      <trkpt lat="40.253600" lon="-4.919667">
        <ele>1671.0</ele>
        <time>2015-08-01T12:14:13Z</time>
      </trkpt>
      <trkpt lat="40.253583" lon="-4.919833">
        <ele>1675.0</ele>
        <time>2015-08-01T12:14:15Z</time>
      </trkpt>
      <trkpt lat="40.253500" lon="-4.919950">
        <ele>1678.0</ele>
        <time>2015-08-01T12:14:17Z</time>
      </trkpt>
      <trkpt lat="40.253350" lon="-4.920000">
        <ele>1684.0</ele>
        <time>2015-08-01T12:14:19Z</time>
      </trkpt>
      <trkpt lat="40.253233" lon="-4.919967">
        <ele>1691.0</ele>
        <time>2015-08-01T12:14:21Z</time>
      </trkpt>
      <trkpt lat="40.253133" lon="-4.919867">
        <ele>1697.0</ele>
        <time>2015-08-01T12:14:23Z</time>
      </trkpt>
      <trkpt lat="40.253067" lon="-4.919667">
        <ele>1703.0</ele>
        <time>2015-08-01T12:14:25Z</time>
      </trkpt>
      <trkpt lat="40.253050" lon="-4.919417">
        <ele>1710.0</ele>
        <time>2015-08-01T12:14:27Z</time>
      </trkpt>
      <trkpt lat="40.253117" lon="-4.919183">
        <ele>1716.0</ele>
        <time>2015-08-01T12:14:29Z</time>
      </trkpt>
      <trkpt lat="40.253250" lon="-4.918967">
        <ele>1723.0</ele>
        <time>2015-08-01T12:14:31Z</time>
      </trkpt>
      <trkpt lat="40.253433" lon="-4.918833">
        <ele>1729.0</ele>
        <time>2015-08-01T12:14:33Z</time>
      </trkpt>
      <trkpt lat="40.253650" lon="-4.918783">
        <ele>1735.0</ele>
        <time>2015-08-01T12:14:35Z</time>
      </trkpt>
      <trkpt lat="40.253850" lon="-4.918833">
        <ele>1741.0</ele>
        <time>2015-08-01T12:14:37Z</time>
      </trkpt>
      <trkpt lat="40.254017" lon="-4.919000">
        <ele>1744.0</ele>
        <time>2015-08-01T12:14:39Z</time>
      </trkpt>
      <trkpt lat="40.254117" lon="-4.919200">
        <ele>1751.0</ele>
        <time>2015-08-01T12:14:41Z</time>
      </trkpt>
      <trkpt lat="40.254150" lon="-4.919383">
        <ele>1755.0</ele>
        <time>2015-08-01T12:14:43Z</time>
      </trkpt>
      <trkpt lat="40.254117" lon="-4.919550">
        <ele>1756.0</ele>
        <time>2015-08-01T12:14:45Z</time>
      </trkpt>
      <trkpt lat="40.254017" lon="-4.919667">
        <ele>1760.0</ele>
        <time>2015-08-01T12:14:47Z</time>
      </trkpt>
      <trkpt lat="40.253933" lon="-4.919733">
        <ele>1767.0</ele>
        <time>2015-08-01T12:14:49Z</time>
      </trkpt>
      <trkpt lat="40.253833" lon="-4.919833">
        <ele>1773.0</ele>
        <time>2015-08-01T12:14:51Z</time>
      </trkpt>
      <trkpt lat="40.253700" lon="-4.919833">
        <ele>1781.0</ele>
        <time>2015-08-01T12:14:53Z</time>
      </trkpt>
      <trkpt lat="40.253600" lon="-4.919733">
        <ele>1791.0</ele>
        <time>2015-08-01T12:14:55Z</time>
      </trkpt>
      <trkpt lat="40.253567" lon="-4.919550">
        <ele>1799.0</ele>
        <time>2015-08-01T12:14:57Z</time>
      </trkpt>
      <trkpt lat="40.253617" lon="-4.919333">
        <ele>1807.0</ele>
        <time>2015-08-01T12:14:59Z</time>
      </trkpt>
      <trkpt lat="40.253750" lon="-4.919133">
        <ele>1814.0</ele>
        <time>2015-08-01T12:15:01Z</time>
      </trkpt>
      <trkpt lat="40.253933" lon="-4.918983">
        <ele>1824.0</ele>
        <time>2015-08-01T12:15:03Z</time>
      </trkpt>
      <trkpt lat="40.254167" lon="-4.918950">
        <ele>1833.0</ele>
        <time>2015-08-01T12:15:05Z</time>
      </trkpt>
      <trkpt lat="40.254350" lon="-4.919000">
        <ele>1839.0</ele>
        <time>2015-08-01T12:15:07Z</time>
      </trkpt>
      <trkpt lat="40.254500" lon="-4.919133">
        <ele>1844.0</ele>
        <time>2015-08-01T12:15:09Z</time>
      </trkpt>
      <trkpt lat="40.254600" lon="-4.919267">
        <ele>1850.0</ele>
        <time>2015-08-01T12:15:11Z</time>
      </trkpt>
      <trkpt lat="40.254683" lon="-4.919417">
        <ele>1854.0</ele>
        <time>2015-08-01T12:15:13Z</time>
      </trkpt>
      <trkpt lat="40.254717" lon="-4.919617">
        <ele>1860.0</ele>
        <time>2015-08-01T12:15:15Z</time>
      </trkpt>
      <trkpt lat="40.254683" lon="-4.919767">
        <ele>1868.0</ele>
        <time>2015-08-01T12:15:17Z</time>
      </trkpt>
      <trkpt lat="40.254583" lon="-4.919867">
        <ele>1874.0</ele>
        <time>2015-08-01T12:15:19Z</time>
      </trkpt>
      <trkpt lat="40.254467" lon="-4.919867">
        <ele>1880.0</ele>
        <time>2015-08-01T12:15:21Z</time>
      </trkpt>
      <trkpt lat="40.254350" lon="-4.919783">
        <ele>1887.0</ele>
        <time>2015-08-01T12:15:23Z</time>
      </trkpt>
      <trkpt lat="40.254250" lon="-4.919617">
        <ele>1893.0</ele>
        <time>2015-08-01T12:15:25Z</time>
      </trkpt>
      <trkpt lat="40.254217" lon="-4.919367">
        <ele>1901.0</ele>
        <time>2015-08-01T12:15:27Z</time>
      </trkpt>
      <trkpt lat="40.254283" lon="-4.919133">
        <ele>1911.0</ele>
        <time>2015-08-01T12:15:29Z</time>
      </trkpt>
      <trkpt lat="40.254383" lon="-4.918967">
        <ele>1920.0</ele>
        <time>2015-08-01T12:15:31Z</time>
      </trkpt>
      <trkpt lat="40.254533" lon="-4.918767">
        <ele>1927.0</ele>
        <time>2015-08-01T12:15:33Z</time>
      </trkpt>
      <trkpt lat="40.254750" lon="-4.918650">
        <ele>1938.0</ele>
        <time>2015-08-01T12:15:35Z</time>
      </trkpt>
      <trkpt lat="40.254917" lon="-4.918650">
        <ele>1948.0</ele>
        <time>2015-08-01T12:15:37Z</time>
      </trkpt>
      <trkpt lat="40.255083" lon="-4.918617">
        <ele>1952.0</ele>
        <time>2015-08-01T12:15:39Z</time>
      </trkpt>
      <trkpt lat="40.255283" lon="-4.918683">
        <ele>1953.0</ele>
        <time>2015-08-01T12:15:41Z</time>
      </trkpt>
      <trkpt lat="40.255400" lon="-4.918900">
        <ele>1957.0</ele>
        <time>2015-08-01T12:15:43Z</time>
      </trkpt>
      <trkpt lat="40.255433" lon="-4.919067">
        <ele>1966.0</ele>
        <time>2015-08-01T12:15:45Z</time>
      </trkpt>
      <trkpt lat="40.255433" lon="-4.919200">
        <ele>1972.0</ele>
        <time>2015-08-01T12:15:47Z</time>
      </trkpt>
      <trkpt lat="40.255367" lon="-4.919333">
        <ele>1976.0</ele>
        <time>2015-08-01T12:15:49Z</time>
      </trkpt>
      <trkpt lat="40.255267" lon="-4.919417">
        <ele>1985.0</ele>
        <time>2015-08-01T12:15:51Z</time>
      </trkpt>
      <trkpt lat="40.255167" lon="-4.919433">
        <ele>1993.0</ele>
        <time>2015-08-01T12:15:53Z</time>
      </trkpt>
      <trkpt lat="40.255050" lon="-4.919367">
        <ele>1998.0</ele>
        <time>2015-08-01T12:15:55Z</time>
      </trkpt>
      <trkpt lat="40.254950" lon="-4.919183">
        <ele>2004.0</ele>
        <time>2015-08-01T12:15:57Z</time>
      </trkpt>
      <trkpt lat="40.254917" lon="-4.918950">
        <ele>2013.0</ele>
        <time>2015-08-01T12:15:59Z</time>
      </trkpt>
      <trkpt lat="40.254950" lon="-4.918717">
        <ele>2021.0</ele>
        <time>2015-08-01T12:16:01Z</time>
      </trkpt>
      <trkpt lat="40.255050" lon="-4.918467">
        <ele>2027.0</ele>
        <time>2015-08-01T12:16:03Z</time>
      </trkpt>
      <trkpt lat="40.255250" lon="-4.918300">
        <ele>2035.0</ele>
        <time>2015-08-01T12:16:05Z</time>
      </trkpt>
      <trkpt lat="40.255467" lon="-4.918267">
        <ele>2045.0</ele>
        <time>2015-08-01T12:16:07Z</time>
      </trkpt>
      <trkpt lat="40.255650" lon="-4.918283">
        <ele>2050.0</ele>
        <time>2015-08-01T12:16:09Z</time>
      </trkpt>
      <trkpt lat="40.255817" lon="-4.918417">
        <ele>2054.0</ele>
        <time>2015-08-01T12:16:11Z</time>
      </trkpt>
      <trkpt lat="40.255950" lon="-4.918583">
        <ele>2059.0</ele>
        <time>2015-08-01T12:16:13Z</time>
      </trkpt>
      <trkpt lat="40.256017" lon="-4.918783">
        <ele>2065.0</ele>
        <time>2015-08-01T12:16:15Z</time>
      </trkpt>
      <trkpt lat="40.256017" lon="-4.918967">
        <ele>2070.0</ele>
        <time>2015-08-01T12:16:17Z</time>
      </trkpt>
      <trkpt lat="40.255967" lon="-4.919133">
        <ele>2076.0</ele>
        <time>2015-08-01T12:16:19Z</time>
      </trkpt>
      <trkpt lat="40.255867" lon="-4.919217">
        <ele>2082.0</ele>
        <time>2015-08-01T12:16:21Z</time>
      </trkpt>
      <trkpt lat="40.255750" lon="-4.919217">
        <ele>2087.0</ele>
        <time>2015-08-01T12:16:23Z</time>
      </trkpt>
      <trkpt lat="40.255617" lon="-4.919167">
        <ele>2093.0</ele>
        <time>2015-08-01T12:16:25Z</time>
      </trkpt>
      <trkpt lat="40.255517" lon="-4.919033">
        <ele>2099.0</ele>
        <time>2015-08-01T12:16:27Z</time>
      </trkpt>
      <trkpt lat="40.255433" lon="-4.918833">
        <ele>2104.0</ele>
        <time>2015-08-01T12:16:29Z</time>
      </trkpt>
      <trkpt lat="40.255400" lon="-4.918567">
        <ele>2110.0</ele>
        <time>2015-08-01T12:16:31Z</time>
      </trkpt>
      <trkpt lat="40.255450" lon="-4.918267">
        <ele>2116.0</ele>
        <time>2015-08-01T12:16:33Z</time>
      </trkpt>
      <trkpt lat="40.255567" lon="-4.918017">
        <ele>2125.0</ele>
        <time>2015-08-01T12:16:35Z</time>
      </trkpt>
      <trkpt lat="40.255733" lon="-4.917850">
        <ele>2133.0</ele>
        <time>2015-08-01T12:16:37Z</time>
      </trkpt>
      <trkpt lat="40.255950" lon="-4.917767">
        <ele>2143.0</ele>
        <time>2015-08-01T12:16:39Z</time>
      </trkpt>
      <trkpt lat="40.256117" lon="-4.917817">
        <ele>2152.0</ele>
        <time>2015-08-01T12:16:41Z</time>
      </trkpt>
      <trkpt lat="40.256233" lon="-4.917983">
        <ele>2157.0</ele>
        <time>2015-08-01T12:16:43Z</time>
      </trkpt>
      <trkpt lat="40.256283" lon="-4.918200">
        <ele>2162.0</ele>
        <time>2015-08-01T12:16:45Z</time>
      </trkpt>
      <trkpt lat="40.256267" lon="-4.918400">
        <ele>2170.0</ele>
        <time>2015-08-01T12:16:47Z</time>
      </trkpt>
      <trkpt lat="40.256200" lon="-4.918500">
        <ele>2179.0</ele>
        <time>2015-08-01T12:16:49Z</time>
      </trkpt>
      <trkpt lat="40.256083" lon="-4.918567">
        <ele>2184.0</ele>
        <time>2015-08-01T12:16:51Z</time>
      </trkpt>
      <trkpt lat="40.255933" lon="-4.918517">
        <ele>2192.0</ele>
        <time>2015-08-01T12:16:53Z</time>
      </trkpt>
      <trkpt lat="40.255850" lon="-4.918417">
        <ele>2199.0</ele>
        <time>2015-08-01T12:16:55Z</time>
      </trkpt>
      <trkpt lat="40.255733" lon="-4.918300">
        <ele>2202.0</ele>
        <time>2015-08-01T12:16:57Z</time>
      </trkpt>
      <trkpt lat="40.255650" lon="-4.918100">
        <ele>2206.0</ele>
        <time>2015-08-01T12:16:59Z</time>
      </trkpt>
      <trkpt lat="40.255633" lon="-4.917883">
        <ele>2214.0</ele>
        <time>2015-08-01T12:17:01Z</time>
      </trkpt>
      <trkpt lat="40.255700" lon="-4.917667">
        <ele>2219.0</ele>
        <time>2015-08-01T12:17:03Z</time>
      </trkpt>
      <trkpt lat="40.255850" lon="-4.917417">
        <ele>2221.0</ele>
        <time>2015-08-01T12:17:05Z</time>
      </trkpt>
      <trkpt lat="40.256083" lon="-4.917267">
        <ele>2232.0</ele>
        <time>2015-08-01T12:17:07Z</time>
      </trkpt>
      <trkpt lat="40.256250" lon="-4.917183">
        <ele>2243.0</ele>
        <time>2015-08-01T12:17:09Z</time>
      </trkpt>
      <trkpt lat="40.256450" lon="-4.917117">
        <ele>2249.0</ele>
        <time>2015-08-01T12:17:11Z</time>
      </trkpt>
      <trkpt lat="40.256700" lon="-4.917150">
        <ele>2258.0</ele>
        <time>2015-08-01T12:17:13Z</time>
      </trkpt>
      <trkpt lat="40.256867" lon="-4.917283">
        <ele>2268.0</ele>
        <time>2015-08-01T12:17:15Z</time>
      </trkpt>
      <trkpt lat="40.256967" lon="-4.917433">
        <ele>2279.0</ele>
        <time>2015-08-01T12:17:17Z</time>
      </trkpt>
      <trkpt lat="40.256983" lon="-4.917617">
        <ele>2286.0</ele>
        <time>2015-08-01T12:17:19Z</time>
      </trkpt>
      <trkpt lat="40.256917" lon="-4.917750">
        <ele>2293.0</ele>
        <time>2015-08-01T12:17:21Z</time>
      </trkpt>
      <trkpt lat="40.256767" lon="-4.917750">
        <ele>2300.0</ele>
        <time>2015-08-01T12:17:23Z</time>
      </trkpt>
      <trkpt lat="40.256600" lon="-4.917617">
        <ele>2306.0</ele>
        <time>2015-08-01T12:17:25Z</time>
      </trkpt>
      <trkpt lat="40.256483" lon="-4.917417">
        <ele>2312.0</ele>
        <time>2015-08-01T12:17:27Z</time>
      </trkpt>
      <trkpt lat="40.256417" lon="-4.917183">
        <ele>2317.0</ele>
        <time>2015-08-01T12:17:29Z</time>
      </trkpt>
      <trkpt lat="40.256417" lon="-4.916867">
        <ele>2320.0</ele>
        <time>2015-08-01T12:17:31Z</time>
      </trkpt>
      <trkpt lat="40.256500" lon="-4.916550">
        <ele>2328.0</ele>
        <time>2015-08-01T12:17:33Z</time>
      </trkpt>
      <trkpt lat="40.256633" lon="-4.916300">
        <ele>2339.0</ele>
        <time>2015-08-01T12:17:35Z</time>
      </trkpt>
      <trkpt lat="40.256800" lon="-4.916117">
        <ele>2347.0</ele>
        <time>2015-08-01T12:17:37Z</time>
      </trkpt>
      <trkpt lat="40.257017" lon="-4.916017">
        <ele>2357.0</ele>
        <time>2015-08-01T12:17:39Z</time>
      </trkpt>
      <trkpt lat="40.257200" lon="-4.916033">
        <ele>2368.0</ele>
        <time>2015-08-01T12:17:41Z</time>
      </trkpt>
      <trkpt lat="40.257317" lon="-4.916100">
        <ele>2375.0</ele>
        <time>2015-08-01T12:17:43Z</time>
      </trkpt>
      <trkpt lat="40.257400" lon="-4.916250">
        <ele>2380.0</ele>
        <time>2015-08-01T12:17:45Z</time>
      </trkpt>
      <trkpt lat="40.257417" lon="-4.916450">
        <ele>2387.0</ele>
        <time>2015-08-01T12:17:47Z</time>
      </trkpt>
      <trkpt lat="40.257367" lon="-4.916617">
        <ele>2398.0</ele>
        <time>2015-08-01T12:17:49Z</time>
      </trkpt>
      <trkpt lat="40.257283" lon="-4.916717">
        <ele>2408.0</ele>
        <time>2015-08-01T12:17:51Z</time>
      </trkpt>
      <trkpt lat="40.257167" lon="-4.916750">
        <ele>2415.0</ele>
        <time>2015-08-01T12:17:53Z</time>
      </trkpt>
      <trkpt lat="40.257017" lon="-4.916667">
        <ele>2421.0</ele>
        <time>2015-08-01T12:17:55Z</time>
      </trkpt>
      <trkpt lat="40.256883" lon="-4.916500">
        <ele>2425.0</ele>
        <time>2015-08-01T12:17:57Z</time>
      </trkpt>
      <trkpt lat="40.256783" lon="-4.916233">
        <ele>2429.0</ele>
        <time>2015-08-01T12:17:59Z</time>
      </trkpt>
      <trkpt lat="40.256783" lon="-4.915900">
        <ele>2433.0</ele>
        <time>2015-08-01T12:18:01Z</time>
      </trkpt>
      <trkpt lat="40.256850" lon="-4.915600">
        <ele>2436.0</ele>
        <time>2015-08-01T12:18:03Z</time>
      </trkpt>
      <trkpt lat="40.257017" lon="-4.915317">
        <ele>2442.0</ele>
        <time>2015-08-01T12:18:05Z</time>
      </trkpt>
      <trkpt lat="40.257217" lon="-4.915167">
        <ele>2451.0</ele>
        <time>2015-08-01T12:18:07Z</time>
      </trkpt>
      <trkpt lat="40.257383" lon="-4.915133">
        <ele>2459.0</ele>
        <time>2015-08-01T12:18:09Z</time>
      </trkpt>
      <trkpt lat="40.257533" lon="-4.915183">
        <ele>2464.0</ele>
        <time>2015-08-01T12:18:11Z</time>
      </trkpt>
      <trkpt lat="40.257650" lon="-4.915350">
        <ele>2470.0</ele>
        <time>2015-08-01T12:18:13Z</time>
      </trkpt>
      <trkpt lat="40.257700" lon="-4.915517">
        <ele>2479.0</ele>
        <time>2015-08-01T12:18:15Z</time>
      </trkpt>
      <trkpt lat="40.257700" lon="-4.915650">
        <ele>2489.0</ele>
        <time>2015-08-01T12:18:17Z</time>
      </trkpt>
      <trkpt lat="40.257633" lon="-4.915750">
        <ele>2494.0</ele>
        <time>2015-08-01T12:18:19Z</time>
      </trkpt>
      <trkpt lat="40.257500" lon="-4.915800">
        <ele>2499.0</ele>
        <time>2015-08-01T12:18:21Z</time>
      </trkpt>
      <trkpt lat="40.257350" lon="-4.915750">
        <ele>2503.0</ele>
        <time>2015-08-01T12:18:23Z</time>
      </trkpt>
      <trkpt lat="40.257200" lon="-4.915600">
        <ele>2508.0</ele>
        <time>2015-08-01T12:18:25Z</time>
      </trkpt>
      <trkpt lat="40.257100" lon="-4.915383">
        <ele>2511.0</ele>
        <time>2015-08-01T12:18:27Z</time>
      </trkpt>
      <trkpt lat="40.257050" lon="-4.915100">
        <ele>2509.0</ele>
        <time>2015-08-01T12:18:29Z</time>
      </trkpt>
      <trkpt lat="40.257050" lon="-4.914733">
        <ele>2510.0</ele>
        <time>2015-08-01T12:18:31Z</time>
      </trkpt>
      <trkpt lat="40.257100" lon="-4.914417">
        <ele>2514.0</ele>
        <time>2015-08-01T12:18:33Z</time>
      </trkpt>
      <trkpt lat="40.257183" lon="-4.914133">
        <ele>2520.0</ele>
        <time>2015-08-01T12:18:35Z</time>
      </trkpt>
      <trkpt lat="40.257317" lon="-4.913883">
        <ele>2525.0</ele>
        <time>2015-08-01T12:18:37Z</time>
      </trkpt>
      <trkpt lat="40.257500" lon="-4.913717">
        <ele>2526.0</ele>
        <time>2015-08-01T12:18:39Z</time>
      </trkpt>
      <trkpt lat="40.257717" lon="-4.913700">
        <ele>2527.0</ele>
        <time>2015-08-01T12:18:41Z</time>
      </trkpt>
      <trkpt lat="40.257850" lon="-4.913800">
        <ele>2531.0</ele>
        <time>2015-08-01T12:18:43Z</time>
      </trkpt>
      <trkpt lat="40.257917" lon="-4.913933">
        <ele>2536.0</ele>
        <time>2015-08-01T12:18:45Z</time>
      </trkpt>
      <trkpt lat="40.257917" lon="-4.914083">
        <ele>2540.0</ele>
        <time>2015-08-01T12:18:47Z</time>
      </trkpt>
      <trkpt lat="40.257867" lon="-4.914250">
        <ele>2545.0</ele>
        <time>2015-08-01T12:18:49Z</time>
      </trkpt>
      <trkpt lat="40.257833" lon="-4.914367">
        <ele>2551.0</ele>
        <time>2015-08-01T12:18:51Z</time>
      </trkpt>
      <trkpt lat="40.257833" lon="-4.914483">
        <ele>2555.0</ele>
        <time>2015-08-01T12:18:53Z</time>
      </trkpt>
      <trkpt lat="40.257783" lon="-4.914583">
        <ele>2557.0</ele>
        <time>2015-08-01T12:18:55Z</time>
      </trkpt>
      <trkpt lat="40.257683" lon="-4.914683">
        <ele>2559.0</ele>
        <time>2015-08-01T12:18:57Z</time>
      </trkpt>
      <trkpt lat="40.257583" lon="-4.914750">
        <ele>2562.0</ele>
        <time>2015-08-01T12:18:59Z</time>
      </trkpt>
      <trkpt lat="40.257483" lon="-4.914817">
        <ele>2566.0</ele>
        <time>2015-08-01T12:19:01Z</time>
      </trkpt>
      <trkpt lat="40.257383" lon="-4.914867">
        <ele>2570.0</ele>
        <time>2015-08-01T12:19:03Z</time>
      </trkpt>
      <trkpt lat="40.257267" lon="-4.914933">
        <ele>2573.0</ele>
        <time>2015-08-01T12:19:05Z</time>
      </trkpt>
      <trkpt lat="40.257150" lon="-4.915000">
        <ele>2575.0</ele>
        <time>2015-08-01T12:19:07Z</time>
      </trkpt>
      <trkpt lat="40.257050" lon="-4.915050">
        <ele>2577.0</ele>
        <time>2015-08-01T12:19:09Z</time>
      </trkpt>
      <trkpt lat="40.256950" lon="-4.915167">
        <ele>2577.0</ele>
        <time>2015-08-01T12:19:11Z</time>
      </trkpt>
      <trkpt lat="40.256817" lon="-4.915317">
        <ele>2583.0</ele>
        <time>2015-08-01T12:19:13Z</time>
      </trkpt>
      <trkpt lat="40.256717" lon="-4.915367">
        <ele>2591.0</ele>
        <time>2015-08-01T12:19:15Z</time>
      </trkpt>
      <trkpt lat="40.256617" lon="-4.915367">
        <ele>2590.0</ele>
        <time>2015-08-01T12:19:17Z</time>
      </trkpt>
      <trkpt lat="40.256500" lon="-4.915400">
        <ele>2586.0</ele>
        <time>2015-08-01T12:19:19Z</time>
      </trkpt>
      <trkpt lat="40.256350" lon="-4.915450">
        <ele>2582.0</ele>
        <time>2015-08-01T12:19:21Z</time>
      </trkpt>
      <trkpt lat="40.256183" lon="-4.915533">
        <ele>2580.0</ele>
        <time>2015-08-01T12:19:23Z</time>
      </trkpt>
      <trkpt lat="40.256033" lon="-4.915617">
        <ele>2578.0</ele>
        <time>2015-08-01T12:19:25Z</time>
      </trkpt>
      <trkpt lat="40.255867" lon="-4.915733">
        <ele>2576.0</ele>
        <time>2015-08-01T12:19:27Z</time>
      </trkpt>
      <trkpt lat="40.255733" lon="-4.915867">
        <ele>2578.0</ele>
        <time>2015-08-01T12:19:29Z</time>
      </trkpt>
      <trkpt lat="40.255633" lon="-4.915967">
        <ele>2578.0</ele>
        <time>2015-08-01T12:19:31Z</time>
      </trkpt>
      <trkpt lat="40.255483" lon="-4.916117">
        <ele>2573.0</ele>
        <time>2015-08-01T12:19:33Z</time>
      </trkpt>
      <trkpt lat="40.255283" lon="-4.916317">
        <ele>2572.0</ele>
        <time>2015-08-01T12:19:35Z</time>
      </trkpt>
      <trkpt lat="40.255050" lon="-4.916517">
        <ele>2581.0</ele>
        <time>2015-08-01T12:19:37Z</time>
      </trkpt>
      <trkpt lat="40.254917" lon="-4.916700">
        <ele>2596.0</ele>
        <time>2015-08-01T12:19:39Z</time>
      </trkpt>
      <trkpt lat="40.254800" lon="-4.916800">
        <ele>2606.0</ele>
        <time>2015-08-01T12:19:41Z</time>
      </trkpt>
      <trkpt lat="40.254667" lon="-4.916900">
        <ele>2613.0</ele>
        <time>2015-08-01T12:19:43Z</time>
      </trkpt>
      <trkpt lat="40.254550" lon="-4.917000">
        <ele>2620.0</ele>
        <time>2015-08-01T12:19:45Z</time>
      </trkpt>
      <trkpt lat="40.254450" lon="-4.917117">
        <ele>2623.0</ele>
        <time>2015-08-01T12:19:47Z</time>
      </trkpt>
      <trkpt lat="40.254333" lon="-4.917300">
        <ele>2624.0</ele>
        <time>2015-08-01T12:19:49Z</time>
      </trkpt>
      <trkpt lat="40.254217" lon="-4.917483">
        <ele>2627.0</ele>
        <time>2015-08-01T12:19:51Z</time>
      </trkpt>
      <trkpt lat="40.254100" lon="-4.917633">
        <ele>2628.0</ele>
        <time>2015-08-01T12:19:53Z</time>
      </trkpt>
      <trkpt lat="40.253983" lon="-4.917783">
        <ele>2625.0</ele>
        <time>2015-08-01T12:19:55Z</time>
      </trkpt>
      <trkpt lat="40.253833" lon="-4.917950">
        <ele>2624.0</ele>
        <time>2015-08-01T12:19:57Z</time>
      </trkpt>
      <trkpt lat="40.253683" lon="-4.918083">
        <ele>2624.0</ele>
        <time>2015-08-01T12:19:59Z</time>
      </trkpt>
      <trkpt lat="40.253517" lon="-4.918217">
        <ele>2622.0</ele>
        <time>2015-08-01T12:20:01Z</time>
      </trkpt>
      <trkpt lat="40.253350" lon="-4.918350">
        <ele>2618.0</ele>
        <time>2015-08-01T12:20:03Z</time>
      </trkpt>
      <trkpt lat="40.253183" lon="-4.918517">
        <ele>2614.0</ele>
        <time>2015-08-01T12:20:05Z</time>
      </trkpt>
      <trkpt lat="40.253050" lon="-4.918683">
        <ele>2613.0</ele>
        <time>2015-08-01T12:20:07Z</time>
      </trkpt>
      <trkpt lat="40.252950" lon="-4.918817">
        <ele>2609.0</ele>
        <time>2015-08-01T12:20:09Z</time>
      </trkpt>
      <trkpt lat="40.252833" lon="-4.918950">
        <ele>2603.0</ele>
        <time>2015-08-01T12:20:11Z</time>
      </trkpt>
      <trkpt lat="40.252767" lon="-4.919150">
        <ele>2596.0</ele>
        <time>2015-08-01T12:20:13Z</time>
      </trkpt>
      <trkpt lat="40.252650" lon="-4.919383">
        <ele>2592.0</ele>
        <time>2015-08-01T12:20:15Z</time>
      </trkpt>
      <trkpt lat="40.252517" lon="-4.919550">
        <ele>2590.0</ele>
        <time>2015-08-01T12:20:17Z</time>
      </trkpt>
      <trkpt lat="40.252400" lon="-4.919733">
        <ele>2585.0</ele>
        <time>2015-08-01T12:20:19Z</time>
      </trkpt>
      <trkpt lat="40.252267" lon="-4.919900">
        <ele>2580.0</ele>
        <time>2015-08-01T12:20:21Z</time>
      </trkpt>
      <trkpt lat="40.252167" lon="-4.920050">
        <ele>2576.0</ele>
        <time>2015-08-01T12:20:23Z</time>
      </trkpt>
      <trkpt lat="40.252100" lon="-4.920217">
        <ele>2573.0</ele>
        <time>2015-08-01T12:20:25Z</time>
      </trkpt>
      <trkpt lat="40.252033" lon="-4.920383">
        <ele>2569.0</ele>
        <time>2015-08-01T12:20:27Z</time>
      </trkpt>
      <trkpt lat="40.251967" lon="-4.920533">
        <ele>2566.0</ele>
        <time>2015-08-01T12:20:29Z</time>
      </trkpt>
      <trkpt lat="40.251850" lon="-4.920667">
        <ele>2562.0</ele>
        <time>2015-08-01T12:20:31Z</time>
      </trkpt>
      <trkpt lat="40.251650" lon="-4.920767">
        <ele>2559.0</ele>
        <time>2015-08-01T12:20:33Z</time>
      </trkpt>
      <trkpt lat="40.251483" lon="-4.920867">
        <ele>2556.0</ele>
        <time>2015-08-01T12:20:35Z</time>
      </trkpt>
      <trkpt lat="40.251300" lon="-4.920983">
        <ele>2552.0</ele>
        <time>2015-08-01T12:20:37Z</time>
      </trkpt>
      <trkpt lat="40.251117" lon="-4.921117">
        <ele>2548.0</ele>
        <time>2015-08-01T12:20:39Z</time>
      </trkpt>
      <trkpt lat="40.250950" lon="-4.921267">
        <ele>2546.0</ele>
        <time>2015-08-01T12:20:41Z</time>
      </trkpt>
      <trkpt lat="40.250750" lon="-4.921400">
        <ele>2543.0</ele>
        <time>2015-08-01T12:20:43Z</time>
      </trkpt>
      <trkpt lat="40.250567" lon="-4.921533">
        <ele>2540.0</ele>
        <time>2015-08-01T12:20:45Z</time>
      </trkpt>
      <trkpt lat="40.250367" lon="-4.921667">
        <ele>2539.0</ele>
        <time>2015-08-01T12:20:47Z</time>
      </trkpt>
      <trkpt lat="40.250217" lon="-4.921800">
        <ele>2536.0</ele>
        <time>2015-08-01T12:20:49Z</time>
      </trkpt>
      <trkpt lat="40.250033" lon="-4.921950">
        <ele>2532.0</ele>
        <time>2015-08-01T12:20:51Z</time>
      </trkpt>
      <trkpt lat="40.249850" lon="-4.922083">
        <ele>2531.0</ele>
        <time>2015-08-01T12:20:53Z</time>
      </trkpt>
      <trkpt lat="40.249700" lon="-4.922217">
        <ele>2532.0</ele>
        <time>2015-08-01T12:20:55Z</time>
      </trkpt>
      <trkpt lat="40.249533" lon="-4.922350">
        <ele>2530.0</ele>
        <time>2015-08-01T12:20:57Z</time>
      </trkpt>
      <trkpt lat="40.249350" lon="-4.922500">
        <ele>2531.0</ele>
        <time>2015-08-01T12:20:59Z</time>
      </trkpt>
      <trkpt lat="40.249200" lon="-4.922633">
        <ele>2533.0</ele>
        <time>2015-08-01T12:21:01Z</time>
      </trkpt>
      <trkpt lat="40.249067" lon="-4.922783">
        <ele>2533.0</ele>
        <time>2015-08-01T12:21:03Z</time>
      </trkpt>
      <trkpt lat="40.248900" lon="-4.922967">
        <ele>2532.0</ele>
        <time>2015-08-01T12:21:05Z</time>
      </trkpt>
      <trkpt lat="40.248733" lon="-4.923133">
        <ele>2533.0</ele>
        <time>2015-08-01T12:21:07Z</time>
      </trkpt>
      <trkpt lat="40.248600" lon="-4.923267">
        <ele>2532.0</ele>
        <time>2015-08-01T12:21:09Z</time>
      </trkpt>
      <trkpt lat="40.248467" lon="-4.923433">
        <ele>2528.0</ele>
        <time>2015-08-01T12:21:11Z</time>
      </trkpt>
      <trkpt lat="40.248333" lon="-4.923600">
        <ele>2524.0</ele>
        <time>2015-08-01T12:21:13Z</time>
      </trkpt>
      <trkpt lat="40.248217" lon="-4.923717">
        <ele>2519.0</ele>
        <time>2015-08-01T12:21:15Z</time>
      </trkpt>
      <trkpt lat="40.248083" lon="-4.923850">
        <ele>2510.0</ele>
        <time>2015-08-01T12:21:17Z</time>
      </trkpt>
      <trkpt lat="40.247950" lon="-4.924000">
        <ele>2503.0</ele>
        <time>2015-08-01T12:21:19Z</time>
      </trkpt>
      <trkpt lat="40.247883" lon="-4.924133">
        <ele>2503.0</ele>
        <time>2015-08-01T12:21:21Z</time>
      </trkpt>
      <trkpt lat="40.247800" lon="-4.924183">
        <ele>2497.0</ele>
        <time>2015-08-01T12:21:23Z</time>
      </trkpt>
      <trkpt lat="40.247650" lon="-4.924233">
        <ele>2489.0</ele>
        <time>2015-08-01T12:21:25Z</time>
      </trkpt>
      <trkpt lat="40.247483" lon="-4.924283">
        <ele>2485.0</ele>
        <time>2015-08-01T12:21:27Z</time>
      </trkpt>
      <trkpt lat="40.247367" lon="-4.924317">
        <ele>2481.0</ele>
        <time>2015-08-01T12:21:29Z</time>
      </trkpt>
      <trkpt lat="40.247233" lon="-4.924367">
        <ele>2473.0</ele>
        <time>2015-08-01T12:21:31Z</time>
      </trkpt>
      <trkpt lat="40.247100" lon="-4.924450">
        <ele>2467.0</ele>
        <time>2015-08-01T12:21:33Z</time>
      </trkpt>
      <trkpt lat="40.246967" lon="-4.924500">
        <ele>2462.0</ele>
        <time>2015-08-01T12:21:35Z</time>
      </trkpt>
      <trkpt lat="40.246833" lon="-4.924550">
        <ele>2454.0</ele>
        <time>2015-08-01T12:21:37Z</time>
      </trkpt>
      <trkpt lat="40.246700" lon="-4.924617">
        <ele>2447.0</ele>
        <time>2015-08-01T12:21:39Z</time>
      </trkpt>
      <trkpt lat="40.246567" lon="-4.924683">
        <ele>2442.0</ele>
        <time>2015-08-01T12:21:41Z</time>
      </trkpt>
      <trkpt lat="40.246433" lon="-4.924733">
        <ele>2434.0</ele>
        <time>2015-08-01T12:21:43Z</time>
      </trkpt>
      <trkpt lat="40.246300" lon="-4.924867">
        <ele>2426.0</ele>
        <time>2015-08-01T12:21:45Z</time>
      </trkpt>
      <trkpt lat="40.246183" lon="-4.924983">
        <ele>2423.0</ele>
        <time>2015-08-01T12:21:47Z</time>
      </trkpt>
      <trkpt lat="40.246067" lon="-4.925083">
        <ele>2420.0</ele>
        <time>2015-08-01T12:21:49Z</time>
      </trkpt>
      <trkpt lat="40.245967" lon="-4.925200">
        <ele>2415.0</ele>
        <time>2015-08-01T12:21:51Z</time>
      </trkpt>
      <trkpt lat="40.245833" lon="-4.925300">
        <ele>2410.0</ele>
        <time>2015-08-01T12:21:53Z</time>
      </trkpt>
      <trkpt lat="40.245700" lon="-4.925383">
        <ele>2407.0</ele>
        <time>2015-08-01T12:21:55Z</time>
      </trkpt>
      <trkpt lat="40.245600" lon="-4.925483">
        <ele>2403.0</ele>
        <time>2015-08-01T12:21:57Z</time>
      </trkpt>
      <trkpt lat="40.245467" lon="-4.925600">
        <ele>2397.0</ele>
        <time>2015-08-01T12:21:59Z</time>
      </trkpt>
      <trkpt lat="40.245333" lon="-4.925733">
        <ele>2392.0</ele>
        <time>2015-08-01T12:22:01Z</time>
      </trkpt>
      <trkpt lat="40.245200" lon="-4.925867">
        <ele>2392.0</ele>
        <time>2015-08-01T12:22:03Z</time>
      </trkpt>
      <trkpt lat="40.245083" lon="-4.925967">
        <ele>2390.0</ele>
        <time>2015-08-01T12:22:05Z</time>
      </trkpt>
      <trkpt lat="40.244983" lon="-4.926067">
        <ele>2385.0</ele>
        <time>2015-08-01T12:22:07Z</time>
      </trkpt>
      <trkpt lat="40.244883" lon="-4.926167">
        <ele>2381.0</ele>
        <time>2015-08-01T12:22:09Z</time>
      </trkpt>
      <trkpt lat="40.244800" lon="-4.926217">
        <ele>2377.0</ele>
        <time>2015-08-01T12:22:11Z</time>
      </trkpt>
      <trkpt lat="40.244717" lon="-4.926267">
        <ele>2369.0</ele>
        <time>2015-08-01T12:22:13Z</time>
      </trkpt>
      <trkpt lat="40.244600" lon="-4.926350">
        <ele>2361.0</ele>
        <time>2015-08-01T12:22:15Z</time>
      </trkpt>
      <trkpt lat="40.244500" lon="-4.926417">
        <ele>2355.0</ele>
        <time>2015-08-01T12:22:17Z</time>
      </trkpt>
      <trkpt lat="40.244400" lon="-4.926517">
        <ele>2349.0</ele>
        <time>2015-08-01T12:22:19Z</time>
      </trkpt>
      <trkpt lat="40.244300" lon="-4.926600">
        <ele>2345.0</ele>
        <time>2015-08-01T12:22:21Z</time>
      </trkpt>
      <trkpt lat="40.244183" lon="-4.926700">
        <ele>2339.0</ele>
        <time>2015-08-01T12:22:23Z</time>
      </trkpt>
      <trkpt lat="40.244083" lon="-4.926833">
        <ele>2334.0</ele>
        <time>2015-08-01T12:22:25Z</time>
      </trkpt>
      <trkpt lat="40.243950" lon="-4.926967">
        <ele>2332.0</ele>
        <time>2015-08-01T12:22:27Z</time>
      </trkpt>
      <trkpt lat="40.243833" lon="-4.927100">
        <ele>2331.0</ele>
        <time>2015-08-01T12:22:29Z</time>
      </trkpt>
      <trkpt lat="40.243717" lon="-4.927217">
        <ele>2331.0</ele>
        <time>2015-08-01T12:22:31Z</time>
      </trkpt>
      <trkpt lat="40.243583" lon="-4.927333">
        <ele>2330.0</ele>
        <time>2015-08-01T12:22:33Z</time>
      </trkpt>
      <trkpt lat="40.243467" lon="-4.927433">
        <ele>2329.0</ele>
        <time>2015-08-01T12:22:35Z</time>
      </trkpt>
      <trkpt lat="40.243367" lon="-4.927533">
        <ele>2329.0</ele>
        <time>2015-08-01T12:22:37Z</time>
      </trkpt>
      <trkpt lat="40.243267" lon="-4.927633">
        <ele>2328.0</ele>
        <time>2015-08-01T12:22:39Z</time>
      </trkpt>
      <trkpt lat="40.243183" lon="-4.927750">
        <ele>2325.0</ele>
        <time>2015-08-01T12:22:41Z</time>
      </trkpt>
      <trkpt lat="40.243083" lon="-4.927867">
        <ele>2324.0</ele>
        <time>2015-08-01T12:22:43Z</time>
      </trkpt>
      <trkpt lat="40.243000" lon="-4.928000">
        <ele>2324.0</ele>
        <time>2015-08-01T12:22:45Z</time>
      </trkpt>
      <trkpt lat="40.242933" lon="-4.928117">
        <ele>2324.0</ele>
        <time>2015-08-01T12:22:47Z</time>
      </trkpt>
      <trkpt lat="40.242867" lon="-4.928217">
        <ele>2324.0</ele>
        <time>2015-08-01T12:22:49Z</time>
      </trkpt>
      <trkpt lat="40.242783" lon="-4.928317">
        <ele>2322.0</ele>
        <time>2015-08-01T12:22:51Z</time>
      </trkpt>
      <trkpt lat="40.242717" lon="-4.928400">
        <ele>2320.0</ele>
        <time>2015-08-01T12:22:53Z</time>
      </trkpt>
      <trkpt lat="40.242650" lon="-4.928483">
        <ele>2317.0</ele>
        <time>2015-08-01T12:22:55Z</time>
      </trkpt>
      <trkpt lat="40.242567" lon="-4.928567">
        <ele>2313.0</ele>
        <time>2015-08-01T12:22:57Z</time>
      </trkpt>
      <trkpt lat="40.242500" lon="-4.928667">
        <ele>2309.0</ele>
        <time>2015-08-01T12:22:59Z</time>
      </trkpt>
      <trkpt lat="40.242400" lon="-4.928733">
        <ele>2305.0</ele>
        <time>2015-08-01T12:23:01Z</time>
      </trkpt>
      <trkpt lat="40.242300" lon="-4.928817">
        <ele>2300.0</ele>
        <time>2015-08-01T12:23:03Z</time>
      </trkpt>
      <trkpt lat="40.242217" lon="-4.928933">
        <ele>2295.0</ele>
        <time>2015-08-01T12:23:05Z</time>
      </trkpt>
      <trkpt lat="40.242133" lon="-4.929117">
        <ele>2292.0</ele>
        <time>2015-08-01T12:23:07Z</time>
      </trkpt>
      <trkpt lat="40.242067" lon="-4.929283">
        <ele>2293.0</ele>
        <time>2015-08-01T12:23:09Z</time>
      </trkpt>
      <trkpt lat="40.241983" lon="-4.929417">
        <ele>2292.0</ele>
        <time>2015-08-01T12:23:11Z</time>
      </trkpt>
      <trkpt lat="40.241900" lon="-4.929567">
        <ele>2290.0</ele>
        <time>2015-08-01T12:23:13Z</time>
      </trkpt>
      <trkpt lat="40.241817" lon="-4.929700">
        <ele>2290.0</ele>
        <time>2015-08-01T12:23:15Z</time>
      </trkpt>
      <trkpt lat="40.241733" lon="-4.929817">
        <ele>2288.0</ele>
        <time>2015-08-01T12:23:17Z</time>
      </trkpt>
      <trkpt lat="40.241633" lon="-4.929933">
        <ele>2286.0</ele>
        <time>2015-08-01T12:23:19Z</time>
      </trkpt>
      <trkpt lat="40.241533" lon="-4.930067">
        <ele>2284.0</ele>
        <time>2015-08-01T12:23:21Z</time>
      </trkpt>
      <trkpt lat="40.241467" lon="-4.930200">
        <ele>2286.0</ele>
        <time>2015-08-01T12:23:23Z</time>
      </trkpt>
      <trkpt lat="40.241400" lon="-4.930300">
        <ele>2285.0</ele>
        <time>2015-08-01T12:23:25Z</time>
      </trkpt>
      <trkpt lat="40.241317" lon="-4.930450">
        <ele>2283.0</ele>
        <time>2015-08-01T12:23:27Z</time>
      </trkpt>
      <trkpt lat="40.241233" lon="-4.930583">
        <ele>2282.0</ele>
        <time>2015-08-01T12:23:29Z</time>
      </trkpt>
      <trkpt lat="40.241133" lon="-4.930700">
        <ele>2281.0</ele>
        <time>2015-08-01T12:23:31Z</time>
      </trkpt>
      <trkpt lat="40.241033" lon="-4.930800">
        <ele>2280.0</ele>
        <time>2015-08-01T12:23:33Z</time>
      </trkpt>
      <trkpt lat="40.240933" lon="-4.930933">
        <ele>2280.0</ele>
        <time>2015-08-01T12:23:35Z</time>
      </trkpt>
      <trkpt lat="40.240833" lon="-4.931050">
        <ele>2282.0</ele>
        <time>2015-08-01T12:23:37Z</time>
      </trkpt>
      <trkpt lat="40.240750" lon="-4.931150">
        <ele>2283.0</ele>
        <time>2015-08-01T12:23:39Z</time>
      </trkpt>
      <trkpt lat="40.240650" lon="-4.931267">
        <ele>2282.0</ele>
        <time>2015-08-01T12:23:41Z</time>
      </trkpt>
      <trkpt lat="40.240567" lon="-4.931383">
        <ele>2282.0</ele>
        <time>2015-08-01T12:23:43Z</time>
      </trkpt>
      <trkpt lat="40.240467" lon="-4.931500">
        <ele>2283.0</ele>
        <time>2015-08-01T12:23:45Z</time>
      </trkpt>
      <trkpt lat="40.240367" lon="-4.931633">
        <ele>2285.0</ele>
        <time>2015-08-01T12:23:47Z</time>
      </trkpt>
      <trkpt lat="40.240283" lon="-4.931783">
        <ele>2285.0</ele>
        <time>2015-08-01T12:23:49Z</time>
      </trkpt>
      <trkpt lat="40.240200" lon="-4.931967">
        <ele>2283.0</ele>
        <time>2015-08-01T12:23:51Z</time>
      </trkpt>
      <trkpt lat="40.240083" lon="-4.932167">
        <ele>2282.0</ele>
        <time>2015-08-01T12:23:53Z</time>
      </trkpt>
      <trkpt lat="40.240000" lon="-4.932333">
        <ele>2286.0</ele>
        <time>2015-08-01T12:23:55Z</time>
      </trkpt>
      <trkpt lat="40.239967" lon="-4.932450">
        <ele>2289.0</ele>
        <time>2015-08-01T12:23:57Z</time>
      </trkpt>
      <trkpt lat="40.239950" lon="-4.932600">
        <ele>2289.0</ele>
        <time>2015-08-01T12:23:59Z</time>
      </trkpt>
      <trkpt lat="40.239917" lon="-4.932767">
        <ele>2291.0</ele>
        <time>2015-08-01T12:24:01Z</time>
      </trkpt>
      <trkpt lat="40.239883" lon="-4.932917">
        <ele>2292.0</ele>
        <time>2015-08-01T12:24:03Z</time>
      </trkpt>
      <trkpt lat="40.239833" lon="-4.933100">
        <ele>2291.0</ele>
        <time>2015-08-01T12:24:05Z</time>
      </trkpt>
      <trkpt lat="40.239750" lon="-4.933217">
        <ele>2292.0</ele>
        <time>2015-08-01T12:24:07Z</time>
      </trkpt>
      <trkpt lat="40.239700" lon="-4.933333">
        <ele>2288.0</ele>
        <time>2015-08-01T12:24:09Z</time>
      </trkpt>
      <trkpt lat="40.239650" lon="-4.933517">
        <ele>2282.0</ele>
        <time>2015-08-01T12:24:11Z</time>
      </trkpt>
      <trkpt lat="40.239600" lon="-4.933700">
        <ele>2279.0</ele>
        <time>2015-08-01T12:24:13Z</time>
      </trkpt>
      <trkpt lat="40.239550" lon="-4.933817">
        <ele>2278.0</ele>
        <time>2015-08-01T12:24:15Z</time>
      </trkpt>
      <trkpt lat="40.239483" lon="-4.933917">
        <ele>2272.0</ele>
        <time>2015-08-01T12:24:17Z</time>
      </trkpt>
      <trkpt lat="40.239400" lon="-4.934050">
        <ele>2266.0</ele>
        <time>2015-08-01T12:24:19Z</time>
      </trkpt>
      <trkpt lat="40.239300" lon="-4.934183">
        <ele>2262.0</ele>
        <time>2015-08-01T12:24:21Z</time>
      </trkpt>
      <trkpt lat="40.239233" lon="-4.934300">
        <ele>2258.0</ele>
        <time>2015-08-01T12:24:23Z</time>
      </trkpt>
      <trkpt lat="40.239167" lon="-4.934433">
        <ele>2253.0</ele>
        <time>2015-08-01T12:24:25Z</time>
      </trkpt>
      <trkpt lat="40.239083" lon="-4.934583">
        <ele>2250.0</ele>
        <time>2015-08-01T12:24:27Z</time>
      </trkpt>
      <trkpt lat="40.239017" lon="-4.934733">
        <ele>2248.0</ele>
        <time>2015-08-01T12:24:29Z</time>
      </trkpt>
      <trkpt lat="40.238917" lon="-4.934883">
        <ele>2247.0</ele>
        <time>2015-08-01T12:24:31Z</time>
      </trkpt>
      <trkpt lat="40.238800" lon="-4.935033">
        <ele>2246.0</ele>
        <time>2015-08-01T12:24:33Z</time>
      </trkpt>
      <trkpt lat="40.238683" lon="-4.935183">
        <ele>2247.0</ele>
        <time>2015-08-01T12:24:35Z</time>
      </trkpt>
      <trkpt lat="40.238600" lon="-4.935300">
        <ele>2250.0</ele>
        <time>2015-08-01T12:24:37Z</time>
      </trkpt>
      <trkpt lat="40.238550" lon="-4.935383">
        <ele>2247.0</ele>
        <time>2015-08-01T12:24:39Z</time>
      </trkpt>
      <trkpt lat="40.238483" lon="-4.935483">
        <ele>2240.0</ele>
        <time>2015-08-01T12:24:41Z</time>
      </trkpt>
      <trkpt lat="40.238383" lon="-4.935667">
        <ele>2234.0</ele>
        <time>2015-08-01T12:24:43Z</time>
      </trkpt>
      <trkpt lat="40.238317" lon="-4.935833">
        <ele>2235.0</ele>
        <time>2015-08-01T12:24:45Z</time>
      </trkpt>
      <trkpt lat="40.238233" lon="-4.935950">
        <ele>2233.0</ele>
        <time>2015-08-01T12:24:47Z</time>
      </trkpt>
      <trkpt lat="40.238150" lon="-4.936100">
        <ele>2228.0</ele>
        <time>2015-08-01T12:24:49Z</time>
      </trkpt>
      <trkpt lat="40.238050" lon="-4.936250">
        <ele>2227.0</ele>
        <time>2015-08-01T12:24:51Z</time>
      </trkpt>
      <trkpt lat="40.237967" lon="-4.936350">
        <ele>2226.0</ele>
        <time>2015-08-01T12:24:53Z</time>
      </trkpt>
      <trkpt lat="40.237883" lon="-4.936467">
        <ele>2223.0</ele>
        <time>2015-08-01T12:24:55Z</time>
      </trkpt>
      <trkpt lat="40.237800" lon="-4.936617">
        <ele>2222.0</ele>
        <time>2015-08-01T12:24:57Z</time>
      </trkpt>
      <trkpt lat="40.237717" lon="-4.936700">
        <ele>2222.0</ele>
        <time>2015-08-01T12:24:59Z</time>
      </trkpt>
      <trkpt lat="40.237633" lon="-4.936800">
        <ele>2220.0</ele>
        <time>2015-08-01T12:25:01Z</time>
      </trkpt>
      <trkpt lat="40.237517" lon="-4.936917">
        <ele>2221.0</ele>
        <time>2015-08-01T12:25:03Z</time>
      </trkpt>
      <trkpt lat="40.237433" lon="-4.936983">
        <ele>2223.0</ele>
        <time>2015-08-01T12:25:05Z</time>
      </trkpt>
      <trkpt lat="40.237367" lon="-4.937050">
        <ele>2221.0</ele>
        <time>2015-08-01T12:25:07Z</time>
      </trkpt>
      <trkpt lat="40.237300" lon="-4.937167">
        <ele>2216.0</ele>
        <time>2015-08-01T12:25:09Z</time>
      </trkpt>
      <trkpt lat="40.237217" lon="-4.937300">
        <ele>2214.0</ele>
        <time>2015-08-01T12:25:11Z</time>
      </trkpt>
      <trkpt lat="40.237117" lon="-4.937367">
        <ele>2212.0</ele>
        <time>2015-08-01T12:25:13Z</time>
      </trkpt>
      <trkpt lat="40.237033" lon="-4.937467">
        <ele>2209.0</ele>
        <time>2015-08-01T12:25:15Z</time>
      </trkpt>
      <trkpt lat="40.236950" lon="-4.937567">
        <ele>2205.0</ele>
        <time>2015-08-01T12:25:17Z</time>
      </trkpt>
      <trkpt lat="40.236850" lon="-4.937667">
        <ele>2200.0</ele>
        <time>2015-08-01T12:25:19Z</time>
      </trkpt>
      <trkpt lat="40.236783" lon="-4.937783">
        <ele>2195.0</ele>
        <time>2015-08-01T12:25:21Z</time>
      </trkpt>
      <trkpt lat="40.236733" lon="-4.937883">
        <ele>2192.0</ele>
        <time>2015-08-01T12:25:23Z</time>
      </trkpt>
      <trkpt lat="40.236700" lon="-4.937950">
        <ele>2186.0</ele>
        <time>2015-08-01T12:25:25Z</time>
      </trkpt>
      <trkpt lat="40.236633" lon="-4.938050">
        <ele>2179.0</ele>
        <time>2015-08-01T12:25:27Z</time>
      </trkpt>
      <trkpt lat="40.236550" lon="-4.938150">
        <ele>2177.0</ele>
        <time>2015-08-01T12:25:29Z</time>
      </trkpt>
      <trkpt lat="40.236500" lon="-4.938183">
        <ele>2176.0</ele>
        <time>2015-08-01T12:25:31Z</time>
      </trkpt>
      <trkpt lat="40.236433" lon="-4.938217">
        <ele>2170.0</ele>
        <time>2015-08-01T12:25:33Z</time>
      </trkpt>
      <trkpt lat="40.236350" lon="-4.938300">
        <ele>2164.0</ele>
        <time>2015-08-01T12:25:35Z</time>
      </trkpt>
      <trkpt lat="40.236283" lon="-4.938400">
        <ele>2160.0</ele>
        <time>2015-08-01T12:25:37Z</time>
      </trkpt>
      <trkpt lat="40.236250" lon="-4.938500">
        <ele>2156.0</ele>
        <time>2015-08-01T12:25:39Z</time>
      </trkpt>
      <trkpt lat="40.236183" lon="-4.938583">
        <ele>2152.0</ele>
        <time>2015-08-01T12:25:41Z</time>
      </trkpt>
      <trkpt lat="40.236133" lon="-4.938683">
        <ele>2150.0</ele>
        <time>2015-08-01T12:25:43Z</time>
      </trkpt>
      <trkpt lat="40.236100" lon="-4.938800">
        <ele>2148.0</ele>
        <time>2015-08-01T12:25:45Z</time>
      </trkpt>
      <trkpt lat="40.236067" lon="-4.938917">
        <ele>2143.0</ele>
        <time>2015-08-01T12:25:47Z</time>
      </trkpt>
      <trkpt lat="40.236000" lon="-4.939067">
        <ele>2141.0</ele>
        <time>2015-08-01T12:25:49Z</time>
      </trkpt>
      <trkpt lat="40.235967" lon="-4.939200">
        <ele>2140.0</ele>
        <time>2015-08-01T12:25:51Z</time>
      </trkpt>
      <trkpt lat="40.235933" lon="-4.939300">
        <ele>2138.0</ele>
        <time>2015-08-01T12:25:53Z</time>
      </trkpt>
      <trkpt lat="40.235900" lon="-4.939433">
        <ele>2133.0</ele>
        <time>2015-08-01T12:25:55Z</time>
      </trkpt>
      <trkpt lat="40.235850" lon="-4.939600">
        <ele>2129.0</ele>
        <time>2015-08-01T12:25:57Z</time>
      </trkpt>
      <trkpt lat="40.235817" lon="-4.939700">
        <ele>2129.0</ele>
        <time>2015-08-01T12:25:59Z</time>
      </trkpt>
      <trkpt lat="40.235800" lon="-4.939783">
        <ele>2126.0</ele>
        <time>2015-08-01T12:26:01Z</time>
      </trkpt>
      <trkpt lat="40.235767" lon="-4.939917">
        <ele>2121.0</ele>
        <time>2015-08-01T12:26:03Z</time>
      </trkpt>
      <trkpt lat="40.235733" lon="-4.940033">
        <ele>2120.0</ele>
        <time>2015-08-01T12:26:05Z</time>
      </trkpt>
      <trkpt lat="40.235717" lon="-4.940133">
        <ele>2118.0</ele>
        <time>2015-08-01T12:26:07Z</time>
      </trkpt>
      <trkpt lat="40.235700" lon="-4.940250">
        <ele>2115.0</ele>
        <time>2015-08-01T12:26:09Z</time>
      </trkpt>
      <trkpt lat="40.235667" lon="-4.940367">
        <ele>2115.0</ele>
        <time>2015-08-01T12:26:11Z</time>
      </trkpt>
      <trkpt lat="40.235600" lon="-4.940467">
        <ele>2113.0</ele>
        <time>2015-08-01T12:26:13Z</time>
      </trkpt>
      <trkpt lat="40.235550" lon="-4.940583">
        <ele>2112.0</ele>
        <time>2015-08-01T12:26:15Z</time>
      </trkpt>
      <trkpt lat="40.235500" lon="-4.940700">
        <ele>2111.0</ele>
        <time>2015-08-01T12:26:17Z</time>
      </trkpt>
      <trkpt lat="40.235433" lon="-4.940833">
        <ele>2110.0</ele>
        <time>2015-08-01T12:26:19Z</time>
      </trkpt>
      <trkpt lat="40.235367" lon="-4.940967">
        <ele>2108.0</ele>
        <time>2015-08-01T12:26:21Z</time>
      </trkpt>
      <trkpt lat="40.235300" lon="-4.941067">
        <ele>2107.0</ele>
        <time>2015-08-01T12:26:23Z</time>
      </trkpt>
      <trkpt lat="40.235233" lon="-4.941133">
        <ele>2104.0</ele>
        <time>2015-08-01T12:26:25Z</time>
      </trkpt>
      <trkpt lat="40.235167" lon="-4.941200">
        <ele>2097.0</ele>
        <time>2015-08-01T12:26:27Z</time>
      </trkpt>
      <trkpt lat="40.235100" lon="-4.941333">
        <ele>2089.0</ele>
        <time>2015-08-01T12:26:29Z</time>
      </trkpt>
      <trkpt lat="40.235017" lon="-4.941483">
        <ele>2086.0</ele>
        <time>2015-08-01T12:26:31Z</time>
      </trkpt>
      <trkpt lat="40.234950" lon="-4.941600">
        <ele>2084.0</ele>
        <time>2015-08-01T12:26:33Z</time>
      </trkpt>
      <trkpt lat="40.234900" lon="-4.941683">
        <ele>2082.0</ele>
        <time>2015-08-01T12:26:35Z</time>
      </trkpt>
      <trkpt lat="40.234883" lon="-4.941767">
        <ele>2080.0</ele>
        <time>2015-08-01T12:26:37Z</time>
      </trkpt>
      <trkpt lat="40.234833" lon="-4.941850">
        <ele>2076.0</ele>
        <time>2015-08-01T12:26:39Z</time>
      </trkpt>
      <trkpt lat="40.234783" lon="-4.941983">
        <ele>2075.0</ele>
        <time>2015-08-01T12:26:41Z</time>
      </trkpt>
      <trkpt lat="40.234733" lon="-4.942083">
        <ele>2077.0</ele>
        <time>2015-08-01T12:26:43Z</time>
      </trkpt>
      <trkpt lat="40.234700" lon="-4.942167">
        <ele>2076.0</ele>
        <time>2015-08-01T12:26:45Z</time>
      </trkpt>
      <trkpt lat="40.234633" lon="-4.942300">
        <ele>2073.0</ele>
        <time>2015-08-01T12:26:47Z</time>
      </trkpt>
      <trkpt lat="40.234600" lon="-4.942417">
        <ele>2074.0</ele>
        <time>2015-08-01T12:26:49Z</time>
      </trkpt>
      <trkpt lat="40.234583" lon="-4.942500">
        <ele>2072.0</ele>
        <time>2015-08-01T12:26:51Z</time>
      </trkpt>
      <trkpt lat="40.234533" lon="-4.942600">
        <ele>2067.0</ele>
        <time>2015-08-01T12:26:53Z</time>
      </trkpt>
      <trkpt lat="40.234483" lon="-4.942750">
        <ele>2065.0</ele>
        <time>2015-08-01T12:26:55Z</time>
      </trkpt>
      <trkpt lat="40.234433" lon="-4.942900">
        <ele>2067.0</ele>
        <time>2015-08-01T12:26:57Z</time>
      </trkpt>
      <trkpt lat="40.234417" lon="-4.943017">
        <ele>2070.0</ele>
        <time>2015-08-01T12:26:59Z</time>
      </trkpt>
      <trkpt lat="40.234383" lon="-4.943150">
        <ele>2070.0</ele>
        <time>2015-08-01T12:27:01Z</time>
      </trkpt>
      <trkpt lat="40.234350" lon="-4.943300">
        <ele>2072.0</ele>
        <time>2015-08-01T12:27:03Z</time>
      </trkpt>
      <trkpt lat="40.234300" lon="-4.943417">
        <ele>2074.0</ele>
        <time>2015-08-01T12:27:05Z</time>
      </trkpt>
      <trkpt lat="40.234267" lon="-4.943517">
        <ele>2075.0</ele>
        <time>2015-08-01T12:27:07Z</time>
      </trkpt>
      <trkpt lat="40.234217" lon="-4.943617">
        <ele>2076.0</ele>
        <time>2015-08-01T12:27:09Z</time>
      </trkpt>
      <trkpt lat="40.234133" lon="-4.943700">
        <ele>2076.0</ele>
        <time>2015-08-01T12:27:11Z</time>
      </trkpt>
      <trkpt lat="40.234083" lon="-4.943817">
        <ele>2079.0</ele>
        <time>2015-08-01T12:27:13Z</time>
      </trkpt>
      <trkpt lat="40.234017" lon="-4.943883">
        <ele>2084.0</ele>
        <time>2015-08-01T12:27:15Z</time>
      </trkpt>
      <trkpt lat="40.233983" lon="-4.943950">
        <ele>2087.0</ele>
        <time>2015-08-01T12:27:17Z</time>
      </trkpt>
      <trkpt lat="40.233917" lon="-4.944017">
        <ele>2090.0</ele>
        <time>2015-08-01T12:27:19Z</time>
      </trkpt>
      <trkpt lat="40.233850" lon="-4.944000">
        <ele>2094.0</ele>
        <time>2015-08-01T12:27:21Z</time>
      </trkpt>
      <trkpt lat="40.233733" lon="-4.943967">
        <ele>2094.0</ele>
        <time>2015-08-01T12:27:23Z</time>
      </trkpt>
      <trkpt lat="40.233617" lon="-4.943967">
        <ele>2099.0</ele>
        <time>2015-08-01T12:27:25Z</time>
      </trkpt>
      <trkpt lat="40.233533" lon="-4.943933">
        <ele>2106.0</ele>
        <time>2015-08-01T12:27:27Z</time>
      </trkpt>
      <trkpt lat="40.233467" lon="-4.943800">
        <ele>2109.0</ele>
        <time>2015-08-01T12:27:29Z</time>
      </trkpt>
      <trkpt lat="40.233383" lon="-4.943550">
        <ele>2108.0</ele>
        <time>2015-08-01T12:27:31Z</time>
      </trkpt>
      <trkpt lat="40.233400" lon="-4.943217">
        <ele>2110.0</ele>
        <time>2015-08-01T12:27:33Z</time>
      </trkpt>
      <trkpt lat="40.233433" lon="-4.942917">
        <ele>2116.0</ele>
        <time>2015-08-01T12:27:35Z</time>
      </trkpt>
      <trkpt lat="40.233433" lon="-4.942667">
        <ele>2119.0</ele>
        <time>2015-08-01T12:27:37Z</time>
      </trkpt>
      <trkpt lat="40.233483" lon="-4.942383">
        <ele>2118.0</ele>
        <time>2015-08-01T12:27:39Z</time>
      </trkpt>
      <trkpt lat="40.233617" lon="-4.942133">
        <ele>2118.0</ele>
        <time>2015-08-01T12:27:41Z</time>
      </trkpt>
      <trkpt lat="40.233817" lon="-4.941950">
        <ele>2118.0</ele>
        <time>2015-08-01T12:27:43Z</time>
      </trkpt>
      <trkpt lat="40.234050" lon="-4.941933">
        <ele>2116.0</ele>
        <time>2015-08-01T12:27:45Z</time>
      </trkpt>
      <trkpt lat="40.234250" lon="-4.942000">
        <ele>2115.0</ele>
        <time>2015-08-01T12:27:47Z</time>
      </trkpt>
      <trkpt lat="40.234383" lon="-4.942117">
        <ele>2115.0</ele>
        <time>2015-08-01T12:27:49Z</time>
      </trkpt>
      <trkpt lat="40.234467" lon="-4.942283">
        <ele>2115.0</ele>
        <time>2015-08-01T12:27:51Z</time>
      </trkpt>
      <trkpt lat="40.234583" lon="-4.942433">
        <ele>2118.0</ele>
        <time>2015-08-01T12:27:53Z</time>
      </trkpt>
      <trkpt lat="40.234717" lon="-4.942550">
        <ele>2120.0</ele>
        <time>2015-08-01T12:27:55Z</time>
      </trkpt>
      <trkpt lat="40.234833" lon="-4.942683">
        <ele>2124.0</ele>
        <time>2015-08-01T12:27:57Z</time>
      </trkpt>
      <trkpt lat="40.234967" lon="-4.942817">
        <ele>2128.0</ele>
        <time>2015-08-01T12:27:59Z</time>
      </trkpt>
      <trkpt lat="40.235117" lon="-4.942900">
        <ele>2135.0</ele>
        <time>2015-08-01T12:28:01Z</time>
      </trkpt>
      <trkpt lat="40.235233" lon="-4.942917">
        <ele>2138.0</ele>
        <time>2015-08-01T12:28:03Z</time>
      </trkpt>
      <trkpt lat="40.235350" lon="-4.943000">
        <ele>2135.0</ele>
        <time>2015-08-01T12:28:05Z</time>
      </trkpt>
      <trkpt lat="40.235383" lon="-4.943133">
        <ele>2132.0</ele>
        <time>2015-08-01T12:28:07Z</time>
      </trkpt>
      <trkpt lat="40.235350" lon="-4.943267">
        <ele>2136.0</ele>
        <time>2015-08-01T12:28:09Z</time>
      </trkpt>
      <trkpt lat="40.235317" lon="-4.943333">
        <ele>2143.0</ele>
        <time>2015-08-01T12:28:11Z</time>
      </trkpt>
      <trkpt lat="40.235233" lon="-4.943333">
        <ele>2145.0</ele>
        <time>2015-08-01T12:28:13Z</time>
      </trkpt>
      <trkpt lat="40.235117" lon="-4.943283">
        <ele>2147.0</ele>
        <time>2015-08-01T12:28:15Z</time>
      </trkpt>
      <trkpt lat="40.235000" lon="-4.943117">
        <ele>2148.0</ele>
        <time>2015-08-01T12:28:17Z</time>
      </trkpt>
      <trkpt lat="40.234883" lon="-4.942867">
        <ele>2151.0</ele>
        <time>2015-08-01T12:28:19Z</time>
      </trkpt>
      <trkpt lat="40.234817" lon="-4.942600">
        <ele>2156.0</ele>
        <time>2015-08-01T12:28:21Z</time>
      </trkpt>
      <trkpt lat="40.234833" lon="-4.942283">
        <ele>2158.0</ele>
        <time>2015-08-01T12:28:23Z</time>
      </trkpt>
      <trkpt lat="40.234883" lon="-4.941933">
        <ele>2159.0</ele>
        <time>2015-08-01T12:28:25Z</time>
      </trkpt>
      <trkpt lat="40.235017" lon="-4.941633">
        <ele>2162.0</ele>
        <time>2015-08-01T12:28:27Z</time>
      </trkpt>
      <trkpt lat="40.235217" lon="-4.941400">
        <ele>2163.0</ele>
        <time>2015-08-01T12:28:29Z</time>
      </trkpt>
      <trkpt lat="40.235450" lon="-4.941267">
        <ele>2165.0</ele>
        <time>2015-08-01T12:28:31Z</time>
      </trkpt>
      <trkpt lat="40.235667" lon="-4.941250">
        <ele>2168.0</ele>
        <time>2015-08-01T12:28:33Z</time>
      </trkpt>
      <trkpt lat="40.235800" lon="-4.941333">
        <ele>2171.0</ele>
        <time>2015-08-01T12:28:35Z</time>
      </trkpt>
      <trkpt lat="40.235900" lon="-4.941433">
        <ele>2174.0</ele>
        <time>2015-08-01T12:28:37Z</time>
      </trkpt>
      <trkpt lat="40.235933" lon="-4.941550">
        <ele>2178.0</ele>
        <time>2015-08-01T12:28:39Z</time>
      </trkpt>
      <trkpt lat="40.235900" lon="-4.941600">
        <ele>2182.0</ele>
        <time>2015-08-01T12:28:41Z</time>
      </trkpt>
      <trkpt lat="40.235850" lon="-4.941633">
        <ele>2183.0</ele>
        <time>2015-08-01T12:28:43Z</time>
      </trkpt>
      <trkpt lat="40.235750" lon="-4.941633">
        <ele>2186.0</ele>
        <time>2015-08-01T12:28:45Z</time>
      </trkpt>
      <trkpt lat="40.235667" lon="-4.941633">
        <ele>2189.0</ele>
        <time>2015-08-01T12:28:47Z</time>
      </trkpt>
      <trkpt lat="40.235567" lon="-4.941617">
        <ele>2188.0</ele>
        <time>2015-08-01T12:28:49Z</time>
      </trkpt>
      <trkpt lat="40.235417" lon="-4.941533">
        <ele>2189.0</ele>
        <time>2015-08-01T12:28:51Z</time>
      </trkpt>
      <trkpt lat="40.235283" lon="-4.941400">
        <ele>2192.0</ele>
        <time>2015-08-01T12:28:53Z</time>
      </trkpt>
      <trkpt lat="40.235183" lon="-4.941217">
        <ele>2191.0</ele>
        <time>2015-08-01T12:28:55Z</time>
      </trkpt>
      <trkpt lat="40.235033" lon="-4.941033">
        <ele>2190.0</ele>
        <time>2015-08-01T12:28:57Z</time>
      </trkpt>
      <trkpt lat="40.234900" lon="-4.940933">
        <ele>2195.0</ele>
        <time>2015-08-01T12:28:59Z</time>
      </trkpt>
      <trkpt lat="40.234817" lon="-4.940917">
        <ele>2199.0</ele>
        <time>2015-08-01T12:29:01Z</time>
      </trkpt>
      <trkpt lat="40.234783" lon="-4.940950">
        <ele>2199.0</ele>
        <time>2015-08-01T12:29:03Z</time>
      </trkpt>
      <trkpt lat="40.234733" lon="-4.941017">
        <ele>2199.0</ele>
        <time>2015-08-01T12:29:05Z</time>
      </trkpt>
      <trkpt lat="40.234683" lon="-4.941083">
        <ele>2199.0</ele>
        <time>2015-08-01T12:29:07Z</time>
      </trkpt>
      <trkpt lat="40.234583" lon="-4.941100">
        <ele>2198.0</ele>
        <time>2015-08-01T12:29:09Z</time>
      </trkpt>
      <trkpt lat="40.234483" lon="-4.941183">
        <ele>2196.0</ele>
        <time>2015-08-01T12:29:11Z</time>
      </trkpt>
      <trkpt lat="40.234383" lon="-4.941267">
        <ele>2199.0</ele>
        <time>2015-08-01T12:29:13Z</time>
      </trkpt>
      <trkpt lat="40.234333" lon="-4.941317">
        <ele>2203.0</ele>
        <time>2015-08-01T12:29:15Z</time>
      </trkpt>
      <trkpt lat="40.234317" lon="-4.941400">
        <ele>2203.0</ele>
        <time>2015-08-01T12:29:17Z</time>
      </trkpt>
      <trkpt lat="40.234283" lon="-4.941550">
        <ele>2204.0</ele>
        <time>2015-08-01T12:29:19Z</time>
      </trkpt>
      <trkpt lat="40.234267" lon="-4.941667">
        <ele>2208.0</ele>
        <time>2015-08-01T12:29:21Z</time>
      </trkpt>
      <trkpt lat="40.234267" lon="-4.941767">
        <ele>2205.0</ele>
        <time>2015-08-01T12:29:23Z</time>
      </trkpt>
      <trkpt lat="40.234233" lon="-4.941917">
        <ele>2201.0</ele>
        <time>2015-08-01T12:29:25Z</time>
      </trkpt>
      <trkpt lat="40.234183" lon="-4.942083">
        <ele>2198.0</ele>
        <time>2015-08-01T12:29:27Z</time>
      </trkpt>
      <trkpt lat="40.234083" lon="-4.942133">
        <ele>2195.0</ele>
        <time>2015-08-01T12:29:29Z</time>
      </trkpt>
      <trkpt lat="40.233950" lon="-4.942067">
        <ele>2194.0</ele>
        <time>2015-08-01T12:29:31Z</time>
      </trkpt>
      <trkpt lat="40.233800" lon="-4.942017">
        <ele>2191.0</ele>
        <time>2015-08-01T12:29:33Z</time>
      </trkpt>
      <trkpt lat="40.233650" lon="-4.942150">
        <ele>2191.0</ele>
        <time>2015-08-01T12:29:35Z</time>
      </trkpt>
      <trkpt lat="40.233583" lon="-4.942283">
        <ele>2198.0</ele>
        <time>2015-08-01T12:29:37Z</time>
      </trkpt>
      <trkpt lat="40.233550" lon="-4.942433">
        <ele>2201.0</ele>
        <time>2015-08-01T12:29:39Z</time>
      </trkpt>
      <trkpt lat="40.233567" lon="-4.942667">
        <ele>2202.0</ele>
        <time>2015-08-01T12:29:41Z</time>
      </trkpt>
      <trkpt lat="40.233650" lon="-4.942900">
        <ele>2206.0</ele>
        <time>2015-08-01T12:29:43Z</time>
      </trkpt>
      <trkpt lat="40.233800" lon="-4.943067">
        <ele>2208.0</ele>
        <time>2015-08-01T12:29:45Z</time>
      </trkpt>
      <trkpt lat="40.234017" lon="-4.943150">
        <ele>2208.0</ele>
        <time>2015-08-01T12:29:47Z</time>
      </trkpt>
      <trkpt lat="40.234200" lon="-4.943283">
        <ele>2211.0</ele>
        <time>2015-08-01T12:29:49Z</time>
      </trkpt>
      <trkpt lat="40.234283" lon="-4.943500">
        <ele>2212.0</ele>
        <time>2015-08-01T12:29:51Z</time>
      </trkpt>
      <trkpt lat="40.234317" lon="-4.943717">
        <ele>2216.0</ele>
        <time>2015-08-01T12:29:53Z</time>
      </trkpt>
      <trkpt lat="40.234300" lon="-4.943900">
        <ele>2220.0</ele>
        <time>2015-08-01T12:29:55Z</time>
      </trkpt>
      <trkpt lat="40.234233" lon="-4.944067">
        <ele>2222.0</ele>
        <time>2015-08-01T12:29:57Z</time>
      </trkpt>
      <trkpt lat="40.234083" lon="-4.944150">
        <ele>2223.0</ele>
        <time>2015-08-01T12:29:59Z</time>
      </trkpt>
      <trkpt lat="40.233933" lon="-4.944183">
        <ele>2224.0</ele>
        <time>2015-08-01T12:30:01Z</time>
      </trkpt>
      <trkpt lat="40.233783" lon="-4.944183">
        <ele>2226.0</ele>
        <time>2015-08-01T12:30:03Z</time>
      </trkpt>
      <trkpt lat="40.233667" lon="-4.944067">
        <ele>2225.0</ele>
        <time>2015-08-01T12:30:05Z</time>
      </trkpt>
      <trkpt lat="40.233567" lon="-4.943833">
        <ele>2224.0</ele>
        <time>2015-08-01T12:30:07Z</time>
      </trkpt>
      <trkpt lat="40.233533" lon="-4.943600">
        <ele>2228.0</ele>
        <time>2015-08-01T12:30:09Z</time>
      </trkpt>
      <trkpt lat="40.233550" lon="-4.943417">
        <ele>2230.0</ele>
        <time>2015-08-01T12:30:11Z</time>
      </trkpt>
      <trkpt lat="40.233617" lon="-4.943167">
        <ele>2230.0</ele>
        <time>2015-08-01T12:30:13Z</time>
      </trkpt>
      <trkpt lat="40.233750" lon="-4.942967">
        <ele>2232.0</ele>
        <time>2015-08-01T12:30:15Z</time>
      </trkpt>
      <trkpt lat="40.233950" lon="-4.942900">
        <ele>2234.0</ele>
        <time>2015-08-01T12:30:17Z</time>
      </trkpt>
      <trkpt lat="40.234150" lon="-4.942983">
        <ele>2238.0</ele>
        <time>2015-08-01T12:30:19Z</time>
      </trkpt>
      <trkpt lat="40.234283" lon="-4.943167">
        <ele>2238.0</ele>
        <time>2015-08-01T12:30:21Z</time>
      </trkpt>
      <trkpt lat="40.234367" lon="-4.943400">
        <ele>2238.0</ele>
        <time>2015-08-01T12:30:23Z</time>
      </trkpt>
      <trkpt lat="40.234350" lon="-4.943667">
        <ele>2239.0</ele>
        <time>2015-08-01T12:30:25Z</time>
      </trkpt>
      <trkpt lat="40.234317" lon="-4.943883">
        <ele>2239.0</ele>
        <time>2015-08-01T12:30:27Z</time>
      </trkpt>
      <trkpt lat="40.234300" lon="-4.944067">
        <ele>2235.0</ele>
        <time>2015-08-01T12:30:29Z</time>
      </trkpt>
      <trkpt lat="40.234250" lon="-4.944250">
        <ele>2231.0</ele>
        <time>2015-08-01T12:30:31Z</time>
      </trkpt>
      <trkpt lat="40.234150" lon="-4.944417">
        <ele>2226.0</ele>
        <time>2015-08-01T12:30:33Z</time>
      </trkpt>
      <trkpt lat="40.234050" lon="-4.944567">
        <ele>2222.0</ele>
        <time>2015-08-01T12:30:35Z</time>
      </trkpt>
      <trkpt lat="40.233950" lon="-4.944767">
        <ele>2217.0</ele>
        <time>2015-08-01T12:30:37Z</time>
      </trkpt>
      <trkpt lat="40.233867" lon="-4.944950">
        <ele>2214.0</ele>
        <time>2015-08-01T12:30:39Z</time>
      </trkpt>
      <trkpt lat="40.233767" lon="-4.945100">
        <ele>2212.0</ele>
        <time>2015-08-01T12:30:41Z</time>
      </trkpt>
      <trkpt lat="40.233650" lon="-4.945250">
        <ele>2208.0</ele>
        <time>2015-08-01T12:30:43Z</time>
      </trkpt>
      <trkpt lat="40.233533" lon="-4.945417">
        <ele>2205.0</ele>
        <time>2015-08-01T12:30:45Z</time>
      </trkpt>
      <trkpt lat="40.233417" lon="-4.945583">
        <ele>2204.0</ele>
        <time>2015-08-01T12:30:47Z</time>
      </trkpt>
      <trkpt lat="40.233333" lon="-4.945733">
        <ele>2203.0</ele>
        <time>2015-08-01T12:30:49Z</time>
      </trkpt>
      <trkpt lat="40.233250" lon="-4.945867">
        <ele>2199.0</ele>
        <time>2015-08-01T12:30:51Z</time>
      </trkpt>
      <trkpt lat="40.233183" lon="-4.946033">
        <ele>2193.0</ele>
        <time>2015-08-01T12:30:53Z</time>
      </trkpt>
      <trkpt lat="40.233067" lon="-4.946217">
        <ele>2187.0</ele>
        <time>2015-08-01T12:30:55Z</time>
      </trkpt>
      <trkpt lat="40.232950" lon="-4.946367">
        <ele>2184.0</ele>
        <time>2015-08-01T12:30:57Z</time>
      </trkpt>
      <trkpt lat="40.232833" lon="-4.946500">
        <ele>2179.0</ele>
        <time>2015-08-01T12:30:59Z</time>
      </trkpt>
      <trkpt lat="40.232683" lon="-4.946667">
        <ele>2172.0</ele>
        <time>2015-08-01T12:31:01Z</time>
      </trkpt>
      <trkpt lat="40.232533" lon="-4.946800">
        <ele>2168.0</ele>
        <time>2015-08-01T12:31:03Z</time>
      </trkpt>
      <trkpt lat="40.232400" lon="-4.946917">
        <ele>2163.0</ele>
        <time>2015-08-01T12:31:05Z</time>
      </trkpt>
      <trkpt lat="40.232250" lon="-4.947033">
        <ele>2156.0</ele>
        <time>2015-08-01T12:31:07Z</time>
      </trkpt>
      <trkpt lat="40.232100" lon="-4.947167">
        <ele>2149.0</ele>
        <time>2015-08-01T12:31:09Z</time>
      </trkpt>
      <trkpt lat="40.231967" lon="-4.947300">
        <ele>2143.0</ele>
        <time>2015-08-01T12:31:11Z</time>
      </trkpt>
      <trkpt lat="40.231833" lon="-4.947450">
        <ele>2136.0</ele>
        <time>2015-08-01T12:31:13Z</time>
      </trkpt>
      <trkpt lat="40.231683" lon="-4.947600">
        <ele>2129.0</ele>
        <time>2015-08-01T12:31:15Z</time>
      </trkpt>
      <trkpt lat="40.231567" lon="-4.947783">
        <ele>2122.0</ele>
        <time>2015-08-01T12:31:17Z</time>
      </trkpt>
      <trkpt lat="40.231433" lon="-4.947950">
        <ele>2120.0</ele>
        <time>2015-08-01T12:31:19Z</time>
      </trkpt>
      <trkpt lat="40.231333" lon="-4.948050">
        <ele>2118.0</ele>
        <time>2015-08-01T12:31:21Z</time>
      </trkpt>
      <trkpt lat="40.231233" lon="-4.948183">
        <ele>2113.0</ele>
        <time>2015-08-01T12:31:23Z</time>
      </trkpt>
      <trkpt lat="40.231117" lon="-4.948350">
        <ele>2106.0</ele>
        <time>2015-08-01T12:31:25Z</time>
      </trkpt>
      <trkpt lat="40.231017" lon="-4.948500">
        <ele>2099.0</ele>
        <time>2015-08-01T12:31:27Z</time>
      </trkpt>
      <trkpt lat="40.230933" lon="-4.948667">
        <ele>2092.0</ele>
        <time>2015-08-01T12:31:29Z</time>
      </trkpt>
      <trkpt lat="40.230817" lon="-4.948833">
        <ele>2085.0</ele>
        <time>2015-08-01T12:31:31Z</time>
      </trkpt>
      <trkpt lat="40.230700" lon="-4.949000">
        <ele>2079.0</ele>
        <time>2015-08-01T12:31:33Z</time>
      </trkpt>
      <trkpt lat="40.230583" lon="-4.949133">
        <ele>2073.0</ele>
        <time>2015-08-01T12:31:35Z</time>
      </trkpt>
      <trkpt lat="40.230433" lon="-4.949300">
        <ele>2065.0</ele>
        <time>2015-08-01T12:31:37Z</time>
      </trkpt>
      <trkpt lat="40.230300" lon="-4.949450">
        <ele>2058.0</ele>
        <time>2015-08-01T12:31:39Z</time>
      </trkpt>
      <trkpt lat="40.230167" lon="-4.949617">
        <ele>2053.0</ele>
        <time>2015-08-01T12:31:41Z</time>
      </trkpt>
      <trkpt lat="40.230050" lon="-4.949767">
        <ele>2047.0</ele>
        <time>2015-08-01T12:31:43Z</time>
      </trkpt>
      <trkpt lat="40.229933" lon="-4.949967">
        <ele>2040.0</ele>
        <time>2015-08-01T12:31:45Z</time>
      </trkpt>
      <trkpt lat="40.229850" lon="-4.950183">
        <ele>2035.0</ele>
        <time>2015-08-01T12:31:47Z</time>
      </trkpt>
      <trkpt lat="40.229767" lon="-4.950367">
        <ele>2032.0</ele>
        <time>2015-08-01T12:31:49Z</time>
      </trkpt>
      <trkpt lat="40.229717" lon="-4.950567">
        <ele>2027.0</ele>
        <time>2015-08-01T12:31:51Z</time>
      </trkpt>
      <trkpt lat="40.229633" lon="-4.950783">
        <ele>2025.0</ele>
        <time>2015-08-01T12:31:53Z</time>
      </trkpt>
      <trkpt lat="40.229583" lon="-4.950950">
        <ele>2028.0</ele>
        <time>2015-08-01T12:31:55Z</time>
      </trkpt>
      <trkpt lat="40.229550" lon="-4.951117">
        <ele>2027.0</ele>
        <time>2015-08-01T12:31:57Z</time>
      </trkpt>
      <trkpt lat="40.229483" lon="-4.951333">
        <ele>2027.0</ele>
        <time>2015-08-01T12:31:59Z</time>
      </trkpt>
      <trkpt lat="40.229417" lon="-4.951517">
        <ele>2030.0</ele>
        <time>2015-08-01T12:32:01Z</time>
      </trkpt>
      <trkpt lat="40.229383" lon="-4.951667">
        <ele>2030.0</ele>
        <time>2015-08-01T12:32:03Z</time>
      </trkpt>
      <trkpt lat="40.229333" lon="-4.951850">
        <ele>2027.0</ele>
        <time>2015-08-01T12:32:05Z</time>
      </trkpt>
      <trkpt lat="40.229300" lon="-4.952050">
        <ele>2025.0</ele>
        <time>2015-08-01T12:32:07Z</time>
      </trkpt>
      <trkpt lat="40.229283" lon="-4.952250">
        <ele>2025.0</ele>
        <time>2015-08-01T12:32:09Z</time>
      </trkpt>
      <trkpt lat="40.229250" lon="-4.952417">
        <ele>2024.0</ele>
        <time>2015-08-01T12:32:11Z</time>
      </trkpt>
      <trkpt lat="40.229200" lon="-4.952600">
        <ele>2020.0</ele>
        <time>2015-08-01T12:32:13Z</time>
      </trkpt>
      <trkpt lat="40.229167" lon="-4.952817">
        <ele>2019.0</ele>
        <time>2015-08-01T12:32:15Z</time>
      </trkpt>
      <trkpt lat="40.229167" lon="-4.952983">
        <ele>2020.0</ele>
        <time>2015-08-01T12:32:17Z</time>
      </trkpt>
      <trkpt lat="40.229150" lon="-4.953150">
        <ele>2017.0</ele>
        <time>2015-08-01T12:32:19Z</time>
      </trkpt>
      <trkpt lat="40.229117" lon="-4.953333">
        <ele>2013.0</ele>
        <time>2015-08-01T12:32:21Z</time>
      </trkpt>
      <trkpt lat="40.229083" lon="-4.953517">
        <ele>2012.0</ele>
        <time>2015-08-01T12:32:23Z</time>
      </trkpt>
      <trkpt lat="40.229050" lon="-4.953683">
        <ele>2008.0</ele>
        <time>2015-08-01T12:32:25Z</time>
      </trkpt>
      <trkpt lat="40.229000" lon="-4.953883">
        <ele>2004.0</ele>
        <time>2015-08-01T12:32:27Z</time>
      </trkpt>
      <trkpt lat="40.228950" lon="-4.954083">
        <ele>2002.0</ele>
        <time>2015-08-01T12:32:29Z</time>
      </trkpt>
      <trkpt lat="40.228917" lon="-4.954250">
        <ele>2000.0</ele>
        <time>2015-08-01T12:32:31Z</time>
      </trkpt>
      <trkpt lat="40.228883" lon="-4.954417">
        <ele>1995.0</ele>
        <time>2015-08-01T12:32:33Z</time>
      </trkpt>
      <trkpt lat="40.228833" lon="-4.954617">
        <ele>1991.0</ele>
        <time>2015-08-01T12:32:35Z</time>
      </trkpt>
      <trkpt lat="40.228783" lon="-4.954800">
        <ele>1991.0</ele>
        <time>2015-08-01T12:32:37Z</time>
      </trkpt>
      <trkpt lat="40.228717" lon="-4.954933">
        <ele>1987.0</ele>
        <time>2015-08-01T12:32:39Z</time>
      </trkpt>
      <trkpt lat="40.228633" lon="-4.955067">
        <ele>1981.0</ele>
        <time>2015-08-01T12:32:41Z</time>
      </trkpt>
      <trkpt lat="40.228550" lon="-4.955200">
        <ele>1975.0</ele>
        <time>2015-08-01T12:32:43Z</time>
      </trkpt>
      <trkpt lat="40.228433" lon="-4.955300">
        <ele>1969.0</ele>
        <time>2015-08-01T12:32:45Z</time>
      </trkpt>
      <trkpt lat="40.228333" lon="-4.955433">
        <ele>1961.0</ele>
        <time>2015-08-01T12:32:47Z</time>
      </trkpt>
      <trkpt lat="40.228200" lon="-4.955567">
        <ele>1953.0</ele>
        <time>2015-08-01T12:32:49Z</time>
      </trkpt>
      <trkpt lat="40.228083" lon="-4.955700">
        <ele>1945.0</ele>
        <time>2015-08-01T12:32:51Z</time>
      </trkpt>
      <trkpt lat="40.227967" lon="-4.955833">
        <ele>1937.0</ele>
        <time>2015-08-01T12:32:53Z</time>
      </trkpt>
      <trkpt lat="40.227850" lon="-4.955950">
        <ele>1932.0</ele>
        <time>2015-08-01T12:32:55Z</time>
      </trkpt>
      <trkpt lat="40.227750" lon="-4.956083">
        <ele>1923.0</ele>
        <time>2015-08-01T12:32:57Z</time>
      </trkpt>
      <trkpt lat="40.227650" lon="-4.956250">
        <ele>1917.0</ele>
        <time>2015-08-01T12:32:59Z</time>
      </trkpt>
      <trkpt lat="40.227567" lon="-4.956383">
        <ele>1914.0</ele>
        <time>2015-08-01T12:33:01Z</time>
      </trkpt>
      <trkpt lat="40.227500" lon="-4.956467">
        <ele>1908.0</ele>
        <time>2015-08-01T12:33:03Z</time>
      </trkpt>
      <trkpt lat="40.227417" lon="-4.956583">
        <ele>1900.0</ele>
        <time>2015-08-01T12:33:05Z</time>
      </trkpt>
      <trkpt lat="40.227350" lon="-4.956667">
        <ele>1893.0</ele>
        <time>2015-08-01T12:33:07Z</time>
      </trkpt>
      <trkpt lat="40.227317" lon="-4.956733">
        <ele>1886.0</ele>
        <time>2015-08-01T12:33:09Z</time>
      </trkpt>
      <trkpt lat="40.227250" lon="-4.956800">
        <ele>1875.0</ele>
        <time>2015-08-01T12:33:11Z</time>
      </trkpt>
      <trkpt lat="40.227183" lon="-4.956917">
        <ele>1864.0</ele>
        <time>2015-08-01T12:33:13Z</time>
      </trkpt>
      <trkpt lat="40.227133" lon="-4.957033">
        <ele>1857.0</ele>
        <time>2015-08-01T12:33:15Z</time>
      </trkpt>
      <trkpt lat="40.227067" lon="-4.957100">
        <ele>1848.0</ele>
        <time>2015-08-01T12:33:17Z</time>
      </trkpt>
      <trkpt lat="40.227017" lon="-4.957200">
        <ele>1836.0</ele>
        <time>2015-08-01T12:33:19Z</time>
      </trkpt>
      <trkpt lat="40.226933" lon="-4.957317">
        <ele>1826.0</ele>
        <time>2015-08-01T12:33:21Z</time>
      </trkpt>
      <trkpt lat="40.226833" lon="-4.957400">
        <ele>1817.0</ele>
        <time>2015-08-01T12:33:23Z</time>
      </trkpt>
      <trkpt lat="40.226750" lon="-4.957500">
        <ele>1808.0</ele>
        <time>2015-08-01T12:33:25Z</time>
      </trkpt>
      <trkpt lat="40.226667" lon="-4.957600">
        <ele>1799.0</ele>
        <time>2015-08-01T12:33:27Z</time>
      </trkpt>
      <trkpt lat="40.226583" lon="-4.957700">
        <ele>1791.0</ele>
        <time>2015-08-01T12:33:29Z</time>
      </trkpt>
      <trkpt lat="40.226500" lon="-4.957783">
        <ele>1783.0</ele>
        <time>2015-08-01T12:33:31Z</time>
      </trkpt>
      <trkpt lat="40.226400" lon="-4.957867">
        <ele>1774.0</ele>
        <time>2015-08-01T12:33:33Z</time>
      </trkpt>
      <trkpt lat="40.226283" lon="-4.958000">
        <ele>1766.0</ele>
        <time>2015-08-01T12:33:35Z</time>
      </trkpt>
      <trkpt lat="40.226200" lon="-4.958117">
        <ele>1759.0</ele>
        <time>2015-08-01T12:33:37Z</time>
      </trkpt>
      <trkpt lat="40.226100" lon="-4.958250">
        <ele>1752.0</ele>
        <time>2015-08-01T12:33:39Z</time>
      </trkpt>
      <trkpt lat="40.226000" lon="-4.958400">
        <ele>1744.0</ele>
        <time>2015-08-01T12:33:41Z</time>
      </trkpt>
      <trkpt lat="40.225917" lon="-4.958567">
        <ele>1739.0</ele>
        <time>2015-08-01T12:33:43Z</time>
      </trkpt>
      <trkpt lat="40.225850" lon="-4.958683">
        <ele>1734.0</ele>
        <time>2015-08-01T12:33:45Z</time>
      </trkpt>
      <trkpt lat="40.225783" lon="-4.958833">
        <ele>1726.0</ele>
        <time>2015-08-01T12:33:47Z</time>
      </trkpt>
      <trkpt lat="40.225683" lon="-4.958983">
        <ele>1720.0</ele>
        <time>2015-08-01T12:33:49Z</time>
      </trkpt>
      <trkpt lat="40.225600" lon="-4.959117">
        <ele>1716.0</ele>
        <time>2015-08-01T12:33:51Z</time>
      </trkpt>
      <trkpt lat="40.225517" lon="-4.959217">
        <ele>1713.0</ele>
        <time>2015-08-01T12:33:53Z</time>
      </trkpt>
      <trkpt lat="40.225433" lon="-4.959333">
        <ele>1708.0</ele>
        <time>2015-08-01T12:33:55Z</time>
      </trkpt>
      <trkpt lat="40.225317" lon="-4.959483">
        <ele>1706.0</ele>
        <time>2015-08-01T12:33:57Z</time>
      </trkpt>
      <trkpt lat="40.225250" lon="-4.959617">
        <ele>1707.0</ele>
        <time>2015-08-01T12:33:59Z</time>
      </trkpt>
      <trkpt lat="40.225200" lon="-4.959733">
        <ele>1704.0</ele>
        <time>2015-08-01T12:34:01Z</time>
      </trkpt>
      <trkpt lat="40.225150" lon="-4.959883">
        <ele>1694.0</ele>
        <time>2015-08-01T12:34:03Z</time>
      </trkpt>
      <trkpt lat="40.225067" lon="-4.960067">
        <ele>1687.0</ele>
        <time>2015-08-01T12:34:05Z</time>
      </trkpt>
      <trkpt lat="40.224967" lon="-4.960183">
        <ele>1683.0</ele>
        <time>2015-08-01T12:34:07Z</time>
      </trkpt>
      <trkpt lat="40.224867" lon="-4.960283">
        <ele>1677.0</ele>
        <time>2015-08-01T12:34:09Z</time>
      </trkpt>
      <trkpt lat="40.224733" lon="-4.960367">
        <ele>1671.0</ele>
        <time>2015-08-01T12:34:11Z</time>
      </trkpt>
      <trkpt lat="40.224583" lon="-4.960433">
        <ele>1667.0</ele>
        <time>2015-08-01T12:34:13Z</time>
      </trkpt>
      <trkpt lat="40.224450" lon="-4.960517">
        <ele>1666.0</ele>
        <time>2015-08-01T12:34:15Z</time>
      </trkpt>
      <trkpt lat="40.224350" lon="-4.960583">
        <ele>1668.0</ele>
        <time>2015-08-01T12:34:17Z</time>
      </trkpt>
      <trkpt lat="40.224250" lon="-4.960650">
        <ele>1666.0</ele>
        <time>2015-08-01T12:34:19Z</time>
      </trkpt>
      <trkpt lat="40.224100" lon="-4.960733">
        <ele>1662.0</ele>
        <time>2015-08-01T12:34:21Z</time>
      </trkpt>
      <trkpt lat="40.223967" lon="-4.960833">
        <ele>1659.0</ele>
        <time>2015-08-01T12:34:23Z</time>
      </trkpt>
      <trkpt lat="40.223850" lon="-4.960900">
        <ele>1656.0</ele>
        <time>2015-08-01T12:34:25Z</time>
      </trkpt>
      <trkpt lat="40.223717" lon="-4.960967">
        <ele>1650.0</ele>
        <time>2015-08-01T12:34:27Z</time>
      </trkpt>
      <trkpt lat="40.223567" lon="-4.961100">
        <ele>1644.0</ele>
        <time>2015-08-01T12:34:29Z</time>
      </trkpt>
      <trkpt lat="40.223433" lon="-4.961200">
        <ele>1646.0</ele>
        <time>2015-08-01T12:34:31Z</time>
      </trkpt>
      <trkpt lat="40.223350" lon="-4.961217">
        <ele>1643.0</ele>
        <time>2015-08-01T12:34:33Z</time>
      </trkpt>
      <trkpt lat="40.223233" lon="-4.961267">
        <ele>1634.0</ele>
        <time>2015-08-01T12:34:35Z</time>
      </trkpt>
      <trkpt lat="40.223083" lon="-4.961400">
        <ele>1628.0</ele>
        <time>2015-08-01T12:34:37Z</time>
      </trkpt>
      <trkpt lat="40.222967" lon="-4.961533">
        <ele>1626.0</ele>
        <time>2015-08-01T12:34:39Z</time>
      </trkpt>
      <trkpt lat="40.222867" lon="-4.961617">
        <ele>1622.0</ele>
        <time>2015-08-01T12:34:41Z</time>
      </trkpt>
      <trkpt lat="40.222717" lon="-4.961733">
        <ele>1616.0</ele>
        <time>2015-08-01T12:34:43Z</time>
      </trkpt>
      <trkpt lat="40.222567" lon="-4.961833">
        <ele>1617.0</ele>
        <time>2015-08-01T12:34:45Z</time>
      </trkpt>
      <trkpt lat="40.222450" lon="-4.961900">
        <ele>1618.0</ele>
        <time>2015-08-01T12:34:47Z</time>
      </trkpt>
      <trkpt lat="40.222283" lon="-4.962000">
        <ele>1616.0</ele>
        <time>2015-08-01T12:34:49Z</time>
      </trkpt>
      <trkpt lat="40.222117" lon="-4.962050">
        <ele>1623.0</ele>
        <time>2015-08-01T12:34:51Z</time>
      </trkpt>
      <trkpt lat="40.222017" lon="-4.961950">
        <ele>1633.0</ele>
        <time>2015-08-01T12:34:53Z</time>
      </trkpt>
      <trkpt lat="40.221933" lon="-4.961850">
        <ele>1638.0</ele>
        <time>2015-08-01T12:34:55Z</time>
      </trkpt>
      <trkpt lat="40.221800" lon="-4.961800">
        <ele>1643.0</ele>
        <time>2015-08-01T12:34:57Z</time>
      </trkpt>
      <trkpt lat="40.221633" lon="-4.961850">
        <ele>1653.0</ele>
        <time>2015-08-01T12:34:59Z</time>
      </trkpt>
      <trkpt lat="40.221550" lon="-4.962000">
        <ele>1666.0</ele>
        <time>2015-08-01T12:35:01Z</time>
      </trkpt>
      <trkpt lat="40.221500" lon="-4.962200">
        <ele>1676.0</ele>
        <time>2015-08-01T12:35:03Z</time>
      </trkpt>
      <trkpt lat="40.221417" lon="-4.962367">
        <ele>1684.0</ele>
        <time>2015-08-01T12:35:05Z</time>
      </trkpt>
      <trkpt lat="40.221333" lon="-4.962433">
        <ele>1695.0</ele>
        <time>2015-08-01T12:35:07Z</time>
      </trkpt>
      <trkpt lat="40.221283" lon="-4.962400">
        <ele>1700.0</ele>
        <time>2015-08-01T12:35:09Z</time>
      </trkpt>
      <trkpt lat="40.221300" lon="-4.962267">
        <ele>1703.0</ele>
        <time>2015-08-01T12:35:11Z</time>
      </trkpt>
      <trkpt lat="40.221450" lon="-4.962100">
        <ele>1711.0</ele>
        <time>2015-08-01T12:35:13Z</time>
      </trkpt>
      <trkpt lat="40.221617" lon="-4.961983">
        <ele>1724.0</ele>
        <time>2015-08-01T12:35:15Z</time>
      </trkpt>
      <trkpt lat="40.221800" lon="-4.961933">
        <ele>1732.0</ele>
        <time>2015-08-01T12:35:17Z</time>
      </trkpt>
      <trkpt lat="40.222017" lon="-4.961900">
        <ele>1739.0</ele>
        <time>2015-08-01T12:35:19Z</time>
      </trkpt>
      <trkpt lat="40.222283" lon="-4.962000">
        <ele>1744.0</ele>
        <time>2015-08-01T12:35:21Z</time>
      </trkpt>
      <trkpt lat="40.222500" lon="-4.962267">
        <ele>1753.0</ele>
        <time>2015-08-01T12:35:23Z</time>
      </trkpt>
      <trkpt lat="40.222600" lon="-4.962533">
        <ele>1765.0</ele>
        <time>2015-08-01T12:35:25Z</time>
      </trkpt>
      <trkpt lat="40.222633" lon="-4.962800">
        <ele>1774.0</ele>
        <time>2015-08-01T12:35:27Z</time>
      </trkpt>
      <trkpt lat="40.222600" lon="-4.963000">
        <ele>1783.0</ele>
        <time>2015-08-01T12:35:29Z</time>
      </trkpt>
      <trkpt lat="40.222500" lon="-4.963117">
        <ele>1792.0</ele>
        <time>2015-08-01T12:35:31Z</time>
      </trkpt>
      <trkpt lat="40.222417" lon="-4.963067">
        <ele>1802.0</ele>
        <time>2015-08-01T12:35:33Z</time>
      </trkpt>
      <trkpt lat="40.222367" lon="-4.962950">
        <ele>1812.0</ele>
        <time>2015-08-01T12:35:35Z</time>
      </trkpt>
      <trkpt lat="40.222367" lon="-4.962800">
        <ele>1822.0</ele>
        <time>2015-08-01T12:35:37Z</time>
      </trkpt>
      <trkpt lat="40.222417" lon="-4.962617">
        <ele>1830.0</ele>
        <time>2015-08-01T12:35:39Z</time>
      </trkpt>
      <trkpt lat="40.222567" lon="-4.962433">
        <ele>1838.0</ele>
        <time>2015-08-01T12:35:41Z</time>
      </trkpt>
      <trkpt lat="40.222817" lon="-4.962333">
        <ele>1849.0</ele>
        <time>2015-08-01T12:35:43Z</time>
      </trkpt>
      <trkpt lat="40.223067" lon="-4.962400">
        <ele>1859.0</ele>
        <time>2015-08-01T12:35:45Z</time>
      </trkpt>
      <trkpt lat="40.223300" lon="-4.962567">
        <ele>1864.0</ele>
        <time>2015-08-01T12:35:47Z</time>
      </trkpt>
      <trkpt lat="40.223483" lon="-4.962867">
        <ele>1869.0</ele>
        <time>2015-08-01T12:35:49Z</time>
      </trkpt>
      <trkpt lat="40.223550" lon="-4.963167">
        <ele>1880.0</ele>
        <time>2015-08-01T12:35:51Z</time>
      </trkpt>
      <trkpt lat="40.223567" lon="-4.963383">
        <ele>1892.0</ele>
        <time>2015-08-01T12:35:53Z</time>
      </trkpt>
      <trkpt lat="40.223550" lon="-4.963550">
        <ele>1901.0</ele>
        <time>2015-08-01T12:35:55Z</time>
      </trkpt>
      <trkpt lat="40.223467" lon="-4.963667">
        <ele>1908.0</ele>
        <time>2015-08-01T12:35:57Z</time>
      </trkpt>
      <trkpt lat="40.223350" lon="-4.963617">
        <ele>1914.0</ele>
        <time>2015-08-01T12:35:59Z</time>
      </trkpt>
      <trkpt lat="40.223283" lon="-4.963483">
        <ele>1924.0</ele>
        <time>2015-08-01T12:36:01Z</time>
      </trkpt>
      <trkpt lat="40.223283" lon="-4.963350">
        <ele>1935.0</ele>
        <time>2015-08-01T12:36:03Z</time>
      </trkpt>
      <trkpt lat="40.223367" lon="-4.963183">
        <ele>1944.0</ele>
        <time>2015-08-01T12:36:05Z</time>
      </trkpt>
      <trkpt lat="40.223550" lon="-4.963050">
        <ele>1951.0</ele>
        <time>2015-08-01T12:36:07Z</time>
      </trkpt>
      <trkpt lat="40.223800" lon="-4.963033">
        <ele>1957.0</ele>
        <time>2015-08-01T12:36:09Z</time>
      </trkpt>
      <trkpt lat="40.224050" lon="-4.963150">
        <ele>1963.0</ele>
        <time>2015-08-01T12:36:11Z</time>
      </trkpt>
      <trkpt lat="40.224267" lon="-4.963383">
        <ele>1969.0</ele>
        <time>2015-08-01T12:36:13Z</time>
      </trkpt>
      <trkpt lat="40.224417" lon="-4.963667">
        <ele>1977.0</ele>
        <time>2015-08-01T12:36:15Z</time>
      </trkpt>
      <trkpt lat="40.224500" lon="-4.963967">
        <ele>1986.0</ele>
        <time>2015-08-01T12:36:17Z</time>
      </trkpt>
      <trkpt lat="40.224483" lon="-4.964233">
        <ele>1997.0</ele>
        <time>2015-08-01T12:36:19Z</time>
      </trkpt>
      <trkpt lat="40.224433" lon="-4.964400">
        <ele>2008.0</ele>
        <time>2015-08-01T12:36:21Z</time>
      </trkpt>
      <trkpt lat="40.224350" lon="-4.964483">
        <ele>2016.0</ele>
        <time>2015-08-01T12:36:23Z</time>
      </trkpt>
      <trkpt lat="40.224250" lon="-4.964433">
        <ele>2022.0</ele>
        <time>2015-08-01T12:36:25Z</time>
      </trkpt>
      <trkpt lat="40.224233" lon="-4.964300">
        <ele>2030.0</ele>
        <time>2015-08-01T12:36:27Z</time>
      </trkpt>
      <trkpt lat="40.224283" lon="-4.964133">
        <ele>2038.0</ele>
        <time>2015-08-01T12:36:29Z</time>
      </trkpt>
      <trkpt lat="40.224433" lon="-4.963983">
        <ele>2046.0</ele>
        <time>2015-08-01T12:36:31Z</time>
      </trkpt>
      <trkpt lat="40.224633" lon="-4.963917">
        <ele>2055.0</ele>
        <time>2015-08-01T12:36:33Z</time>
      </trkpt>
      <trkpt lat="40.224883" lon="-4.963950">
        <ele>2062.0</ele>
        <time>2015-08-01T12:36:35Z</time>
      </trkpt>
      <trkpt lat="40.225117" lon="-4.964100">
        <ele>2068.0</ele>
        <time>2015-08-01T12:36:37Z</time>
      </trkpt>
      <trkpt lat="40.225250" lon="-4.964400">
        <ele>2074.0</ele>
        <time>2015-08-01T12:36:39Z</time>
      </trkpt>
      <trkpt lat="40.225283" lon="-4.964700">
        <ele>2083.0</ele>
        <time>2015-08-01T12:36:41Z</time>
      </trkpt>
      <trkpt lat="40.225300" lon="-4.964933">
        <ele>2096.0</ele>
        <time>2015-08-01T12:36:43Z</time>
      </trkpt>
      <trkpt lat="40.225317" lon="-4.965100">
        <ele>2104.0</ele>
        <time>2015-08-01T12:36:45Z</time>
      </trkpt>
      <trkpt lat="40.225283" lon="-4.965267">
        <ele>2107.0</ele>
        <time>2015-08-01T12:36:47Z</time>
      </trkpt>
      <trkpt lat="40.225200" lon="-4.965433">
        <ele>2111.0</ele>
        <time>2015-08-01T12:36:49Z</time>
      </trkpt>
      <trkpt lat="40.225117" lon="-4.965450">
        <ele>2117.0</ele>
        <time>2015-08-01T12:36:51Z</time>
      </trkpt>
      <trkpt lat="40.225050" lon="-4.965350">
        <ele>2122.0</ele>
        <time>2015-08-01T12:36:53Z</time>
      </trkpt>
      <trkpt lat="40.225067" lon="-4.965167">
        <ele>2127.0</ele>
        <time>2015-08-01T12:36:55Z</time>
      </trkpt>
      <trkpt lat="40.225183" lon="-4.964967">
        <ele>2134.0</ele>
        <time>2015-08-01T12:36:57Z</time>
      </trkpt>
      <trkpt lat="40.225383" lon="-4.964817">
        <ele>2141.0</ele>
        <time>2015-08-01T12:36:59Z</time>
      </trkpt>
      <trkpt lat="40.225617" lon="-4.964817">
        <ele>2147.0</ele>
        <time>2015-08-01T12:37:01Z</time>
      </trkpt>
      <trkpt lat="40.225833" lon="-4.964950">
        <ele>2154.0</ele>
        <time>2015-08-01T12:37:03Z</time>
      </trkpt>
      <trkpt lat="40.226033" lon="-4.965117">
        <ele>2159.0</ele>
        <time>2015-08-01T12:37:05Z</time>
      </trkpt>
      <trkpt lat="40.226233" lon="-4.965300">
        <ele>2165.0</ele>
        <time>2015-08-01T12:37:07Z</time>
      </trkpt>
      <trkpt lat="40.226367" lon="-4.965517">
        <ele>2166.0</ele>
        <time>2015-08-01T12:37:09Z</time>
      </trkpt>
      <trkpt lat="40.226367" lon="-4.965717">
        <ele>2165.0</ele>
        <time>2015-08-01T12:37:11Z</time>
      </trkpt>
      <trkpt lat="40.226283" lon="-4.965733">
        <ele>2167.0</ele>
        <time>2015-08-01T12:37:13Z</time>
      </trkpt>
      <trkpt lat="40.226233" lon="-4.965683">
        <ele>2174.0</ele>
        <time>2015-08-01T12:37:15Z</time>
      </trkpt>
      <trkpt lat="40.226200" lon="-4.965600">
        <ele>2177.0</ele>
        <time>2015-08-01T12:37:17Z</time>
      </trkpt>
      <trkpt lat="40.226167" lon="-4.965433">
        <ele>2178.0</ele>
        <time>2015-08-01T12:37:19Z</time>
      </trkpt>
      <trkpt lat="40.226217" lon="-4.965217">
        <ele>2183.0</ele>
        <time>2015-08-01T12:37:21Z</time>
      </trkpt>
      <trkpt lat="40.226350" lon="-4.965050">
        <ele>2188.0</ele>
        <time>2015-08-01T12:37:23Z</time>
      </trkpt>
      <trkpt lat="40.226483" lon="-4.964883">
        <ele>2194.0</ele>
        <time>2015-08-01T12:37:25Z</time>
      </trkpt>
      <trkpt lat="40.226683" lon="-4.964783">
        <ele>2198.0</ele>
        <time>2015-08-01T12:37:27Z</time>
      </trkpt>
      <trkpt lat="40.226950" lon="-4.964783">
        <ele>2200.0</ele>
        <time>2015-08-01T12:37:29Z</time>
      </trkpt>
      <trkpt lat="40.227200" lon="-4.964917">
        <ele>2204.0</ele>
        <time>2015-08-01T12:37:31Z</time>
      </trkpt>
      <trkpt lat="40.227350" lon="-4.965117">
        <ele>2206.0</ele>
        <time>2015-08-01T12:37:33Z</time>
      </trkpt>
      <trkpt lat="40.227400" lon="-4.965367">
        <ele>2206.0</ele>
        <time>2015-08-01T12:37:35Z</time>
      </trkpt>
      <trkpt lat="40.227417" lon="-4.965583">
        <ele>2209.0</ele>
        <time>2015-08-01T12:37:37Z</time>
      </trkpt>
      <trkpt lat="40.227417" lon="-4.965683">
        <ele>2211.0</ele>
        <time>2015-08-01T12:37:39Z</time>
      </trkpt>
      <trkpt lat="40.227350" lon="-4.965750">
        <ele>2208.0</ele>
        <time>2015-08-01T12:37:41Z</time>
      </trkpt>
      <trkpt lat="40.227250" lon="-4.965700">
        <ele>2208.0</ele>
        <time>2015-08-01T12:37:43Z</time>
      </trkpt>
      <trkpt lat="40.227200" lon="-4.965550">
        <ele>2211.0</ele>
        <time>2015-08-01T12:37:45Z</time>
      </trkpt>
      <trkpt lat="40.227167" lon="-4.965350">
        <ele>2215.0</ele>
        <time>2015-08-01T12:37:47Z</time>
      </trkpt>
      <trkpt lat="40.227167" lon="-4.965200">
        <ele>2221.0</ele>
        <time>2015-08-01T12:37:49Z</time>
      </trkpt>
      <trkpt lat="40.227217" lon="-4.965067">
        <ele>2223.0</ele>
        <time>2015-08-01T12:37:51Z</time>
      </trkpt>
      <trkpt lat="40.227300" lon="-4.964883">
        <ele>2224.0</ele>
        <time>2015-08-01T12:37:53Z</time>
      </trkpt>
      <trkpt lat="40.227467" lon="-4.964700">
        <ele>2227.0</ele>
        <time>2015-08-01T12:37:55Z</time>
      </trkpt>
      <trkpt lat="40.227683" lon="-4.964567">
        <ele>2229.0</ele>
        <time>2015-08-01T12:37:57Z</time>
      </trkpt>
      <trkpt lat="40.227950" lon="-4.964617">
        <ele>2230.0</ele>
        <time>2015-08-01T12:37:59Z</time>
      </trkpt>
      <trkpt lat="40.228100" lon="-4.964800">
        <ele>2231.0</ele>
        <time>2015-08-01T12:38:01Z</time>
      </trkpt>
      <trkpt lat="40.228100" lon="-4.964967">
        <ele>2230.0</ele>
        <time>2015-08-01T12:38:03Z</time>
      </trkpt>
      <trkpt lat="40.228033" lon="-4.965067">
        <ele>2232.0</ele>
        <time>2015-08-01T12:38:05Z</time>
      </trkpt>
      <trkpt lat="40.228017" lon="-4.965150">
        <ele>2233.0</ele>
        <time>2015-08-01T12:38:07Z</time>
      </trkpt>
      <trkpt lat="40.227983" lon="-4.965267">
        <ele>2233.0</ele>
        <time>2015-08-01T12:38:09Z</time>
      </trkpt>
      <trkpt lat="40.227933" lon="-4.965367">
        <ele>2234.0</ele>
        <time>2015-08-01T12:38:11Z</time>
      </trkpt>
      <trkpt lat="40.227867" lon="-4.965500">
        <ele>2235.0</ele>
        <time>2015-08-01T12:38:13Z</time>
      </trkpt>
      <trkpt lat="40.227850" lon="-4.965683">
        <ele>2237.0</ele>
        <time>2015-08-01T12:38:15Z</time>
      </trkpt>
      <trkpt lat="40.227867" lon="-4.965883">
        <ele>2238.0</ele>
        <time>2015-08-01T12:38:17Z</time>
      </trkpt>
      <trkpt lat="40.227883" lon="-4.966083">
        <ele>2237.0</ele>
        <time>2015-08-01T12:38:19Z</time>
      </trkpt>
      <trkpt lat="40.227900" lon="-4.966283">
        <ele>2236.0</ele>
        <time>2015-08-01T12:38:21Z</time>
      </trkpt>
      <trkpt lat="40.227900" lon="-4.966483">
        <ele>2234.0</ele>
        <time>2015-08-01T12:38:23Z</time>
      </trkpt>
      <trkpt lat="40.227900" lon="-4.966717">
        <ele>2230.0</ele>
        <time>2015-08-01T12:38:25Z</time>
      </trkpt>
      <trkpt lat="40.227950" lon="-4.967000">
        <ele>2228.0</ele>
        <time>2015-08-01T12:38:27Z</time>
      </trkpt>
      <trkpt lat="40.228000" lon="-4.967250">
        <ele>2227.0</ele>
        <time>2015-08-01T12:38:29Z</time>
      </trkpt>
      <trkpt lat="40.228017" lon="-4.967467">
        <ele>2222.0</ele>
        <time>2015-08-01T12:38:31Z</time>
      </trkpt>
      <trkpt lat="40.227950" lon="-4.967700">
        <ele>2218.0</ele>
        <time>2015-08-01T12:38:33Z</time>
      </trkpt>
      <trkpt lat="40.227933" lon="-4.968733">
        <ele>2198.0</ele>
        <time>2015-08-01T12:38:41Z</time>
      </trkpt>
      <trkpt lat="40.228017" lon="-4.968933">
        <ele>2181.0</ele>
        <time>2015-08-01T12:38:43Z</time>
      </trkpt>
      <trkpt lat="40.228017" lon="-4.969117">
        <ele>2181.0</ele>
        <time>2015-08-01T12:38:45Z</time>
      </trkpt>
      <trkpt lat="40.228017" lon="-4.969267">
        <ele>2180.0</ele>
        <time>2015-08-01T12:38:47Z</time>
      </trkpt>
      <trkpt lat="40.227983" lon="-4.969383">
        <ele>2176.0</ele>
        <time>2015-08-01T12:38:49Z</time>
      </trkpt>
      <trkpt lat="40.227917" lon="-4.969500">
        <ele>2170.0</ele>
        <time>2015-08-01T12:38:51Z</time>
      </trkpt>
      <trkpt lat="40.227800" lon="-4.969567">
        <ele>2166.0</ele>
        <time>2015-08-01T12:38:53Z</time>
      </trkpt>
      <trkpt lat="40.227683" lon="-4.969667">
        <ele>2160.0</ele>
        <time>2015-08-01T12:38:55Z</time>
      </trkpt>
      <trkpt lat="40.227583" lon="-4.969800">
        <ele>2157.0</ele>
        <time>2015-08-01T12:38:57Z</time>
      </trkpt>
      <trkpt lat="40.227483" lon="-4.969917">
        <ele>2158.0</ele>
        <time>2015-08-01T12:38:59Z</time>
      </trkpt>
      <trkpt lat="40.227400" lon="-4.970017">
        <ele>2158.0</ele>
        <time>2015-08-01T12:39:01Z</time>
      </trkpt>
      <trkpt lat="40.227317" lon="-4.970117">
        <ele>2153.0</ele>
        <time>2015-08-01T12:39:03Z</time>
      </trkpt>
      <trkpt lat="40.227200" lon="-4.970283">
        <ele>2149.0</ele>
        <time>2015-08-01T12:39:05Z</time>
      </trkpt>
      <trkpt lat="40.227117" lon="-4.970450">
        <ele>2148.0</ele>
        <time>2015-08-01T12:39:07Z</time>
      </trkpt>
      <trkpt lat="40.227017" lon="-4.970583">
        <ele>2145.0</ele>
        <time>2015-08-01T12:39:09Z</time>
      </trkpt>
      <trkpt lat="40.226933" lon="-4.970767">
        <ele>2140.0</ele>
        <time>2015-08-01T12:39:11Z</time>
      </trkpt>
      <trkpt lat="40.226833" lon="-4.970967">
        <ele>2137.0</ele>
        <time>2015-08-01T12:39:13Z</time>
      </trkpt>
      <trkpt lat="40.226783" lon="-4.971183">
        <ele>2134.0</ele>
        <time>2015-08-01T12:39:15Z</time>
      </trkpt>
      <trkpt lat="40.226717" lon="-4.971400">
        <ele>2131.0</ele>
        <time>2015-08-01T12:39:17Z</time>
      </trkpt>
      <trkpt lat="40.226667" lon="-4.971617">
        <ele>2133.0</ele>
        <time>2015-08-01T12:39:19Z</time>
      </trkpt>
      <trkpt lat="40.226650" lon="-4.971800">
        <ele>2132.0</ele>
        <time>2015-08-01T12:39:21Z</time>
      </trkpt>
      <trkpt lat="40.226600" lon="-4.972000">
        <ele>2131.0</ele>
        <time>2015-08-01T12:39:23Z</time>
      </trkpt>
      <trkpt lat="40.226550" lon="-4.972183">
        <ele>2132.0</ele>
        <time>2015-08-01T12:39:25Z</time>
      </trkpt>
      <trkpt lat="40.226467" lon="-4.972300">
        <ele>2131.0</ele>
        <time>2015-08-01T12:39:27Z</time>
      </trkpt>
      <trkpt lat="40.226367" lon="-4.972450">
        <ele>2127.0</ele>
        <time>2015-08-01T12:39:29Z</time>
      </trkpt>
      <trkpt lat="40.226250" lon="-4.972617">
        <ele>2125.0</ele>
        <time>2015-08-01T12:39:31Z</time>
      </trkpt>
      <trkpt lat="40.226150" lon="-4.972767">
        <ele>2122.0</ele>
        <time>2015-08-01T12:39:33Z</time>
      </trkpt>
      <trkpt lat="40.226050" lon="-4.972933">
        <ele>2121.0</ele>
        <time>2015-08-01T12:39:35Z</time>
      </trkpt>
      <trkpt lat="40.225950" lon="-4.973117">
        <ele>2122.0</ele>
        <time>2015-08-01T12:39:37Z</time>
      </trkpt>
      <trkpt lat="40.225867" lon="-4.973300">
        <ele>2123.0</ele>
        <time>2015-08-01T12:39:39Z</time>
      </trkpt>
      <trkpt lat="40.225817" lon="-4.973483">
        <ele>2124.0</ele>
        <time>2015-08-01T12:39:41Z</time>
      </trkpt>
      <trkpt lat="40.225733" lon="-4.973650">
        <ele>2125.0</ele>
        <time>2015-08-01T12:39:43Z</time>
      </trkpt>
      <trkpt lat="40.225617" lon="-4.973733">
        <ele>2125.0</ele>
        <time>2015-08-01T12:39:45Z</time>
      </trkpt>
      <trkpt lat="40.225467" lon="-4.973833">
        <ele>2121.0</ele>
        <time>2015-08-01T12:39:47Z</time>
      </trkpt>
      <trkpt lat="40.225283" lon="-4.973967">
        <ele>2118.0</ele>
        <time>2015-08-01T12:39:49Z</time>
      </trkpt>
      <trkpt lat="40.225117" lon="-4.974067">
        <ele>2116.0</ele>
        <time>2015-08-01T12:39:51Z</time>
      </trkpt>
      <trkpt lat="40.224967" lon="-4.974200">
        <ele>2113.0</ele>
        <time>2015-08-01T12:39:53Z</time>
      </trkpt>
      <trkpt lat="40.224833" lon="-4.974383">
        <ele>2107.0</ele>
        <time>2015-08-01T12:39:55Z</time>
      </trkpt>
      <trkpt lat="40.224683" lon="-4.974600">
        <ele>2102.0</ele>
        <time>2015-08-01T12:39:57Z</time>
      </trkpt>
      <trkpt lat="40.224533" lon="-4.974800">
        <ele>2100.0</ele>
        <time>2015-08-01T12:39:59Z</time>
      </trkpt>
      <trkpt lat="40.224383" lon="-4.975000">
        <ele>2095.0</ele>
        <time>2015-08-01T12:40:01Z</time>
      </trkpt>
      <trkpt lat="40.224267" lon="-4.975200">
        <ele>2091.0</ele>
        <time>2015-08-01T12:40:03Z</time>
      </trkpt>
      <trkpt lat="40.224150" lon="-4.975367">
        <ele>2085.0</ele>
        <time>2015-08-01T12:40:05Z</time>
      </trkpt>
      <trkpt lat="40.224017" lon="-4.975500">
        <ele>2077.0</ele>
        <time>2015-08-01T12:40:07Z</time>
      </trkpt>
      <trkpt lat="40.223850" lon="-4.975550">
        <ele>2071.0</ele>
        <time>2015-08-01T12:40:09Z</time>
      </trkpt>
      <trkpt lat="40.223683" lon="-4.975667">
        <ele>2074.0</ele>
        <time>2015-08-01T12:40:11Z</time>
      </trkpt>
      <trkpt lat="40.223617" lon="-4.975783">
        <ele>2087.0</ele>
        <time>2015-08-01T12:40:13Z</time>
      </trkpt>
      <trkpt lat="40.223650" lon="-4.975850">
        <ele>2096.0</ele>
        <time>2015-08-01T12:40:15Z</time>
      </trkpt>
      <trkpt lat="40.223633" lon="-4.975933">
        <ele>2098.0</ele>
        <time>2015-08-01T12:40:17Z</time>
      </trkpt>
      <trkpt lat="40.223617" lon="-4.976050">
        <ele>2098.0</ele>
        <time>2015-08-01T12:40:19Z</time>
      </trkpt>
      <trkpt lat="40.223583" lon="-4.976183">
        <ele>2099.0</ele>
        <time>2015-08-01T12:40:21Z</time>
      </trkpt>
      <trkpt lat="40.223550" lon="-4.976333">
        <ele>2101.0</ele>
        <time>2015-08-01T12:40:23Z</time>
      </trkpt>
      <trkpt lat="40.223433" lon="-4.976400">
        <ele>2106.0</ele>
        <time>2015-08-01T12:40:25Z</time>
      </trkpt>
      <trkpt lat="40.223350" lon="-4.976383">
        <ele>2111.0</ele>
        <time>2015-08-01T12:40:27Z</time>
      </trkpt>
      <trkpt lat="40.223233" lon="-4.976317">
        <ele>2110.0</ele>
        <time>2015-08-01T12:40:29Z</time>
      </trkpt>
      <trkpt lat="40.223100" lon="-4.976283">
        <ele>2108.0</ele>
        <time>2015-08-01T12:40:31Z</time>
      </trkpt>
      <trkpt lat="40.222967" lon="-4.976333">
        <ele>2108.0</ele>
        <time>2015-08-01T12:40:33Z</time>
      </trkpt>
      <trkpt lat="40.222900" lon="-4.976450">
        <ele>2111.0</ele>
        <time>2015-08-01T12:40:35Z</time>
      </trkpt>
      <trkpt lat="40.222867" lon="-4.976550">
        <ele>2112.0</ele>
        <time>2015-08-01T12:40:37Z</time>
      </trkpt>
      <trkpt lat="40.222833" lon="-4.976683">
        <ele>2112.0</ele>
        <time>2015-08-01T12:40:39Z</time>
      </trkpt>
      <trkpt lat="40.222817" lon="-4.976850">
        <ele>2111.0</ele>
        <time>2015-08-01T12:40:41Z</time>
      </trkpt>
      <trkpt lat="40.222767" lon="-4.977000">
        <ele>2113.0</ele>
        <time>2015-08-01T12:40:43Z</time>
      </trkpt>
      <trkpt lat="40.222717" lon="-4.977133">
        <ele>2115.0</ele>
        <time>2015-08-01T12:40:45Z</time>
      </trkpt>
      <trkpt lat="40.222683" lon="-4.977267">
        <ele>2117.0</ele>
        <time>2015-08-01T12:40:47Z</time>
      </trkpt>
      <trkpt lat="40.222633" lon="-4.977417">
        <ele>2121.0</ele>
        <time>2015-08-01T12:40:49Z</time>
      </trkpt>
      <trkpt lat="40.222600" lon="-4.977550">
        <ele>2124.0</ele>
        <time>2015-08-01T12:40:51Z</time>
      </trkpt>
      <trkpt lat="40.222533" lon="-4.977650">
        <ele>2129.0</ele>
        <time>2015-08-01T12:40:53Z</time>
      </trkpt>
      <trkpt lat="40.222433" lon="-4.977717">
        <ele>2131.0</ele>
        <time>2015-08-01T12:40:55Z</time>
      </trkpt>
      <trkpt lat="40.222283" lon="-4.977650">
        <ele>2134.0</ele>
        <time>2015-08-01T12:40:57Z</time>
      </trkpt>
      <trkpt lat="40.222167" lon="-4.977483">
        <ele>2137.0</ele>
        <time>2015-08-01T12:40:59Z</time>
      </trkpt>
      <trkpt lat="40.222100" lon="-4.977283">
        <ele>2136.0</ele>
        <time>2015-08-01T12:41:01Z</time>
      </trkpt>
      <trkpt lat="40.222017" lon="-4.976950">
        <ele>2133.0</ele>
        <time>2015-08-01T12:41:03Z</time>
      </trkpt>
      <trkpt lat="40.222017" lon="-4.976633">
        <ele>2136.0</ele>
        <time>2015-08-01T12:41:05Z</time>
      </trkpt>
      <trkpt lat="40.222100" lon="-4.976417">
        <ele>2136.0</ele>
        <time>2015-08-01T12:41:07Z</time>
      </trkpt>
      <trkpt lat="40.222250" lon="-4.976200">
        <ele>2132.0</ele>
        <time>2015-08-01T12:41:09Z</time>
      </trkpt>
      <trkpt lat="40.222467" lon="-4.976100">
        <ele>2130.0</ele>
        <time>2015-08-01T12:41:11Z</time>
      </trkpt>
      <trkpt lat="40.222633" lon="-4.976183">
        <ele>2130.0</ele>
        <time>2015-08-01T12:41:13Z</time>
      </trkpt>
      <trkpt lat="40.222683" lon="-4.976300">
        <ele>2131.0</ele>
        <time>2015-08-01T12:41:15Z</time>
      </trkpt>
      <trkpt lat="40.222667" lon="-4.976417">
        <ele>2132.0</ele>
        <time>2015-08-01T12:41:17Z</time>
      </trkpt>
      <trkpt lat="40.222633" lon="-4.976533">
        <ele>2133.0</ele>
        <time>2015-08-01T12:41:19Z</time>
      </trkpt>
      <trkpt lat="40.222583" lon="-4.976650">
        <ele>2134.0</ele>
        <time>2015-08-01T12:41:21Z</time>
      </trkpt>
      <trkpt lat="40.222533" lon="-4.976750">
        <ele>2137.0</ele>
        <time>2015-08-01T12:41:23Z</time>
      </trkpt>
      <trkpt lat="40.222467" lon="-4.976850">
        <ele>2138.0</ele>
        <time>2015-08-01T12:41:25Z</time>
      </trkpt>
      <trkpt lat="40.222417" lon="-4.976983">
        <ele>2141.0</ele>
        <time>2015-08-01T12:41:27Z</time>
      </trkpt>
      <trkpt lat="40.222383" lon="-4.977117">
        <ele>2145.0</ele>
        <time>2015-08-01T12:41:29Z</time>
      </trkpt>
      <trkpt lat="40.222333" lon="-4.977250">
        <ele>2146.0</ele>
        <time>2015-08-01T12:41:31Z</time>
      </trkpt>
      <trkpt lat="40.222283" lon="-4.977383">
        <ele>2150.0</ele>
        <time>2015-08-01T12:41:33Z</time>
      </trkpt>
      <trkpt lat="40.222267" lon="-4.977517">
        <ele>2157.0</ele>
        <time>2015-08-01T12:41:35Z</time>
      </trkpt>
      <trkpt lat="40.222233" lon="-4.977633">
        <ele>2162.0</ele>
        <time>2015-08-01T12:41:37Z</time>
      </trkpt>
      <trkpt lat="40.222150" lon="-4.977733">
        <ele>2166.0</ele>
        <time>2015-08-01T12:41:39Z</time>
      </trkpt>
      <trkpt lat="40.222033" lon="-4.977767">
        <ele>2169.0</ele>
        <time>2015-08-01T12:41:41Z</time>
      </trkpt>
      <trkpt lat="40.221900" lon="-4.977717">
        <ele>2169.0</ele>
        <time>2015-08-01T12:41:43Z</time>
      </trkpt>
      <trkpt lat="40.221733" lon="-4.977600">
        <ele>2169.0</ele>
        <time>2015-08-01T12:41:45Z</time>
      </trkpt>
      <trkpt lat="40.221567" lon="-4.977483">
        <ele>2176.0</ele>
        <time>2015-08-01T12:41:47Z</time>
      </trkpt>
      <trkpt lat="40.221467" lon="-4.977500">
        <ele>2181.0</ele>
        <time>2015-08-01T12:41:49Z</time>
      </trkpt>
      <trkpt lat="40.221400" lon="-4.977633">
        <ele>2180.0</ele>
        <time>2015-08-01T12:41:51Z</time>
      </trkpt>
      <trkpt lat="40.221350" lon="-4.977800">
        <ele>2178.0</ele>
        <time>2015-08-01T12:41:53Z</time>
      </trkpt>
      <trkpt lat="40.221300" lon="-4.977950">
        <ele>2178.0</ele>
        <time>2015-08-01T12:41:55Z</time>
      </trkpt>
      <trkpt lat="40.221250" lon="-4.978133">
        <ele>2177.0</ele>
        <time>2015-08-01T12:41:57Z</time>
      </trkpt>
      <trkpt lat="40.221167" lon="-4.978300">
        <ele>2175.0</ele>
        <time>2015-08-01T12:41:59Z</time>
      </trkpt>
      <trkpt lat="40.221067" lon="-4.978467">
        <ele>2176.0</ele>
        <time>2015-08-01T12:42:01Z</time>
      </trkpt>
      <trkpt lat="40.221050" lon="-4.978667">
        <ele>2177.0</ele>
        <time>2015-08-01T12:42:03Z</time>
      </trkpt>
      <trkpt lat="40.221017" lon="-4.978833">
        <ele>2176.0</ele>
        <time>2015-08-01T12:42:05Z</time>
      </trkpt>
      <trkpt lat="40.220967" lon="-4.979000">
        <ele>2175.0</ele>
        <time>2015-08-01T12:42:07Z</time>
      </trkpt>
      <trkpt lat="40.220900" lon="-4.979150">
        <ele>2173.0</ele>
        <time>2015-08-01T12:42:09Z</time>
      </trkpt>
      <trkpt lat="40.220833" lon="-4.979283">
        <ele>2171.0</ele>
        <time>2015-08-01T12:42:11Z</time>
      </trkpt>
      <trkpt lat="40.220767" lon="-4.979467">
        <ele>2168.0</ele>
        <time>2015-08-01T12:42:13Z</time>
      </trkpt>
      <trkpt lat="40.220717" lon="-4.979650">
        <ele>2162.0</ele>
        <time>2015-08-01T12:42:15Z</time>
      </trkpt>
      <trkpt lat="40.220650" lon="-4.979833">
        <ele>2155.0</ele>
        <time>2015-08-01T12:42:17Z</time>
      </trkpt>
      <trkpt lat="40.220600" lon="-4.980017">
        <ele>2150.0</ele>
        <time>2015-08-01T12:42:19Z</time>
      </trkpt>
      <trkpt lat="40.220550" lon="-4.980167">
        <ele>2146.0</ele>
        <time>2015-08-01T12:42:21Z</time>
      </trkpt>
      <trkpt lat="40.220467" lon="-4.980317">
        <ele>2141.0</ele>
        <time>2015-08-01T12:42:23Z</time>
      </trkpt>
      <trkpt lat="40.220350" lon="-4.980483">
        <ele>2138.0</ele>
        <time>2015-08-01T12:42:25Z</time>
      </trkpt>
      <trkpt lat="40.220250" lon="-4.980683">
        <ele>2137.0</ele>
        <time>2015-08-01T12:42:27Z</time>
      </trkpt>
      <trkpt lat="40.220167" lon="-4.980867">
        <ele>2136.0</ele>
        <time>2015-08-01T12:42:29Z</time>
      </trkpt>
      <trkpt lat="40.220067" lon="-4.981050">
        <ele>2132.0</ele>
        <time>2015-08-01T12:42:31Z</time>
      </trkpt>
      <trkpt lat="40.219983" lon="-4.981267">
        <ele>2128.0</ele>
        <time>2015-08-01T12:42:33Z</time>
      </trkpt>
      <trkpt lat="40.219900" lon="-4.981467">
        <ele>2124.0</ele>
        <time>2015-08-01T12:42:35Z</time>
      </trkpt>
      <trkpt lat="40.219800" lon="-4.981700">
        <ele>2119.0</ele>
        <time>2015-08-01T12:42:37Z</time>
      </trkpt>
      <trkpt lat="40.219683" lon="-4.981917">
        <ele>2117.0</ele>
        <time>2015-08-01T12:42:39Z</time>
      </trkpt>
      <trkpt lat="40.219567" lon="-4.982083">
        <ele>2118.0</ele>
        <time>2015-08-01T12:42:41Z</time>
      </trkpt>
      <trkpt lat="40.219467" lon="-4.982233">
        <ele>2117.0</ele>
        <time>2015-08-01T12:42:43Z</time>
      </trkpt>
      <trkpt lat="40.219350" lon="-4.982383">
        <ele>2112.0</ele>
        <time>2015-08-01T12:42:45Z</time>
      </trkpt>
      <trkpt lat="40.219233" lon="-4.982550">
        <ele>2107.0</ele>
        <time>2015-08-01T12:42:47Z</time>
      </trkpt>
      <trkpt lat="40.219100" lon="-4.982700">
        <ele>2104.0</ele>
        <time>2015-08-01T12:42:49Z</time>
      </trkpt>
      <trkpt lat="40.218983" lon="-4.982867">
        <ele>2099.0</ele>
        <time>2015-08-01T12:42:51Z</time>
      </trkpt>
      <trkpt lat="40.218833" lon="-4.983033">
        <ele>2095.0</ele>
        <time>2015-08-01T12:42:53Z</time>
      </trkpt>
      <trkpt lat="40.218717" lon="-4.983167">
        <ele>2095.0</ele>
        <time>2015-08-01T12:42:55Z</time>
      </trkpt>
      <trkpt lat="40.218617" lon="-4.983333">
        <ele>2093.0</ele>
        <time>2015-08-01T12:42:57Z</time>
      </trkpt>
      <trkpt lat="40.218533" lon="-4.983517">
        <ele>2093.0</ele>
        <time>2015-08-01T12:42:59Z</time>
      </trkpt>
      <trkpt lat="40.218467" lon="-4.983667">
        <ele>2092.0</ele>
        <time>2015-08-01T12:43:01Z</time>
      </trkpt>
      <trkpt lat="40.218400" lon="-4.983850">
        <ele>2088.0</ele>
        <time>2015-08-01T12:43:03Z</time>
      </trkpt>
      <trkpt lat="40.218317" lon="-4.984033">
        <ele>2082.0</ele>
        <time>2015-08-01T12:43:05Z</time>
      </trkpt>
      <trkpt lat="40.218233" lon="-4.984217">
        <ele>2078.0</ele>
        <time>2015-08-01T12:43:07Z</time>
      </trkpt>
      <trkpt lat="40.218167" lon="-4.984417">
        <ele>2074.0</ele>
        <time>2015-08-01T12:43:09Z</time>
      </trkpt>
      <trkpt lat="40.218083" lon="-4.984600">
        <ele>2071.0</ele>
        <time>2015-08-01T12:43:11Z</time>
      </trkpt>
      <trkpt lat="40.218000" lon="-4.984767">
        <ele>2068.0</ele>
        <time>2015-08-01T12:43:13Z</time>
      </trkpt>
      <trkpt lat="40.217917" lon="-4.984950">
        <ele>2064.0</ele>
        <time>2015-08-01T12:43:15Z</time>
      </trkpt>
      <trkpt lat="40.217833" lon="-4.985117">
        <ele>2060.0</ele>
        <time>2015-08-01T12:43:17Z</time>
      </trkpt>
      <trkpt lat="40.217700" lon="-4.985267">
        <ele>2057.0</ele>
        <time>2015-08-01T12:43:19Z</time>
      </trkpt>
      <trkpt lat="40.217600" lon="-4.985400">
        <ele>2054.0</ele>
        <time>2015-08-01T12:43:21Z</time>
      </trkpt>
      <trkpt lat="40.217500" lon="-4.985567">
        <ele>2051.0</ele>
        <time>2015-08-01T12:43:23Z</time>
      </trkpt>
      <trkpt lat="40.217383" lon="-4.985717">
        <ele>2048.0</ele>
        <time>2015-08-01T12:43:25Z</time>
      </trkpt>
      <trkpt lat="40.217283" lon="-4.985850">
        <ele>2046.0</ele>
        <time>2015-08-01T12:43:27Z</time>
      </trkpt>
      <trkpt lat="40.217200" lon="-4.986000">
        <ele>2043.0</ele>
        <time>2015-08-01T12:43:29Z</time>
      </trkpt>
      <trkpt lat="40.217083" lon="-4.986150">
        <ele>2040.0</ele>
        <time>2015-08-01T12:43:31Z</time>
      </trkpt>
      <trkpt lat="40.216983" lon="-4.986317">
        <ele>2038.0</ele>
        <time>2015-08-01T12:43:33Z</time>
      </trkpt>
      <trkpt lat="40.216900" lon="-4.986467">
        <ele>2035.0</ele>
        <time>2015-08-01T12:43:35Z</time>
      </trkpt>
      <trkpt lat="40.216800" lon="-4.986633">
        <ele>2030.0</ele>
        <time>2015-08-01T12:43:37Z</time>
      </trkpt>
      <trkpt lat="40.216700" lon="-4.986817">
        <ele>2027.0</ele>
        <time>2015-08-01T12:43:39Z</time>
      </trkpt>
      <trkpt lat="40.216617" lon="-4.987000">
        <ele>2025.0</ele>
        <time>2015-08-01T12:43:41Z</time>
      </trkpt>
      <trkpt lat="40.216517" lon="-4.987183">
        <ele>2021.0</ele>
        <time>2015-08-01T12:43:43Z</time>
      </trkpt>
      <trkpt lat="40.216433" lon="-4.987383">
        <ele>2018.0</ele>
        <time>2015-08-01T12:43:45Z</time>
      </trkpt>
      <trkpt lat="40.216333" lon="-4.987583">
        <ele>2016.0</ele>
        <time>2015-08-01T12:43:47Z</time>
      </trkpt>
      <trkpt lat="40.216233" lon="-4.987783">
        <ele>2016.0</ele>
        <time>2015-08-01T12:43:49Z</time>
      </trkpt>
      <trkpt lat="40.216150" lon="-4.987983">
        <ele>2016.0</ele>
        <time>2015-08-01T12:43:51Z</time>
      </trkpt>
      <trkpt lat="40.216050" lon="-4.988167">
        <ele>2016.0</ele>
        <time>2015-08-01T12:43:53Z</time>
      </trkpt>
      <trkpt lat="40.215983" lon="-4.988333">
        <ele>2015.0</ele>
        <time>2015-08-01T12:43:55Z</time>
      </trkpt>
      <trkpt lat="40.215900" lon="-4.988517">
        <ele>2013.0</ele>
        <time>2015-08-01T12:43:57Z</time>
      </trkpt>
      <trkpt lat="40.215817" lon="-4.988700">
        <ele>2009.0</ele>
        <time>2015-08-01T12:43:59Z</time>
      </trkpt>
      <trkpt lat="40.215767" lon="-4.988867">
        <ele>2005.0</ele>
        <time>2015-08-01T12:44:01Z</time>
      </trkpt>
      <trkpt lat="40.215717" lon="-4.989067">
        <ele>1998.0</ele>
        <time>2015-08-01T12:44:03Z</time>
      </trkpt>
      <trkpt lat="40.215667" lon="-4.989300">
        <ele>1993.0</ele>
        <time>2015-08-01T12:44:05Z</time>
      </trkpt>
      <trkpt lat="40.215617" lon="-4.989467">
        <ele>1990.0</ele>
        <time>2015-08-01T12:44:07Z</time>
      </trkpt>
      <trkpt lat="40.215567" lon="-4.989633">
        <ele>1983.0</ele>
        <time>2015-08-01T12:44:09Z</time>
      </trkpt>
      <trkpt lat="40.215517" lon="-4.989833">
        <ele>1975.0</ele>
        <time>2015-08-01T12:44:11Z</time>
      </trkpt>
      <trkpt lat="40.215467" lon="-4.990067">
        <ele>1968.0</ele>
        <time>2015-08-01T12:44:13Z</time>
      </trkpt>
      <trkpt lat="40.215400" lon="-4.990283">
        <ele>1965.0</ele>
        <time>2015-08-01T12:44:15Z</time>
      </trkpt>
      <trkpt lat="40.215367" lon="-4.990483">
        <ele>1964.0</ele>
        <time>2015-08-01T12:44:17Z</time>
      </trkpt>
      <trkpt lat="40.215317" lon="-4.990667">
        <ele>1961.0</ele>
        <time>2015-08-01T12:44:19Z</time>
      </trkpt>
      <trkpt lat="40.215283" lon="-4.990850">
        <ele>1958.0</ele>
        <time>2015-08-01T12:44:21Z</time>
      </trkpt>
      <trkpt lat="40.215233" lon="-4.991050">
        <ele>1955.0</ele>
        <time>2015-08-01T12:44:23Z</time>
      </trkpt>
      <trkpt lat="40.215167" lon="-4.991250">
        <ele>1952.0</ele>
        <time>2015-08-01T12:44:25Z</time>
      </trkpt>
      <trkpt lat="40.215100" lon="-4.991450">
        <ele>1949.0</ele>
        <time>2015-08-01T12:44:27Z</time>
      </trkpt>
      <trkpt lat="40.215033" lon="-4.991650">
        <ele>1946.0</ele>
        <time>2015-08-01T12:44:29Z</time>
      </trkpt>
      <trkpt lat="40.214950" lon="-4.991850">
        <ele>1942.0</ele>
        <time>2015-08-01T12:44:31Z</time>
      </trkpt>
      <trkpt lat="40.214867" lon="-4.992050">
        <ele>1939.0</ele>
        <time>2015-08-01T12:44:33Z</time>
      </trkpt>
      <trkpt lat="40.214833" lon="-4.992233">
        <ele>1935.0</ele>
        <time>2015-08-01T12:44:35Z</time>
      </trkpt>
      <trkpt lat="40.214800" lon="-4.992433">
        <ele>1929.0</ele>
        <time>2015-08-01T12:44:37Z</time>
      </trkpt>
      <trkpt lat="40.214767" lon="-4.992633">
        <ele>1923.0</ele>
        <time>2015-08-01T12:44:39Z</time>
      </trkpt>
      <trkpt lat="40.214700" lon="-4.992817">
        <ele>1917.0</ele>
        <time>2015-08-01T12:44:41Z</time>
      </trkpt>
      <trkpt lat="40.214650" lon="-4.993000">
        <ele>1912.0</ele>
        <time>2015-08-01T12:44:43Z</time>
      </trkpt>
      <trkpt lat="40.214583" lon="-4.993183">
        <ele>1909.0</ele>
        <time>2015-08-01T12:44:45Z</time>
      </trkpt>
      <trkpt lat="40.214533" lon="-4.993333">
        <ele>1903.0</ele>
        <time>2015-08-01T12:44:47Z</time>
      </trkpt>
      <trkpt lat="40.214467" lon="-4.993550">
        <ele>1896.0</ele>
        <time>2015-08-01T12:44:49Z</time>
      </trkpt>
      <trkpt lat="40.214417" lon="-4.993733">
        <ele>1892.0</ele>
        <time>2015-08-01T12:44:51Z</time>
      </trkpt>
      <trkpt lat="40.214367" lon="-4.993883">
        <ele>1888.0</ele>
        <time>2015-08-01T12:44:53Z</time>
      </trkpt>
      <trkpt lat="40.214283" lon="-4.994083">
        <ele>1881.0</ele>
        <time>2015-08-01T12:44:55Z</time>
      </trkpt>
      <trkpt lat="40.214183" lon="-4.994283">
        <ele>1879.0</ele>
        <time>2015-08-01T12:44:57Z</time>
      </trkpt>
      <trkpt lat="40.214100" lon="-4.994417">
        <ele>1878.0</ele>
        <time>2015-08-01T12:44:59Z</time>
      </trkpt>
      <trkpt lat="40.214000" lon="-4.994550">
        <ele>1873.0</ele>
        <time>2015-08-01T12:45:01Z</time>
      </trkpt>
      <trkpt lat="40.213933" lon="-4.994683">
        <ele>1865.0</ele>
        <time>2015-08-01T12:45:03Z</time>
      </trkpt>
      <trkpt lat="40.213850" lon="-4.994833">
        <ele>1858.0</ele>
        <time>2015-08-01T12:45:05Z</time>
      </trkpt>
      <trkpt lat="40.213750" lon="-4.995000">
        <ele>1852.0</ele>
        <time>2015-08-01T12:45:07Z</time>
      </trkpt>
      <trkpt lat="40.213683" lon="-4.995150">
        <ele>1847.0</ele>
        <time>2015-08-01T12:45:09Z</time>
      </trkpt>
      <trkpt lat="40.213600" lon="-4.995300">
        <ele>1841.0</ele>
        <time>2015-08-01T12:45:11Z</time>
      </trkpt>
      <trkpt lat="40.213533" lon="-4.995450">
        <ele>1834.0</ele>
        <time>2015-08-01T12:45:13Z</time>
      </trkpt>
      <trkpt lat="40.213450" lon="-4.995600">
        <ele>1827.0</ele>
        <time>2015-08-01T12:45:15Z</time>
      </trkpt>
      <trkpt lat="40.213367" lon="-4.995750">
        <ele>1823.0</ele>
        <time>2015-08-01T12:45:17Z</time>
      </trkpt>
      <trkpt lat="40.213283" lon="-4.995900">
        <ele>1819.0</ele>
        <time>2015-08-01T12:45:19Z</time>
      </trkpt>
      <trkpt lat="40.213200" lon="-4.996017">
        <ele>1814.0</ele>
        <time>2015-08-01T12:45:21Z</time>
      </trkpt>
      <trkpt lat="40.213117" lon="-4.996183">
        <ele>1807.0</ele>
        <time>2015-08-01T12:45:23Z</time>
      </trkpt>
      <trkpt lat="40.213017" lon="-4.996350">
        <ele>1802.0</ele>
        <time>2015-08-01T12:45:25Z</time>
      </trkpt>
      <trkpt lat="40.212933" lon="-4.996517">
        <ele>1798.0</ele>
        <time>2015-08-01T12:45:27Z</time>
      </trkpt>
      <trkpt lat="40.212867" lon="-4.996683">
        <ele>1794.0</ele>
        <time>2015-08-01T12:45:29Z</time>
      </trkpt>
      <trkpt lat="40.212800" lon="-4.996850">
        <ele>1789.0</ele>
        <time>2015-08-01T12:45:31Z</time>
      </trkpt>
      <trkpt lat="40.212717" lon="-4.996983">
        <ele>1784.0</ele>
        <time>2015-08-01T12:45:33Z</time>
      </trkpt>
      <trkpt lat="40.212633" lon="-4.997133">
        <ele>1778.0</ele>
        <time>2015-08-01T12:45:35Z</time>
      </trkpt>
      <trkpt lat="40.212533" lon="-4.997283">
        <ele>1770.0</ele>
        <time>2015-08-01T12:45:37Z</time>
      </trkpt>
      <trkpt lat="40.212433" lon="-4.997450">
        <ele>1764.0</ele>
        <time>2015-08-01T12:45:39Z</time>
      </trkpt>
      <trkpt lat="40.212333" lon="-4.997617">
        <ele>1760.0</ele>
        <time>2015-08-01T12:45:41Z</time>
      </trkpt>
      <trkpt lat="40.212250" lon="-4.997783">
        <ele>1754.0</ele>
        <time>2015-08-01T12:45:43Z</time>
      </trkpt>
      <trkpt lat="40.212117" lon="-4.997950">
        <ele>1747.0</ele>
        <time>2015-08-01T12:45:45Z</time>
      </trkpt>
      <trkpt lat="40.212017" lon="-4.998133">
        <ele>1742.0</ele>
        <time>2015-08-01T12:45:47Z</time>
      </trkpt>
      <trkpt lat="40.211883" lon="-4.998267">
        <ele>1739.0</ele>
        <time>2015-08-01T12:45:49Z</time>
      </trkpt>
      <trkpt lat="40.211750" lon="-4.998367">
        <ele>1733.0</ele>
        <time>2015-08-01T12:45:51Z</time>
      </trkpt>
      <trkpt lat="40.211617" lon="-4.998500">
        <ele>1726.0</ele>
        <time>2015-08-01T12:45:53Z</time>
      </trkpt>
      <trkpt lat="40.211467" lon="-4.998633">
        <ele>1722.0</ele>
        <time>2015-08-01T12:45:55Z</time>
      </trkpt>
      <trkpt lat="40.211333" lon="-4.998750">
        <ele>1719.0</ele>
        <time>2015-08-01T12:45:57Z</time>
      </trkpt>
      <trkpt lat="40.211250" lon="-4.998883">
        <ele>1714.0</ele>
        <time>2015-08-01T12:45:59Z</time>
      </trkpt>
      <trkpt lat="40.211150" lon="-4.999033">
        <ele>1709.0</ele>
        <time>2015-08-01T12:46:01Z</time>
      </trkpt>
      <trkpt lat="40.211067" lon="-4.999183">
        <ele>1703.0</ele>
        <time>2015-08-01T12:46:03Z</time>
      </trkpt>
      <trkpt lat="40.211000" lon="-4.999350">
        <ele>1697.0</ele>
        <time>2015-08-01T12:46:05Z</time>
      </trkpt>
      <trkpt lat="40.210933" lon="-4.999517">
        <ele>1692.0</ele>
        <time>2015-08-01T12:46:07Z</time>
      </trkpt>
      <trkpt lat="40.210883" lon="-4.999683">
        <ele>1687.0</ele>
        <time>2015-08-01T12:46:09Z</time>
      </trkpt>
      <trkpt lat="40.210800" lon="-4.999850">
        <ele>1680.0</ele>
        <time>2015-08-01T12:46:11Z</time>
      </trkpt>
      <trkpt lat="40.210717" lon="-5.000033">
        <ele>1676.0</ele>
        <time>2015-08-01T12:46:13Z</time>
      </trkpt>
      <trkpt lat="40.210650" lon="-5.000217">
        <ele>1677.0</ele>
        <time>2015-08-01T12:46:15Z</time>
      </trkpt>
      <trkpt lat="40.210600" lon="-5.000400">
        <ele>1677.0</ele>
        <time>2015-08-01T12:46:17Z</time>
      </trkpt>
      <trkpt lat="40.210550" lon="-5.000583">
        <ele>1677.0</ele>
        <time>2015-08-01T12:46:19Z</time>
      </trkpt>
      <trkpt lat="40.210517" lon="-5.000767">
        <ele>1677.0</ele>
        <time>2015-08-01T12:46:21Z</time>
      </trkpt>
      <trkpt lat="40.210483" lon="-5.000983">
        <ele>1678.0</ele>
        <time>2015-08-01T12:46:23Z</time>
      </trkpt>
      <trkpt lat="40.210433" lon="-5.001183">
        <ele>1680.0</ele>
        <time>2015-08-01T12:46:25Z</time>
      </trkpt>
      <trkpt lat="40.210367" lon="-5.001350">
        <ele>1682.0</ele>
        <time>2015-08-01T12:46:27Z</time>
      </trkpt>
      <trkpt lat="40.210300" lon="-5.001517">
        <ele>1683.0</ele>
        <time>2015-08-01T12:46:29Z</time>
      </trkpt>
      <trkpt lat="40.210217" lon="-5.001700">
        <ele>1682.0</ele>
        <time>2015-08-01T12:46:31Z</time>
      </trkpt>
      <trkpt lat="40.210117" lon="-5.001883">
        <ele>1683.0</ele>
        <time>2015-08-01T12:46:33Z</time>
      </trkpt>
      <trkpt lat="40.210067" lon="-5.002067">
        <ele>1685.0</ele>
        <time>2015-08-01T12:46:35Z</time>
      </trkpt>
      <trkpt lat="40.210067" lon="-5.002267">
        <ele>1685.0</ele>
        <time>2015-08-01T12:46:37Z</time>
      </trkpt>
      <trkpt lat="40.210100" lon="-5.002517">
        <ele>1685.0</ele>
        <time>2015-08-01T12:46:39Z</time>
      </trkpt>
      <trkpt lat="40.210100" lon="-5.002767">
        <ele>1686.0</ele>
        <time>2015-08-01T12:46:41Z</time>
      </trkpt>
      <trkpt lat="40.210067" lon="-5.002983">
        <ele>1685.0</ele>
        <time>2015-08-01T12:46:43Z</time>
      </trkpt>
      <trkpt lat="40.210000" lon="-5.003200">
        <ele>1684.0</ele>
        <time>2015-08-01T12:46:45Z</time>
      </trkpt>
      <trkpt lat="40.209950" lon="-5.003450">
        <ele>1687.0</ele>
        <time>2015-08-01T12:46:47Z</time>
      </trkpt>
      <trkpt lat="40.209967" lon="-5.003683">
        <ele>1691.0</ele>
        <time>2015-08-01T12:46:49Z</time>
      </trkpt>
      <trkpt lat="40.210033" lon="-5.003933">
        <ele>1693.0</ele>
        <time>2015-08-01T12:46:51Z</time>
      </trkpt>
      <trkpt lat="40.210167" lon="-5.004150">
        <ele>1696.0</ele>
        <time>2015-08-01T12:46:53Z</time>
      </trkpt>
      <trkpt lat="40.210317" lon="-5.004367">
        <ele>1703.0</ele>
        <time>2015-08-01T12:46:55Z</time>
      </trkpt>
      <trkpt lat="40.210350" lon="-5.004617">
        <ele>1711.0</ele>
        <time>2015-08-01T12:46:57Z</time>
      </trkpt>
      <trkpt lat="40.210283" lon="-5.004817">
        <ele>1718.0</ele>
        <time>2015-08-01T12:46:59Z</time>
      </trkpt>
      <trkpt lat="40.210133" lon="-5.004867">
        <ele>1724.0</ele>
        <time>2015-08-01T12:47:01Z</time>
      </trkpt>
      <trkpt lat="40.209983" lon="-5.004850">
        <ele>1732.0</ele>
        <time>2015-08-01T12:47:03Z</time>
      </trkpt>
      <trkpt lat="40.209883" lon="-5.004750">
        <ele>1740.0</ele>
        <time>2015-08-01T12:47:05Z</time>
      </trkpt>
      <trkpt lat="40.209833" lon="-5.004550">
        <ele>1746.0</ele>
        <time>2015-08-01T12:47:07Z</time>
      </trkpt>
      <trkpt lat="40.209867" lon="-5.004333">
        <ele>1754.0</ele>
        <time>2015-08-01T12:47:09Z</time>
      </trkpt>
      <trkpt lat="40.209967" lon="-5.004167">
        <ele>1759.0</ele>
        <time>2015-08-01T12:47:11Z</time>
      </trkpt>
      <trkpt lat="40.210117" lon="-5.004083">
        <ele>1761.0</ele>
        <time>2015-08-01T12:47:13Z</time>
      </trkpt>
      <trkpt lat="40.210300" lon="-5.004117">
        <ele>1763.0</ele>
        <time>2015-08-01T12:47:15Z</time>
      </trkpt>
      <trkpt lat="40.210467" lon="-5.004267">
        <ele>1766.0</ele>
        <time>2015-08-01T12:47:17Z</time>
      </trkpt>
      <trkpt lat="40.210567" lon="-5.004500">
        <ele>1773.0</ele>
        <time>2015-08-01T12:47:19Z</time>
      </trkpt>
      <trkpt lat="40.210633" lon="-5.004717">
        <ele>1783.0</ele>
        <time>2015-08-01T12:47:21Z</time>
      </trkpt>
      <trkpt lat="40.210650" lon="-5.004917">
        <ele>1791.0</ele>
        <time>2015-08-01T12:47:23Z</time>
      </trkpt>
      <trkpt lat="40.210600" lon="-5.005150">
        <ele>1796.0</ele>
        <time>2015-08-01T12:47:25Z</time>
      </trkpt>
      <trkpt lat="40.210467" lon="-5.005300">
        <ele>1803.0</ele>
        <time>2015-08-01T12:47:27Z</time>
      </trkpt>
      <trkpt lat="40.210317" lon="-5.005317">
        <ele>1811.0</ele>
        <time>2015-08-01T12:47:29Z</time>
      </trkpt>
      <trkpt lat="40.210233" lon="-5.005267">
        <ele>1816.0</ele>
        <time>2015-08-01T12:47:31Z</time>
      </trkpt>
      <trkpt lat="40.210150" lon="-5.005133">
        <ele>1817.0</ele>
        <time>2015-08-01T12:47:33Z</time>
      </trkpt>
      <trkpt lat="40.210167" lon="-5.004883">
        <ele>1816.0</ele>
        <time>2015-08-01T12:47:35Z</time>
      </trkpt>
      <trkpt lat="40.210283" lon="-5.004617">
        <ele>1824.0</ele>
        <time>2015-08-01T12:47:37Z</time>
      </trkpt>
      <trkpt lat="40.210417" lon="-5.004467">
        <ele>1831.0</ele>
        <time>2015-08-01T12:47:39Z</time>
      </trkpt>
      <trkpt lat="40.210583" lon="-5.004367">
        <ele>1835.0</ele>
        <time>2015-08-01T12:47:41Z</time>
      </trkpt>
      <trkpt lat="40.210800" lon="-5.004300">
        <ele>1840.0</ele>
        <time>2015-08-01T12:47:43Z</time>
      </trkpt>
      <trkpt lat="40.210983" lon="-5.004383">
        <ele>1846.0</ele>
        <time>2015-08-01T12:47:45Z</time>
      </trkpt>
      <trkpt lat="40.211100" lon="-5.004533">
        <ele>1852.0</ele>
        <time>2015-08-01T12:47:47Z</time>
      </trkpt>
      <trkpt lat="40.211183" lon="-5.004717">
        <ele>1856.0</ele>
        <time>2015-08-01T12:47:49Z</time>
      </trkpt>
      <trkpt lat="40.211200" lon="-5.004933">
        <ele>1861.0</ele>
        <time>2015-08-01T12:47:51Z</time>
      </trkpt>
      <trkpt lat="40.211117" lon="-5.005117">
        <ele>1867.0</ele>
        <time>2015-08-01T12:47:53Z</time>
      </trkpt>
      <trkpt lat="40.211000" lon="-5.005200">
        <ele>1873.0</ele>
        <time>2015-08-01T12:47:55Z</time>
      </trkpt>
      <trkpt lat="40.210867" lon="-5.005183">
        <ele>1878.0</ele>
        <time>2015-08-01T12:47:57Z</time>
      </trkpt>
      <trkpt lat="40.210733" lon="-5.005067">
        <ele>1882.0</ele>
        <time>2015-08-01T12:47:59Z</time>
      </trkpt>
      <trkpt lat="40.210667" lon="-5.004900">
        <ele>1886.0</ele>
        <time>2015-08-01T12:48:01Z</time>
      </trkpt>
      <trkpt lat="40.210650" lon="-5.004667">
        <ele>1888.0</ele>
        <time>2015-08-01T12:48:03Z</time>
      </trkpt>
      <trkpt lat="40.210700" lon="-5.004400">
        <ele>1889.0</ele>
        <time>2015-08-01T12:48:05Z</time>
      </trkpt>
      <trkpt lat="40.210850" lon="-5.004167">
        <ele>1894.0</ele>
        <time>2015-08-01T12:48:07Z</time>
      </trkpt>
      <trkpt lat="40.210983" lon="-5.004050">
        <ele>1899.0</ele>
        <time>2015-08-01T12:48:09Z</time>
      </trkpt>
      <trkpt lat="40.211167" lon="-5.004033">
        <ele>1899.0</ele>
        <time>2015-08-01T12:48:11Z</time>
      </trkpt>
      <trkpt lat="40.211350" lon="-5.004150">
        <ele>1901.0</ele>
        <time>2015-08-01T12:48:13Z</time>
      </trkpt>
      <trkpt lat="40.211450" lon="-5.004333">
        <ele>1905.0</ele>
        <time>2015-08-01T12:48:15Z</time>
      </trkpt>
      <trkpt lat="40.211500" lon="-5.004533">
        <ele>1909.0</ele>
        <time>2015-08-01T12:48:17Z</time>
      </trkpt>
      <trkpt lat="40.211517" lon="-5.004767">
        <ele>1911.0</ele>
        <time>2015-08-01T12:48:19Z</time>
      </trkpt>
      <trkpt lat="40.211467" lon="-5.004983">
        <ele>1915.0</ele>
        <time>2015-08-01T12:48:21Z</time>
      </trkpt>
      <trkpt lat="40.211383" lon="-5.005150">
        <ele>1921.0</ele>
        <time>2015-08-01T12:48:23Z</time>
      </trkpt>
      <trkpt lat="40.211267" lon="-5.005267">
        <ele>1926.0</ele>
        <time>2015-08-01T12:48:25Z</time>
      </trkpt>
      <trkpt lat="40.211150" lon="-5.005283">
        <ele>1928.0</ele>
        <time>2015-08-01T12:48:27Z</time>
      </trkpt>
      <trkpt lat="40.211017" lon="-5.005250">
        <ele>1930.0</ele>
        <time>2015-08-01T12:48:29Z</time>
      </trkpt>
      <trkpt lat="40.210900" lon="-5.005150">
        <ele>1933.0</ele>
        <time>2015-08-01T12:48:31Z</time>
      </trkpt>
      <trkpt lat="40.210850" lon="-5.004950">
        <ele>1935.0</ele>
        <time>2015-08-01T12:48:33Z</time>
      </trkpt>
      <trkpt lat="40.210883" lon="-5.004683">
        <ele>1936.0</ele>
        <time>2015-08-01T12:48:35Z</time>
      </trkpt>
      <trkpt lat="40.211000" lon="-5.004467">
        <ele>1938.0</ele>
        <time>2015-08-01T12:48:37Z</time>
      </trkpt>
      <trkpt lat="40.211183" lon="-5.004333">
        <ele>1940.0</ele>
        <time>2015-08-01T12:48:39Z</time>
      </trkpt>
      <trkpt lat="40.211383" lon="-5.004300">
        <ele>1942.0</ele>
        <time>2015-08-01T12:48:41Z</time>
      </trkpt>
      <trkpt lat="40.211533" lon="-5.004383">
        <ele>1942.0</ele>
        <time>2015-08-01T12:48:43Z</time>
      </trkpt>
      <trkpt lat="40.211667" lon="-5.004567">
        <ele>1941.0</ele>
        <time>2015-08-01T12:48:45Z</time>
      </trkpt>
      <trkpt lat="40.211750" lon="-5.004783">
        <ele>1942.0</ele>
        <time>2015-08-01T12:48:47Z</time>
      </trkpt>
      <trkpt lat="40.211783" lon="-5.005017">
        <ele>1944.0</ele>
        <time>2015-08-01T12:48:49Z</time>
      </trkpt>
      <trkpt lat="40.211767" lon="-5.005283">
        <ele>1946.0</ele>
        <time>2015-08-01T12:48:51Z</time>
      </trkpt>
      <trkpt lat="40.211750" lon="-5.005500">
        <ele>1949.0</ele>
        <time>2015-08-01T12:48:53Z</time>
      </trkpt>
      <trkpt lat="40.211683" lon="-5.005683">
        <ele>1952.0</ele>
        <time>2015-08-01T12:48:55Z</time>
      </trkpt>
      <trkpt lat="40.211600" lon="-5.005867">
        <ele>1953.0</ele>
        <time>2015-08-01T12:48:57Z</time>
      </trkpt>
      <trkpt lat="40.211467" lon="-5.006000">
        <ele>1956.0</ele>
        <time>2015-08-01T12:48:59Z</time>
      </trkpt>
      <trkpt lat="40.211300" lon="-5.006050">
        <ele>1958.0</ele>
        <time>2015-08-01T12:49:01Z</time>
      </trkpt>
      <trkpt lat="40.211150" lon="-5.006017">
        <ele>1960.0</ele>
        <time>2015-08-01T12:49:03Z</time>
      </trkpt>
      <trkpt lat="40.211017" lon="-5.005917">
        <ele>1961.0</ele>
        <time>2015-08-01T12:49:05Z</time>
      </trkpt>
      <trkpt lat="40.210950" lon="-5.005733">
        <ele>1961.0</ele>
        <time>2015-08-01T12:49:07Z</time>
      </trkpt>
      <trkpt lat="40.210950" lon="-5.005517">
        <ele>1959.0</ele>
        <time>2015-08-01T12:49:09Z</time>
      </trkpt>
      <trkpt lat="40.211033" lon="-5.005317">
        <ele>1956.0</ele>
        <time>2015-08-01T12:49:11Z</time>
      </trkpt>
      <trkpt lat="40.211233" lon="-5.005183">
        <ele>1953.0</ele>
        <time>2015-08-01T12:49:13Z</time>
      </trkpt>
      <trkpt lat="40.211450" lon="-5.005150">
        <ele>1955.0</ele>
        <time>2015-08-01T12:49:15Z</time>
      </trkpt>
      <trkpt lat="40.211650" lon="-5.005150">
        <ele>1959.0</ele>
        <time>2015-08-01T12:49:17Z</time>
      </trkpt>
      <trkpt lat="40.211800" lon="-5.005167">
        <ele>1961.0</ele>
        <time>2015-08-01T12:49:19Z</time>
      </trkpt>
      <trkpt lat="40.211933" lon="-5.005233">
        <ele>1962.0</ele>
        <time>2015-08-01T12:49:21Z</time>
      </trkpt>
      <trkpt lat="40.212067" lon="-5.005433">
        <ele>1959.0</ele>
        <time>2015-08-01T12:49:23Z</time>
      </trkpt>
      <trkpt lat="40.212117" lon="-5.005700">
        <ele>1958.0</ele>
        <time>2015-08-01T12:49:25Z</time>
      </trkpt>
      <trkpt lat="40.212117" lon="-5.005983">
        <ele>1958.0</ele>
        <time>2015-08-01T12:49:27Z</time>
      </trkpt>
      <trkpt lat="40.212117" lon="-5.006250">
        <ele>1957.0</ele>
        <time>2015-08-01T12:49:29Z</time>
      </trkpt>
      <trkpt lat="40.212117" lon="-5.006567">
        <ele>1958.0</ele>
        <time>2015-08-01T12:49:31Z</time>
      </trkpt>
      <trkpt lat="40.212117" lon="-5.006850">
        <ele>1962.0</ele>
        <time>2015-08-01T12:49:33Z</time>
      </trkpt>
      <trkpt lat="40.212183" lon="-5.007100">
        <ele>1964.0</ele>
        <time>2015-08-01T12:49:35Z</time>
      </trkpt>
      <trkpt lat="40.212250" lon="-5.007400">
        <ele>1965.0</ele>
        <time>2015-08-01T12:49:37Z</time>
      </trkpt>
      <trkpt lat="40.212267" lon="-5.007667">
        <ele>1965.0</ele>
        <time>2015-08-01T12:49:39Z</time>
      </trkpt>
      <trkpt lat="40.212217" lon="-5.007933">
        <ele>1963.0</ele>
        <time>2015-08-01T12:49:41Z</time>
      </trkpt>
      <trkpt lat="40.212133" lon="-5.008217">
        <ele>1962.0</ele>
        <time>2015-08-01T12:49:43Z</time>
      </trkpt>
      <trkpt lat="40.212083" lon="-5.008433">
        <ele>1961.0</ele>
        <time>2015-08-01T12:49:45Z</time>
      </trkpt>
      <trkpt lat="40.212017" lon="-5.008633">
        <ele>1956.0</ele>
        <time>2015-08-01T12:49:47Z</time>
      </trkpt>
      <trkpt lat="40.211933" lon="-5.008817">
        <ele>1951.0</ele>
        <time>2015-08-01T12:49:49Z</time>
      </trkpt>
      <trkpt lat="40.211867" lon="-5.008983">
        <ele>1946.0</ele>
        <time>2015-08-01T12:49:51Z</time>
      </trkpt>
      <trkpt lat="40.211800" lon="-5.009167">
        <ele>1941.0</ele>
        <time>2015-08-01T12:49:53Z</time>
      </trkpt>
      <trkpt lat="40.211717" lon="-5.009367">
        <ele>1938.0</ele>
        <time>2015-08-01T12:49:55Z</time>
      </trkpt>
      <trkpt lat="40.211633" lon="-5.009500">
        <ele>1936.0</ele>
        <time>2015-08-01T12:49:57Z</time>
      </trkpt>
      <trkpt lat="40.211550" lon="-5.009650">
        <ele>1932.0</ele>
        <time>2015-08-01T12:49:59Z</time>
      </trkpt>
      <trkpt lat="40.211467" lon="-5.009833">
        <ele>1928.0</ele>
        <time>2015-08-01T12:50:01Z</time>
      </trkpt>
      <trkpt lat="40.211400" lon="-5.010000">
        <ele>1925.0</ele>
        <time>2015-08-01T12:50:03Z</time>
      </trkpt>
      <trkpt lat="40.211333" lon="-5.010150">
        <ele>1921.0</ele>
        <time>2015-08-01T12:50:05Z</time>
      </trkpt>
      <trkpt lat="40.211250" lon="-5.010333">
        <ele>1916.0</ele>
        <time>2015-08-01T12:50:07Z</time>
      </trkpt>
      <trkpt lat="40.211167" lon="-5.010500">
        <ele>1912.0</ele>
        <time>2015-08-01T12:50:09Z</time>
      </trkpt>
      <trkpt lat="40.211067" lon="-5.010650">
        <ele>1910.0</ele>
        <time>2015-08-01T12:50:11Z</time>
      </trkpt>
      <trkpt lat="40.210967" lon="-5.010783">
        <ele>1906.0</ele>
        <time>2015-08-01T12:50:13Z</time>
      </trkpt>
      <trkpt lat="40.210883" lon="-5.010967">
        <ele>1902.0</ele>
        <time>2015-08-01T12:50:15Z</time>
      </trkpt>
      <trkpt lat="40.210783" lon="-5.011167">
        <ele>1901.0</ele>
        <time>2015-08-01T12:50:17Z</time>
      </trkpt>
      <trkpt lat="40.210750" lon="-5.011333">
        <ele>1903.0</ele>
        <time>2015-08-01T12:50:19Z</time>
      </trkpt>
      <trkpt lat="40.210733" lon="-5.011450">
        <ele>1902.0</ele>
        <time>2015-08-01T12:50:21Z</time>
      </trkpt>
      <trkpt lat="40.210700" lon="-5.011633">
        <ele>1899.0</ele>
        <time>2015-08-01T12:50:23Z</time>
      </trkpt>
      <trkpt lat="40.210667" lon="-5.011833">
        <ele>1899.0</ele>
        <time>2015-08-01T12:50:25Z</time>
      </trkpt>
      <trkpt lat="40.210650" lon="-5.011983">
        <ele>1899.0</ele>
        <time>2015-08-01T12:50:27Z</time>
      </trkpt>
      <trkpt lat="40.210617" lon="-5.012150">
        <ele>1895.0</ele>
        <time>2015-08-01T12:50:29Z</time>
      </trkpt>
      <trkpt lat="40.210583" lon="-5.012367">
        <ele>1893.0</ele>
        <time>2015-08-01T12:50:31Z</time>
      </trkpt>
      <trkpt lat="40.210533" lon="-5.012550">
        <ele>1897.0</ele>
        <time>2015-08-01T12:50:33Z</time>
      </trkpt>
      <trkpt lat="40.210500" lon="-5.012667">
        <ele>1900.0</ele>
        <time>2015-08-01T12:50:35Z</time>
      </trkpt>
      <trkpt lat="40.210450" lon="-5.012800">
        <ele>1897.0</ele>
        <time>2015-08-01T12:50:37Z</time>
      </trkpt>
      <trkpt lat="40.210417" lon="-5.013017">
        <ele>1895.0</ele>
        <time>2015-08-01T12:50:39Z</time>
      </trkpt>
      <trkpt lat="40.210417" lon="-5.013217">
        <ele>1901.0</ele>
        <time>2015-08-01T12:50:41Z</time>
      </trkpt>
      <trkpt lat="40.210400" lon="-5.013383">
        <ele>1905.0</ele>
        <time>2015-08-01T12:50:43Z</time>
      </trkpt>
      <trkpt lat="40.210367" lon="-5.013517">
        <ele>1909.0</ele>
        <time>2015-08-01T12:50:45Z</time>
      </trkpt>
      <trkpt lat="40.210283" lon="-5.013567">
        <ele>1911.0</ele>
        <time>2015-08-01T12:50:47Z</time>
      </trkpt>
      <trkpt lat="40.210183" lon="-5.013483">
        <ele>1913.0</ele>
        <time>2015-08-01T12:50:49Z</time>
      </trkpt>
      <trkpt lat="40.210117" lon="-5.013283">
        <ele>1916.0</ele>
        <time>2015-08-01T12:50:51Z</time>
      </trkpt>
      <trkpt lat="40.210133" lon="-5.013033">
        <ele>1919.0</ele>
        <time>2015-08-01T12:50:53Z</time>
      </trkpt>
      <trkpt lat="40.210233" lon="-5.012767">
        <ele>1923.0</ele>
        <time>2015-08-01T12:50:55Z</time>
      </trkpt>
      <trkpt lat="40.210433" lon="-5.012583">
        <ele>1926.0</ele>
        <time>2015-08-01T12:50:57Z</time>
      </trkpt>
      <trkpt lat="40.210683" lon="-5.012500">
        <ele>1930.0</ele>
        <time>2015-08-01T12:50:59Z</time>
      </trkpt>
      <trkpt lat="40.210900" lon="-5.012533">
        <ele>1934.0</ele>
        <time>2015-08-01T12:51:01Z</time>
      </trkpt>
      <trkpt lat="40.211100" lon="-5.012650">
        <ele>1934.0</ele>
        <time>2015-08-01T12:51:03Z</time>
      </trkpt>
      <trkpt lat="40.211300" lon="-5.012833">
        <ele>1935.0</ele>
        <time>2015-08-01T12:51:05Z</time>
      </trkpt>
      <trkpt lat="40.211433" lon="-5.013033">
        <ele>1940.0</ele>
        <time>2015-08-01T12:51:07Z</time>
      </trkpt>
      <trkpt lat="40.211500" lon="-5.013217">
        <ele>1942.0</ele>
        <time>2015-08-01T12:51:09Z</time>
      </trkpt>
      <trkpt lat="40.211517" lon="-5.013383">
        <ele>1943.0</ele>
        <time>2015-08-01T12:51:11Z</time>
      </trkpt>
      <trkpt lat="40.211467" lon="-5.013533">
        <ele>1943.0</ele>
        <time>2015-08-01T12:51:13Z</time>
      </trkpt>
      <trkpt lat="40.211433" lon="-5.013683">
        <ele>1947.0</ele>
        <time>2015-08-01T12:51:15Z</time>
      </trkpt>
      <trkpt lat="40.211467" lon="-5.013833">
        <ele>1950.0</ele>
        <time>2015-08-01T12:51:17Z</time>
      </trkpt>
      <trkpt lat="40.211500" lon="-5.013983">
        <ele>1952.0</ele>
        <time>2015-08-01T12:51:19Z</time>
      </trkpt>
      <trkpt lat="40.211567" lon="-5.014150">
        <ele>1955.0</ele>
        <time>2015-08-01T12:51:21Z</time>
      </trkpt>
      <trkpt lat="40.211617" lon="-5.014317">
        <ele>1959.0</ele>
        <time>2015-08-01T12:51:23Z</time>
      </trkpt>
      <trkpt lat="40.211617" lon="-5.014433">
        <ele>1962.0</ele>
        <time>2015-08-01T12:51:25Z</time>
      </trkpt>
      <trkpt lat="40.211550" lon="-5.014500">
        <ele>1964.0</ele>
        <time>2015-08-01T12:51:27Z</time>
      </trkpt>
      <trkpt lat="40.211483" lon="-5.014550">
        <ele>1966.0</ele>
        <time>2015-08-01T12:51:29Z</time>
      </trkpt>
      <trkpt lat="40.211400" lon="-5.014583">
        <ele>1966.0</ele>
        <time>2015-08-01T12:51:31Z</time>
      </trkpt>
      <trkpt lat="40.211333" lon="-5.014683">
        <ele>1967.0</ele>
        <time>2015-08-01T12:51:33Z</time>
      </trkpt>
      <trkpt lat="40.211317" lon="-5.014817">
        <ele>1969.0</ele>
        <time>2015-08-01T12:51:35Z</time>
      </trkpt>
      <trkpt lat="40.211333" lon="-5.014967">
        <ele>1967.0</ele>
        <time>2015-08-01T12:51:37Z</time>
      </trkpt>
      <trkpt lat="40.211333" lon="-5.015167">
        <ele>1965.0</ele>
        <time>2015-08-01T12:51:39Z</time>
      </trkpt>
      <trkpt lat="40.211367" lon="-5.015367">
        <ele>1969.0</ele>
        <time>2015-08-01T12:51:41Z</time>
      </trkpt>
      <trkpt lat="40.211383" lon="-5.015517">
        <ele>1970.0</ele>
        <time>2015-08-01T12:51:43Z</time>
      </trkpt>
      <trkpt lat="40.211367" lon="-5.015700">
        <ele>1969.0</ele>
        <time>2015-08-01T12:51:45Z</time>
      </trkpt>
      <trkpt lat="40.211333" lon="-5.015850">
        <ele>1971.0</ele>
        <time>2015-08-01T12:51:47Z</time>
      </trkpt>
      <trkpt lat="40.211283" lon="-5.015967">
        <ele>1973.0</ele>
        <time>2015-08-01T12:51:49Z</time>
      </trkpt>
      <trkpt lat="40.211217" lon="-5.016067">
        <ele>1974.0</ele>
        <time>2015-08-01T12:51:51Z</time>
      </trkpt>
      <trkpt lat="40.211117" lon="-5.016183">
        <ele>1975.0</ele>
        <time>2015-08-01T12:51:53Z</time>
      </trkpt>
      <trkpt lat="40.211017" lon="-5.016317">
        <ele>1977.0</ele>
        <time>2015-08-01T12:51:55Z</time>
      </trkpt>
      <trkpt lat="40.210933" lon="-5.016433">
        <ele>1980.0</ele>
        <time>2015-08-01T12:51:57Z</time>
      </trkpt>
      <trkpt lat="40.210867" lon="-5.016583">
        <ele>1981.0</ele>
        <time>2015-08-01T12:51:59Z</time>
      </trkpt>
      <trkpt lat="40.210817" lon="-5.016767">
        <ele>1984.0</ele>
        <time>2015-08-01T12:52:01Z</time>
      </trkpt>
      <trkpt lat="40.210850" lon="-5.016967">
        <ele>1986.0</ele>
        <time>2015-08-01T12:52:03Z</time>
      </trkpt>
      <trkpt lat="40.210933" lon="-5.017133">
        <ele>1989.0</ele>
        <time>2015-08-01T12:52:05Z</time>
      </trkpt>
      <trkpt lat="40.211117" lon="-5.017250">
        <ele>1990.0</ele>
        <time>2015-08-01T12:52:07Z</time>
      </trkpt>
      <trkpt lat="40.211367" lon="-5.017283">
        <ele>1992.0</ele>
        <time>2015-08-01T12:52:09Z</time>
      </trkpt>
      <trkpt lat="40.211600" lon="-5.017217">
        <ele>1999.0</ele>
        <time>2015-08-01T12:52:11Z</time>
      </trkpt>
      <trkpt lat="40.211783" lon="-5.017083">
        <ele>2005.0</ele>
        <time>2015-08-01T12:52:13Z</time>
      </trkpt>
      <trkpt lat="40.211933" lon="-5.016883">
        <ele>2009.0</ele>
        <time>2015-08-01T12:52:15Z</time>
      </trkpt>
      <trkpt lat="40.212000" lon="-5.016633">
        <ele>2014.0</ele>
        <time>2015-08-01T12:52:17Z</time>
      </trkpt>
      <trkpt lat="40.211983" lon="-5.016400">
        <ele>2016.0</ele>
        <time>2015-08-01T12:52:19Z</time>
      </trkpt>
      <trkpt lat="40.212000" lon="-5.016150">
        <ele>2019.0</ele>
        <time>2015-08-01T12:52:21Z</time>
      </trkpt>
      <trkpt lat="40.212133" lon="-5.015917">
        <ele>2020.0</ele>
        <time>2015-08-01T12:52:23Z</time>
      </trkpt>
      <trkpt lat="40.212317" lon="-5.015733">
        <ele>2024.0</ele>
        <time>2015-08-01T12:52:25Z</time>
      </trkpt>
      <trkpt lat="40.212517" lon="-5.015667">
        <ele>2025.0</ele>
        <time>2015-08-01T12:52:27Z</time>
      </trkpt>
      <trkpt lat="40.212767" lon="-5.015683">
        <ele>2024.0</ele>
        <time>2015-08-01T12:52:29Z</time>
      </trkpt>
      <trkpt lat="40.213017" lon="-5.015817">
        <ele>2026.0</ele>
        <time>2015-08-01T12:52:31Z</time>
      </trkpt>
      <trkpt lat="40.213217" lon="-5.015983">
        <ele>2032.0</ele>
        <time>2015-08-01T12:52:33Z</time>
      </trkpt>
      <trkpt lat="40.213367" lon="-5.016150">
        <ele>2038.0</ele>
        <time>2015-08-01T12:52:35Z</time>
      </trkpt>
      <trkpt lat="40.213417" lon="-5.016350">
        <ele>2043.0</ele>
        <time>2015-08-01T12:52:37Z</time>
      </trkpt>
      <trkpt lat="40.213417" lon="-5.016550">
        <ele>2051.0</ele>
        <time>2015-08-01T12:52:39Z</time>
      </trkpt>
      <trkpt lat="40.213367" lon="-5.016650">
        <ele>2059.0</ele>
        <time>2015-08-01T12:52:41Z</time>
      </trkpt>
      <trkpt lat="40.213267" lon="-5.016667">
        <ele>2065.0</ele>
        <time>2015-08-01T12:52:43Z</time>
      </trkpt>
      <trkpt lat="40.213183" lon="-5.016550">
        <ele>2071.0</ele>
        <time>2015-08-01T12:52:45Z</time>
      </trkpt>
      <trkpt lat="40.213150" lon="-5.016350">
        <ele>2077.0</ele>
        <time>2015-08-01T12:52:47Z</time>
      </trkpt>
      <trkpt lat="40.213167" lon="-5.016133">
        <ele>2084.0</ele>
        <time>2015-08-01T12:52:49Z</time>
      </trkpt>
      <trkpt lat="40.213250" lon="-5.015933">
        <ele>2088.0</ele>
        <time>2015-08-01T12:52:51Z</time>
      </trkpt>
      <trkpt lat="40.213400" lon="-5.015733">
        <ele>2089.0</ele>
        <time>2015-08-01T12:52:53Z</time>
      </trkpt>
      <trkpt lat="40.213633" lon="-5.015550">
        <ele>2090.0</ele>
        <time>2015-08-01T12:52:55Z</time>
      </trkpt>
      <trkpt lat="40.213883" lon="-5.015467">
        <ele>2095.0</ele>
        <time>2015-08-01T12:52:57Z</time>
      </trkpt>
      <trkpt lat="40.214117" lon="-5.015433">
        <ele>2096.0</ele>
        <time>2015-08-01T12:52:59Z</time>
      </trkpt>
      <trkpt lat="40.214417" lon="-5.015483">
        <ele>2096.0</ele>
        <time>2015-08-01T12:53:01Z</time>
      </trkpt>
      <trkpt lat="40.214683" lon="-5.015633">
        <ele>2103.0</ele>
        <time>2015-08-01T12:53:03Z</time>
      </trkpt>
      <trkpt lat="40.214850" lon="-5.015783">
        <ele>2108.0</ele>
        <time>2015-08-01T12:53:05Z</time>
      </trkpt>
      <trkpt lat="40.214967" lon="-5.015983">
        <ele>2110.0</ele>
        <time>2015-08-01T12:53:07Z</time>
      </trkpt>
      <trkpt lat="40.214983" lon="-5.016200">
        <ele>2113.0</ele>
        <time>2015-08-01T12:53:09Z</time>
      </trkpt>
      <trkpt lat="40.214917" lon="-5.016317">
        <ele>2118.0</ele>
        <time>2015-08-01T12:53:11Z</time>
      </trkpt>
      <trkpt lat="40.214817" lon="-5.016300">
        <ele>2121.0</ele>
        <time>2015-08-01T12:53:13Z</time>
      </trkpt>
      <trkpt lat="40.214750" lon="-5.016150">
        <ele>2123.0</ele>
        <time>2015-08-01T12:53:15Z</time>
      </trkpt>
      <trkpt lat="40.214733" lon="-5.015883">
        <ele>2125.0</ele>
        <time>2015-08-01T12:53:17Z</time>
      </trkpt>
      <trkpt lat="40.214833" lon="-5.015633">
        <ele>2131.0</ele>
        <time>2015-08-01T12:53:19Z</time>
      </trkpt>
      <trkpt lat="40.214950" lon="-5.015433">
        <ele>2137.0</ele>
        <time>2015-08-01T12:53:21Z</time>
      </trkpt>
      <trkpt lat="40.215100" lon="-5.015200">
        <ele>2138.0</ele>
        <time>2015-08-01T12:53:23Z</time>
      </trkpt>
      <trkpt lat="40.215317" lon="-5.014950">
        <ele>2139.0</ele>
        <time>2015-08-01T12:53:25Z</time>
      </trkpt>
      <trkpt lat="40.215550" lon="-5.014767">
        <ele>2143.0</ele>
        <time>2015-08-01T12:53:27Z</time>
      </trkpt>
      <trkpt lat="40.215783" lon="-5.014667">
        <ele>2145.0</ele>
        <time>2015-08-01T12:53:29Z</time>
      </trkpt>
      <trkpt lat="40.216083" lon="-5.014667">
        <ele>2144.0</ele>
        <time>2015-08-01T12:53:31Z</time>
      </trkpt>
      <trkpt lat="40.216333" lon="-5.014800">
        <ele>2145.0</ele>
        <time>2015-08-01T12:53:33Z</time>
      </trkpt>
      <trkpt lat="40.216467" lon="-5.014983">
        <ele>2146.0</ele>
        <time>2015-08-01T12:53:35Z</time>
      </trkpt>
      <trkpt lat="40.216567" lon="-5.015183">
        <ele>2146.0</ele>
        <time>2015-08-01T12:53:37Z</time>
      </trkpt>
      <trkpt lat="40.216567" lon="-5.015383">
        <ele>2145.0</ele>
        <time>2015-08-01T12:53:39Z</time>
      </trkpt>
      <trkpt lat="40.216500" lon="-5.015533">
        <ele>2143.0</ele>
        <time>2015-08-01T12:53:41Z</time>
      </trkpt>
      <trkpt lat="40.216367" lon="-5.015600">
        <ele>2144.0</ele>
        <time>2015-08-01T12:53:43Z</time>
      </trkpt>
      <trkpt lat="40.216200" lon="-5.015617">
        <ele>2144.0</ele>
        <time>2015-08-01T12:53:45Z</time>
      </trkpt>
      <trkpt lat="40.216067" lon="-5.015567">
        <ele>2146.0</ele>
        <time>2015-08-01T12:53:47Z</time>
      </trkpt>
      <trkpt lat="40.215983" lon="-5.015433">
        <ele>2146.0</ele>
        <time>2015-08-01T12:53:49Z</time>
      </trkpt>
      <trkpt lat="40.215883" lon="-5.015217">
        <ele>2146.0</ele>
        <time>2015-08-01T12:53:51Z</time>
      </trkpt>
      <trkpt lat="40.215850" lon="-5.014983">
        <ele>2151.0</ele>
        <time>2015-08-01T12:53:53Z</time>
      </trkpt>
      <trkpt lat="40.215867" lon="-5.014783">
        <ele>2153.0</ele>
        <time>2015-08-01T12:53:55Z</time>
      </trkpt>
      <trkpt lat="40.215900" lon="-5.014517">
        <ele>2151.0</ele>
        <time>2015-08-01T12:53:57Z</time>
      </trkpt>
      <trkpt lat="40.215983" lon="-5.014233">
        <ele>2153.0</ele>
        <time>2015-08-01T12:53:59Z</time>
      </trkpt>
      <trkpt lat="40.216100" lon="-5.014017">
        <ele>2154.0</ele>
        <time>2015-08-01T12:54:01Z</time>
      </trkpt>
      <trkpt lat="40.216233" lon="-5.013817">
        <ele>2151.0</ele>
        <time>2015-08-01T12:54:03Z</time>
      </trkpt>
      <trkpt lat="40.216383" lon="-5.013567">
        <ele>2147.0</ele>
        <time>2015-08-01T12:54:05Z</time>
      </trkpt>
      <trkpt lat="40.216467" lon="-5.013317">
        <ele>2147.0</ele>
        <time>2015-08-01T12:54:07Z</time>
      </trkpt>
      <trkpt lat="40.216467" lon="-5.013067">
        <ele>2144.0</ele>
        <time>2015-08-01T12:54:09Z</time>
      </trkpt>
      <trkpt lat="40.216467" lon="-5.012833">
        <ele>2140.0</ele>
        <time>2015-08-01T12:54:11Z</time>
      </trkpt>
      <trkpt lat="40.216417" lon="-5.012617">
        <ele>2136.0</ele>
        <time>2015-08-01T12:54:13Z</time>
      </trkpt>
      <trkpt lat="40.216317" lon="-5.012433">
        <ele>2130.0</ele>
        <time>2015-08-01T12:54:15Z</time>
      </trkpt>
      <trkpt lat="40.216217" lon="-5.012217">
        <ele>2126.0</ele>
        <time>2015-08-01T12:54:17Z</time>
      </trkpt>
      <trkpt lat="40.216133" lon="-5.012000">
        <ele>2124.0</ele>
        <time>2015-08-01T12:54:19Z</time>
      </trkpt>
      <trkpt lat="40.216033" lon="-5.011800">
        <ele>2124.0</ele>
        <time>2015-08-01T12:54:21Z</time>
      </trkpt>
      <trkpt lat="40.216017" lon="-5.011567">
        <ele>2121.0</ele>
        <time>2015-08-01T12:54:23Z</time>
      </trkpt>
      <trkpt lat="40.216000" lon="-5.011283">
        <ele>2117.0</ele>
        <time>2015-08-01T12:54:25Z</time>
      </trkpt>
      <trkpt lat="40.216000" lon="-5.010983">
        <ele>2113.0</ele>
        <time>2015-08-01T12:54:27Z</time>
      </trkpt>
      <trkpt lat="40.216000" lon="-5.010683">
        <ele>2110.0</ele>
        <time>2015-08-01T12:54:29Z</time>
      </trkpt>
      <trkpt lat="40.216017" lon="-5.010400">
        <ele>2106.0</ele>
        <time>2015-08-01T12:54:31Z</time>
      </trkpt>
      <trkpt lat="40.216000" lon="-5.010100">
        <ele>2100.0</ele>
        <time>2015-08-01T12:54:33Z</time>
      </trkpt>
      <trkpt lat="40.215983" lon="-5.009767">
        <ele>2095.0</ele>
        <time>2015-08-01T12:54:35Z</time>
      </trkpt>
      <trkpt lat="40.215983" lon="-5.009467">
        <ele>2093.0</ele>
        <time>2015-08-01T12:54:37Z</time>
      </trkpt>
      <trkpt lat="40.216017" lon="-5.009183">
        <ele>2086.0</ele>
        <time>2015-08-01T12:54:39Z</time>
      </trkpt>
      <trkpt lat="40.216000" lon="-5.008867">
        <ele>2078.0</ele>
        <time>2015-08-01T12:54:41Z</time>
      </trkpt>
      <trkpt lat="40.215967" lon="-5.008550">
        <ele>2073.0</ele>
        <time>2015-08-01T12:54:43Z</time>
      </trkpt>
      <trkpt lat="40.215967" lon="-5.008250">
        <ele>2069.0</ele>
        <time>2015-08-01T12:54:45Z</time>
      </trkpt>
      <trkpt lat="40.215917" lon="-5.007983">
        <ele>2064.0</ele>
        <time>2015-08-01T12:54:47Z</time>
      </trkpt>
      <trkpt lat="40.215867" lon="-5.007717">
        <ele>2058.0</ele>
        <time>2015-08-01T12:54:49Z</time>
      </trkpt>
      <trkpt lat="40.215833" lon="-5.007417">
        <ele>2053.0</ele>
        <time>2015-08-01T12:54:51Z</time>
      </trkpt>
      <trkpt lat="40.215817" lon="-5.007133">
        <ele>2048.0</ele>
        <time>2015-08-01T12:54:53Z</time>
      </trkpt>
      <trkpt lat="40.215783" lon="-5.006833">
        <ele>2042.0</ele>
        <time>2015-08-01T12:54:55Z</time>
      </trkpt>
      <trkpt lat="40.215767" lon="-5.006533">
        <ele>2037.0</ele>
        <time>2015-08-01T12:54:57Z</time>
      </trkpt>
      <trkpt lat="40.215733" lon="-5.006250">
        <ele>2031.0</ele>
        <time>2015-08-01T12:54:59Z</time>
      </trkpt>
      <trkpt lat="40.215717" lon="-5.005967">
        <ele>2025.0</ele>
        <time>2015-08-01T12:55:01Z</time>
      </trkpt>
      <trkpt lat="40.215650" lon="-5.005683">
        <ele>2019.0</ele>
        <time>2015-08-01T12:55:03Z</time>
      </trkpt>
      <trkpt lat="40.215617" lon="-5.005383">
        <ele>2016.0</ele>
        <time>2015-08-01T12:55:05Z</time>
      </trkpt>
      <trkpt lat="40.215600" lon="-5.005083">
        <ele>2016.0</ele>
        <time>2015-08-01T12:55:07Z</time>
      </trkpt>
      <trkpt lat="40.215583" lon="-5.004817">
        <ele>2016.0</ele>
        <time>2015-08-01T12:55:09Z</time>
      </trkpt>
      <trkpt lat="40.215583" lon="-5.004600">
        <ele>2013.0</ele>
        <time>2015-08-01T12:55:11Z</time>
      </trkpt>
      <trkpt lat="40.215567" lon="-5.004333">
        <ele>2007.0</ele>
        <time>2015-08-01T12:55:13Z</time>
      </trkpt>
      <trkpt lat="40.215550" lon="-5.004067">
        <ele>2005.0</ele>
        <time>2015-08-01T12:55:15Z</time>
      </trkpt>
      <trkpt lat="40.215550" lon="-5.003883">
        <ele>2001.0</ele>
        <time>2015-08-01T12:55:17Z</time>
      </trkpt>
      <trkpt lat="40.215567" lon="-5.003617">
        <ele>1992.0</ele>
        <time>2015-08-01T12:55:19Z</time>
      </trkpt>
      <trkpt lat="40.215567" lon="-5.003333">
        <ele>1986.0</ele>
        <time>2015-08-01T12:55:21Z</time>
      </trkpt>
      <trkpt lat="40.215550" lon="-5.003067">
        <ele>1984.0</ele>
        <time>2015-08-01T12:55:23Z</time>
      </trkpt>
      <trkpt lat="40.215550" lon="-5.002833">
        <ele>1980.0</ele>
        <time>2015-08-01T12:55:25Z</time>
      </trkpt>
      <trkpt lat="40.215583" lon="-5.002567">
        <ele>1974.0</ele>
        <time>2015-08-01T12:55:27Z</time>
      </trkpt>
      <trkpt lat="40.215633" lon="-5.002283">
        <ele>1968.0</ele>
        <time>2015-08-01T12:55:29Z</time>
      </trkpt>
      <trkpt lat="40.215700" lon="-5.002000">
        <ele>1964.0</ele>
        <time>2015-08-01T12:55:31Z</time>
      </trkpt>
      <trkpt lat="40.215733" lon="-5.001750">
        <ele>1960.0</ele>
        <time>2015-08-01T12:55:33Z</time>
      </trkpt>
      <trkpt lat="40.215783" lon="-5.001500">
        <ele>1955.0</ele>
        <time>2015-08-01T12:55:35Z</time>
      </trkpt>
      <trkpt lat="40.215833" lon="-5.001233">
        <ele>1950.0</ele>
        <time>2015-08-01T12:55:37Z</time>
      </trkpt>
      <trkpt lat="40.215867" lon="-5.000967">
        <ele>1945.0</ele>
        <time>2015-08-01T12:55:39Z</time>
      </trkpt>
      <trkpt lat="40.215900" lon="-5.000700">
        <ele>1940.0</ele>
        <time>2015-08-01T12:55:41Z</time>
      </trkpt>
      <trkpt lat="40.215917" lon="-5.000433">
        <ele>1936.0</ele>
        <time>2015-08-01T12:55:43Z</time>
      </trkpt>
      <trkpt lat="40.215950" lon="-5.000167">
        <ele>1930.0</ele>
        <time>2015-08-01T12:55:45Z</time>
      </trkpt>
      <trkpt lat="40.215983" lon="-4.999900">
        <ele>1926.0</ele>
        <time>2015-08-01T12:55:47Z</time>
      </trkpt>
      <trkpt lat="40.216050" lon="-4.999617">
        <ele>1923.0</ele>
        <time>2015-08-01T12:55:49Z</time>
      </trkpt>
      <trkpt lat="40.216083" lon="-4.999333">
        <ele>1921.0</ele>
        <time>2015-08-01T12:55:51Z</time>
      </trkpt>
      <trkpt lat="40.216133" lon="-4.999083">
        <ele>1921.0</ele>
        <time>2015-08-01T12:55:53Z</time>
      </trkpt>
      <trkpt lat="40.216150" lon="-4.998800">
        <ele>1919.0</ele>
        <time>2015-08-01T12:55:55Z</time>
      </trkpt>
      <trkpt lat="40.216150" lon="-4.998533">
        <ele>1920.0</ele>
        <time>2015-08-01T12:55:57Z</time>
      </trkpt>
      <trkpt lat="40.216133" lon="-4.998300">
        <ele>1919.0</ele>
        <time>2015-08-01T12:55:59Z</time>
      </trkpt>
      <trkpt lat="40.216117" lon="-4.998017">
        <ele>1914.0</ele>
        <time>2015-08-01T12:56:01Z</time>
      </trkpt>
      <trkpt lat="40.216133" lon="-4.997700">
        <ele>1912.0</ele>
        <time>2015-08-01T12:56:03Z</time>
      </trkpt>
      <trkpt lat="40.216150" lon="-4.997433">
        <ele>1911.0</ele>
        <time>2015-08-01T12:56:05Z</time>
      </trkpt>
      <trkpt lat="40.216183" lon="-4.997167">
        <ele>1906.0</ele>
        <time>2015-08-01T12:56:07Z</time>
      </trkpt>
      <trkpt lat="40.216200" lon="-4.996833">
        <ele>1900.0</ele>
        <time>2015-08-01T12:56:09Z</time>
      </trkpt>
      <trkpt lat="40.216233" lon="-4.996533">
        <ele>1901.0</ele>
        <time>2015-08-01T12:56:11Z</time>
      </trkpt>
      <trkpt lat="40.216267" lon="-4.996283">
        <ele>1899.0</ele>
        <time>2015-08-01T12:56:13Z</time>
      </trkpt>
      <trkpt lat="40.216283" lon="-4.996017">
        <ele>1893.0</ele>
        <time>2015-08-01T12:56:15Z</time>
      </trkpt>
      <trkpt lat="40.216267" lon="-4.995700">
        <ele>1888.0</ele>
        <time>2015-08-01T12:56:17Z</time>
      </trkpt>
      <trkpt lat="40.216333" lon="-4.995383">
        <ele>1887.0</ele>
        <time>2015-08-01T12:56:19Z</time>
      </trkpt>
      <trkpt lat="40.216433" lon="-4.995117">
        <ele>1885.0</ele>
        <time>2015-08-01T12:56:21Z</time>
      </trkpt>
      <trkpt lat="40.216517" lon="-4.994833">
        <ele>1880.0</ele>
        <time>2015-08-01T12:56:23Z</time>
      </trkpt>
      <trkpt lat="40.216617" lon="-4.994517">
        <ele>1875.0</ele>
        <time>2015-08-01T12:56:25Z</time>
      </trkpt>
      <trkpt lat="40.216700" lon="-4.994217">
        <ele>1871.0</ele>
        <time>2015-08-01T12:56:27Z</time>
      </trkpt>
      <trkpt lat="40.216767" lon="-4.993900">
        <ele>1866.0</ele>
        <time>2015-08-01T12:56:29Z</time>
      </trkpt>
      <trkpt lat="40.216800" lon="-4.993600">
        <ele>1861.0</ele>
        <time>2015-08-01T12:56:31Z</time>
      </trkpt>
      <trkpt lat="40.216850" lon="-4.993300">
        <ele>1855.0</ele>
        <time>2015-08-01T12:56:33Z</time>
      </trkpt>
      <trkpt lat="40.216883" lon="-4.992983">
        <ele>1849.0</ele>
        <time>2015-08-01T12:56:35Z</time>
      </trkpt>
      <trkpt lat="40.216900" lon="-4.992683">
        <ele>1843.0</ele>
        <time>2015-08-01T12:56:37Z</time>
      </trkpt>
      <trkpt lat="40.216933" lon="-4.992400">
        <ele>1837.0</ele>
        <time>2015-08-01T12:56:39Z</time>
      </trkpt>
      <trkpt lat="40.216950" lon="-4.992083">
        <ele>1829.0</ele>
        <time>2015-08-01T12:56:41Z</time>
      </trkpt>
      <trkpt lat="40.216983" lon="-4.991767">
        <ele>1821.0</ele>
        <time>2015-08-01T12:56:43Z</time>
      </trkpt>
      <trkpt lat="40.217000" lon="-4.991467">
        <ele>1816.0</ele>
        <time>2015-08-01T12:56:45Z</time>
      </trkpt>
      <trkpt lat="40.217017" lon="-4.991183">
        <ele>1808.0</ele>
        <time>2015-08-01T12:56:47Z</time>
      </trkpt>
      <trkpt lat="40.217050" lon="-4.990867">
        <ele>1800.0</ele>
        <time>2015-08-01T12:56:49Z</time>
      </trkpt>
      <trkpt lat="40.217067" lon="-4.990550">
        <ele>1795.0</ele>
        <time>2015-08-01T12:56:51Z</time>
      </trkpt>
      <trkpt lat="40.217100" lon="-4.990283">
        <ele>1790.0</ele>
        <time>2015-08-01T12:56:53Z</time>
      </trkpt>
      <trkpt lat="40.217117" lon="-4.989983">
        <ele>1781.0</ele>
        <time>2015-08-01T12:56:55Z</time>
      </trkpt>
      <trkpt lat="40.217133" lon="-4.989650">
        <ele>1775.0</ele>
        <time>2015-08-01T12:56:57Z</time>
      </trkpt>
      <trkpt lat="40.217150" lon="-4.989367">
        <ele>1772.0</ele>
        <time>2015-08-01T12:56:59Z</time>
      </trkpt>
      <trkpt lat="40.217183" lon="-4.989117">
        <ele>1766.0</ele>
        <time>2015-08-01T12:57:01Z</time>
      </trkpt>
      <trkpt lat="40.217217" lon="-4.988800">
        <ele>1757.0</ele>
        <time>2015-08-01T12:57:03Z</time>
      </trkpt>
      <trkpt lat="40.217233" lon="-4.988483">
        <ele>1750.0</ele>
        <time>2015-08-01T12:57:05Z</time>
      </trkpt>
      <trkpt lat="40.217267" lon="-4.988183">
        <ele>1745.0</ele>
        <time>2015-08-01T12:57:07Z</time>
      </trkpt>
      <trkpt lat="40.217300" lon="-4.987900">
        <ele>1740.0</ele>
        <time>2015-08-01T12:57:09Z</time>
      </trkpt>
      <trkpt lat="40.217333" lon="-4.987617">
        <ele>1735.0</ele>
        <time>2015-08-01T12:57:11Z</time>
      </trkpt>
      <trkpt lat="40.217367" lon="-4.987350">
        <ele>1729.0</ele>
        <time>2015-08-01T12:57:13Z</time>
      </trkpt>
      <trkpt lat="40.217383" lon="-4.987067">
        <ele>1724.0</ele>
        <time>2015-08-01T12:57:15Z</time>
      </trkpt>
      <trkpt lat="40.217400" lon="-4.986783">
        <ele>1721.0</ele>
        <time>2015-08-01T12:57:17Z</time>
      </trkpt>
      <trkpt lat="40.217417" lon="-4.986517">
        <ele>1718.0</ele>
        <time>2015-08-01T12:57:19Z</time>
      </trkpt>
      <trkpt lat="40.217433" lon="-4.986267">
        <ele>1714.0</ele>
        <time>2015-08-01T12:57:21Z</time>
      </trkpt>
      <trkpt lat="40.217433" lon="-4.986000">
        <ele>1710.0</ele>
        <time>2015-08-01T12:57:23Z</time>
      </trkpt>
      <trkpt lat="40.217450" lon="-4.985767">
        <ele>1707.0</ele>
        <time>2015-08-01T12:57:25Z</time>
      </trkpt>
      <trkpt lat="40.217483" lon="-4.985500">
        <ele>1703.0</ele>
        <time>2015-08-01T12:57:27Z</time>
      </trkpt>
      <trkpt lat="40.217517" lon="-4.985233">
        <ele>1700.0</ele>
        <time>2015-08-01T12:57:29Z</time>
      </trkpt>
      <trkpt lat="40.217567" lon="-4.985000">
        <ele>1698.0</ele>
        <time>2015-08-01T12:57:31Z</time>
      </trkpt>
      <trkpt lat="40.217600" lon="-4.984733">
        <ele>1693.0</ele>
        <time>2015-08-01T12:57:33Z</time>
      </trkpt>
      <trkpt lat="40.217633" lon="-4.984467">
        <ele>1689.0</ele>
        <time>2015-08-01T12:57:35Z</time>
      </trkpt>
      <trkpt lat="40.217683" lon="-4.984200">
        <ele>1686.0</ele>
        <time>2015-08-01T12:57:37Z</time>
      </trkpt>
      <trkpt lat="40.217717" lon="-4.983917">
        <ele>1683.0</ele>
        <time>2015-08-01T12:57:39Z</time>
      </trkpt>
      <trkpt lat="40.217750" lon="-4.983633">
        <ele>1681.0</ele>
        <time>2015-08-01T12:57:41Z</time>
      </trkpt>
      <trkpt lat="40.217817" lon="-4.983333">
        <ele>1680.0</ele>
        <time>2015-08-01T12:57:43Z</time>
      </trkpt>
      <trkpt lat="40.217867" lon="-4.983050">
        <ele>1678.0</ele>
        <time>2015-08-01T12:57:45Z</time>
      </trkpt>
      <trkpt lat="40.217900" lon="-4.982767">
        <ele>1676.0</ele>
        <time>2015-08-01T12:57:47Z</time>
      </trkpt>
      <trkpt lat="40.217933" lon="-4.982467">
        <ele>1673.0</ele>
        <time>2015-08-01T12:57:49Z</time>
      </trkpt>
      <trkpt lat="40.217983" lon="-4.982167">
        <ele>1670.0</ele>
        <time>2015-08-01T12:57:51Z</time>
      </trkpt>
      <trkpt lat="40.218033" lon="-4.981883">
        <ele>1667.0</ele>
        <time>2015-08-01T12:57:53Z</time>
      </trkpt>
      <trkpt lat="40.218100" lon="-4.981583">
        <ele>1665.0</ele>
        <time>2015-08-01T12:57:55Z</time>
      </trkpt>
      <trkpt lat="40.218167" lon="-4.981300">
        <ele>1663.0</ele>
        <time>2015-08-01T12:57:57Z</time>
      </trkpt>
      <trkpt lat="40.218217" lon="-4.981017">
        <ele>1662.0</ele>
        <time>2015-08-01T12:57:59Z</time>
      </trkpt>
      <trkpt lat="40.218283" lon="-4.980750">
        <ele>1658.0</ele>
        <time>2015-08-01T12:58:01Z</time>
      </trkpt>
      <trkpt lat="40.218350" lon="-4.980417">
        <ele>1656.0</ele>
        <time>2015-08-01T12:58:03Z</time>
      </trkpt>
      <trkpt lat="40.218417" lon="-4.980117">
        <ele>1658.0</ele>
        <time>2015-08-01T12:58:05Z</time>
      </trkpt>
      <trkpt lat="40.218450" lon="-4.979833">
        <ele>1658.0</ele>
        <time>2015-08-01T12:58:07Z</time>
      </trkpt>
      <trkpt lat="40.218483" lon="-4.979500">
        <ele>1655.0</ele>
        <time>2015-08-01T12:58:09Z</time>
      </trkpt>
      <trkpt lat="40.218517" lon="-4.979167">
        <ele>1654.0</ele>
        <time>2015-08-01T12:58:11Z</time>
      </trkpt>
      <trkpt lat="40.218550" lon="-4.978867">
        <ele>1652.0</ele>
        <time>2015-08-01T12:58:13Z</time>
      </trkpt>
      <trkpt lat="40.218600" lon="-4.978550">
        <ele>1648.0</ele>
        <time>2015-08-01T12:58:15Z</time>
      </trkpt>
      <trkpt lat="40.218650" lon="-4.978233">
        <ele>1644.0</ele>
        <time>2015-08-01T12:58:17Z</time>
      </trkpt>
      <trkpt lat="40.218717" lon="-4.977917">
        <ele>1643.0</ele>
        <time>2015-08-01T12:58:19Z</time>
      </trkpt>
      <trkpt lat="40.218783" lon="-4.977633">
        <ele>1642.0</ele>
        <time>2015-08-01T12:58:21Z</time>
      </trkpt>
      <trkpt lat="40.218833" lon="-4.977317">
        <ele>1639.0</ele>
        <time>2015-08-01T12:58:23Z</time>
      </trkpt>
      <trkpt lat="40.218900" lon="-4.977017">
        <ele>1637.0</ele>
        <time>2015-08-01T12:58:25Z</time>
      </trkpt>
      <trkpt lat="40.218950" lon="-4.976717">
        <ele>1635.0</ele>
        <time>2015-08-01T12:58:27Z</time>
      </trkpt>
      <trkpt lat="40.218983" lon="-4.976400">
        <ele>1632.0</ele>
        <time>2015-08-01T12:58:29Z</time>
      </trkpt>
      <trkpt lat="40.219050" lon="-4.976100">
        <ele>1630.0</ele>
        <time>2015-08-01T12:58:31Z</time>
      </trkpt>
      <trkpt lat="40.219100" lon="-4.975800">
        <ele>1627.0</ele>
        <time>2015-08-01T12:58:33Z</time>
      </trkpt>
      <trkpt lat="40.219167" lon="-4.975483">
        <ele>1625.0</ele>
        <time>2015-08-01T12:58:35Z</time>
      </trkpt>
      <trkpt lat="40.219233" lon="-4.975183">
        <ele>1622.0</ele>
        <time>2015-08-01T12:58:37Z</time>
      </trkpt>
      <trkpt lat="40.219283" lon="-4.974900">
        <ele>1618.0</ele>
        <time>2015-08-01T12:58:39Z</time>
      </trkpt>
      <trkpt lat="40.219333" lon="-4.974617">
        <ele>1613.0</ele>
        <time>2015-08-01T12:58:41Z</time>
      </trkpt>
      <trkpt lat="40.219400" lon="-4.974333">
        <ele>1608.0</ele>
        <time>2015-08-01T12:58:43Z</time>
      </trkpt>
      <trkpt lat="40.219467" lon="-4.974050">
        <ele>1603.0</ele>
        <time>2015-08-01T12:58:45Z</time>
      </trkpt>
      <trkpt lat="40.219550" lon="-4.973783">
        <ele>1598.0</ele>
        <time>2015-08-01T12:58:47Z</time>
      </trkpt>
      <trkpt lat="40.219600" lon="-4.973517">
        <ele>1595.0</ele>
        <time>2015-08-01T12:58:49Z</time>
      </trkpt>
      <trkpt lat="40.219683" lon="-4.973250">
        <ele>1592.0</ele>
        <time>2015-08-01T12:58:51Z</time>
      </trkpt>
      <trkpt lat="40.219750" lon="-4.972967">
        <ele>1587.0</ele>
        <time>2015-08-01T12:58:53Z</time>
      </trkpt>
      <trkpt lat="40.219817" lon="-4.972683">
        <ele>1582.0</ele>
        <time>2015-08-01T12:58:55Z</time>
      </trkpt>
      <trkpt lat="40.219850" lon="-4.972400">
        <ele>1577.0</ele>
        <time>2015-08-01T12:58:57Z</time>
      </trkpt>
      <trkpt lat="40.219900" lon="-4.972100">
        <ele>1571.0</ele>
        <time>2015-08-01T12:58:59Z</time>
      </trkpt>
      <trkpt lat="40.219967" lon="-4.971817">
        <ele>1566.0</ele>
        <time>2015-08-01T12:59:01Z</time>
      </trkpt>
      <trkpt lat="40.220017" lon="-4.971517">
        <ele>1560.0</ele>
        <time>2015-08-01T12:59:03Z</time>
      </trkpt>
      <trkpt lat="40.220050" lon="-4.971217">
        <ele>1554.0</ele>
        <time>2015-08-01T12:59:05Z</time>
      </trkpt>
      <trkpt lat="40.220083" lon="-4.970933">
        <ele>1550.0</ele>
        <time>2015-08-01T12:59:07Z</time>
      </trkpt>
      <trkpt lat="40.220133" lon="-4.970683">
        <ele>1545.0</ele>
        <time>2015-08-01T12:59:09Z</time>
      </trkpt>
      <trkpt lat="40.220183" lon="-4.970400">
        <ele>1539.0</ele>
        <time>2015-08-01T12:59:11Z</time>
      </trkpt>
      <trkpt lat="40.220250" lon="-4.970117">
        <ele>1534.0</ele>
        <time>2015-08-01T12:59:13Z</time>
      </trkpt>
      <trkpt lat="40.220300" lon="-4.969850">
        <ele>1529.0</ele>
        <time>2015-08-01T12:59:15Z</time>
      </trkpt>
      <trkpt lat="40.220333" lon="-4.969567">
        <ele>1522.0</ele>
        <time>2015-08-01T12:59:17Z</time>
      </trkpt>
      <trkpt lat="40.220333" lon="-4.969267">
        <ele>1517.0</ele>
        <time>2015-08-01T12:59:19Z</time>
      </trkpt>
      <trkpt lat="40.220367" lon="-4.968967">
        <ele>1514.0</ele>
        <time>2015-08-01T12:59:21Z</time>
      </trkpt>
      <trkpt lat="40.220417" lon="-4.968700">
        <ele>1511.0</ele>
        <time>2015-08-01T12:59:23Z</time>
      </trkpt>
      <trkpt lat="40.220467" lon="-4.968400">
        <ele>1505.0</ele>
        <time>2015-08-01T12:59:25Z</time>
      </trkpt>
      <trkpt lat="40.220533" lon="-4.968067">
        <ele>1501.0</ele>
        <time>2015-08-01T12:59:27Z</time>
      </trkpt>
      <trkpt lat="40.220600" lon="-4.967750">
        <ele>1501.0</ele>
        <time>2015-08-01T12:59:29Z</time>
      </trkpt>
      <trkpt lat="40.220667" lon="-4.967483">
        <ele>1502.0</ele>
        <time>2015-08-01T12:59:31Z</time>
      </trkpt>
      <trkpt lat="40.220717" lon="-4.967217">
        <ele>1497.0</ele>
        <time>2015-08-01T12:59:33Z</time>
      </trkpt>
      <trkpt lat="40.220800" lon="-4.966917">
        <ele>1491.0</ele>
        <time>2015-08-01T12:59:35Z</time>
      </trkpt>
      <trkpt lat="40.220917" lon="-4.966667">
        <ele>1487.0</ele>
        <time>2015-08-01T12:59:37Z</time>
      </trkpt>
      <trkpt lat="40.221033" lon="-4.966400">
        <ele>1481.0</ele>
        <time>2015-08-01T12:59:39Z</time>
      </trkpt>
      <trkpt lat="40.221183" lon="-4.966100">
        <ele>1477.0</ele>
        <time>2015-08-01T12:59:41Z</time>
      </trkpt>
      <trkpt lat="40.221283" lon="-4.965800">
        <ele>1481.0</ele>
        <time>2015-08-01T12:59:43Z</time>
      </trkpt>
      <trkpt lat="40.221283" lon="-4.965567">
        <ele>1485.0</ele>
        <time>2015-08-01T12:59:45Z</time>
      </trkpt>
      <trkpt lat="40.221233" lon="-4.965333">
        <ele>1479.0</ele>
        <time>2015-08-01T12:59:47Z</time>
      </trkpt>
      <trkpt lat="40.221267" lon="-4.965000">
        <ele>1473.0</ele>
        <time>2015-08-01T12:59:49Z</time>
      </trkpt>
      <trkpt lat="40.221417" lon="-4.964717">
        <ele>1468.0</ele>
        <time>2015-08-01T12:59:51Z</time>
      </trkpt>
      <trkpt lat="40.221583" lon="-4.964483">
        <ele>1461.0</ele>
        <time>2015-08-01T12:59:53Z</time>
      </trkpt>
      <trkpt lat="40.221783" lon="-4.964217">
        <ele>1453.0</ele>
        <time>2015-08-01T12:59:55Z</time>
      </trkpt>
      <trkpt lat="40.222017" lon="-4.963967">
        <ele>1451.0</ele>
        <time>2015-08-01T12:59:57Z</time>
      </trkpt>
      <trkpt lat="40.222150" lon="-4.963700">
        <ele>1451.0</ele>
        <time>2015-08-01T12:59:59Z</time>
      </trkpt>
      <trkpt lat="40.222217" lon="-4.963400">
        <ele>1449.0</ele>
        <time>2015-08-01T13:00:01Z</time>
      </trkpt>
      <trkpt lat="40.222267" lon="-4.963117">
        <ele>1448.0</ele>
        <time>2015-08-01T13:00:03Z</time>
      </trkpt>
      <trkpt lat="40.222267" lon="-4.962867">
        <ele>1443.0</ele>
        <time>2015-08-01T13:00:05Z</time>
      </trkpt>
      <trkpt lat="40.222267" lon="-4.962550">
        <ele>1439.0</ele>
        <time>2015-08-01T13:00:07Z</time>
      </trkpt>
      <trkpt lat="40.222317" lon="-4.962250">
        <ele>1441.0</ele>
        <time>2015-08-01T13:00:09Z</time>
      </trkpt>
      <trkpt lat="40.222350" lon="-4.962017">
        <ele>1442.0</ele>
        <time>2015-08-01T13:00:11Z</time>
      </trkpt>
      <trkpt lat="40.222283" lon="-4.961817">
        <ele>1444.0</ele>
        <time>2015-08-01T13:00:13Z</time>
      </trkpt>
      <trkpt lat="40.222183" lon="-4.961683">
        <ele>1448.0</ele>
        <time>2015-08-01T13:00:15Z</time>
      </trkpt>
      <trkpt lat="40.222083" lon="-4.961617">
        <ele>1452.0</ele>
        <time>2015-08-01T13:00:17Z</time>
      </trkpt>
      <trkpt lat="40.221983" lon="-4.961617">
        <ele>1453.0</ele>
        <time>2015-08-01T13:00:19Z</time>
      </trkpt>
      <trkpt lat="40.221900" lon="-4.961633">
        <ele>1453.0</ele>
        <time>2015-08-01T13:00:21Z</time>
      </trkpt>
      <trkpt lat="40.221850" lon="-4.961700">
        <ele>1455.0</ele>
        <time>2015-08-01T13:00:23Z</time>
      </trkpt>
      <trkpt lat="40.221850" lon="-4.961850">
        <ele>1456.0</ele>
        <time>2015-08-01T13:00:25Z</time>
      </trkpt>
      <trkpt lat="40.221950" lon="-4.961950">
        <ele>1457.0</ele>
        <time>2015-08-01T13:00:27Z</time>
      </trkpt>
      <trkpt lat="40.222083" lon="-4.962000">
        <ele>1454.0</ele>
        <time>2015-08-01T13:00:29Z</time>
      </trkpt>
      <trkpt lat="40.222317" lon="-4.962017">
        <ele>1446.0</ele>
        <time>2015-08-01T13:00:31Z</time>
      </trkpt>
      <trkpt lat="40.222567" lon="-4.961917">
        <ele>1442.0</ele>
        <time>2015-08-01T13:00:33Z</time>
      </trkpt>
      <trkpt lat="40.222767" lon="-4.961750">
        <ele>1442.0</ele>
        <time>2015-08-01T13:00:35Z</time>
      </trkpt>
      <trkpt lat="40.222967" lon="-4.961550">
        <ele>1438.0</ele>
        <time>2015-08-01T13:00:37Z</time>
      </trkpt>
      <trkpt lat="40.223150" lon="-4.961283">
        <ele>1436.0</ele>
        <time>2015-08-01T13:00:39Z</time>
      </trkpt>
      <trkpt lat="40.223317" lon="-4.961017">
        <ele>1437.0</ele>
        <time>2015-08-01T13:00:41Z</time>
      </trkpt>
      <trkpt lat="40.223483" lon="-4.960683">
        <ele>1440.0</ele>
        <time>2015-08-01T13:00:43Z</time>
      </trkpt>
      <trkpt lat="40.223533" lon="-4.960350">
        <ele>1444.0</ele>
        <time>2015-08-01T13:00:45Z</time>
      </trkpt>
      <trkpt lat="40.223600" lon="-4.960067">
        <ele>1451.0</ele>
        <time>2015-08-01T13:00:47Z</time>
      </trkpt>
      <trkpt lat="40.223733" lon="-4.959850">
        <ele>1457.0</ele>
        <time>2015-08-01T13:00:49Z</time>
      </trkpt>
      <trkpt lat="40.223917" lon="-4.959717">
        <ele>1461.0</ele>
        <time>2015-08-01T13:00:51Z</time>
      </trkpt>
      <trkpt lat="40.224150" lon="-4.959633">
        <ele>1460.0</ele>
        <time>2015-08-01T13:00:53Z</time>
      </trkpt>
      <trkpt lat="40.224417" lon="-4.959667">
        <ele>1460.0</ele>
        <time>2015-08-01T13:00:55Z</time>
      </trkpt>
      <trkpt lat="40.224650" lon="-4.959833">
        <ele>1458.0</ele>
        <time>2015-08-01T13:00:57Z</time>
      </trkpt>
      <trkpt lat="40.224750" lon="-4.960050">
        <ele>1457.0</ele>
        <time>2015-08-01T13:00:59Z</time>
      </trkpt>
      <trkpt lat="40.224733" lon="-4.960183">
        <ele>1456.0</ele>
        <time>2015-08-01T13:01:01Z</time>
      </trkpt>
      <trkpt lat="40.224683" lon="-4.960183">
        <ele>1459.0</ele>
        <time>2015-08-01T13:01:03Z</time>
      </trkpt>
      <trkpt lat="40.224683" lon="-4.960117">
        <ele>1460.0</ele>
        <time>2015-08-01T13:01:05Z</time>
      </trkpt>
      <trkpt lat="40.224683" lon="-4.959967">
        <ele>1457.0</ele>
        <time>2015-08-01T13:01:07Z</time>
      </trkpt>
      <trkpt lat="40.224667" lon="-4.959800">
        <ele>1456.0</ele>
        <time>2015-08-01T13:01:09Z</time>
      </trkpt>
      <trkpt lat="40.224617" lon="-4.959650">
        <ele>1454.0</ele>
        <time>2015-08-01T13:01:11Z</time>
      </trkpt>
      <trkpt lat="40.224550" lon="-4.959517">
        <ele>1456.0</ele>
        <time>2015-08-01T13:01:13Z</time>
      </trkpt>
      <trkpt lat="40.224500" lon="-4.959467">
        <ele>1459.0</ele>
        <time>2015-08-01T13:01:15Z</time>
      </trkpt>
      <trkpt lat="40.224467" lon="-4.959467">
        <ele>1458.0</ele>
        <time>2015-08-01T13:01:17Z</time>
      </trkpt>
      <trkpt lat="40.224400" lon="-4.959550">
        <ele>1457.0</ele>
        <time>2015-08-01T13:01:19Z</time>
      </trkpt>
      <trkpt lat="40.224350" lon="-4.959650">
        <ele>1460.0</ele>
        <time>2015-08-01T13:01:21Z</time>
      </trkpt>
      <trkpt lat="40.224317" lon="-4.959717">
        <ele>1463.0</ele>
        <time>2015-08-01T13:01:23Z</time>
      </trkpt>
      <trkpt lat="40.224233" lon="-4.959733">
        <ele>1464.0</ele>
        <time>2015-08-01T13:01:25Z</time>
      </trkpt>
      <trkpt lat="40.224133" lon="-4.959733">
        <ele>1466.0</ele>
        <time>2015-08-01T13:01:27Z</time>
      </trkpt>
      <trkpt lat="40.224067" lon="-4.959800">
        <ele>1470.0</ele>
        <time>2015-08-01T13:01:29Z</time>
      </trkpt>
      <trkpt lat="40.224050" lon="-4.959883">
        <ele>1472.0</ele>
        <time>2015-08-01T13:01:31Z</time>
      </trkpt>
      <trkpt lat="40.224017" lon="-4.959933">
        <ele>1471.0</ele>
        <time>2015-08-01T13:01:33Z</time>
      </trkpt>
      <trkpt lat="40.223967" lon="-4.959933">
        <ele>1467.0</ele>
        <time>2015-08-01T13:01:35Z</time>
      </trkpt>
      <trkpt lat="40.223917" lon="-4.959783">
        <ele>1462.0</ele>
        <time>2015-08-01T13:01:37Z</time>
      </trkpt>
      <trkpt lat="40.223950" lon="-4.959533">
        <ele>1460.0</ele>
        <time>2015-08-01T13:01:39Z</time>
      </trkpt>
      <trkpt lat="40.223983" lon="-4.959300">
        <ele>1462.0</ele>
        <time>2015-08-01T13:01:41Z</time>
      </trkpt>
      <trkpt lat="40.223983" lon="-4.959050">
        <ele>1462.0</ele>
        <time>2015-08-01T13:01:43Z</time>
      </trkpt>
      <trkpt lat="40.223917" lon="-4.958850">
        <ele>1463.0</ele>
        <time>2015-08-01T13:01:45Z</time>
      </trkpt>
      <trkpt lat="40.223850" lon="-4.958717">
        <ele>1466.0</ele>
        <time>2015-08-01T13:01:47Z</time>
      </trkpt>
      <trkpt lat="40.223767" lon="-4.958633">
        <ele>1469.0</ele>
        <time>2015-08-01T13:01:49Z</time>
      </trkpt>
      <trkpt lat="40.223650" lon="-4.958583">
        <ele>1474.0</ele>
        <time>2015-08-01T13:01:51Z</time>
      </trkpt>
      <trkpt lat="40.223533" lon="-4.958467">
        <ele>1480.0</ele>
        <time>2015-08-01T13:01:53Z</time>
      </trkpt>
      <trkpt lat="40.223500" lon="-4.958250">
        <ele>1490.0</ele>
        <time>2015-08-01T13:01:55Z</time>
      </trkpt>
      <trkpt lat="40.223550" lon="-4.958067">
        <ele>1496.0</ele>
        <time>2015-08-01T13:01:57Z</time>
      </trkpt>
      <trkpt lat="40.223600" lon="-4.957800">
        <ele>1497.0</ele>
        <time>2015-08-01T13:01:59Z</time>
      </trkpt>
      <trkpt lat="40.223750" lon="-4.957450">
        <ele>1502.0</ele>
        <time>2015-08-01T13:02:01Z</time>
      </trkpt>
      <trkpt lat="40.224033" lon="-4.957233">
        <ele>1513.0</ele>
        <time>2015-08-01T13:02:03Z</time>
      </trkpt>
      <trkpt lat="40.224267" lon="-4.957167">
        <ele>1525.0</ele>
        <time>2015-08-01T13:02:05Z</time>
      </trkpt>
      <trkpt lat="40.224467" lon="-4.957183">
        <ele>1532.0</ele>
        <time>2015-08-01T13:02:07Z</time>
      </trkpt>
      <trkpt lat="40.224683" lon="-4.957283">
        <ele>1537.0</ele>
        <time>2015-08-01T13:02:09Z</time>
      </trkpt>
      <trkpt lat="40.224800" lon="-4.957500">
        <ele>1542.0</ele>
        <time>2015-08-01T13:02:11Z</time>
      </trkpt>
      <trkpt lat="40.224833" lon="-4.957683">
        <ele>1551.0</ele>
        <time>2015-08-01T13:02:13Z</time>
      </trkpt>
      <trkpt lat="40.224833" lon="-4.957800">
        <ele>1559.0</ele>
        <time>2015-08-01T13:02:15Z</time>
      </trkpt>
      <trkpt lat="40.224750" lon="-4.957900">
        <ele>1563.0</ele>
        <time>2015-08-01T13:02:17Z</time>
      </trkpt>
      <trkpt lat="40.224633" lon="-4.957983">
        <ele>1572.0</ele>
        <time>2015-08-01T13:02:19Z</time>
      </trkpt>
      <trkpt lat="40.224567" lon="-4.957967">
        <ele>1583.0</ele>
        <time>2015-08-01T13:02:21Z</time>
      </trkpt>
      <trkpt lat="40.224500" lon="-4.957867">
        <ele>1587.0</ele>
        <time>2015-08-01T13:02:23Z</time>
      </trkpt>
      <trkpt lat="40.224433" lon="-4.957617">
        <ele>1591.0</ele>
        <time>2015-08-01T13:02:25Z</time>
      </trkpt>
      <trkpt lat="40.224467" lon="-4.957283">
        <ele>1603.0</ele>
        <time>2015-08-01T13:02:27Z</time>
      </trkpt>
      <trkpt lat="40.224583" lon="-4.957033">
        <ele>1616.0</ele>
        <time>2015-08-01T13:02:29Z</time>
      </trkpt>
      <trkpt lat="40.224733" lon="-4.956800">
        <ele>1622.0</ele>
        <time>2015-08-01T13:02:31Z</time>
      </trkpt>
      <trkpt lat="40.224983" lon="-4.956617">
        <ele>1629.0</ele>
        <time>2015-08-01T13:02:33Z</time>
      </trkpt>
      <trkpt lat="40.225267" lon="-4.956617">
        <ele>1638.0</ele>
        <time>2015-08-01T13:02:35Z</time>
      </trkpt>
      <trkpt lat="40.225450" lon="-4.956700">
        <ele>1648.0</ele>
        <time>2015-08-01T13:02:37Z</time>
      </trkpt>
      <trkpt lat="40.225567" lon="-4.956800">
        <ele>1655.0</ele>
        <time>2015-08-01T13:02:39Z</time>
      </trkpt>
      <trkpt lat="40.225617" lon="-4.956900">
        <ele>1661.0</ele>
        <time>2015-08-01T13:02:41Z</time>
      </trkpt>
      <trkpt lat="40.225583" lon="-4.956900">
        <ele>1666.0</ele>
        <time>2015-08-01T13:02:43Z</time>
      </trkpt>
      <trkpt lat="40.225500" lon="-4.956800">
        <ele>1674.0</ele>
        <time>2015-08-01T13:02:45Z</time>
      </trkpt>
      <trkpt lat="40.225450" lon="-4.956600">
        <ele>1683.0</ele>
        <time>2015-08-01T13:02:47Z</time>
      </trkpt>
      <trkpt lat="40.225483" lon="-4.956383">
        <ele>1693.0</ele>
        <time>2015-08-01T13:02:49Z</time>
      </trkpt>
      <trkpt lat="40.225567" lon="-4.956167">
        <ele>1697.0</ele>
        <time>2015-08-01T13:02:51Z</time>
      </trkpt>
      <trkpt lat="40.225733" lon="-4.955933">
        <ele>1700.0</ele>
        <time>2015-08-01T13:02:53Z</time>
      </trkpt>
      <trkpt lat="40.225967" lon="-4.955733">
        <ele>1704.0</ele>
        <time>2015-08-01T13:02:55Z</time>
      </trkpt>
      <trkpt lat="40.226217" lon="-4.955633">
        <ele>1708.0</ele>
        <time>2015-08-01T13:02:57Z</time>
      </trkpt>
      <trkpt lat="40.226467" lon="-4.955600">
        <ele>1715.0</ele>
        <time>2015-08-01T13:02:59Z</time>
      </trkpt>
      <trkpt lat="40.226683" lon="-4.955633">
        <ele>1723.0</ele>
        <time>2015-08-01T13:03:01Z</time>
      </trkpt>
      <trkpt lat="40.226900" lon="-4.955700">
        <ele>1729.0</ele>
        <time>2015-08-01T13:03:03Z</time>
      </trkpt>
      <trkpt lat="40.227033" lon="-4.955833">
        <ele>1732.0</ele>
        <time>2015-08-01T13:03:05Z</time>
      </trkpt>
      <trkpt lat="40.227100" lon="-4.955983">
        <ele>1740.0</ele>
        <time>2015-08-01T13:03:07Z</time>
      </trkpt>
      <trkpt lat="40.227083" lon="-4.956033">
        <ele>1747.0</ele>
        <time>2015-08-01T13:03:09Z</time>
      </trkpt>
      <trkpt lat="40.227033" lon="-4.956017">
        <ele>1749.0</ele>
        <time>2015-08-01T13:03:11Z</time>
      </trkpt>
      <trkpt lat="40.226917" lon="-4.955917">
        <ele>1751.0</ele>
        <time>2015-08-01T13:03:13Z</time>
      </trkpt>
      <trkpt lat="40.226850" lon="-4.955750">
        <ele>1760.0</ele>
        <time>2015-08-01T13:03:15Z</time>
      </trkpt>
      <trkpt lat="40.226867" lon="-4.955567">
        <ele>1764.0</ele>
        <time>2015-08-01T13:03:17Z</time>
      </trkpt>
      <trkpt lat="40.226850" lon="-4.955350">
        <ele>1765.0</ele>
        <time>2015-08-01T13:03:19Z</time>
      </trkpt>
      <trkpt lat="40.226883" lon="-4.955033">
        <ele>1768.0</ele>
        <time>2015-08-01T13:03:21Z</time>
      </trkpt>
      <trkpt lat="40.227017" lon="-4.954767">
        <ele>1776.0</ele>
        <time>2015-08-01T13:03:23Z</time>
      </trkpt>
      <trkpt lat="40.227167" lon="-4.954567">
        <ele>1781.0</ele>
        <time>2015-08-01T13:03:25Z</time>
      </trkpt>
      <trkpt lat="40.227383" lon="-4.954417">
        <ele>1783.0</ele>
        <time>2015-08-01T13:03:27Z</time>
      </trkpt>
      <trkpt lat="40.227633" lon="-4.954333">
        <ele>1785.0</ele>
        <time>2015-08-01T13:03:29Z</time>
      </trkpt>
      <trkpt lat="40.227867" lon="-4.954333">
        <ele>1787.0</ele>
        <time>2015-08-01T13:03:31Z</time>
      </trkpt>
      <trkpt lat="40.228067" lon="-4.954433">
        <ele>1790.0</ele>
        <time>2015-08-01T13:03:33Z</time>
      </trkpt>
      <trkpt lat="40.228217" lon="-4.954567">
        <ele>1795.0</ele>
        <time>2015-08-01T13:03:35Z</time>
      </trkpt>
      <trkpt lat="40.228283" lon="-4.954683">
        <ele>1798.0</ele>
        <time>2015-08-01T13:03:37Z</time>
      </trkpt>
      <trkpt lat="40.228283" lon="-4.954817">
        <ele>1801.0</ele>
        <time>2015-08-01T13:03:39Z</time>
      </trkpt>
      <trkpt lat="40.228267" lon="-4.954867">
        <ele>1808.0</ele>
        <time>2015-08-01T13:03:41Z</time>
      </trkpt>
      <trkpt lat="40.228250" lon="-4.954850">
        <ele>1812.0</ele>
        <time>2015-08-01T13:03:43Z</time>
      </trkpt>
      <trkpt lat="40.228183" lon="-4.954800">
        <ele>1812.0</ele>
        <time>2015-08-01T13:03:45Z</time>
      </trkpt>
      <trkpt lat="40.228067" lon="-4.954667">
        <ele>1817.0</ele>
        <time>2015-08-01T13:03:47Z</time>
      </trkpt>
      <trkpt lat="40.228033" lon="-4.954500">
        <ele>1821.0</ele>
        <time>2015-08-01T13:03:49Z</time>
      </trkpt>
      <trkpt lat="40.228000" lon="-4.954317">
        <ele>1822.0</ele>
        <time>2015-08-01T13:03:51Z</time>
      </trkpt>
      <trkpt lat="40.227967" lon="-4.954083">
        <ele>1822.0</ele>
        <time>2015-08-01T13:03:53Z</time>
      </trkpt>
      <trkpt lat="40.228033" lon="-4.953833">
        <ele>1824.0</ele>
        <time>2015-08-01T13:03:55Z</time>
      </trkpt>
      <trkpt lat="40.228133" lon="-4.953583">
        <ele>1826.0</ele>
        <time>2015-08-01T13:03:57Z</time>
      </trkpt>
      <trkpt lat="40.228300" lon="-4.953300">
        <ele>1825.0</ele>
        <time>2015-08-01T13:03:59Z</time>
      </trkpt>
      <trkpt lat="40.228517" lon="-4.953017">
        <ele>1827.0</ele>
        <time>2015-08-01T13:04:01Z</time>
      </trkpt>
      <trkpt lat="40.228733" lon="-4.952867">
        <ele>1834.0</ele>
        <time>2015-08-01T13:04:03Z</time>
      </trkpt>
      <trkpt lat="40.228900" lon="-4.952750">
        <ele>1836.0</ele>
        <time>2015-08-01T13:04:05Z</time>
      </trkpt>
      <trkpt lat="40.229150" lon="-4.952617">
        <ele>1833.0</ele>
        <time>2015-08-01T13:04:07Z</time>
      </trkpt>
      <trkpt lat="40.229433" lon="-4.952617">
        <ele>1832.0</ele>
        <time>2015-08-01T13:04:09Z</time>
      </trkpt>
      <trkpt lat="40.229633" lon="-4.952750">
        <ele>1834.0</ele>
        <time>2015-08-01T13:04:11Z</time>
      </trkpt>
      <trkpt lat="40.229783" lon="-4.952900">
        <ele>1836.0</ele>
        <time>2015-08-01T13:04:13Z</time>
      </trkpt>
      <trkpt lat="40.229917" lon="-4.953067">
        <ele>1838.0</ele>
        <time>2015-08-01T13:04:15Z</time>
      </trkpt>
      <trkpt lat="40.229983" lon="-4.953217">
        <ele>1837.0</ele>
        <time>2015-08-01T13:04:17Z</time>
      </trkpt>
      <trkpt lat="40.229950" lon="-4.953333">
        <ele>1834.0</ele>
        <time>2015-08-01T13:04:19Z</time>
      </trkpt>
      <trkpt lat="40.229917" lon="-4.953433">
        <ele>1837.0</ele>
        <time>2015-08-01T13:04:21Z</time>
      </trkpt>
      <trkpt lat="40.229883" lon="-4.953467">
        <ele>1838.0</ele>
        <time>2015-08-01T13:04:23Z</time>
      </trkpt>
      <trkpt lat="40.229800" lon="-4.953433">
        <ele>1834.0</ele>
        <time>2015-08-01T13:04:25Z</time>
      </trkpt>
      <trkpt lat="40.229733" lon="-4.953283">
        <ele>1836.0</ele>
        <time>2015-08-01T13:04:27Z</time>
      </trkpt>
      <trkpt lat="40.229750" lon="-4.953033">
        <ele>1837.0</ele>
        <time>2015-08-01T13:04:29Z</time>
      </trkpt>
      <trkpt lat="40.229867" lon="-4.952783">
        <ele>1838.0</ele>
        <time>2015-08-01T13:04:31Z</time>
      </trkpt>
      <trkpt lat="40.229967" lon="-4.952517">
        <ele>1836.0</ele>
        <time>2015-08-01T13:04:33Z</time>
      </trkpt>
      <trkpt lat="40.230083" lon="-4.952233">
        <ele>1837.0</ele>
        <time>2015-08-01T13:04:35Z</time>
      </trkpt>
      <trkpt lat="40.230233" lon="-4.951983">
        <ele>1839.0</ele>
        <time>2015-08-01T13:04:37Z</time>
      </trkpt>
      <trkpt lat="40.230350" lon="-4.951767">
        <ele>1841.0</ele>
        <time>2015-08-01T13:04:39Z</time>
      </trkpt>
      <trkpt lat="40.230517" lon="-4.951550">
        <ele>1841.0</ele>
        <time>2015-08-01T13:04:41Z</time>
      </trkpt>
      <trkpt lat="40.230750" lon="-4.951367">
        <ele>1841.0</ele>
        <time>2015-08-01T13:04:43Z</time>
      </trkpt>
      <trkpt lat="40.230983" lon="-4.951217">
        <ele>1841.0</ele>
        <time>2015-08-01T13:04:45Z</time>
      </trkpt>
      <trkpt lat="40.231250" lon="-4.951117">
        <ele>1839.0</ele>
        <time>2015-08-01T13:04:47Z</time>
      </trkpt>
      <trkpt lat="40.231533" lon="-4.950967">
        <ele>1837.0</ele>
        <time>2015-08-01T13:04:49Z</time>
      </trkpt>
      <trkpt lat="40.231783" lon="-4.950767">
        <ele>1837.0</ele>
        <time>2015-08-01T13:04:51Z</time>
      </trkpt>
      <trkpt lat="40.231933" lon="-4.950567">
        <ele>1838.0</ele>
        <time>2015-08-01T13:04:53Z</time>
      </trkpt>
      <trkpt lat="40.232067" lon="-4.950333">
        <ele>1833.0</ele>
        <time>2015-08-01T13:04:55Z</time>
      </trkpt>
      <trkpt lat="40.232200" lon="-4.950083">
        <ele>1825.0</ele>
        <time>2015-08-01T13:04:57Z</time>
      </trkpt>
      <trkpt lat="40.232317" lon="-4.949833">
        <ele>1817.0</ele>
        <time>2015-08-01T13:04:59Z</time>
      </trkpt>
      <trkpt lat="40.232400" lon="-4.949550">
        <ele>1811.0</ele>
        <time>2015-08-01T13:05:01Z</time>
      </trkpt>
      <trkpt lat="40.232433" lon="-4.949300">
        <ele>1808.0</ele>
        <time>2015-08-01T13:05:03Z</time>
      </trkpt>
      <trkpt lat="40.232517" lon="-4.949083">
        <ele>1801.0</ele>
        <time>2015-08-01T13:05:05Z</time>
      </trkpt>
      <trkpt lat="40.232617" lon="-4.948817">
        <ele>1791.0</ele>
        <time>2015-08-01T13:05:07Z</time>
      </trkpt>
      <trkpt lat="40.232700" lon="-4.948517">
        <ele>1783.0</ele>
        <time>2015-08-01T13:05:09Z</time>
      </trkpt>
      <trkpt lat="40.232800" lon="-4.948233">
        <ele>1778.0</ele>
        <time>2015-08-01T13:05:11Z</time>
      </trkpt>
      <trkpt lat="40.232917" lon="-4.947967">
        <ele>1773.0</ele>
        <time>2015-08-01T13:05:13Z</time>
      </trkpt>
      <trkpt lat="40.233033" lon="-4.947700">
        <ele>1765.0</ele>
        <time>2015-08-01T13:05:15Z</time>
      </trkpt>
      <trkpt lat="40.233133" lon="-4.947433">
        <ele>1758.0</ele>
        <time>2015-08-01T13:05:17Z</time>
      </trkpt>
      <trkpt lat="40.233250" lon="-4.947150">
        <ele>1749.0</ele>
        <time>2015-08-01T13:05:19Z</time>
      </trkpt>
      <trkpt lat="40.233383" lon="-4.946867">
        <ele>1742.0</ele>
        <time>2015-08-01T13:05:21Z</time>
      </trkpt>
      <trkpt lat="40.233567" lon="-4.946583">
        <ele>1736.0</ele>
        <time>2015-08-01T13:05:23Z</time>
      </trkpt>
      <trkpt lat="40.233717" lon="-4.946317">
        <ele>1730.0</ele>
        <time>2015-08-01T13:05:25Z</time>
      </trkpt>
      <trkpt lat="40.233867" lon="-4.946033">
        <ele>1723.0</ele>
        <time>2015-08-01T13:05:27Z</time>
      </trkpt>
      <trkpt lat="40.234050" lon="-4.945750">
        <ele>1717.0</ele>
        <time>2015-08-01T13:05:29Z</time>
      </trkpt>
      <trkpt lat="40.234217" lon="-4.945500">
        <ele>1711.0</ele>
        <time>2015-08-01T13:05:31Z</time>
      </trkpt>
      <trkpt lat="40.234383" lon="-4.945217">
        <ele>1703.0</ele>
        <time>2015-08-01T13:05:33Z</time>
      </trkpt>
      <trkpt lat="40.234550" lon="-4.944917">
        <ele>1696.0</ele>
        <time>2015-08-01T13:05:35Z</time>
      </trkpt>
      <trkpt lat="40.234700" lon="-4.944650">
        <ele>1692.0</ele>
        <time>2015-08-01T13:05:37Z</time>
      </trkpt>
      <trkpt lat="40.234817" lon="-4.944350">
        <ele>1685.0</ele>
        <time>2015-08-01T13:05:39Z</time>
      </trkpt>
      <trkpt lat="40.234950" lon="-4.944050">
        <ele>1679.0</ele>
        <time>2015-08-01T13:05:41Z</time>
      </trkpt>
      <trkpt lat="40.235067" lon="-4.943783">
        <ele>1672.0</ele>
        <time>2015-08-01T13:05:43Z</time>
      </trkpt>
      <trkpt lat="40.235200" lon="-4.943500">
        <ele>1664.0</ele>
        <time>2015-08-01T13:05:45Z</time>
      </trkpt>
      <trkpt lat="40.235333" lon="-4.943200">
        <ele>1658.0</ele>
        <time>2015-08-01T13:05:47Z</time>
      </trkpt>
      <trkpt lat="40.235483" lon="-4.942933">
        <ele>1653.0</ele>
        <time>2015-08-01T13:05:49Z</time>
      </trkpt>
      <trkpt lat="40.235617" lon="-4.942683">
        <ele>1648.0</ele>
        <time>2015-08-01T13:05:51Z</time>
      </trkpt>
      <trkpt lat="40.235750" lon="-4.942417">
        <ele>1641.0</ele>
        <time>2015-08-01T13:05:53Z</time>
      </trkpt>
      <trkpt lat="40.235867" lon="-4.942183">
        <ele>1636.0</ele>
        <time>2015-08-01T13:05:55Z</time>
      </trkpt>
      <trkpt lat="40.235983" lon="-4.941950">
        <ele>1629.0</ele>
        <time>2015-08-01T13:05:57Z</time>
      </trkpt>
      <trkpt lat="40.236117" lon="-4.941683">
        <ele>1620.0</ele>
        <time>2015-08-01T13:05:59Z</time>
      </trkpt>
      <trkpt lat="40.236233" lon="-4.941383">
        <ele>1614.0</ele>
        <time>2015-08-01T13:06:01Z</time>
      </trkpt>
      <trkpt lat="40.236317" lon="-4.941117">
        <ele>1609.0</ele>
        <time>2015-08-01T13:06:03Z</time>
      </trkpt>
      <trkpt lat="40.236400" lon="-4.940867">
        <ele>1600.0</ele>
        <time>2015-08-01T13:06:05Z</time>
      </trkpt>
      <trkpt lat="40.236500" lon="-4.940583">
        <ele>1590.0</ele>
        <time>2015-08-01T13:06:07Z</time>
      </trkpt>
      <trkpt lat="40.236583" lon="-4.940300">
        <ele>1584.0</ele>
        <time>2015-08-01T13:06:09Z</time>
      </trkpt>
      <trkpt lat="40.236667" lon="-4.940050">
        <ele>1578.0</ele>
        <time>2015-08-01T13:06:11Z</time>
      </trkpt>
      <trkpt lat="40.236733" lon="-4.939783">
        <ele>1570.0</ele>
        <time>2015-08-01T13:06:13Z</time>
      </trkpt>
      <trkpt lat="40.236800" lon="-4.939483">
        <ele>1564.0</ele>
        <time>2015-08-01T13:06:15Z</time>
      </trkpt>
      <trkpt lat="40.236867" lon="-4.939233">
        <ele>1560.0</ele>
        <time>2015-08-01T13:06:17Z</time>
      </trkpt>
      <trkpt lat="40.236933" lon="-4.938950">
        <ele>1554.0</ele>
        <time>2015-08-01T13:06:19Z</time>
      </trkpt>
      <trkpt lat="40.237033" lon="-4.938683">
        <ele>1545.0</ele>
        <time>2015-08-01T13:06:21Z</time>
      </trkpt>
      <trkpt lat="40.237167" lon="-4.938417">
        <ele>1537.0</ele>
        <time>2015-08-01T13:06:23Z</time>
      </trkpt>
      <trkpt lat="40.237283" lon="-4.938150">
        <ele>1528.0</ele>
        <time>2015-08-01T13:06:25Z</time>
      </trkpt>
      <trkpt lat="40.237417" lon="-4.937883">
        <ele>1519.0</ele>
        <time>2015-08-01T13:06:27Z</time>
      </trkpt>
      <trkpt lat="40.237517" lon="-4.937617">
        <ele>1513.0</ele>
        <time>2015-08-01T13:06:29Z</time>
      </trkpt>
      <trkpt lat="40.237583" lon="-4.937383">
        <ele>1509.0</ele>
        <time>2015-08-01T13:06:31Z</time>
      </trkpt>
      <trkpt lat="40.237617" lon="-4.937150">
        <ele>1504.0</ele>
        <time>2015-08-01T13:06:33Z</time>
      </trkpt>
      <trkpt lat="40.237683" lon="-4.936867">
        <ele>1499.0</ele>
        <time>2015-08-01T13:06:35Z</time>
      </trkpt>
      <trkpt lat="40.237750" lon="-4.936633">
        <ele>1498.0</ele>
        <time>2015-08-01T13:06:37Z</time>
      </trkpt>
      <trkpt lat="40.237833" lon="-4.936417">
        <ele>1495.0</ele>
        <time>2015-08-01T13:06:39Z</time>
      </trkpt>
      <trkpt lat="40.237917" lon="-4.936183">
        <ele>1491.0</ele>
        <time>2015-08-01T13:06:41Z</time>
      </trkpt>
      <trkpt lat="40.238000" lon="-4.935967">
        <ele>1487.0</ele>
        <time>2015-08-01T13:06:43Z</time>
      </trkpt>
      <trkpt lat="40.238067" lon="-4.935767">
        <ele>1481.0</ele>
        <time>2015-08-01T13:06:45Z</time>
      </trkpt>
      <trkpt lat="40.238117" lon="-4.935500">
        <ele>1474.0</ele>
        <time>2015-08-01T13:06:47Z</time>
      </trkpt>
      <trkpt lat="40.238133" lon="-4.935217">
        <ele>1472.0</ele>
        <time>2015-08-01T13:06:49Z</time>
      </trkpt>
      <trkpt lat="40.238100" lon="-4.935017">
        <ele>1471.0</ele>
        <time>2015-08-01T13:06:51Z</time>
      </trkpt>
      <trkpt lat="40.238050" lon="-4.934833">
        <ele>1468.0</ele>
        <time>2015-08-01T13:06:53Z</time>
      </trkpt>
      <trkpt lat="40.238033" lon="-4.934617">
        <ele>1462.0</ele>
        <time>2015-08-01T13:06:55Z</time>
      </trkpt>
      <trkpt lat="40.238050" lon="-4.934367">
        <ele>1460.0</ele>
        <time>2015-08-01T13:06:57Z</time>
      </trkpt>
      <trkpt lat="40.238117" lon="-4.934150">
        <ele>1461.0</ele>
        <time>2015-08-01T13:06:59Z</time>
      </trkpt>
      <trkpt lat="40.238183" lon="-4.933950">
        <ele>1460.0</ele>
        <time>2015-08-01T13:07:01Z</time>
      </trkpt>
      <trkpt lat="40.238250" lon="-4.933700">
        <ele>1456.0</ele>
        <time>2015-08-01T13:07:03Z</time>
      </trkpt>
      <trkpt lat="40.238317" lon="-4.933417">
        <ele>1457.0</ele>
        <time>2015-08-01T13:07:05Z</time>
      </trkpt>
      <trkpt lat="40.238333" lon="-4.933250">
        <ele>1461.0</ele>
        <time>2015-08-01T13:07:07Z</time>
      </trkpt>
      <trkpt lat="40.238367" lon="-4.933100">
        <ele>1462.0</ele>
        <time>2015-08-01T13:07:09Z</time>
      </trkpt>
      <trkpt lat="40.238433" lon="-4.932900">
        <ele>1460.0</ele>
        <time>2015-08-01T13:07:11Z</time>
      </trkpt>
      <trkpt lat="40.238500" lon="-4.932700">
        <ele>1463.0</ele>
        <time>2015-08-01T13:07:13Z</time>
      </trkpt>
      <trkpt lat="40.238600" lon="-4.932550">
        <ele>1467.0</ele>
        <time>2015-08-01T13:07:15Z</time>
      </trkpt>
      <trkpt lat="40.238717" lon="-4.932383">
        <ele>1471.0</ele>
        <time>2015-08-01T13:07:17Z</time>
      </trkpt>
      <trkpt lat="40.238867" lon="-4.932233">
        <ele>1475.0</ele>
        <time>2015-08-01T13:07:19Z</time>
      </trkpt>
      <trkpt lat="40.239033" lon="-4.932117">
        <ele>1479.0</ele>
        <time>2015-08-01T13:07:21Z</time>
      </trkpt>
      <trkpt lat="40.239200" lon="-4.932050">
        <ele>1482.0</ele>
        <time>2015-08-01T13:07:23Z</time>
      </trkpt>
      <trkpt lat="40.239383" lon="-4.931983">
        <ele>1482.0</ele>
        <time>2015-08-01T13:07:25Z</time>
      </trkpt>
      <trkpt lat="40.239533" lon="-4.931800">
        <ele>1482.0</ele>
        <time>2015-08-01T13:07:27Z</time>
      </trkpt>
      <trkpt lat="40.239600" lon="-4.931583">
        <ele>1483.0</ele>
        <time>2015-08-01T13:07:29Z</time>
      </trkpt>
      <trkpt lat="40.239617" lon="-4.931383">
        <ele>1483.0</ele>
        <time>2015-08-01T13:07:31Z</time>
      </trkpt>
      <trkpt lat="40.239567" lon="-4.931217">
        <ele>1480.0</ele>
        <time>2015-08-01T13:07:33Z</time>
      </trkpt>
      <trkpt lat="40.239450" lon="-4.931050">
        <ele>1482.0</ele>
        <time>2015-08-01T13:07:35Z</time>
      </trkpt>
      <trkpt lat="40.239383" lon="-4.930883">
        <ele>1492.0</ele>
        <time>2015-08-01T13:07:37Z</time>
      </trkpt>
      <trkpt lat="40.239350" lon="-4.930783">
        <ele>1495.0</ele>
        <time>2015-08-01T13:07:39Z</time>
      </trkpt>
      <trkpt lat="40.239367" lon="-4.930600">
        <ele>1494.0</ele>
        <time>2015-08-01T13:07:41Z</time>
      </trkpt>
      <trkpt lat="40.239417" lon="-4.930383">
        <ele>1498.0</ele>
        <time>2015-08-01T13:07:43Z</time>
      </trkpt>
      <trkpt lat="40.239517" lon="-4.930233">
        <ele>1505.0</ele>
        <time>2015-08-01T13:07:45Z</time>
      </trkpt>
      <trkpt lat="40.239667" lon="-4.930100">
        <ele>1506.0</ele>
        <time>2015-08-01T13:07:47Z</time>
      </trkpt>
      <trkpt lat="40.239883" lon="-4.930000">
        <ele>1507.0</ele>
        <time>2015-08-01T13:07:49Z</time>
      </trkpt>
      <trkpt lat="40.240133" lon="-4.929967">
        <ele>1509.0</ele>
        <time>2015-08-01T13:07:51Z</time>
      </trkpt>
      <trkpt lat="40.240400" lon="-4.930050">
        <ele>1511.0</ele>
        <time>2015-08-01T13:07:53Z</time>
      </trkpt>
      <trkpt lat="40.240600" lon="-4.930217">
        <ele>1514.0</ele>
        <time>2015-08-01T13:07:55Z</time>
      </trkpt>
      <trkpt lat="40.240733" lon="-4.930450">
        <ele>1516.0</ele>
        <time>2015-08-01T13:07:57Z</time>
      </trkpt>
      <trkpt lat="40.240800" lon="-4.930683">
        <ele>1518.0</ele>
        <time>2015-08-01T13:07:59Z</time>
      </trkpt>
      <trkpt lat="40.240800" lon="-4.930867">
        <ele>1517.0</ele>
        <time>2015-08-01T13:08:01Z</time>
      </trkpt>
      <trkpt lat="40.240700" lon="-4.931000">
        <ele>1514.0</ele>
        <time>2015-08-01T13:08:03Z</time>
      </trkpt>
      <trkpt lat="40.240567" lon="-4.931017">
        <ele>1517.0</ele>
        <time>2015-08-01T13:08:05Z</time>
      </trkpt>
      <trkpt lat="40.240500" lon="-4.930933">
        <ele>1521.0</ele>
        <time>2015-08-01T13:08:07Z</time>
      </trkpt>
      <trkpt lat="40.240450" lon="-4.930800">
        <ele>1520.0</ele>
        <time>2015-08-01T13:08:09Z</time>
      </trkpt>
      <trkpt lat="40.240383" lon="-4.930617">
        <ele>1520.0</ele>
        <time>2015-08-01T13:08:11Z</time>
      </trkpt>
      <trkpt lat="40.240333" lon="-4.930467">
        <ele>1527.0</ele>
        <time>2015-08-01T13:08:13Z</time>
      </trkpt>
      <trkpt lat="40.240333" lon="-4.930350">
        <ele>1531.0</ele>
        <time>2015-08-01T13:08:15Z</time>
      </trkpt>
      <trkpt lat="40.240367" lon="-4.930150">
        <ele>1531.0</ele>
        <time>2015-08-01T13:08:17Z</time>
      </trkpt>
      <trkpt lat="40.240400" lon="-4.929867">
        <ele>1535.0</ele>
        <time>2015-08-01T13:08:19Z</time>
      </trkpt>
      <trkpt lat="40.240517" lon="-4.929717">
        <ele>1545.0</ele>
        <time>2015-08-01T13:08:21Z</time>
      </trkpt>
      <trkpt lat="40.240617" lon="-4.929617">
        <ele>1549.0</ele>
        <time>2015-08-01T13:08:23Z</time>
      </trkpt>
      <trkpt lat="40.240717" lon="-4.929417">
        <ele>1552.0</ele>
        <time>2015-08-01T13:08:25Z</time>
      </trkpt>
      <trkpt lat="40.240883" lon="-4.929283">
        <ele>1557.0</ele>
        <time>2015-08-01T13:08:27Z</time>
      </trkpt>
      <trkpt lat="40.241050" lon="-4.929233">
        <ele>1559.0</ele>
        <time>2015-08-01T13:08:29Z</time>
      </trkpt>
      <trkpt lat="40.241300" lon="-4.929183">
        <ele>1556.0</ele>
        <time>2015-08-01T13:08:31Z</time>
      </trkpt>
      <trkpt lat="40.241600" lon="-4.929217">
        <ele>1558.0</ele>
        <time>2015-08-01T13:08:33Z</time>
      </trkpt>
      <trkpt lat="40.241800" lon="-4.929333">
        <ele>1562.0</ele>
        <time>2015-08-01T13:08:35Z</time>
      </trkpt>
      <trkpt lat="40.241967" lon="-4.929467">
        <ele>1562.0</ele>
        <time>2015-08-01T13:08:37Z</time>
      </trkpt>
      <trkpt lat="40.242100" lon="-4.929700">
        <ele>1559.0</ele>
        <time>2015-08-01T13:08:39Z</time>
      </trkpt>
      <trkpt lat="40.242150" lon="-4.929967">
        <ele>1557.0</ele>
        <time>2015-08-01T13:08:41Z</time>
      </trkpt>
      <trkpt lat="40.242117" lon="-4.930167">
        <ele>1558.0</ele>
        <time>2015-08-01T13:08:43Z</time>
      </trkpt>
      <trkpt lat="40.242017" lon="-4.930250">
        <ele>1558.0</ele>
        <time>2015-08-01T13:08:45Z</time>
      </trkpt>
      <trkpt lat="40.241900" lon="-4.930250">
        <ele>1558.0</ele>
        <time>2015-08-01T13:08:47Z</time>
      </trkpt>
      <trkpt lat="40.241817" lon="-4.930100">
        <ele>1557.0</ele>
        <time>2015-08-01T13:08:49Z</time>
      </trkpt>
      <trkpt lat="40.241717" lon="-4.929917">
        <ele>1567.0</ele>
        <time>2015-08-01T13:08:51Z</time>
      </trkpt>
      <trkpt lat="40.241667" lon="-4.929850">
        <ele>1578.0</ele>
        <time>2015-08-01T13:08:53Z</time>
      </trkpt>
      <trkpt lat="40.241600" lon="-4.929717">
        <ele>1583.0</ele>
        <time>2015-08-01T13:08:55Z</time>
      </trkpt>
      <trkpt lat="40.241567" lon="-4.929533">
        <ele>1586.0</ele>
        <time>2015-08-01T13:08:57Z</time>
      </trkpt>
      <trkpt lat="40.241567" lon="-4.929300">
        <ele>1590.0</ele>
        <time>2015-08-01T13:08:59Z</time>
      </trkpt>
      <trkpt lat="40.241600" lon="-4.929067">
        <ele>1597.0</ele>
        <time>2015-08-01T13:09:01Z</time>
      </trkpt>
      <trkpt lat="40.241650" lon="-4.928867">
        <ele>1602.0</ele>
        <time>2015-08-01T13:09:03Z</time>
      </trkpt>
      <trkpt lat="40.241767" lon="-4.928683">
        <ele>1603.0</ele>
        <time>2015-08-01T13:09:05Z</time>
      </trkpt>
      <trkpt lat="40.241950" lon="-4.928500">
        <ele>1602.0</ele>
        <time>2015-08-01T13:09:07Z</time>
      </trkpt>
      <trkpt lat="40.242183" lon="-4.928417">
        <ele>1604.0</ele>
        <time>2015-08-01T13:09:09Z</time>
      </trkpt>
      <trkpt lat="40.242417" lon="-4.928400">
        <ele>1608.0</ele>
        <time>2015-08-01T13:09:11Z</time>
      </trkpt>
      <trkpt lat="40.242667" lon="-4.928433">
        <ele>1609.0</ele>
        <time>2015-08-01T13:09:13Z</time>
      </trkpt>
      <trkpt lat="40.242900" lon="-4.928567">
        <ele>1609.0</ele>
        <time>2015-08-01T13:09:15Z</time>
      </trkpt>
      <trkpt lat="40.243050" lon="-4.928767">
        <ele>1612.0</ele>
        <time>2015-08-01T13:09:17Z</time>
      </trkpt>
      <trkpt lat="40.243133" lon="-4.928967">
        <ele>1612.0</ele>
        <time>2015-08-01T13:09:19Z</time>
      </trkpt>
      <trkpt lat="40.243167" lon="-4.929183">
        <ele>1608.0</ele>
        <time>2015-08-01T13:09:21Z</time>
      </trkpt>
      <trkpt lat="40.243100" lon="-4.929417">
        <ele>1604.0</ele>
        <time>2015-08-01T13:09:23Z</time>
      </trkpt>
      <trkpt lat="40.243000" lon="-4.929583">
        <ele>1606.0</ele>
        <time>2015-08-01T13:09:25Z</time>
      </trkpt>
      <trkpt lat="40.242933" lon="-4.929667">
        <ele>1612.0</ele>
        <time>2015-08-01T13:09:27Z</time>
      </trkpt>
      <trkpt lat="40.242867" lon="-4.929667">
        <ele>1614.0</ele>
        <time>2015-08-01T13:09:29Z</time>
      </trkpt>
      <trkpt lat="40.242767" lon="-4.929600">
        <ele>1618.0</ele>
        <time>2015-08-01T13:09:31Z</time>
      </trkpt>
      <trkpt lat="40.242717" lon="-4.929517">
        <ele>1626.0</ele>
        <time>2015-08-01T13:09:33Z</time>
      </trkpt>
      <trkpt lat="40.242733" lon="-4.929400">
        <ele>1631.0</ele>
        <time>2015-08-01T13:09:35Z</time>
      </trkpt>
      <trkpt lat="40.242817" lon="-4.929233">
        <ele>1632.0</ele>
        <time>2015-08-01T13:09:37Z</time>
      </trkpt>
      <trkpt lat="40.242983" lon="-4.929100">
        <ele>1637.0</ele>
        <time>2015-08-01T13:09:39Z</time>
      </trkpt>
      <trkpt lat="40.243167" lon="-4.929033">
        <ele>1643.0</ele>
        <time>2015-08-01T13:09:41Z</time>
      </trkpt>
      <trkpt lat="40.243400" lon="-4.929033">
        <ele>1647.0</ele>
        <time>2015-08-01T13:09:43Z</time>
      </trkpt>
      <trkpt lat="40.243650" lon="-4.929117">
        <ele>1651.0</ele>
        <time>2015-08-01T13:09:45Z</time>
      </trkpt>
      <trkpt lat="40.243833" lon="-4.929283">
        <ele>1654.0</ele>
        <time>2015-08-01T13:09:47Z</time>
      </trkpt>
      <trkpt lat="40.243983" lon="-4.929517">
        <ele>1655.0</ele>
        <time>2015-08-01T13:09:49Z</time>
      </trkpt>
      <trkpt lat="40.244067" lon="-4.929817">
        <ele>1657.0</ele>
        <time>2015-08-01T13:09:51Z</time>
      </trkpt>
      <trkpt lat="40.244067" lon="-4.930083">
        <ele>1660.0</ele>
        <time>2015-08-01T13:09:53Z</time>
      </trkpt>
      <trkpt lat="40.244033" lon="-4.930317">
        <ele>1663.0</ele>
        <time>2015-08-01T13:09:55Z</time>
      </trkpt>
      <trkpt lat="40.243967" lon="-4.930517">
        <ele>1664.0</ele>
        <time>2015-08-01T13:09:57Z</time>
      </trkpt>
      <trkpt lat="40.243867" lon="-4.930667">
        <ele>1665.0</ele>
        <time>2015-08-01T13:09:59Z</time>
      </trkpt>
      <trkpt lat="40.243750" lon="-4.930750">
        <ele>1668.0</ele>
        <time>2015-08-01T13:10:01Z</time>
      </trkpt>
      <trkpt lat="40.243650" lon="-4.930800">
        <ele>1670.0</ele>
        <time>2015-08-01T13:10:03Z</time>
      </trkpt>
      <trkpt lat="40.243533" lon="-4.930733">
        <ele>1672.0</ele>
        <time>2015-08-01T13:10:05Z</time>
      </trkpt>
      <trkpt lat="40.243433" lon="-4.930633">
        <ele>1678.0</ele>
        <time>2015-08-01T13:10:07Z</time>
      </trkpt>
      <trkpt lat="40.243333" lon="-4.930550">
        <ele>1689.0</ele>
        <time>2015-08-01T13:10:09Z</time>
      </trkpt>
      <trkpt lat="40.243283" lon="-4.930467">
        <ele>1700.0</ele>
        <time>2015-08-01T13:10:11Z</time>
      </trkpt>
      <trkpt lat="40.243267" lon="-4.930333">
        <ele>1708.0</ele>
        <time>2015-08-01T13:10:13Z</time>
      </trkpt>
      <trkpt lat="40.243333" lon="-4.930167">
        <ele>1713.0</ele>
        <time>2015-08-01T13:10:15Z</time>
      </trkpt>
      <trkpt lat="40.243500" lon="-4.929983">
        <ele>1718.0</ele>
        <time>2015-08-01T13:10:17Z</time>
      </trkpt>
      <trkpt lat="40.243733" lon="-4.929883">
        <ele>1726.0</ele>
        <time>2015-08-01T13:10:19Z</time>
      </trkpt>
      <trkpt lat="40.243950" lon="-4.929817">
        <ele>1735.0</ele>
        <time>2015-08-01T13:10:21Z</time>
      </trkpt>
      <trkpt lat="40.244200" lon="-4.929800">
        <ele>1743.0</ele>
        <time>2015-08-01T13:10:23Z</time>
      </trkpt>
      <trkpt lat="40.244450" lon="-4.929900">
        <ele>1752.0</ele>
        <time>2015-08-01T13:10:25Z</time>
      </trkpt>
      <trkpt lat="40.244633" lon="-4.930050">
        <ele>1760.0</ele>
        <time>2015-08-01T13:10:27Z</time>
      </trkpt>
      <trkpt lat="40.244783" lon="-4.930267">
        <ele>1764.0</ele>
        <time>2015-08-01T13:10:29Z</time>
      </trkpt>
      <trkpt lat="40.244817" lon="-4.930567">
        <ele>1766.0</ele>
        <time>2015-08-01T13:10:31Z</time>
      </trkpt>
      <trkpt lat="40.244750" lon="-4.930800">
        <ele>1774.0</ele>
        <time>2015-08-01T13:10:33Z</time>
      </trkpt>
      <trkpt lat="40.244733" lon="-4.930933">
        <ele>1782.0</ele>
        <time>2015-08-01T13:10:35Z</time>
      </trkpt>
      <trkpt lat="40.244650" lon="-4.931100">
        <ele>1786.0</ele>
        <time>2015-08-01T13:10:37Z</time>
      </trkpt>
      <trkpt lat="40.244533" lon="-4.931233">
        <ele>1793.0</ele>
        <time>2015-08-01T13:10:39Z</time>
      </trkpt>
      <trkpt lat="40.244433" lon="-4.931200">
        <ele>1803.0</ele>
        <time>2015-08-01T13:10:41Z</time>
      </trkpt>
      <trkpt lat="40.244383" lon="-4.931167">
        <ele>1810.0</ele>
        <time>2015-08-01T13:10:43Z</time>
      </trkpt>
      <trkpt lat="40.244367" lon="-4.931050">
        <ele>1815.0</ele>
        <time>2015-08-01T13:10:45Z</time>
      </trkpt>
      <trkpt lat="40.244400" lon="-4.930833">
        <ele>1821.0</ele>
        <time>2015-08-01T13:10:47Z</time>
      </trkpt>
      <trkpt lat="40.244550" lon="-4.930650">
        <ele>1831.0</ele>
        <time>2015-08-01T13:10:49Z</time>
      </trkpt>
      <trkpt lat="40.244750" lon="-4.930567">
        <ele>1839.0</ele>
        <time>2015-08-01T13:10:51Z</time>
      </trkpt>
      <trkpt lat="40.244967" lon="-4.930533">
        <ele>1845.0</ele>
        <time>2015-08-01T13:10:53Z</time>
      </trkpt>
      <trkpt lat="40.245233" lon="-4.930667">
        <ele>1851.0</ele>
        <time>2015-08-01T13:10:55Z</time>
      </trkpt>
      <trkpt lat="40.245450" lon="-4.930883">
        <ele>1861.0</ele>
        <time>2015-08-01T13:10:57Z</time>
      </trkpt>
      <trkpt lat="40.245633" lon="-4.931050">
        <ele>1869.0</ele>
        <time>2015-08-01T13:10:59Z</time>
      </trkpt>
      <trkpt lat="40.245817" lon="-4.931217">
        <ele>1871.0</ele>
        <time>2015-08-01T13:11:01Z</time>
      </trkpt>
      <trkpt lat="40.245983" lon="-4.931467">
        <ele>1873.0</ele>
        <time>2015-08-01T13:11:03Z</time>
      </trkpt>
      <trkpt lat="40.246050" lon="-4.931750">
        <ele>1876.0</ele>
        <time>2015-08-01T13:11:05Z</time>
      </trkpt>
      <trkpt lat="40.246033" lon="-4.931983">
        <ele>1876.0</ele>
        <time>2015-08-01T13:11:07Z</time>
      </trkpt>
      <trkpt lat="40.245917" lon="-4.932117">
        <ele>1874.0</ele>
        <time>2015-08-01T13:11:09Z</time>
      </trkpt>
      <trkpt lat="40.245783" lon="-4.932100">
        <ele>1876.0</ele>
        <time>2015-08-01T13:11:11Z</time>
      </trkpt>
      <trkpt lat="40.245683" lon="-4.932033">
        <ele>1885.0</ele>
        <time>2015-08-01T13:11:13Z</time>
      </trkpt>
      <trkpt lat="40.245617" lon="-4.931967">
        <ele>1893.0</ele>
        <time>2015-08-01T13:11:15Z</time>
      </trkpt>
      <trkpt lat="40.245550" lon="-4.931833">
        <ele>1900.0</ele>
        <time>2015-08-01T13:11:17Z</time>
      </trkpt>
      <trkpt lat="40.245550" lon="-4.931700">
        <ele>1907.0</ele>
        <time>2015-08-01T13:11:19Z</time>
      </trkpt>
      <trkpt lat="40.245600" lon="-4.931567">
        <ele>1910.0</ele>
        <time>2015-08-01T13:11:21Z</time>
      </trkpt>
      <trkpt lat="40.245733" lon="-4.931367">
        <ele>1912.0</ele>
        <time>2015-08-01T13:11:23Z</time>
      </trkpt>
      <trkpt lat="40.245883" lon="-4.931217">
        <ele>1921.0</ele>
        <time>2015-08-01T13:11:25Z</time>
      </trkpt>
      <trkpt lat="40.246050" lon="-4.931167">
        <ele>1931.0</ele>
        <time>2015-08-01T13:11:27Z</time>
      </trkpt>
      <trkpt lat="40.246233" lon="-4.931183">
        <ele>1936.0</ele>
        <time>2015-08-01T13:11:29Z</time>
      </trkpt>
      <trkpt lat="40.246467" lon="-4.931233">
        <ele>1941.0</ele>
        <time>2015-08-01T13:11:31Z</time>
      </trkpt>
      <trkpt lat="40.246717" lon="-4.931333">
        <ele>1947.0</ele>
        <time>2015-08-01T13:11:33Z</time>
      </trkpt>
      <trkpt lat="40.246967" lon="-4.931517">
        <ele>1953.0</ele>
        <time>2015-08-01T13:11:35Z</time>
      </trkpt>
      <trkpt lat="40.247167" lon="-4.931767">
        <ele>1959.0</ele>
        <time>2015-08-01T13:11:37Z</time>
      </trkpt>
      <trkpt lat="40.247283" lon="-4.932050">
        <ele>1966.0</ele>
        <time>2015-08-01T13:11:39Z</time>
      </trkpt>
      <trkpt lat="40.247300" lon="-4.932300">
        <ele>1968.0</ele>
        <time>2015-08-01T13:11:41Z</time>
      </trkpt>
      <trkpt lat="40.247233" lon="-4.932517">
        <ele>1967.0</ele>
        <time>2015-08-01T13:11:43Z</time>
      </trkpt>
      <trkpt lat="40.247150" lon="-4.932717">
        <ele>1972.0</ele>
        <time>2015-08-01T13:11:45Z</time>
      </trkpt>
      <trkpt lat="40.247067" lon="-4.932767">
        <ele>1979.0</ele>
        <time>2015-08-01T13:11:47Z</time>
      </trkpt>
      <trkpt lat="40.246983" lon="-4.932750">
        <ele>1984.0</ele>
        <time>2015-08-01T13:11:49Z</time>
      </trkpt>
      <trkpt lat="40.246883" lon="-4.932667">
        <ele>1988.0</ele>
        <time>2015-08-01T13:11:51Z</time>
      </trkpt>
      <trkpt lat="40.246867" lon="-4.932483">
        <ele>1995.0</ele>
        <time>2015-08-01T13:11:53Z</time>
      </trkpt>
      <trkpt lat="40.246933" lon="-4.932333">
        <ele>2002.0</ele>
        <time>2015-08-01T13:11:55Z</time>
      </trkpt>
      <trkpt lat="40.247017" lon="-4.932183">
        <ele>2006.0</ele>
        <time>2015-08-01T13:11:57Z</time>
      </trkpt>
      <trkpt lat="40.247183" lon="-4.932000">
        <ele>2009.0</ele>
        <time>2015-08-01T13:11:59Z</time>
      </trkpt>
      <trkpt lat="40.247417" lon="-4.931867">
        <ele>2018.0</ele>
        <time>2015-08-01T13:12:01Z</time>
      </trkpt>
      <trkpt lat="40.247633" lon="-4.931800">
        <ele>2027.0</ele>
        <time>2015-08-01T13:12:03Z</time>
      </trkpt>
      <trkpt lat="40.247883" lon="-4.931817">
        <ele>2033.0</ele>
        <time>2015-08-01T13:12:05Z</time>
      </trkpt>
      <trkpt lat="40.248150" lon="-4.931933">
        <ele>2039.0</ele>
        <time>2015-08-01T13:12:07Z</time>
      </trkpt>
      <trkpt lat="40.248333" lon="-4.932117">
        <ele>2049.0</ele>
        <time>2015-08-01T13:12:09Z</time>
      </trkpt>
      <trkpt lat="40.248433" lon="-4.932333">
        <ele>2054.0</ele>
        <time>2015-08-01T13:12:11Z</time>
      </trkpt>
      <trkpt lat="40.248450" lon="-4.932583">
        <ele>2057.0</ele>
        <time>2015-08-01T13:12:13Z</time>
      </trkpt>
      <trkpt lat="40.248383" lon="-4.932783">
        <ele>2061.0</ele>
        <time>2015-08-01T13:12:15Z</time>
      </trkpt>
      <trkpt lat="40.248317" lon="-4.932883">
        <ele>2066.0</ele>
        <time>2015-08-01T13:12:17Z</time>
      </trkpt>
      <trkpt lat="40.248217" lon="-4.932917">
        <ele>2069.0</ele>
        <time>2015-08-01T13:12:19Z</time>
      </trkpt>
      <trkpt lat="40.248133" lon="-4.932850">
        <ele>2073.0</ele>
        <time>2015-08-01T13:12:21Z</time>
      </trkpt>
      <trkpt lat="40.248100" lon="-4.932700">
        <ele>2078.0</ele>
        <time>2015-08-01T13:12:23Z</time>
      </trkpt>
      <trkpt lat="40.248117" lon="-4.932517">
        <ele>2085.0</ele>
        <time>2015-08-01T13:12:25Z</time>
      </trkpt>
      <trkpt lat="40.248167" lon="-4.932333">
        <ele>2092.0</ele>
        <time>2015-08-01T13:12:27Z</time>
      </trkpt>
      <trkpt lat="40.248233" lon="-4.932133">
        <ele>2096.0</ele>
        <time>2015-08-01T13:12:29Z</time>
      </trkpt>
      <trkpt lat="40.248400" lon="-4.931917">
        <ele>2101.0</ele>
        <time>2015-08-01T13:12:31Z</time>
      </trkpt>
      <trkpt lat="40.248583" lon="-4.931750">
        <ele>2109.0</ele>
        <time>2015-08-01T13:12:33Z</time>
      </trkpt>
      <trkpt lat="40.248750" lon="-4.931667">
        <ele>2115.0</ele>
        <time>2015-08-01T13:12:35Z</time>
      </trkpt>
      <trkpt lat="40.248967" lon="-4.931617">
        <ele>2119.0</ele>
        <time>2015-08-01T13:12:37Z</time>
      </trkpt>
      <trkpt lat="40.249217" lon="-4.931683">
        <ele>2122.0</ele>
        <time>2015-08-01T13:12:39Z</time>
      </trkpt>
      <trkpt lat="40.249400" lon="-4.931833">
        <ele>2129.0</ele>
        <time>2015-08-01T13:12:41Z</time>
      </trkpt>
      <trkpt lat="40.249533" lon="-4.932000">
        <ele>2135.0</ele>
        <time>2015-08-01T13:12:43Z</time>
      </trkpt>
      <trkpt lat="40.249600" lon="-4.932200">
        <ele>2138.0</ele>
        <time>2015-08-01T13:12:45Z</time>
      </trkpt>
      <trkpt lat="40.249567" lon="-4.932433">
        <ele>2140.0</ele>
        <time>2015-08-01T13:12:47Z</time>
      </trkpt>
      <trkpt lat="40.249467" lon="-4.932567">
        <ele>2148.0</ele>
        <time>2015-08-01T13:12:49Z</time>
      </trkpt>
      <trkpt lat="40.249383" lon="-4.932567">
        <ele>2155.0</ele>
        <time>2015-08-01T13:12:51Z</time>
      </trkpt>
      <trkpt lat="40.249317" lon="-4.932517">
        <ele>2160.0</ele>
        <time>2015-08-01T13:12:53Z</time>
      </trkpt>
      <trkpt lat="40.249250" lon="-4.932383">
        <ele>2163.0</ele>
        <time>2015-08-01T13:12:55Z</time>
      </trkpt>
      <trkpt lat="40.249217" lon="-4.932200">
        <ele>2166.0</ele>
        <time>2015-08-01T13:12:57Z</time>
      </trkpt>
      <trkpt lat="40.249217" lon="-4.932000">
        <ele>2171.0</ele>
        <time>2015-08-01T13:12:59Z</time>
      </trkpt>
      <trkpt lat="40.249200" lon="-4.931833">
        <ele>2175.0</ele>
        <time>2015-08-01T13:13:01Z</time>
      </trkpt>
      <trkpt lat="40.249217" lon="-4.931667">
        <ele>2175.0</ele>
        <time>2015-08-01T13:13:03Z</time>
      </trkpt>
      <trkpt lat="40.249267" lon="-4.931450">
        <ele>2175.0</ele>
        <time>2015-08-01T13:13:05Z</time>
      </trkpt>
      <trkpt lat="40.249283" lon="-4.931250">
        <ele>2177.0</ele>
        <time>2015-08-01T13:13:07Z</time>
      </trkpt>
      <trkpt lat="40.249350" lon="-4.931033">
        <ele>2179.0</ele>
        <time>2015-08-01T13:13:09Z</time>
      </trkpt>
      <trkpt lat="40.249417" lon="-4.930850">
        <ele>2181.0</ele>
        <time>2015-08-01T13:13:11Z</time>
      </trkpt>
      <trkpt lat="40.249450" lon="-4.930650">
        <ele>2183.0</ele>
        <time>2015-08-01T13:13:13Z</time>
      </trkpt>
      <trkpt lat="40.249467" lon="-4.930450">
        <ele>2186.0</ele>
        <time>2015-08-01T13:13:15Z</time>
      </trkpt>
      <trkpt lat="40.249483" lon="-4.930267">
        <ele>2190.0</ele>
        <time>2015-08-01T13:13:17Z</time>
      </trkpt>
      <trkpt lat="40.249467" lon="-4.930083">
        <ele>2190.0</ele>
        <time>2015-08-01T13:13:19Z</time>
      </trkpt>
      <trkpt lat="40.249433" lon="-4.929883">
        <ele>2193.0</ele>
        <time>2015-08-01T13:13:21Z</time>
      </trkpt>
      <trkpt lat="40.249417" lon="-4.929750">
        <ele>2194.0</ele>
        <time>2015-08-01T13:13:23Z</time>
      </trkpt>
      <trkpt lat="40.249417" lon="-4.929583">
        <ele>2194.0</ele>
        <time>2015-08-01T13:13:25Z</time>
      </trkpt>
      <trkpt lat="40.249417" lon="-4.929367">
        <ele>2196.0</ele>
        <time>2015-08-01T13:13:27Z</time>
      </trkpt>
      <trkpt lat="40.249417" lon="-4.929200">
        <ele>2199.0</ele>
        <time>2015-08-01T13:13:29Z</time>
      </trkpt>
      <trkpt lat="40.249417" lon="-4.929050">
        <ele>2200.0</ele>
        <time>2015-08-01T13:13:31Z</time>
      </trkpt>
      <trkpt lat="40.249450" lon="-4.928867">
        <ele>2200.0</ele>
        <time>2015-08-01T13:13:33Z</time>
      </trkpt>
      <trkpt lat="40.249467" lon="-4.928667">
        <ele>2203.0</ele>
        <time>2015-08-01T13:13:35Z</time>
      </trkpt>
      <trkpt lat="40.249483" lon="-4.928483">
        <ele>2204.0</ele>
        <time>2015-08-01T13:13:37Z</time>
      </trkpt>
      <trkpt lat="40.249550" lon="-4.928283">
        <ele>2205.0</ele>
        <time>2015-08-01T13:13:39Z</time>
      </trkpt>
      <trkpt lat="40.249617" lon="-4.928100">
        <ele>2206.0</ele>
        <time>2015-08-01T13:13:41Z</time>
      </trkpt>
      <trkpt lat="40.249717" lon="-4.927867">
        <ele>2205.0</ele>
        <time>2015-08-01T13:13:43Z</time>
      </trkpt>
      <trkpt lat="40.249850" lon="-4.927600">
        <ele>2207.0</ele>
        <time>2015-08-01T13:13:45Z</time>
      </trkpt>
      <trkpt lat="40.249967" lon="-4.927350">
        <ele>2211.0</ele>
        <time>2015-08-01T13:13:47Z</time>
      </trkpt>
      <trkpt lat="40.250033" lon="-4.927100">
        <ele>2212.0</ele>
        <time>2015-08-01T13:13:49Z</time>
      </trkpt>
      <trkpt lat="40.250133" lon="-4.926817">
        <ele>2213.0</ele>
        <time>2015-08-01T13:13:51Z</time>
      </trkpt>
      <trkpt lat="40.250183" lon="-4.926517">
        <ele>2218.0</ele>
        <time>2015-08-01T13:13:53Z</time>
      </trkpt>
      <trkpt lat="40.250200" lon="-4.926267">
        <ele>2222.0</ele>
        <time>2015-08-01T13:13:55Z</time>
      </trkpt>
      <trkpt lat="40.250233" lon="-4.926000">
        <ele>2224.0</ele>
        <time>2015-08-01T13:13:57Z</time>
      </trkpt>
      <trkpt lat="40.250283" lon="-4.925750">
        <ele>2225.0</ele>
        <time>2015-08-01T13:13:59Z</time>
      </trkpt>
      <trkpt lat="40.250350" lon="-4.925500">
        <ele>2219.0</ele>
        <time>2015-08-01T13:14:01Z</time>
      </trkpt>
      <trkpt lat="40.250433" lon="-4.925183">
        <ele>2211.0</ele>
        <time>2015-08-01T13:14:03Z</time>
      </trkpt>
      <trkpt lat="40.250517" lon="-4.924900">
        <ele>2208.0</ele>
        <time>2015-08-01T13:14:05Z</time>
      </trkpt>
      <trkpt lat="40.250583" lon="-4.924617">
        <ele>2204.0</ele>
        <time>2015-08-01T13:14:07Z</time>
      </trkpt>
      <trkpt lat="40.250650" lon="-4.924300">
        <ele>2199.0</ele>
        <time>2015-08-01T13:14:09Z</time>
      </trkpt>
      <trkpt lat="40.250733" lon="-4.924000">
        <ele>2195.0</ele>
        <time>2015-08-01T13:14:11Z</time>
      </trkpt>
      <trkpt lat="40.250833" lon="-4.923700">
        <ele>2193.0</ele>
        <time>2015-08-01T13:14:13Z</time>
      </trkpt>
      <trkpt lat="40.250933" lon="-4.923450">
        <ele>2191.0</ele>
        <time>2015-08-01T13:14:15Z</time>
      </trkpt>
      <trkpt lat="40.251017" lon="-4.923183">
        <ele>2188.0</ele>
        <time>2015-08-01T13:14:17Z</time>
      </trkpt>
      <trkpt lat="40.251117" lon="-4.922883">
        <ele>2185.0</ele>
        <time>2015-08-01T13:14:19Z</time>
      </trkpt>
      <trkpt lat="40.251200" lon="-4.922600">
        <ele>2182.0</ele>
        <time>2015-08-01T13:14:21Z</time>
      </trkpt>
      <trkpt lat="40.251267" lon="-4.922317">
        <ele>2180.0</ele>
        <time>2015-08-01T13:14:23Z</time>
      </trkpt>
      <trkpt lat="40.251350" lon="-4.922017">
        <ele>2175.0</ele>
        <time>2015-08-01T13:14:25Z</time>
      </trkpt>
      <trkpt lat="40.251433" lon="-4.921733">
        <ele>2172.0</ele>
        <time>2015-08-01T13:14:27Z</time>
      </trkpt>
      <trkpt lat="40.251500" lon="-4.921450">
        <ele>2172.0</ele>
        <time>2015-08-01T13:14:29Z</time>
      </trkpt>
      <trkpt lat="40.251583" lon="-4.921217">
        <ele>2171.0</ele>
        <time>2015-08-01T13:14:31Z</time>
      </trkpt>
      <trkpt lat="40.251683" lon="-4.920983">
        <ele>2165.0</ele>
        <time>2015-08-01T13:14:33Z</time>
      </trkpt>
      <trkpt lat="40.251800" lon="-4.920683">
        <ele>2159.0</ele>
        <time>2015-08-01T13:14:35Z</time>
      </trkpt>
      <trkpt lat="40.251917" lon="-4.920433">
        <ele>2156.0</ele>
        <time>2015-08-01T13:14:37Z</time>
      </trkpt>
      <trkpt lat="40.252017" lon="-4.920167">
        <ele>2151.0</ele>
        <time>2015-08-01T13:14:39Z</time>
      </trkpt>
      <trkpt lat="40.252067" lon="-4.919883">
        <ele>2143.0</ele>
        <time>2015-08-01T13:14:41Z</time>
      </trkpt>
      <trkpt lat="40.252133" lon="-4.919583">
        <ele>2137.0</ele>
        <time>2015-08-01T13:14:43Z</time>
      </trkpt>
      <trkpt lat="40.252200" lon="-4.919300">
        <ele>2132.0</ele>
        <time>2015-08-01T13:14:45Z</time>
      </trkpt>
      <trkpt lat="40.252267" lon="-4.919017">
        <ele>2126.0</ele>
        <time>2015-08-01T13:14:47Z</time>
      </trkpt>
      <trkpt lat="40.252367" lon="-4.918733">
        <ele>2119.0</ele>
        <time>2015-08-01T13:14:49Z</time>
      </trkpt>
      <trkpt lat="40.252450" lon="-4.918450">
        <ele>2112.0</ele>
        <time>2015-08-01T13:14:51Z</time>
      </trkpt>
      <trkpt lat="40.252533" lon="-4.918133">
        <ele>2106.0</ele>
        <time>2015-08-01T13:14:53Z</time>
      </trkpt>
      <trkpt lat="40.252600" lon="-4.917833">
        <ele>2102.0</ele>
        <time>2015-08-01T13:14:55Z</time>
      </trkpt>
      <trkpt lat="40.252667" lon="-4.917533">
        <ele>2099.0</ele>
        <time>2015-08-01T13:14:57Z</time>
      </trkpt>
      <trkpt lat="40.252767" lon="-4.917250">
        <ele>2096.0</ele>
        <time>2015-08-01T13:14:59Z</time>
      </trkpt>
      <trkpt lat="40.252867" lon="-4.916967">
        <ele>2091.0</ele>
        <time>2015-08-01T13:15:01Z</time>
      </trkpt>
      <trkpt lat="40.253000" lon="-4.916667">
        <ele>2087.0</ele>
        <time>2015-08-01T13:15:03Z</time>
      </trkpt>
      <trkpt lat="40.253117" lon="-4.916383">
        <ele>2085.0</ele>
        <time>2015-08-01T13:15:05Z</time>
      </trkpt>
      <trkpt lat="40.253250" lon="-4.916117">
        <ele>2081.0</ele>
        <time>2015-08-01T13:15:07Z</time>
      </trkpt>
      <trkpt lat="40.253400" lon="-4.915817">
        <ele>2077.0</ele>
        <time>2015-08-01T13:15:09Z</time>
      </trkpt>
      <trkpt lat="40.253533" lon="-4.915533">
        <ele>2077.0</ele>
        <time>2015-08-01T13:15:11Z</time>
      </trkpt>
      <trkpt lat="40.253633" lon="-4.915267">
        <ele>2075.0</ele>
        <time>2015-08-01T13:15:13Z</time>
      </trkpt>
      <trkpt lat="40.253750" lon="-4.914967">
        <ele>2072.0</ele>
        <time>2015-08-01T13:15:15Z</time>
      </trkpt>
      <trkpt lat="40.253833" lon="-4.914650">
        <ele>2070.0</ele>
        <time>2015-08-01T13:15:17Z</time>
      </trkpt>
      <trkpt lat="40.253917" lon="-4.914350">
        <ele>2069.0</ele>
        <time>2015-08-01T13:15:19Z</time>
      </trkpt>
      <trkpt lat="40.254033" lon="-4.914083">
        <ele>2064.0</ele>
        <time>2015-08-01T13:15:21Z</time>
      </trkpt>
      <trkpt lat="40.254117" lon="-4.913783">
        <ele>2057.0</ele>
        <time>2015-08-01T13:15:23Z</time>
      </trkpt>
      <trkpt lat="40.254217" lon="-4.913483">
        <ele>2049.0</ele>
        <time>2015-08-01T13:15:25Z</time>
      </trkpt>
      <trkpt lat="40.254317" lon="-4.913167">
        <ele>2040.0</ele>
        <time>2015-08-01T13:15:27Z</time>
      </trkpt>
      <trkpt lat="40.254450" lon="-4.912833">
        <ele>2033.0</ele>
        <time>2015-08-01T13:15:29Z</time>
      </trkpt>
      <trkpt lat="40.254550" lon="-4.912500">
        <ele>2026.0</ele>
        <time>2015-08-01T13:15:31Z</time>
      </trkpt>
      <trkpt lat="40.254583" lon="-4.912217">
        <ele>2024.0</ele>
        <time>2015-08-01T13:15:33Z</time>
      </trkpt>
      <trkpt lat="40.254650" lon="-4.912000">
        <ele>2020.0</ele>
        <time>2015-08-01T13:15:35Z</time>
      </trkpt>
      <trkpt lat="40.254717" lon="-4.911700">
        <ele>2010.0</ele>
        <time>2015-08-01T13:15:37Z</time>
      </trkpt>
      <trkpt lat="40.254800" lon="-4.911350">
        <ele>2004.0</ele>
        <time>2015-08-01T13:15:39Z</time>
      </trkpt>
      <trkpt lat="40.254867" lon="-4.911050">
        <ele>2003.0</ele>
        <time>2015-08-01T13:15:41Z</time>
      </trkpt>
      <trkpt lat="40.254917" lon="-4.910750">
        <ele>1997.0</ele>
        <time>2015-08-01T13:15:43Z</time>
      </trkpt>
      <trkpt lat="40.254950" lon="-4.910600">
        <ele>1994.0</ele>
        <time>2015-08-01T13:15:44Z</time>
      </trkpt>
      <trkpt lat="40.255017" lon="-4.910283">
        <ele>1987.0</ele>
        <time>2015-08-01T13:15:46Z</time>
      </trkpt>
      <trkpt lat="40.255017" lon="-4.910000">
        <ele>1983.0</ele>
        <time>2015-08-01T13:15:48Z</time>
      </trkpt>
      <trkpt lat="40.254950" lon="-4.909767">
        <ele>1976.0</ele>
        <time>2015-08-01T13:15:50Z</time>
      </trkpt>
      <trkpt lat="40.254783" lon="-4.909583">
        <ele>1968.0</ele>
        <time>2015-08-01T13:15:52Z</time>
      </trkpt>
      <trkpt lat="40.254600" lon="-4.909500">
        <ele>1965.0</ele>
        <time>2015-08-01T13:15:54Z</time>
      </trkpt>
      <trkpt lat="40.254433" lon="-4.909467">
        <ele>1961.0</ele>
        <time>2015-08-01T13:15:56Z</time>
      </trkpt>
      <trkpt lat="40.254283" lon="-4.909433">
        <ele>1953.0</ele>
        <time>2015-08-01T13:15:58Z</time>
      </trkpt>
      <trkpt lat="40.254083" lon="-4.909450">
        <ele>1946.0</ele>
        <time>2015-08-01T13:16:00Z</time>
      </trkpt>
      <trkpt lat="40.253917" lon="-4.909467">
        <ele>1945.0</ele>
        <time>2015-08-01T13:16:02Z</time>
      </trkpt>
      <trkpt lat="40.253800" lon="-4.909467">
        <ele>1941.0</ele>
        <time>2015-08-01T13:16:04Z</time>
      </trkpt>
      <trkpt lat="40.253617" lon="-4.909500">
        <ele>1933.0</ele>
        <time>2015-08-01T13:16:06Z</time>
      </trkpt>
      <trkpt lat="40.253433" lon="-4.909517">
        <ele>1929.0</ele>
        <time>2015-08-01T13:16:08Z</time>
      </trkpt>
      <trkpt lat="40.253283" lon="-4.909500">
        <ele>1925.0</ele>
        <time>2015-08-01T13:16:10Z</time>
      </trkpt>
      <trkpt lat="40.253117" lon="-4.909500">
        <ele>1919.0</ele>
        <time>2015-08-01T13:16:12Z</time>
      </trkpt>
      <trkpt lat="40.252950" lon="-4.909517">
        <ele>1915.0</ele>
        <time>2015-08-01T13:16:14Z</time>
      </trkpt>
      <trkpt lat="40.252800" lon="-4.909550">
        <ele>1911.0</ele>
        <time>2015-08-01T13:16:16Z</time>
      </trkpt>
      <trkpt lat="40.252633" lon="-4.909650">
        <ele>1908.0</ele>
        <time>2015-08-01T13:16:18Z</time>
      </trkpt>
      <trkpt lat="40.252467" lon="-4.909717">
        <ele>1909.0</ele>
        <time>2015-08-01T13:16:20Z</time>
      </trkpt>
      <trkpt lat="40.252350" lon="-4.909800">
        <ele>1913.0</ele>
        <time>2015-08-01T13:16:22Z</time>
      </trkpt>
      <trkpt lat="40.252283" lon="-4.909950">
        <ele>1914.0</ele>
        <time>2015-08-01T13:16:24Z</time>
      </trkpt>
      <trkpt lat="40.252233" lon="-4.910183">
        <ele>1913.0</ele>
        <time>2015-08-01T13:16:26Z</time>
      </trkpt>
      <trkpt lat="40.252150" lon="-4.910400">
        <ele>1916.0</ele>
        <time>2015-08-01T13:16:28Z</time>
      </trkpt>
      <trkpt lat="40.252033" lon="-4.910550">
        <ele>1920.0</ele>
        <time>2015-08-01T13:16:30Z</time>
      </trkpt>
      <trkpt lat="40.251917" lon="-4.910650">
        <ele>1924.0</ele>
        <time>2015-08-01T13:16:32Z</time>
      </trkpt>
      <trkpt lat="40.251767" lon="-4.910683">
        <ele>1928.0</ele>
        <time>2015-08-01T13:16:34Z</time>
      </trkpt>
      <trkpt lat="40.251633" lon="-4.910583">
        <ele>1931.0</ele>
        <time>2015-08-01T13:16:36Z</time>
      </trkpt>
      <trkpt lat="40.251550" lon="-4.910417">
        <ele>1934.0</ele>
        <time>2015-08-01T13:16:38Z</time>
      </trkpt>
      <trkpt lat="40.251517" lon="-4.910217">
        <ele>1936.0</ele>
        <time>2015-08-01T13:16:40Z</time>
      </trkpt>
      <trkpt lat="40.251550" lon="-4.910000">
        <ele>1938.0</ele>
        <time>2015-08-01T13:16:42Z</time>
      </trkpt>
      <trkpt lat="40.251700" lon="-4.909817">
        <ele>1938.0</ele>
        <time>2015-08-01T13:16:44Z</time>
      </trkpt>
      <trkpt lat="40.251950" lon="-4.909750">
        <ele>1940.0</ele>
        <time>2015-08-01T13:16:46Z</time>
      </trkpt>
      <trkpt lat="40.252183" lon="-4.909850">
        <ele>1947.0</ele>
        <time>2015-08-01T13:16:48Z</time>
      </trkpt>
      <trkpt lat="40.252350" lon="-4.910000">
        <ele>1954.0</ele>
        <time>2015-08-01T13:16:50Z</time>
      </trkpt>
      <trkpt lat="40.252467" lon="-4.910183">
        <ele>1959.0</ele>
        <time>2015-08-01T13:16:52Z</time>
      </trkpt>
      <trkpt lat="40.252550" lon="-4.910417">
        <ele>1961.0</ele>
        <time>2015-08-01T13:16:54Z</time>
      </trkpt>
      <trkpt lat="40.252567" lon="-4.910667">
        <ele>1963.0</ele>
        <time>2015-08-01T13:16:56Z</time>
      </trkpt>
      <trkpt lat="40.252533" lon="-4.910867">
        <ele>1966.0</ele>
        <time>2015-08-01T13:16:58Z</time>
      </trkpt>
      <trkpt lat="40.252450" lon="-4.911033">
        <ele>1967.0</ele>
        <time>2015-08-01T13:17:00Z</time>
      </trkpt>
      <trkpt lat="40.252317" lon="-4.911117">
        <ele>1968.0</ele>
        <time>2015-08-01T13:17:02Z</time>
      </trkpt>
      <trkpt lat="40.252150" lon="-4.911117">
        <ele>1969.0</ele>
        <time>2015-08-01T13:17:04Z</time>
      </trkpt>
      <trkpt lat="40.252033" lon="-4.911050">
        <ele>1971.0</ele>
        <time>2015-08-01T13:17:06Z</time>
      </trkpt>
      <trkpt lat="40.251983" lon="-4.910867">
        <ele>1972.0</ele>
        <time>2015-08-01T13:17:08Z</time>
      </trkpt>
      <trkpt lat="40.252017" lon="-4.910617">
        <ele>1971.0</ele>
        <time>2015-08-01T13:17:10Z</time>
      </trkpt>
      <trkpt lat="40.252133" lon="-4.910383">
        <ele>1971.0</ele>
        <time>2015-08-01T13:17:12Z</time>
      </trkpt>
      <trkpt lat="40.252317" lon="-4.910217">
        <ele>1973.0</ele>
        <time>2015-08-01T13:17:14Z</time>
      </trkpt>
      <trkpt lat="40.252483" lon="-4.910100">
        <ele>1977.0</ele>
        <time>2015-08-01T13:17:16Z</time>
      </trkpt>
      <trkpt lat="40.252683" lon="-4.910083">
        <ele>1980.0</ele>
        <time>2015-08-01T13:17:18Z</time>
      </trkpt>
      <trkpt lat="40.252883" lon="-4.910167">
        <ele>1981.0</ele>
        <time>2015-08-01T13:17:20Z</time>
      </trkpt>
      <trkpt lat="40.253050" lon="-4.910317">
        <ele>1982.0</ele>
        <time>2015-08-01T13:17:22Z</time>
      </trkpt>
      <trkpt lat="40.253200" lon="-4.910500">
        <ele>1983.0</ele>
        <time>2015-08-01T13:17:24Z</time>
      </trkpt>
      <trkpt lat="40.253267" lon="-4.910717">
        <ele>1983.0</ele>
        <time>2015-08-01T13:17:26Z</time>
      </trkpt>
      <trkpt lat="40.253250" lon="-4.910950">
        <ele>1984.0</ele>
        <time>2015-08-01T13:17:28Z</time>
      </trkpt>
      <trkpt lat="40.253167" lon="-4.911117">
        <ele>1985.0</ele>
        <time>2015-08-01T13:17:30Z</time>
      </trkpt>
      <trkpt lat="40.253050" lon="-4.911250">
        <ele>1983.0</ele>
        <time>2015-08-01T13:17:32Z</time>
      </trkpt>
      <trkpt lat="40.252883" lon="-4.911350">
        <ele>1981.0</ele>
        <time>2015-08-01T13:17:34Z</time>
      </trkpt>
      <trkpt lat="40.252717" lon="-4.911417">
        <ele>1979.0</ele>
        <time>2015-08-01T13:17:36Z</time>
      </trkpt>
      <trkpt lat="40.252550" lon="-4.911467">
        <ele>1978.0</ele>
        <time>2015-08-01T13:17:38Z</time>
      </trkpt>
      <trkpt lat="40.252383" lon="-4.911467">
        <ele>1977.0</ele>
        <time>2015-08-01T13:17:40Z</time>
      </trkpt>
      <trkpt lat="40.252217" lon="-4.911467">
        <ele>1977.0</ele>
        <time>2015-08-01T13:17:42Z</time>
      </trkpt>
      <trkpt lat="40.252117" lon="-4.911500">
        <ele>1978.0</ele>
        <time>2015-08-01T13:17:44Z</time>
      </trkpt>
      <trkpt lat="40.252050" lon="-4.911567">
        <ele>1975.0</ele>
        <time>2015-08-01T13:17:46Z</time>
      </trkpt>
      <trkpt lat="40.251933" lon="-4.911700">
        <ele>1969.0</ele>
        <time>2015-08-01T13:17:48Z</time>
      </trkpt>
      <trkpt lat="40.251833" lon="-4.911850">
        <ele>1969.0</ele>
        <time>2015-08-01T13:17:50Z</time>
      </trkpt>
      <trkpt lat="40.251750" lon="-4.911917">
        <ele>1970.0</ele>
        <time>2015-08-01T13:17:52Z</time>
      </trkpt>
      <trkpt lat="40.251650" lon="-4.911950">
        <ele>1966.0</ele>
        <time>2015-08-01T13:17:54Z</time>
      </trkpt>
      <trkpt lat="40.251500" lon="-4.912000">
        <ele>1963.0</ele>
        <time>2015-08-01T13:17:56Z</time>
      </trkpt>
      <trkpt lat="40.251350" lon="-4.912017">
        <ele>1964.0</ele>
        <time>2015-08-01T13:17:58Z</time>
      </trkpt>
      <trkpt lat="40.251250" lon="-4.912067">
        <ele>1964.0</ele>
        <time>2015-08-01T13:18:00Z</time>
      </trkpt>
      <trkpt lat="40.251150" lon="-4.912200">
        <ele>1960.0</ele>
        <time>2015-08-01T13:18:02Z</time>
      </trkpt>
      <trkpt lat="40.251050" lon="-4.912350">
        <ele>1955.0</ele>
        <time>2015-08-01T13:18:04Z</time>
      </trkpt>
      <trkpt lat="40.250917" lon="-4.912500">
        <ele>1952.0</ele>
        <time>2015-08-01T13:18:06Z</time>
      </trkpt>
      <trkpt lat="40.250817" lon="-4.912633">
        <ele>1950.0</ele>
        <time>2015-08-01T13:18:08Z</time>
      </trkpt>
      <trkpt lat="40.250717" lon="-4.912783">
        <ele>1946.0</ele>
        <time>2015-08-01T13:18:10Z</time>
      </trkpt>
      <trkpt lat="40.250617" lon="-4.912917">
        <ele>1940.0</ele>
        <time>2015-08-01T13:18:12Z</time>
      </trkpt>
      <trkpt lat="40.250500" lon="-4.913083">
        <ele>1936.0</ele>
        <time>2015-08-01T13:18:14Z</time>
      </trkpt>
      <trkpt lat="40.250400" lon="-4.913217">
        <ele>1934.0</ele>
        <time>2015-08-01T13:18:16Z</time>
      </trkpt>
      <trkpt lat="40.250317" lon="-4.913333">
        <ele>1932.0</ele>
        <time>2015-08-01T13:18:18Z</time>
      </trkpt>
      <trkpt lat="40.250200" lon="-4.913450">
        <ele>1928.0</ele>
        <time>2015-08-01T13:18:20Z</time>
      </trkpt>
      <trkpt lat="40.250117" lon="-4.913583">
        <ele>1925.0</ele>
        <time>2015-08-01T13:18:22Z</time>
      </trkpt>
      <trkpt lat="40.250033" lon="-4.913733">
        <ele>1920.0</ele>
        <time>2015-08-01T13:18:24Z</time>
      </trkpt>
      <trkpt lat="40.249933" lon="-4.913917">
        <ele>1914.0</ele>
        <time>2015-08-01T13:18:26Z</time>
      </trkpt>
      <trkpt lat="40.249850" lon="-4.914133">
        <ele>1914.0</ele>
        <time>2015-08-01T13:18:28Z</time>
      </trkpt>
      <trkpt lat="40.249767" lon="-4.914283">
        <ele>1914.0</ele>
        <time>2015-08-01T13:18:30Z</time>
      </trkpt>
      <trkpt lat="40.249667" lon="-4.914467">
        <ele>1911.0</ele>
        <time>2015-08-01T13:18:32Z</time>
      </trkpt>
      <trkpt lat="40.249583" lon="-4.914650">
        <ele>1911.0</ele>
        <time>2015-08-01T13:18:34Z</time>
      </trkpt>
      <trkpt lat="40.249500" lon="-4.914783">
        <ele>1910.0</ele>
        <time>2015-08-01T13:18:36Z</time>
      </trkpt>
      <trkpt lat="40.249417" lon="-4.914933">
        <ele>1904.0</ele>
        <time>2015-08-01T13:18:38Z</time>
      </trkpt>
      <trkpt lat="40.249283" lon="-4.915083">
        <ele>1899.0</ele>
        <time>2015-08-01T13:18:40Z</time>
      </trkpt>
      <trkpt lat="40.249167" lon="-4.915183">
        <ele>1896.0</ele>
        <time>2015-08-01T13:18:42Z</time>
      </trkpt>
      <trkpt lat="40.249067" lon="-4.915283">
        <ele>1891.0</ele>
        <time>2015-08-01T13:18:44Z</time>
      </trkpt>
      <trkpt lat="40.248950" lon="-4.915367">
        <ele>1885.0</ele>
        <time>2015-08-01T13:18:46Z</time>
      </trkpt>
      <trkpt lat="40.248817" lon="-4.915367">
        <ele>1879.0</ele>
        <time>2015-08-01T13:18:48Z</time>
      </trkpt>
      <trkpt lat="40.248683" lon="-4.915450">
        <ele>1872.0</ele>
        <time>2015-08-01T13:18:50Z</time>
      </trkpt>
      <trkpt lat="40.248583" lon="-4.915567">
        <ele>1867.0</ele>
        <time>2015-08-01T13:18:52Z</time>
      </trkpt>
      <trkpt lat="40.248450" lon="-4.915617">
        <ele>1864.0</ele>
        <time>2015-08-01T13:18:54Z</time>
      </trkpt>
      <trkpt lat="40.248333" lon="-4.915717">
        <ele>1863.0</ele>
        <time>2015-08-01T13:18:56Z</time>
      </trkpt>
      <trkpt lat="40.248250" lon="-4.915867">
        <ele>1860.0</ele>
        <time>2015-08-01T13:18:58Z</time>
      </trkpt>
      <trkpt lat="40.248150" lon="-4.916050">
        <ele>1858.0</ele>
        <time>2015-08-01T13:19:00Z</time>
      </trkpt>
      <trkpt lat="40.248017" lon="-4.916200">
        <ele>1858.0</ele>
        <time>2015-08-01T13:19:02Z</time>
      </trkpt>
      <trkpt lat="40.247933" lon="-4.916367">
        <ele>1856.0</ele>
        <time>2015-08-01T13:19:04Z</time>
      </trkpt>
      <trkpt lat="40.247867" lon="-4.916583">
        <ele>1853.0</ele>
        <time>2015-08-01T13:19:06Z</time>
      </trkpt>
      <trkpt lat="40.247767" lon="-4.916750">
        <ele>1852.0</ele>
        <time>2015-08-01T13:19:08Z</time>
      </trkpt>
      <trkpt lat="40.247633" lon="-4.916883">
        <ele>1848.0</ele>
        <time>2015-08-01T13:19:10Z</time>
      </trkpt>
      <trkpt lat="40.247483" lon="-4.917000">
        <ele>1844.0</ele>
        <time>2015-08-01T13:19:12Z</time>
      </trkpt>
      <trkpt lat="40.247333" lon="-4.917050">
        <ele>1840.0</ele>
        <time>2015-08-01T13:19:14Z</time>
      </trkpt>
      <trkpt lat="40.247150" lon="-4.917100">
        <ele>1835.0</ele>
        <time>2015-08-01T13:19:16Z</time>
      </trkpt>
      <trkpt lat="40.247000" lon="-4.917133">
        <ele>1831.0</ele>
        <time>2015-08-01T13:19:18Z</time>
      </trkpt>
      <trkpt lat="40.246867" lon="-4.917100">
        <ele>1824.0</ele>
        <time>2015-08-01T13:19:20Z</time>
      </trkpt>
      <trkpt lat="40.246767" lon="-4.916983">
        <ele>1817.0</ele>
        <time>2015-08-01T13:19:22Z</time>
      </trkpt>
      <trkpt lat="40.246667" lon="-4.916833">
        <ele>1810.0</ele>
        <time>2015-08-01T13:19:24Z</time>
      </trkpt>
      <trkpt lat="40.246583" lon="-4.916667">
        <ele>1804.0</ele>
        <time>2015-08-01T13:19:26Z</time>
      </trkpt>
      <trkpt lat="40.246500" lon="-4.916500">
        <ele>1798.0</ele>
        <time>2015-08-01T13:19:28Z</time>
      </trkpt>
      <trkpt lat="40.246400" lon="-4.916317">
        <ele>1791.0</ele>
        <time>2015-08-01T13:19:30Z</time>
      </trkpt>
      <trkpt lat="40.246300" lon="-4.916133">
        <ele>1787.0</ele>
        <time>2015-08-01T13:19:32Z</time>
      </trkpt>
      <trkpt lat="40.246217" lon="-4.915950">
        <ele>1782.0</ele>
        <time>2015-08-01T13:19:34Z</time>
      </trkpt>
      <trkpt lat="40.246133" lon="-4.915783">
        <ele>1776.0</ele>
        <time>2015-08-01T13:19:36Z</time>
      </trkpt>
      <trkpt lat="40.246033" lon="-4.915617">
        <ele>1769.0</ele>
        <time>2015-08-01T13:19:38Z</time>
      </trkpt>
      <trkpt lat="40.245950" lon="-4.915467">
        <ele>1765.0</ele>
        <time>2015-08-01T13:19:40Z</time>
      </trkpt>
      <trkpt lat="40.245850" lon="-4.915283">
        <ele>1759.0</ele>
        <time>2015-08-01T13:19:42Z</time>
      </trkpt>
      <trkpt lat="40.245717" lon="-4.915167">
        <ele>1753.0</ele>
        <time>2015-08-01T13:19:44Z</time>
      </trkpt>
      <trkpt lat="40.245600" lon="-4.915083">
        <ele>1748.0</ele>
        <time>2015-08-01T13:19:46Z</time>
      </trkpt>
      <trkpt lat="40.245483" lon="-4.915017">
        <ele>1741.0</ele>
        <time>2015-08-01T13:19:48Z</time>
      </trkpt>
      <trkpt lat="40.245333" lon="-4.915050">
        <ele>1734.0</ele>
        <time>2015-08-01T13:19:50Z</time>
      </trkpt>
      <trkpt lat="40.245200" lon="-4.915133">
        <ele>1729.0</ele>
        <time>2015-08-01T13:19:52Z</time>
      </trkpt>
      <trkpt lat="40.245067" lon="-4.915200">
        <ele>1725.0</ele>
        <time>2015-08-01T13:19:54Z</time>
      </trkpt>
      <trkpt lat="40.244950" lon="-4.915283">
        <ele>1722.0</ele>
        <time>2015-08-01T13:19:56Z</time>
      </trkpt>
      <trkpt lat="40.244833" lon="-4.915350">
        <ele>1716.0</ele>
        <time>2015-08-01T13:19:58Z</time>
      </trkpt>
      <trkpt lat="40.244700" lon="-4.915433">
        <ele>1710.0</ele>
        <time>2015-08-01T13:20:00Z</time>
      </trkpt>
      <trkpt lat="40.244567" lon="-4.915517">
        <ele>1707.0</ele>
        <time>2015-08-01T13:20:02Z</time>
      </trkpt>
      <trkpt lat="40.244450" lon="-4.915583">
        <ele>1703.0</ele>
        <time>2015-08-01T13:20:04Z</time>
      </trkpt>
      <trkpt lat="40.244333" lon="-4.915683">
        <ele>1698.0</ele>
        <time>2015-08-01T13:20:06Z</time>
      </trkpt>
      <trkpt lat="40.244200" lon="-4.915783">
        <ele>1695.0</ele>
        <time>2015-08-01T13:20:08Z</time>
      </trkpt>
      <trkpt lat="40.244083" lon="-4.915867">
        <ele>1691.0</ele>
        <time>2015-08-01T13:20:10Z</time>
      </trkpt>
      <trkpt lat="40.243950" lon="-4.915967">
        <ele>1686.0</ele>
        <time>2015-08-01T13:20:12Z</time>
      </trkpt>
      <trkpt lat="40.243817" lon="-4.916067">
        <ele>1683.0</ele>
        <time>2015-08-01T13:20:14Z</time>
      </trkpt>
      <trkpt lat="40.243700" lon="-4.916167">
        <ele>1680.0</ele>
        <time>2015-08-01T13:20:16Z</time>
      </trkpt>
      <trkpt lat="40.243567" lon="-4.916283">
        <ele>1674.0</ele>
        <time>2015-08-01T13:20:18Z</time>
      </trkpt>
      <trkpt lat="40.243417" lon="-4.916417">
        <ele>1670.0</ele>
        <time>2015-08-01T13:20:20Z</time>
      </trkpt>
      <trkpt lat="40.243300" lon="-4.916550">
        <ele>1666.0</ele>
        <time>2015-08-01T13:20:22Z</time>
      </trkpt>
      <trkpt lat="40.243167" lon="-4.916650">
        <ele>1658.0</ele>
        <time>2015-08-01T13:20:24Z</time>
      </trkpt>
      <trkpt lat="40.243000" lon="-4.916750">
        <ele>1650.0</ele>
        <time>2015-08-01T13:20:26Z</time>
      </trkpt>
      <trkpt lat="40.242817" lon="-4.916850">
        <ele>1648.0</ele>
        <time>2015-08-01T13:20:28Z</time>
      </trkpt>
      <trkpt lat="40.242683" lon="-4.916900">
        <ele>1646.0</ele>
        <time>2015-08-01T13:20:30Z</time>
      </trkpt>
      <trkpt lat="40.242533" lon="-4.916983">
        <ele>1639.0</ele>
        <time>2015-08-01T13:20:32Z</time>
      </trkpt>
      <trkpt lat="40.242367" lon="-4.917133">
        <ele>1634.0</ele>
        <time>2015-08-01T13:20:34Z</time>
      </trkpt>
      <trkpt lat="40.242217" lon="-4.917250">
        <ele>1633.0</ele>
        <time>2015-08-01T13:20:36Z</time>
      </trkpt>
      <trkpt lat="40.242067" lon="-4.917333">
        <ele>1627.0</ele>
        <time>2015-08-01T13:20:38Z</time>
      </trkpt>
      <trkpt lat="40.241900" lon="-4.917467">
        <ele>1620.0</ele>
        <time>2015-08-01T13:20:40Z</time>
      </trkpt>
      <trkpt lat="40.241733" lon="-4.917583">
        <ele>1617.0</ele>
        <time>2015-08-01T13:20:42Z</time>
      </trkpt>
      <trkpt lat="40.241600" lon="-4.917667">
        <ele>1612.0</ele>
        <time>2015-08-01T13:20:44Z</time>
      </trkpt>
      <trkpt lat="40.241417" lon="-4.917767">
        <ele>1603.0</ele>
        <time>2015-08-01T13:20:46Z</time>
      </trkpt>
      <trkpt lat="40.241267" lon="-4.917933">
        <ele>1597.0</ele>
        <time>2015-08-01T13:20:48Z</time>
      </trkpt>
      <trkpt lat="40.241150" lon="-4.918067">
        <ele>1592.0</ele>
        <time>2015-08-01T13:20:50Z</time>
      </trkpt>
      <trkpt lat="40.241033" lon="-4.918167">
        <ele>1584.0</ele>
        <time>2015-08-01T13:20:52Z</time>
      </trkpt>
      <trkpt lat="40.240883" lon="-4.918267">
        <ele>1575.0</ele>
        <time>2015-08-01T13:20:54Z</time>
      </trkpt>
      <trkpt lat="40.240767" lon="-4.918383">
        <ele>1569.0</ele>
        <time>2015-08-01T13:20:56Z</time>
      </trkpt>
      <trkpt lat="40.240650" lon="-4.918483">
        <ele>1564.0</ele>
        <time>2015-08-01T13:20:58Z</time>
      </trkpt>
      <trkpt lat="40.240567" lon="-4.918567">
        <ele>1557.0</ele>
        <time>2015-08-01T13:21:00Z</time>
      </trkpt>
      <trkpt lat="40.240450" lon="-4.918683">
        <ele>1550.0</ele>
        <time>2015-08-01T13:21:02Z</time>
      </trkpt>
      <trkpt lat="40.240350" lon="-4.918833">
        <ele>1546.0</ele>
        <time>2015-08-01T13:21:04Z</time>
      </trkpt>
      <trkpt lat="40.240317" lon="-4.919017">
        <ele>1541.0</ele>
        <time>2015-08-01T13:21:06Z</time>
      </trkpt>
      <trkpt lat="40.240317" lon="-4.919250">
        <ele>1534.0</ele>
        <time>2015-08-01T13:21:08Z</time>
      </trkpt>
      <trkpt lat="40.240317" lon="-4.919517">
        <ele>1531.0</ele>
        <time>2015-08-01T13:21:10Z</time>
      </trkpt>
      <trkpt lat="40.240300" lon="-4.919717">
        <ele>1529.0</ele>
        <time>2015-08-01T13:21:12Z</time>
      </trkpt>
      <trkpt lat="40.240300" lon="-4.919900">
        <ele>1525.0</ele>
        <time>2015-08-01T13:21:14Z</time>
      </trkpt>
      <trkpt lat="40.240300" lon="-4.920067">
        <ele>1521.0</ele>
        <time>2015-08-01T13:21:16Z</time>
      </trkpt>
      <trkpt lat="40.240283" lon="-4.920250">
        <ele>1517.0</ele>
        <time>2015-08-01T13:21:18Z</time>
      </trkpt>
      <trkpt lat="40.240267" lon="-4.920433">
        <ele>1513.0</ele>
        <time>2015-08-01T13:21:20Z</time>
      </trkpt>
      <trkpt lat="40.240250" lon="-4.920633">
        <ele>1508.0</ele>
        <time>2015-08-01T13:21:22Z</time>
      </trkpt>
      <trkpt lat="40.240217" lon="-4.920817">
        <ele>1505.0</ele>
        <time>2015-08-01T13:21:24Z</time>
      </trkpt>
      <trkpt lat="40.240183" lon="-4.920967">
        <ele>1504.0</ele>
        <time>2015-08-01T13:21:26Z</time>
      </trkpt>
      <trkpt lat="40.240167" lon="-4.921117">
        <ele>1498.0</ele>
        <time>2015-08-01T13:21:28Z</time>
      </trkpt>
      <trkpt lat="40.240100" lon="-4.921300">
        <ele>1492.0</ele>
        <time>2015-08-01T13:21:30Z</time>
      </trkpt>
      <trkpt lat="40.240033" lon="-4.921467">
        <ele>1488.0</ele>
        <time>2015-08-01T13:21:32Z</time>
      </trkpt>
      <trkpt lat="40.239967" lon="-4.921650">
        <ele>1483.0</ele>
        <time>2015-08-01T13:21:34Z</time>
      </trkpt>
      <trkpt lat="40.239900" lon="-4.921800">
        <ele>1480.0</ele>
        <time>2015-08-01T13:21:36Z</time>
      </trkpt>
      <trkpt lat="40.239867" lon="-4.921967">
        <ele>1477.0</ele>
        <time>2015-08-01T13:21:38Z</time>
      </trkpt>
      <trkpt lat="40.239850" lon="-4.922150">
        <ele>1474.0</ele>
        <time>2015-08-01T13:21:40Z</time>
      </trkpt>
      <trkpt lat="40.239883" lon="-4.922383">
        <ele>1476.0</ele>
        <time>2015-08-01T13:21:42Z</time>
      </trkpt>
      <trkpt lat="40.239933" lon="-4.922583">
        <ele>1480.0</ele>
        <time>2015-08-01T13:21:44Z</time>
      </trkpt>
      <trkpt lat="40.240000" lon="-4.922767">
        <ele>1480.0</ele>
        <time>2015-08-01T13:21:46Z</time>
      </trkpt>
      <trkpt lat="40.240100" lon="-4.923017">
        <ele>1482.0</ele>
        <time>2015-08-01T13:21:48Z</time>
      </trkpt>
      <trkpt lat="40.240150" lon="-4.923200">
        <ele>1487.0</ele>
        <time>2015-08-01T13:21:50Z</time>
      </trkpt>
      <trkpt lat="40.240200" lon="-4.923367">
        <ele>1486.0</ele>
        <time>2015-08-01T13:21:52Z</time>
      </trkpt>
      <trkpt lat="40.240200" lon="-4.923567">
        <ele>1484.0</ele>
        <time>2015-08-01T13:21:54Z</time>
      </trkpt>
      <trkpt lat="40.240167" lon="-4.923750">
        <ele>1483.0</ele>
        <time>2015-08-01T13:21:56Z</time>
      </trkpt>
      <trkpt lat="40.240117" lon="-4.923883">
        <ele>1486.0</ele>
        <time>2015-08-01T13:21:58Z</time>
      </trkpt>
      <trkpt lat="40.240083" lon="-4.924000">
        <ele>1486.0</ele>
        <time>2015-08-01T13:22:00Z</time>
      </trkpt>
      <trkpt lat="40.240017" lon="-4.924100">
        <ele>1485.0</ele>
        <time>2015-08-01T13:22:02Z</time>
      </trkpt>
      <trkpt lat="40.239917" lon="-4.924167">
        <ele>1485.0</ele>
        <time>2015-08-01T13:22:04Z</time>
      </trkpt>
      <trkpt lat="40.239833" lon="-4.924167">
        <ele>1485.0</ele>
        <time>2015-08-01T13:22:06Z</time>
      </trkpt>
      <trkpt lat="40.239750" lon="-4.924167">
        <ele>1484.0</ele>
        <time>2015-08-01T13:22:08Z</time>
      </trkpt>
      <trkpt lat="40.239633" lon="-4.924117">
        <ele>1483.0</ele>
        <time>2015-08-01T13:22:10Z</time>
      </trkpt>
      <trkpt lat="40.239533" lon="-4.924033">
        <ele>1485.0</ele>
        <time>2015-08-01T13:22:12Z</time>
      </trkpt>
      <trkpt lat="40.239467" lon="-4.923967">
        <ele>1486.0</ele>
        <time>2015-08-01T13:22:14Z</time>
      </trkpt>
      <trkpt lat="40.239400" lon="-4.923850">
        <ele>1484.0</ele>
        <time>2015-08-01T13:22:16Z</time>
      </trkpt>
      <trkpt lat="40.239350" lon="-4.923667">
        <ele>1484.0</ele>
        <time>2015-08-01T13:22:18Z</time>
      </trkpt>
      <trkpt lat="40.239367" lon="-4.923483">
        <ele>1485.0</ele>
        <time>2015-08-01T13:22:20Z</time>
      </trkpt>
      <trkpt lat="40.239417" lon="-4.923300">
        <ele>1484.0</ele>
        <time>2015-08-01T13:22:22Z</time>
      </trkpt>
      <trkpt lat="40.239500" lon="-4.923067">
        <ele>1482.0</ele>
        <time>2015-08-01T13:22:24Z</time>
      </trkpt>
      <trkpt lat="40.239600" lon="-4.922833">
        <ele>1486.0</ele>
        <time>2015-08-01T13:22:26Z</time>
      </trkpt>
      <trkpt lat="40.239600" lon="-4.922667">
        <ele>1488.0</ele>
        <time>2015-08-01T13:22:28Z</time>
      </trkpt>
      <trkpt lat="40.239533" lon="-4.922517">
        <ele>1487.0</ele>
        <time>2015-08-01T13:22:30Z</time>
      </trkpt>
      <trkpt lat="40.239417" lon="-4.922433">
        <ele>1487.0</ele>
        <time>2015-08-01T13:22:32Z</time>
      </trkpt>
      <trkpt lat="40.239317" lon="-4.922467">
        <ele>1488.0</ele>
        <time>2015-08-01T13:22:34Z</time>
      </trkpt>
      <trkpt lat="40.239250" lon="-4.922583">
        <ele>1487.0</ele>
        <time>2015-08-01T13:22:36Z</time>
      </trkpt>
      <trkpt lat="40.239217" lon="-4.922733">
        <ele>1488.0</ele>
        <time>2015-08-01T13:22:38Z</time>
      </trkpt>
      <trkpt lat="40.239233" lon="-4.922950">
        <ele>1486.0</ele>
        <time>2015-08-01T13:22:40Z</time>
      </trkpt>
      <trkpt lat="40.239250" lon="-4.923200">
        <ele>1483.0</ele>
        <time>2015-08-01T13:22:42Z</time>
      </trkpt>
      <trkpt lat="40.239300" lon="-4.923483">
        <ele>1484.0</ele>
        <time>2015-08-01T13:22:44Z</time>
      </trkpt>
      <trkpt lat="40.239367" lon="-4.923733">
        <ele>1490.0</ele>
        <time>2015-08-01T13:22:46Z</time>
      </trkpt>
      <trkpt lat="40.239433" lon="-4.923933">
        <ele>1493.0</ele>
        <time>2015-08-01T13:22:48Z</time>
      </trkpt>
      <trkpt lat="40.239583" lon="-4.924100">
        <ele>1493.0</ele>
        <time>2015-08-01T13:22:50Z</time>
      </trkpt>
      <trkpt lat="40.239767" lon="-4.924183">
        <ele>1491.0</ele>
        <time>2015-08-01T13:22:52Z</time>
      </trkpt>
      <trkpt lat="40.239983" lon="-4.924167">
        <ele>1489.0</ele>
        <time>2015-08-01T13:22:54Z</time>
      </trkpt>
      <trkpt lat="40.240200" lon="-4.924117">
        <ele>1489.0</ele>
        <time>2015-08-01T13:22:56Z</time>
      </trkpt>
      <trkpt lat="40.240400" lon="-4.924033">
        <ele>1489.0</ele>
        <time>2015-08-01T13:22:58Z</time>
      </trkpt>
      <trkpt lat="40.240583" lon="-4.923900">
        <ele>1489.0</ele>
        <time>2015-08-01T13:23:00Z</time>
      </trkpt>
      <trkpt lat="40.240817" lon="-4.923783">
        <ele>1493.0</ele>
        <time>2015-08-01T13:23:02Z</time>
      </trkpt>
      <trkpt lat="40.241050" lon="-4.923733">
        <ele>1497.0</ele>
        <time>2015-08-01T13:23:04Z</time>
      </trkpt>
      <trkpt lat="40.241233" lon="-4.923600">
        <ele>1497.0</ele>
        <time>2015-08-01T13:23:06Z</time>
      </trkpt>
      <trkpt lat="40.241333" lon="-4.923350">
        <ele>1495.0</ele>
        <time>2015-08-01T13:23:08Z</time>
      </trkpt>
      <trkpt lat="40.241383" lon="-4.923067">
        <ele>1498.0</ele>
        <time>2015-08-01T13:23:10Z</time>
      </trkpt>
      <trkpt lat="40.241350" lon="-4.922867">
        <ele>1502.0</ele>
        <time>2015-08-01T13:23:12Z</time>
      </trkpt>
      <trkpt lat="40.241333" lon="-4.922733">
        <ele>1501.0</ele>
        <time>2015-08-01T13:23:14Z</time>
      </trkpt>
      <trkpt lat="40.241267" lon="-4.922550">
        <ele>1500.0</ele>
        <time>2015-08-01T13:23:16Z</time>
      </trkpt>
      <trkpt lat="40.241150" lon="-4.922450">
        <ele>1501.0</ele>
        <time>2015-08-01T13:23:18Z</time>
      </trkpt>
      <trkpt lat="40.241050" lon="-4.922450">
        <ele>1500.0</ele>
        <time>2015-08-01T13:23:20Z</time>
      </trkpt>
      <trkpt lat="40.240917" lon="-4.922500">
        <ele>1499.0</ele>
        <time>2015-08-01T13:23:22Z</time>
      </trkpt>
      <trkpt lat="40.240817" lon="-4.922650">
        <ele>1499.0</ele>
        <time>2015-08-01T13:23:24Z</time>
      </trkpt>
      <trkpt lat="40.240783" lon="-4.922850">
        <ele>1501.0</ele>
        <time>2015-08-01T13:23:26Z</time>
      </trkpt>
      <trkpt lat="40.240783" lon="-4.923050">
        <ele>1503.0</ele>
        <time>2015-08-01T13:23:28Z</time>
      </trkpt>
      <trkpt lat="40.240867" lon="-4.923250">
        <ele>1503.0</ele>
        <time>2015-08-01T13:23:30Z</time>
      </trkpt>
      <trkpt lat="40.241033" lon="-4.923433">
        <ele>1503.0</ele>
        <time>2015-08-01T13:23:32Z</time>
      </trkpt>
      <trkpt lat="40.241250" lon="-4.923517">
        <ele>1510.0</ele>
        <time>2015-08-01T13:23:34Z</time>
      </trkpt>
      <trkpt lat="40.241450" lon="-4.923483">
        <ele>1513.0</ele>
        <time>2015-08-01T13:23:36Z</time>
      </trkpt>
      <trkpt lat="40.241633" lon="-4.923333">
        <ele>1512.0</ele>
        <time>2015-08-01T13:23:38Z</time>
      </trkpt>
      <trkpt lat="40.241767" lon="-4.923083">
        <ele>1514.0</ele>
        <time>2015-08-01T13:23:40Z</time>
      </trkpt>
      <trkpt lat="40.241800" lon="-4.922850">
        <ele>1517.0</ele>
        <time>2015-08-01T13:23:42Z</time>
      </trkpt>
      <trkpt lat="40.241783" lon="-4.922683">
        <ele>1519.0</ele>
        <time>2015-08-01T13:23:44Z</time>
      </trkpt>
      <trkpt lat="40.241683" lon="-4.922567">
        <ele>1518.0</ele>
        <time>2015-08-01T13:23:46Z</time>
      </trkpt>
      <trkpt lat="40.241567" lon="-4.922533">
        <ele>1518.0</ele>
        <time>2015-08-01T13:23:48Z</time>
      </trkpt>
      <trkpt lat="40.241450" lon="-4.922600">
        <ele>1518.0</ele>
        <time>2015-08-01T13:23:50Z</time>
      </trkpt>
      <trkpt lat="40.241367" lon="-4.922733">
        <ele>1518.0</ele>
        <time>2015-08-01T13:23:52Z</time>
      </trkpt>
      <trkpt lat="40.241333" lon="-4.922917">
        <ele>1520.0</ele>
        <time>2015-08-01T13:23:54Z</time>
      </trkpt>
      <trkpt lat="40.241400" lon="-4.923117">
        <ele>1521.0</ele>
        <time>2015-08-01T13:23:56Z</time>
      </trkpt>
      <trkpt lat="40.241483" lon="-4.923333">
        <ele>1524.0</ele>
        <time>2015-08-01T13:23:58Z</time>
      </trkpt>
      <trkpt lat="40.241600" lon="-4.923550">
        <ele>1529.0</ele>
        <time>2015-08-01T13:24:00Z</time>
      </trkpt>
      <trkpt lat="40.241783" lon="-4.923700">
        <ele>1532.0</ele>
        <time>2015-08-01T13:24:02Z</time>
      </trkpt>
      <trkpt lat="40.241967" lon="-4.923800">
        <ele>1535.0</ele>
        <time>2015-08-01T13:24:04Z</time>
      </trkpt>
      <trkpt lat="40.242150" lon="-4.923800">
        <ele>1536.0</ele>
        <time>2015-08-01T13:24:06Z</time>
      </trkpt>
      <trkpt lat="40.242350" lon="-4.923700">
        <ele>1535.0</ele>
        <time>2015-08-01T13:24:08Z</time>
      </trkpt>
      <trkpt lat="40.242517" lon="-4.923533">
        <ele>1534.0</ele>
        <time>2015-08-01T13:24:10Z</time>
      </trkpt>
      <trkpt lat="40.242617" lon="-4.923300">
        <ele>1533.0</ele>
        <time>2015-08-01T13:24:12Z</time>
      </trkpt>
      <trkpt lat="40.242650" lon="-4.923083">
        <ele>1533.0</ele>
        <time>2015-08-01T13:24:14Z</time>
      </trkpt>
      <trkpt lat="40.242600" lon="-4.922883">
        <ele>1531.0</ele>
        <time>2015-08-01T13:24:16Z</time>
      </trkpt>
      <trkpt lat="40.242483" lon="-4.922733">
        <ele>1532.0</ele>
        <time>2015-08-01T13:24:18Z</time>
      </trkpt>
      <trkpt lat="40.242367" lon="-4.922650">
        <ele>1537.0</ele>
        <time>2015-08-01T13:24:20Z</time>
      </trkpt>
      <trkpt lat="40.242283" lon="-4.922550">
        <ele>1540.0</ele>
        <time>2015-08-01T13:24:22Z</time>
      </trkpt>
      <trkpt lat="40.242167" lon="-4.922450">
        <ele>1540.0</ele>
        <time>2015-08-01T13:24:24Z</time>
      </trkpt>
      <trkpt lat="40.242017" lon="-4.922417">
        <ele>1541.0</ele>
        <time>2015-08-01T13:24:26Z</time>
      </trkpt>
      <trkpt lat="40.241900" lon="-4.922467">
        <ele>1543.0</ele>
        <time>2015-08-01T13:24:28Z</time>
      </trkpt>
      <trkpt lat="40.241817" lon="-4.922583">
        <ele>1543.0</ele>
        <time>2015-08-01T13:24:30Z</time>
      </trkpt>
      <trkpt lat="40.241767" lon="-4.922750">
        <ele>1542.0</ele>
        <time>2015-08-01T13:24:32Z</time>
      </trkpt>
      <trkpt lat="40.241750" lon="-4.922950">
        <ele>1542.0</ele>
        <time>2015-08-01T13:24:34Z</time>
      </trkpt>
      <trkpt lat="40.241800" lon="-4.923183">
        <ele>1541.0</ele>
        <time>2015-08-01T13:24:36Z</time>
      </trkpt>
      <trkpt lat="40.241833" lon="-4.923433">
        <ele>1542.0</ele>
        <time>2015-08-01T13:24:38Z</time>
      </trkpt>
      <trkpt lat="40.241867" lon="-4.923667">
        <ele>1544.0</ele>
        <time>2015-08-01T13:24:40Z</time>
      </trkpt>
      <trkpt lat="40.241950" lon="-4.923883">
        <ele>1545.0</ele>
        <time>2015-08-01T13:24:42Z</time>
      </trkpt>
      <trkpt lat="40.242067" lon="-4.924117">
        <ele>1547.0</ele>
        <time>2015-08-01T13:24:44Z</time>
      </trkpt>
      <trkpt lat="40.242117" lon="-4.924317">
        <ele>1550.0</ele>
        <time>2015-08-01T13:24:46Z</time>
      </trkpt>
      <trkpt lat="40.242117" lon="-4.924517">
        <ele>1549.0</ele>
        <time>2015-08-01T13:24:48Z</time>
      </trkpt>
      <trkpt lat="40.242050" lon="-4.924733">
        <ele>1544.0</ele>
        <time>2015-08-01T13:24:50Z</time>
      </trkpt>
      <trkpt lat="40.241950" lon="-4.924900">
        <ele>1541.0</ele>
        <time>2015-08-01T13:24:52Z</time>
      </trkpt>
      <trkpt lat="40.241850" lon="-4.925017">
        <ele>1536.0</ele>
        <time>2015-08-01T13:24:54Z</time>
      </trkpt>
      <trkpt lat="40.241717" lon="-4.925083">
        <ele>1529.0</ele>
        <time>2015-08-01T13:24:56Z</time>
      </trkpt>
      <trkpt lat="40.241550" lon="-4.925083">
        <ele>1522.0</ele>
        <time>2015-08-01T13:24:58Z</time>
      </trkpt>
      <trkpt lat="40.241367" lon="-4.925017">
        <ele>1516.0</ele>
        <time>2015-08-01T13:25:00Z</time>
      </trkpt>
      <trkpt lat="40.241217" lon="-4.924917">
        <ele>1512.0</ele>
        <time>2015-08-01T13:25:02Z</time>
      </trkpt>
      <trkpt lat="40.241083" lon="-4.924850">
        <ele>1510.0</ele>
        <time>2015-08-01T13:25:04Z</time>
      </trkpt>
      <trkpt lat="40.240950" lon="-4.924750">
        <ele>1507.0</ele>
        <time>2015-08-01T13:25:06Z</time>
      </trkpt>
      <trkpt lat="40.240833" lon="-4.924583">
        <ele>1505.0</ele>
        <time>2015-08-01T13:25:08Z</time>
      </trkpt>
      <trkpt lat="40.240717" lon="-4.924350">
        <ele>1503.0</ele>
        <time>2015-08-01T13:25:10Z</time>
      </trkpt>
      <trkpt lat="40.240633" lon="-4.924133">
        <ele>1502.0</ele>
        <time>2015-08-01T13:25:12Z</time>
      </trkpt>
      <trkpt lat="40.240567" lon="-4.923917">
        <ele>1500.0</ele>
        <time>2015-08-01T13:25:14Z</time>
      </trkpt>
      <trkpt lat="40.240500" lon="-4.923683">
        <ele>1497.0</ele>
        <time>2015-08-01T13:25:16Z</time>
      </trkpt>
      <trkpt lat="40.240467" lon="-4.923417">
        <ele>1495.0</ele>
        <time>2015-08-01T13:25:18Z</time>
      </trkpt>
      <trkpt lat="40.240450" lon="-4.923167">
        <ele>1496.0</ele>
        <time>2015-08-01T13:25:20Z</time>
      </trkpt>
      <trkpt lat="40.240400" lon="-4.922917">
        <ele>1496.0</ele>
        <time>2015-08-01T13:25:22Z</time>
      </trkpt>
      <trkpt lat="40.240317" lon="-4.922683">
        <ele>1493.0</ele>
        <time>2015-08-01T13:25:24Z</time>
      </trkpt>
      <trkpt lat="40.240183" lon="-4.922467">
        <ele>1490.0</ele>
        <time>2015-08-01T13:25:26Z</time>
      </trkpt>
      <trkpt lat="40.240033" lon="-4.922283">
        <ele>1489.0</ele>
        <time>2015-08-01T13:25:28Z</time>
      </trkpt>
      <trkpt lat="40.239900" lon="-4.922100">
        <ele>1487.0</ele>
        <time>2015-08-01T13:25:30Z</time>
      </trkpt>
      <trkpt lat="40.239767" lon="-4.921917">
        <ele>1484.0</ele>
        <time>2015-08-01T13:25:32Z</time>
      </trkpt>
      <trkpt lat="40.239617" lon="-4.921767">
        <ele>1481.0</ele>
        <time>2015-08-01T13:25:34Z</time>
      </trkpt>
      <trkpt lat="40.239467" lon="-4.921617">
        <ele>1478.0</ele>
        <time>2015-08-01T13:25:36Z</time>
      </trkpt>
      <trkpt lat="40.239350" lon="-4.921433">
        <ele>1476.0</ele>
        <time>2015-08-01T13:25:38Z</time>
      </trkpt>
      <trkpt lat="40.239250" lon="-4.921283">
        <ele>1475.0</ele>
        <time>2015-08-01T13:25:40Z</time>
      </trkpt>
      <trkpt lat="40.239133" lon="-4.921167">
        <ele>1469.0</ele>
        <time>2015-08-01T13:25:42Z</time>
      </trkpt>
      <trkpt lat="40.238967" lon="-4.921100">
        <ele>1464.0</ele>
        <time>2015-08-01T13:25:44Z</time>
      </trkpt>
      <trkpt lat="40.238850" lon="-4.921050">
        <ele>1461.0</ele>
        <time>2015-08-01T13:25:46Z</time>
      </trkpt>
      <trkpt lat="40.238750" lon="-4.920950">
        <ele>1456.0</ele>
        <time>2015-08-01T13:25:48Z</time>
      </trkpt>
      <trkpt lat="40.238650" lon="-4.920800">
        <ele>1448.0</ele>
        <time>2015-08-01T13:25:50Z</time>
      </trkpt>
      <trkpt lat="40.238583" lon="-4.920600">
        <ele>1442.0</ele>
        <time>2015-08-01T13:25:52Z</time>
      </trkpt>
      <trkpt lat="40.238550" lon="-4.920400">
        <ele>1438.0</ele>
        <time>2015-08-01T13:25:54Z</time>
      </trkpt>
      <trkpt lat="40.238533" lon="-4.920200">
        <ele>1431.0</ele>
        <time>2015-08-01T13:25:56Z</time>
      </trkpt>
      <trkpt lat="40.238550" lon="-4.919950">
        <ele>1423.0</ele>
        <time>2015-08-01T13:25:58Z</time>
      </trkpt>
      <trkpt lat="40.238567" lon="-4.919700">
        <ele>1419.0</ele>
        <time>2015-08-01T13:26:00Z</time>
      </trkpt>
      <trkpt lat="40.238583" lon="-4.919467">
        <ele>1414.0</ele>
        <time>2015-08-01T13:26:02Z</time>
      </trkpt>
      <trkpt lat="40.238600" lon="-4.919217">
        <ele>1408.0</ele>
        <time>2015-08-01T13:26:04Z</time>
      </trkpt>
      <trkpt lat="40.238583" lon="-4.918967">
        <ele>1403.0</ele>
        <time>2015-08-01T13:26:06Z</time>
      </trkpt>
      <trkpt lat="40.238533" lon="-4.918733">
        <ele>1400.0</ele>
        <time>2015-08-01T13:26:08Z</time>
      </trkpt>
      <trkpt lat="40.238533" lon="-4.918500">
        <ele>1395.0</ele>
        <time>2015-08-01T13:26:10Z</time>
      </trkpt>
      <trkpt lat="40.238550" lon="-4.918250">
        <ele>1389.0</ele>
        <time>2015-08-01T13:26:12Z</time>
      </trkpt>
      <trkpt lat="40.238583" lon="-4.918000">
        <ele>1385.0</ele>
        <time>2015-08-01T13:26:14Z</time>
      </trkpt>
      <trkpt lat="40.238633" lon="-4.917750">
        <ele>1381.0</ele>
        <time>2015-08-01T13:26:16Z</time>
      </trkpt>
      <trkpt lat="40.238683" lon="-4.917483">
        <ele>1378.0</ele>
        <time>2015-08-01T13:26:18Z</time>
      </trkpt>
      <trkpt lat="40.238733" lon="-4.917233">
        <ele>1375.0</ele>
        <time>2015-08-01T13:26:20Z</time>
      </trkpt>
      <trkpt lat="40.238750" lon="-4.917000">
        <ele>1371.0</ele>
        <time>2015-08-01T13:26:22Z</time>
      </trkpt>
      <trkpt lat="40.238783" lon="-4.916750">
        <ele>1365.0</ele>
        <time>2015-08-01T13:26:24Z</time>
      </trkpt>
      <trkpt lat="40.238783" lon="-4.916483">
        <ele>1361.0</ele>
        <time>2015-08-01T13:26:26Z</time>
      </trkpt>
      <trkpt lat="40.238783" lon="-4.916267">
        <ele>1359.0</ele>
        <time>2015-08-01T13:26:28Z</time>
      </trkpt>
      <trkpt lat="40.238750" lon="-4.916083">
        <ele>1355.0</ele>
        <time>2015-08-01T13:26:30Z</time>
      </trkpt>
      <trkpt lat="40.238700" lon="-4.915900">
        <ele>1349.0</ele>
        <time>2015-08-01T13:26:32Z</time>
      </trkpt>
      <trkpt lat="40.238700" lon="-4.915700">
        <ele>1346.0</ele>
        <time>2015-08-01T13:26:34Z</time>
      </trkpt>
      <trkpt lat="40.238750" lon="-4.915467">
        <ele>1342.0</ele>
        <time>2015-08-01T13:26:36Z</time>
      </trkpt>
      <trkpt lat="40.238817" lon="-4.915233">
        <ele>1337.0</ele>
        <time>2015-08-01T13:26:38Z</time>
      </trkpt>
      <trkpt lat="40.238883" lon="-4.914967">
        <ele>1333.0</ele>
        <time>2015-08-01T13:26:40Z</time>
      </trkpt>
      <trkpt lat="40.238967" lon="-4.914717">
        <ele>1330.0</ele>
        <time>2015-08-01T13:26:42Z</time>
      </trkpt>
      <trkpt lat="40.239050" lon="-4.914467">
        <ele>1325.0</ele>
        <time>2015-08-01T13:26:44Z</time>
      </trkpt>
      <trkpt lat="40.239100" lon="-4.914183">
        <ele>1320.0</ele>
        <time>2015-08-01T13:26:46Z</time>
      </trkpt>
      <trkpt lat="40.239167" lon="-4.913900">
        <ele>1314.0</ele>
        <time>2015-08-01T13:26:48Z</time>
      </trkpt>
      <trkpt lat="40.239217" lon="-4.913600">
        <ele>1308.0</ele>
        <time>2015-08-01T13:26:50Z</time>
      </trkpt>
      <trkpt lat="40.239267" lon="-4.913300">
        <ele>1304.0</ele>
        <time>2015-08-01T13:26:52Z</time>
      </trkpt>
      <trkpt lat="40.239317" lon="-4.913000">
        <ele>1300.0</ele>
        <time>2015-08-01T13:26:54Z</time>
      </trkpt>
      <trkpt lat="40.239350" lon="-4.912717">
        <ele>1295.0</ele>
        <time>2015-08-01T13:26:56Z</time>
      </trkpt>
      <trkpt lat="40.239400" lon="-4.912400">
        <ele>1289.0</ele>
        <time>2015-08-01T13:26:58Z</time>
      </trkpt>
      <trkpt lat="40.239433" lon="-4.912067">
        <ele>1284.0</ele>
        <time>2015-08-01T13:27:00Z</time>
      </trkpt>
      <trkpt lat="40.239433" lon="-4.911783">
        <ele>1281.0</ele>
        <time>2015-08-01T13:27:02Z</time>
      </trkpt>
      <trkpt lat="40.239450" lon="-4.911483">
        <ele>1276.0</ele>
        <time>2015-08-01T13:27:04Z</time>
      </trkpt>
      <trkpt lat="40.239483" lon="-4.911183">
        <ele>1269.0</ele>
        <time>2015-08-01T13:27:06Z</time>
      </trkpt>
      <trkpt lat="40.239517" lon="-4.910850">
        <ele>1264.0</ele>
        <time>2015-08-01T13:27:08Z</time>
      </trkpt>
      <trkpt lat="40.239550" lon="-4.910550">
        <ele>1261.0</ele>
        <time>2015-08-01T13:27:10Z</time>
      </trkpt>
      <trkpt lat="40.239600" lon="-4.910250">
        <ele>1256.0</ele>
        <time>2015-08-01T13:27:12Z</time>
      </trkpt>
      <trkpt lat="40.239633" lon="-4.909933">
        <ele>1250.0</ele>
        <time>2015-08-01T13:27:14Z</time>
      </trkpt>
      <trkpt lat="40.239700" lon="-4.909600">
        <ele>1244.0</ele>
        <time>2015-08-01T13:27:16Z</time>
      </trkpt>
      <trkpt lat="40.239783" lon="-4.909300">
        <ele>1240.0</ele>
        <time>2015-08-01T13:27:18Z</time>
      </trkpt>
      <trkpt lat="40.239850" lon="-4.908983">
        <ele>1235.0</ele>
        <time>2015-08-01T13:27:20Z</time>
      </trkpt>
      <trkpt lat="40.239900" lon="-4.908683">
        <ele>1230.0</ele>
        <time>2015-08-01T13:27:22Z</time>
      </trkpt>
      <trkpt lat="40.239950" lon="-4.908383">
        <ele>1225.0</ele>
        <time>2015-08-01T13:27:24Z</time>
      </trkpt>
      <trkpt lat="40.240000" lon="-4.908083">
        <ele>1219.0</ele>
        <time>2015-08-01T13:27:26Z</time>
      </trkpt>
      <trkpt lat="40.240050" lon="-4.907783">
        <ele>1212.0</ele>
        <time>2015-08-01T13:27:28Z</time>
      </trkpt>
      <trkpt lat="40.240100" lon="-4.907467">
        <ele>1207.0</ele>
        <time>2015-08-01T13:27:30Z</time>
      </trkpt>
      <trkpt lat="40.240150" lon="-4.907200">
        <ele>1204.0</ele>
        <time>2015-08-01T13:27:32Z</time>
      </trkpt>
      <trkpt lat="40.240200" lon="-4.906917">
        <ele>1200.0</ele>
        <time>2015-08-01T13:27:34Z</time>
      </trkpt>
      <trkpt lat="40.240250" lon="-4.906650">
        <ele>1194.0</ele>
        <time>2015-08-01T13:27:36Z</time>
      </trkpt>
      <trkpt lat="40.240317" lon="-4.906400">
        <ele>1187.0</ele>
        <time>2015-08-01T13:27:38Z</time>
      </trkpt>
      <trkpt lat="40.240400" lon="-4.906117">
        <ele>1181.0</ele>
        <time>2015-08-01T13:27:40Z</time>
      </trkpt>
      <trkpt lat="40.240483" lon="-4.905833">
        <ele>1178.0</ele>
        <time>2015-08-01T13:27:42Z</time>
      </trkpt>
      <trkpt lat="40.240567" lon="-4.905567">
        <ele>1178.0</ele>
        <time>2015-08-01T13:27:44Z</time>
      </trkpt>
      <trkpt lat="40.240667" lon="-4.905317">
        <ele>1178.0</ele>
        <time>2015-08-01T13:27:46Z</time>
      </trkpt>
      <trkpt lat="40.240800" lon="-4.905117">
        <ele>1178.0</ele>
        <time>2015-08-01T13:27:48Z</time>
      </trkpt>
      <trkpt lat="40.240967" lon="-4.904900">
        <ele>1178.0</ele>
        <time>2015-08-01T13:27:50Z</time>
      </trkpt>
      <trkpt lat="40.241150" lon="-4.904683">
        <ele>1180.0</ele>
        <time>2015-08-01T13:27:52Z</time>
      </trkpt>
      <trkpt lat="40.241317" lon="-4.904467">
        <ele>1180.0</ele>
        <time>2015-08-01T13:27:54Z</time>
      </trkpt>
      <trkpt lat="40.241450" lon="-4.904200">
        <ele>1175.0</ele>
        <time>2015-08-01T13:27:56Z</time>
      </trkpt>
      <trkpt lat="40.241600" lon="-4.903900">
        <ele>1174.0</ele>
        <time>2015-08-01T13:27:58Z</time>
      </trkpt>
      <trkpt lat="40.241683" lon="-4.903600">
        <ele>1175.0</ele>
        <time>2015-08-01T13:28:00Z</time>
      </trkpt>
      <trkpt lat="40.241733" lon="-4.903300">
        <ele>1175.0</ele>
        <time>2015-08-01T13:28:02Z</time>
      </trkpt>
      <trkpt lat="40.241733" lon="-4.903033">
        <ele>1175.0</ele>
        <time>2015-08-01T13:28:04Z</time>
      </trkpt>
      <trkpt lat="40.241683" lon="-4.902800">
        <ele>1174.0</ele>
        <time>2015-08-01T13:28:06Z</time>
      </trkpt>
      <trkpt lat="40.241617" lon="-4.902600">
        <ele>1174.0</ele>
        <time>2015-08-01T13:28:08Z</time>
      </trkpt>
      <trkpt lat="40.241533" lon="-4.902450">
        <ele>1173.0</ele>
        <time>2015-08-01T13:28:10Z</time>
      </trkpt>
      <trkpt lat="40.241433" lon="-4.902383">
        <ele>1171.0</ele>
        <time>2015-08-01T13:28:12Z</time>
      </trkpt>
      <trkpt lat="40.241333" lon="-4.902367">
        <ele>1170.0</ele>
        <time>2015-08-01T13:28:14Z</time>
      </trkpt>
      <trkpt lat="40.241267" lon="-4.902450">
        <ele>1167.0</ele>
        <time>2015-08-01T13:28:16Z</time>
      </trkpt>
      <trkpt lat="40.241250" lon="-4.902600">
        <ele>1164.0</ele>
        <time>2015-08-01T13:28:18Z</time>
      </trkpt>
      <trkpt lat="40.241300" lon="-4.902767">
        <ele>1162.0</ele>
        <time>2015-08-01T13:28:20Z</time>
      </trkpt>
      <trkpt lat="40.241417" lon="-4.902967">
        <ele>1161.0</ele>
        <time>2015-08-01T13:28:22Z</time>
      </trkpt>
      <trkpt lat="40.241533" lon="-4.903100">
        <ele>1164.0</ele>
        <time>2015-08-01T13:28:24Z</time>
      </trkpt>
      <trkpt lat="40.241683" lon="-4.903167">
        <ele>1164.0</ele>
        <time>2015-08-01T13:28:26Z</time>
      </trkpt>
      <trkpt lat="40.241917" lon="-4.903217">
        <ele>1163.0</ele>
        <time>2015-08-01T13:28:28Z</time>
      </trkpt>
      <trkpt lat="40.242150" lon="-4.903167">
        <ele>1167.0</ele>
        <time>2015-08-01T13:28:30Z</time>
      </trkpt>
      <trkpt lat="40.242350" lon="-4.903067">
        <ele>1170.0</ele>
        <time>2015-08-01T13:28:32Z</time>
      </trkpt>
      <trkpt lat="40.242533" lon="-4.902867">
        <ele>1171.0</ele>
        <time>2015-08-01T13:28:34Z</time>
      </trkpt>
      <trkpt lat="40.242667" lon="-4.902600">
        <ele>1173.0</ele>
        <time>2015-08-01T13:28:36Z</time>
      </trkpt>
      <trkpt lat="40.242700" lon="-4.902350">
        <ele>1175.0</ele>
        <time>2015-08-01T13:28:38Z</time>
      </trkpt>
      <trkpt lat="40.242683" lon="-4.902133">
        <ele>1176.0</ele>
        <time>2015-08-01T13:28:40Z</time>
      </trkpt>
      <trkpt lat="40.242583" lon="-4.901950">
        <ele>1174.0</ele>
        <time>2015-08-01T13:28:42Z</time>
      </trkpt>
      <trkpt lat="40.242467" lon="-4.901833">
        <ele>1175.0</ele>
        <time>2015-08-01T13:28:44Z</time>
      </trkpt>
      <trkpt lat="40.242383" lon="-4.901767">
        <ele>1177.0</ele>
        <time>2015-08-01T13:28:46Z</time>
      </trkpt>
      <trkpt lat="40.242300" lon="-4.901817">
        <ele>1176.0</ele>
        <time>2015-08-01T13:28:48Z</time>
      </trkpt>
      <trkpt lat="40.242233" lon="-4.901917">
        <ele>1177.0</ele>
        <time>2015-08-01T13:28:50Z</time>
      </trkpt>
      <trkpt lat="40.242233" lon="-4.902067">
        <ele>1178.0</ele>
        <time>2015-08-01T13:28:52Z</time>
      </trkpt>
      <trkpt lat="40.242300" lon="-4.902233">
        <ele>1177.0</ele>
        <time>2015-08-01T13:28:54Z</time>
      </trkpt>
      <trkpt lat="40.242450" lon="-4.902400">
        <ele>1178.0</ele>
        <time>2015-08-01T13:28:56Z</time>
      </trkpt>
      <trkpt lat="40.242650" lon="-4.902483">
        <ele>1180.0</ele>
        <time>2015-08-01T13:28:58Z</time>
      </trkpt>
      <trkpt lat="40.242867" lon="-4.902483">
        <ele>1183.0</ele>
        <time>2015-08-01T13:29:00Z</time>
      </trkpt>
      <trkpt lat="40.243100" lon="-4.902383">
        <ele>1186.0</ele>
        <time>2015-08-01T13:29:02Z</time>
      </trkpt>
      <trkpt lat="40.243317" lon="-4.902217">
        <ele>1189.0</ele>
        <time>2015-08-01T13:29:04Z</time>
      </trkpt>
      <trkpt lat="40.243500" lon="-4.902017">
        <ele>1193.0</ele>
        <time>2015-08-01T13:29:06Z</time>
      </trkpt>
      <trkpt lat="40.243650" lon="-4.901767">
        <ele>1194.0</ele>
        <time>2015-08-01T13:29:08Z</time>
      </trkpt>
      <trkpt lat="40.243733" lon="-4.901517">
        <ele>1197.0</ele>
        <time>2015-08-01T13:29:10Z</time>
      </trkpt>
      <trkpt lat="40.243717" lon="-4.901267">
        <ele>1197.0</ele>
        <time>2015-08-01T13:29:12Z</time>
      </trkpt>
      <trkpt lat="40.243650" lon="-4.901083">
        <ele>1199.0</ele>
        <time>2015-08-01T13:29:14Z</time>
      </trkpt>
      <trkpt lat="40.243550" lon="-4.900983">
        <ele>1200.0</ele>
        <time>2015-08-01T13:29:16Z</time>
      </trkpt>
      <trkpt lat="40.243467" lon="-4.900983">
        <ele>1200.0</ele>
        <time>2015-08-01T13:29:18Z</time>
      </trkpt>
      <trkpt lat="40.243400" lon="-4.901067">
        <ele>1201.0</ele>
        <time>2015-08-01T13:29:20Z</time>
      </trkpt>
      <trkpt lat="40.243383" lon="-4.901217">
        <ele>1204.0</ele>
        <time>2015-08-01T13:29:22Z</time>
      </trkpt>
      <trkpt lat="40.243433" lon="-4.901367">
        <ele>1206.0</ele>
        <time>2015-08-01T13:29:24Z</time>
      </trkpt>
      <trkpt lat="40.243517" lon="-4.901517">
        <ele>1207.0</ele>
        <time>2015-08-01T13:29:26Z</time>
      </trkpt>
      <trkpt lat="40.243700" lon="-4.901633">
        <ele>1207.0</ele>
        <time>2015-08-01T13:29:28Z</time>
      </trkpt>
      <trkpt lat="40.243933" lon="-4.901667">
        <ele>1211.0</ele>
        <time>2015-08-01T13:29:30Z</time>
      </trkpt>
      <trkpt lat="40.244167" lon="-4.901600">
        <ele>1216.0</ele>
        <time>2015-08-01T13:29:32Z</time>
      </trkpt>
      <trkpt lat="40.244383" lon="-4.901483">
        <ele>1220.0</ele>
        <time>2015-08-01T13:29:34Z</time>
      </trkpt>
      <trkpt lat="40.244567" lon="-4.901250">
        <ele>1222.0</ele>
        <time>2015-08-01T13:29:36Z</time>
      </trkpt>
      <trkpt lat="40.244667" lon="-4.900967">
        <ele>1225.0</ele>
        <time>2015-08-01T13:29:38Z</time>
      </trkpt>
      <trkpt lat="40.244700" lon="-4.900700">
        <ele>1228.0</ele>
        <time>2015-08-01T13:29:40Z</time>
      </trkpt>
      <trkpt lat="40.244650" lon="-4.900483">
        <ele>1230.0</ele>
        <time>2015-08-01T13:29:42Z</time>
      </trkpt>
      <trkpt lat="40.244550" lon="-4.900400">
        <ele>1232.0</ele>
        <time>2015-08-01T13:29:44Z</time>
      </trkpt>
      <trkpt lat="40.244483" lon="-4.900367">
        <ele>1235.0</ele>
        <time>2015-08-01T13:29:46Z</time>
      </trkpt>
      <trkpt lat="40.244417" lon="-4.900400">
        <ele>1236.0</ele>
        <time>2015-08-01T13:29:48Z</time>
      </trkpt>
      <trkpt lat="40.244400" lon="-4.900550">
        <ele>1237.0</ele>
        <time>2015-08-01T13:29:50Z</time>
      </trkpt>
      <trkpt lat="40.244433" lon="-4.900717">
        <ele>1240.0</ele>
        <time>2015-08-01T13:29:52Z</time>
      </trkpt>
      <trkpt lat="40.244533" lon="-4.900850">
        <ele>1243.0</ele>
        <time>2015-08-01T13:29:54Z</time>
      </trkpt>
      <trkpt lat="40.244700" lon="-4.900950">
        <ele>1245.0</ele>
        <time>2015-08-01T13:29:56Z</time>
      </trkpt>
      <trkpt lat="40.244917" lon="-4.901000">
        <ele>1250.0</ele>
        <time>2015-08-01T13:29:58Z</time>
      </trkpt>
      <trkpt lat="40.245133" lon="-4.900917">
        <ele>1255.0</ele>
        <time>2015-08-01T13:30:00Z</time>
      </trkpt>
      <trkpt lat="40.245333" lon="-4.900733">
        <ele>1259.0</ele>
        <time>2015-08-01T13:30:02Z</time>
      </trkpt>
      <trkpt lat="40.245483" lon="-4.900500">
        <ele>1262.0</ele>
        <time>2015-08-01T13:30:04Z</time>
      </trkpt>
      <trkpt lat="40.245583" lon="-4.900200">
        <ele>1264.0</ele>
        <time>2015-08-01T13:30:06Z</time>
      </trkpt>
      <trkpt lat="40.245567" lon="-4.899933">
        <ele>1267.0</ele>
        <time>2015-08-01T13:30:08Z</time>
      </trkpt>
      <trkpt lat="40.245500" lon="-4.899767">
        <ele>1270.0</ele>
        <time>2015-08-01T13:30:10Z</time>
      </trkpt>
      <trkpt lat="40.245417" lon="-4.899683">
        <ele>1272.0</ele>
        <time>2015-08-01T13:30:12Z</time>
      </trkpt>
      <trkpt lat="40.245333" lon="-4.899717">
        <ele>1274.0</ele>
        <time>2015-08-01T13:30:14Z</time>
      </trkpt>
      <trkpt lat="40.245317" lon="-4.899850">
        <ele>1277.0</ele>
        <time>2015-08-01T13:30:16Z</time>
      </trkpt>
      <trkpt lat="40.245367" lon="-4.900000">
        <ele>1279.0</ele>
        <time>2015-08-01T13:30:18Z</time>
      </trkpt>
      <trkpt lat="40.245517" lon="-4.900150">
        <ele>1279.0</ele>
        <time>2015-08-01T13:30:20Z</time>
      </trkpt>
      <trkpt lat="40.245717" lon="-4.900217">
        <ele>1283.0</ele>
        <time>2015-08-01T13:30:22Z</time>
      </trkpt>
      <trkpt lat="40.245900" lon="-4.900217">
        <ele>1288.0</ele>
        <time>2015-08-01T13:30:24Z</time>
      </trkpt>
      <trkpt lat="40.246050" lon="-4.900233">
        <ele>1287.0</ele>
        <time>2015-08-01T13:30:26Z</time>
      </trkpt>
      <trkpt lat="40.246283" lon="-4.900200">
        <ele>1283.0</ele>
        <time>2015-08-01T13:30:28Z</time>
      </trkpt>
      <trkpt lat="40.246550" lon="-4.900000">
        <ele>1284.0</ele>
        <time>2015-08-01T13:30:30Z</time>
      </trkpt>
      <trkpt lat="40.246667" lon="-4.899717">
        <ele>1288.0</ele>
        <time>2015-08-01T13:30:32Z</time>
      </trkpt>
      <trkpt lat="40.246750" lon="-4.899417">
        <ele>1291.0</ele>
        <time>2015-08-01T13:30:34Z</time>
      </trkpt>
      <trkpt lat="40.246783" lon="-4.899150">
        <ele>1293.0</ele>
        <time>2015-08-01T13:30:36Z</time>
      </trkpt>
      <trkpt lat="40.246750" lon="-4.898950">
        <ele>1294.0</ele>
        <time>2015-08-01T13:30:38Z</time>
      </trkpt>
      <trkpt lat="40.246667" lon="-4.898833">
        <ele>1295.0</ele>
        <time>2015-08-01T13:30:40Z</time>
      </trkpt>
      <trkpt lat="40.246600" lon="-4.898817">
        <ele>1297.0</ele>
        <time>2015-08-01T13:30:42Z</time>
      </trkpt>
      <trkpt lat="40.246550" lon="-4.898883">
        <ele>1298.0</ele>
        <time>2015-08-01T13:30:44Z</time>
      </trkpt>
      <trkpt lat="40.246550" lon="-4.899050">
        <ele>1297.0</ele>
        <time>2015-08-01T13:30:46Z</time>
      </trkpt>
      <trkpt lat="40.246633" lon="-4.899267">
        <ele>1299.0</ele>
        <time>2015-08-01T13:30:48Z</time>
      </trkpt>
      <trkpt lat="40.246767" lon="-4.899450">
        <ele>1303.0</ele>
        <time>2015-08-01T13:30:50Z</time>
      </trkpt>
      <trkpt lat="40.246917" lon="-4.899583">
        <ele>1305.0</ele>
        <time>2015-08-01T13:30:52Z</time>
      </trkpt>
      <trkpt lat="40.247117" lon="-4.899700">
        <ele>1306.0</ele>
        <time>2015-08-01T13:30:54Z</time>
      </trkpt>
      <trkpt lat="40.247383" lon="-4.899733">
        <ele>1310.0</ele>
        <time>2015-08-01T13:30:56Z</time>
      </trkpt>
      <trkpt lat="40.247617" lon="-4.899667">
        <ele>1316.0</ele>
        <time>2015-08-01T13:30:58Z</time>
      </trkpt>
      <trkpt lat="40.247833" lon="-4.899517">
        <ele>1319.0</ele>
        <time>2015-08-01T13:31:00Z</time>
      </trkpt>
      <trkpt lat="40.248017" lon="-4.899267">
        <ele>1320.0</ele>
        <time>2015-08-01T13:31:02Z</time>
      </trkpt>
      <trkpt lat="40.248067" lon="-4.899000">
        <ele>1322.0</ele>
        <time>2015-08-01T13:31:04Z</time>
      </trkpt>
      <trkpt lat="40.248017" lon="-4.898833">
        <ele>1324.0</ele>
        <time>2015-08-01T13:31:06Z</time>
      </trkpt>
      <trkpt lat="40.247950" lon="-4.898750">
        <ele>1326.0</ele>
        <time>2015-08-01T13:31:08Z</time>
      </trkpt>
      <trkpt lat="40.247883" lon="-4.898750">
        <ele>1329.0</ele>
        <time>2015-08-01T13:31:10Z</time>
      </trkpt>
      <trkpt lat="40.247833" lon="-4.898833">
        <ele>1331.0</ele>
        <time>2015-08-01T13:31:12Z</time>
      </trkpt>
      <trkpt lat="40.247817" lon="-4.898967">
        <ele>1331.0</ele>
        <time>2015-08-01T13:31:14Z</time>
      </trkpt>
      <trkpt lat="40.247800" lon="-4.899117">
        <ele>1332.0</ele>
        <time>2015-08-01T13:31:16Z</time>
      </trkpt>
      <trkpt lat="40.247767" lon="-4.899267">
        <ele>1335.0</ele>
        <time>2015-08-01T13:31:18Z</time>
      </trkpt>
      <trkpt lat="40.247783" lon="-4.899417">
        <ele>1341.0</ele>
        <time>2015-08-01T13:31:20Z</time>
      </trkpt>
      <trkpt lat="40.247850" lon="-4.899550">
        <ele>1346.0</ele>
        <time>2015-08-01T13:31:22Z</time>
      </trkpt>
      <trkpt lat="40.247967" lon="-4.899667">
        <ele>1349.0</ele>
        <time>2015-08-01T13:31:24Z</time>
      </trkpt>
      <trkpt lat="40.248050" lon="-4.899833">
        <ele>1350.0</ele>
        <time>2015-08-01T13:31:26Z</time>
      </trkpt>
      <trkpt lat="40.248050" lon="-4.900000">
        <ele>1350.0</ele>
        <time>2015-08-01T13:31:28Z</time>
      </trkpt>
      <trkpt lat="40.248000" lon="-4.900050">
        <ele>1352.0</ele>
        <time>2015-08-01T13:31:30Z</time>
      </trkpt>
      <trkpt lat="40.247967" lon="-4.900000">
        <ele>1354.0</ele>
        <time>2015-08-01T13:31:32Z</time>
      </trkpt>
      <trkpt lat="40.247917" lon="-4.899900">
        <ele>1352.0</ele>
        <time>2015-08-01T13:31:34Z</time>
      </trkpt>
      <trkpt lat="40.247850" lon="-4.899717">
        <ele>1351.0</ele>
        <time>2015-08-01T13:31:36Z</time>
      </trkpt>
      <trkpt lat="40.247800" lon="-4.899517">
        <ele>1351.0</ele>
        <time>2015-08-01T13:31:38Z</time>
      </trkpt>
      <trkpt lat="40.247733" lon="-4.899417">
        <ele>1348.0</ele>
        <time>2015-08-01T13:31:40Z</time>
      </trkpt>
      <trkpt lat="40.247667" lon="-4.899417">
        <ele>1345.0</ele>
        <time>2015-08-01T13:31:42Z</time>
      </trkpt>
      <trkpt lat="40.247617" lon="-4.899517">
        <ele>1346.0</ele>
        <time>2015-08-01T13:31:44Z</time>
      </trkpt>
      <trkpt lat="40.247600" lon="-4.899600">
        <ele>1351.0</ele>
        <time>2015-08-01T13:31:46Z</time>
      </trkpt>
      <trkpt lat="40.247617" lon="-4.899667">
        <ele>1353.0</ele>
        <time>2015-08-01T13:31:48Z</time>
      </trkpt>
      <trkpt lat="40.247667" lon="-4.899767">
        <ele>1350.0</ele>
        <time>2015-08-01T13:31:50Z</time>
      </trkpt>
      <trkpt lat="40.247667" lon="-4.899867">
        <ele>1347.0</ele>
        <time>2015-08-01T13:31:52Z</time>
      </trkpt>
      <trkpt lat="40.247633" lon="-4.899933">
        <ele>1344.0</ele>
        <time>2015-08-01T13:31:54Z</time>
      </trkpt>
      <trkpt lat="40.247600" lon="-4.900000">
        <ele>1341.0</ele>
        <time>2015-08-01T13:31:56Z</time>
      </trkpt>
      <trkpt lat="40.247550" lon="-4.900067">
        <ele>1338.0</ele>
        <time>2015-08-01T13:31:58Z</time>
      </trkpt>
      <trkpt lat="40.247500" lon="-4.900117">
        <ele>1334.0</ele>
        <time>2015-08-01T13:32:00Z</time>
      </trkpt>
      <trkpt lat="40.247433" lon="-4.900200">
        <ele>1331.0</ele>
        <time>2015-08-01T13:32:02Z</time>
      </trkpt>
      <trkpt lat="40.247367" lon="-4.900283">
        <ele>1329.0</ele>
        <time>2015-08-01T13:32:04Z</time>
      </trkpt>
      <trkpt lat="40.247300" lon="-4.900383">
        <ele>1328.0</ele>
        <time>2015-08-01T13:32:06Z</time>
      </trkpt>
      <trkpt lat="40.247250" lon="-4.900467">
        <ele>1326.0</ele>
        <time>2015-08-01T13:32:08Z</time>
      </trkpt>
      <trkpt lat="40.247183" lon="-4.900550">
        <ele>1323.0</ele>
        <time>2015-08-01T13:32:10Z</time>
      </trkpt>
      <trkpt lat="40.247133" lon="-4.900617">
        <ele>1322.0</ele>
        <time>2015-08-01T13:32:12Z</time>
      </trkpt>
      <trkpt lat="40.247083" lon="-4.900717">
        <ele>1318.0</ele>
        <time>2015-08-01T13:32:14Z</time>
      </trkpt>
      <trkpt lat="40.247000" lon="-4.900850">
        <ele>1316.0</ele>
        <time>2015-08-01T13:32:16Z</time>
      </trkpt>
      <trkpt lat="40.246950" lon="-4.900967">
        <ele>1318.0</ele>
        <time>2015-08-01T13:32:18Z</time>
      </trkpt>
      <trkpt lat="40.246917" lon="-4.901050">
        <ele>1318.0</ele>
        <time>2015-08-01T13:32:20Z</time>
      </trkpt>
      <trkpt lat="40.246817" lon="-4.901133">
        <ele>1316.0</ele>
        <time>2015-08-01T13:32:22Z</time>
      </trkpt>
      <trkpt lat="40.246717" lon="-4.901217">
        <ele>1318.0</ele>
        <time>2015-08-01T13:32:24Z</time>
      </trkpt>
      <trkpt lat="40.246667" lon="-4.901283">
        <ele>1319.0</ele>
        <time>2015-08-01T13:32:26Z</time>
      </trkpt>
      <trkpt lat="40.246633" lon="-4.901400">
        <ele>1316.0</ele>
        <time>2015-08-01T13:32:28Z</time>
      </trkpt>
      <trkpt lat="40.246617" lon="-4.901567">
        <ele>1311.0</ele>
        <time>2015-08-01T13:32:30Z</time>
      </trkpt>
      <trkpt lat="40.246517" lon="-4.901733">
        <ele>1309.0</ele>
        <time>2015-08-01T13:32:32Z</time>
      </trkpt>
      <trkpt lat="40.246400" lon="-4.901817">
        <ele>1312.0</ele>
        <time>2015-08-01T13:32:34Z</time>
      </trkpt>
      <trkpt lat="40.246333" lon="-4.901850">
        <ele>1315.0</ele>
        <time>2015-08-01T13:32:36Z</time>
      </trkpt>
      <trkpt lat="40.246233" lon="-4.901817">
        <ele>1313.0</ele>
        <time>2015-08-01T13:32:38Z</time>
      </trkpt>
      <trkpt lat="40.246133" lon="-4.901683">
        <ele>1315.0</ele>
        <time>2015-08-01T13:32:40Z</time>
      </trkpt>
      <trkpt lat="40.246033" lon="-4.901617">
        <ele>1317.0</ele>
        <time>2015-08-01T13:32:42Z</time>
      </trkpt>
      <trkpt lat="40.245917" lon="-4.901583">
        <ele>1318.0</ele>
        <time>2015-08-01T13:32:44Z</time>
      </trkpt>
      <trkpt lat="40.245783" lon="-4.901583">
        <ele>1318.0</ele>
        <time>2015-08-01T13:32:46Z</time>
      </trkpt>
      <trkpt lat="40.245667" lon="-4.901733">
        <ele>1315.0</ele>
        <time>2015-08-01T13:32:48Z</time>
      </trkpt>
      <trkpt lat="40.245600" lon="-4.901917">
        <ele>1319.0</ele>
        <time>2015-08-01T13:32:50Z</time>
      </trkpt>
      <trkpt lat="40.245533" lon="-4.902117">
        <ele>1322.0</ele>
        <time>2015-08-01T13:32:52Z</time>
      </trkpt>
      <trkpt lat="40.245550" lon="-4.902350">
        <ele>1327.0</ele>
        <time>2015-08-01T13:32:54Z</time>
      </trkpt>
      <trkpt lat="40.245633" lon="-4.902550">
        <ele>1332.0</ele>
        <time>2015-08-01T13:32:56Z</time>
      </trkpt>
      <trkpt lat="40.245783" lon="-4.902700">
        <ele>1334.0</ele>
        <time>2015-08-01T13:32:58Z</time>
      </trkpt>
      <trkpt lat="40.245983" lon="-4.902817">
        <ele>1333.0</ele>
        <time>2015-08-01T13:33:00Z</time>
      </trkpt>
      <trkpt lat="40.246200" lon="-4.902850">
        <ele>1334.0</ele>
        <time>2015-08-01T13:33:02Z</time>
      </trkpt>
      <trkpt lat="40.246417" lon="-4.902733">
        <ele>1333.0</ele>
        <time>2015-08-01T13:33:04Z</time>
      </trkpt>
      <trkpt lat="40.246500" lon="-4.902500">
        <ele>1331.0</ele>
        <time>2015-08-01T13:33:06Z</time>
      </trkpt>
      <trkpt lat="40.246500" lon="-4.902300">
        <ele>1333.0</ele>
        <time>2015-08-01T13:33:08Z</time>
      </trkpt>
      <trkpt lat="40.246500" lon="-4.902117">
        <ele>1334.0</ele>
        <time>2015-08-01T13:33:10Z</time>
      </trkpt>
      <trkpt lat="40.246517" lon="-4.901900">
        <ele>1335.0</ele>
        <time>2015-08-01T13:33:12Z</time>
      </trkpt>
      <trkpt lat="40.246533" lon="-4.901700">
        <ele>1338.0</ele>
        <time>2015-08-01T13:33:14Z</time>
      </trkpt>
      <trkpt lat="40.246550" lon="-4.901550">
        <ele>1340.0</ele>
        <time>2015-08-01T13:33:16Z</time>
      </trkpt>
      <trkpt lat="40.246550" lon="-4.901400">
        <ele>1341.0</ele>
        <time>2015-08-01T13:33:18Z</time>
      </trkpt>
      <trkpt lat="40.246517" lon="-4.901283">
        <ele>1342.0</ele>
        <time>2015-08-01T13:33:20Z</time>
      </trkpt>
      <trkpt lat="40.246383" lon="-4.901167">
        <ele>1342.0</ele>
        <time>2015-08-01T13:33:22Z</time>
      </trkpt>
      <trkpt lat="40.246233" lon="-4.901050">
        <ele>1346.0</ele>
        <time>2015-08-01T13:33:24Z</time>
      </trkpt>
      <trkpt lat="40.246117" lon="-4.900950">
        <ele>1353.0</ele>
        <time>2015-08-01T13:33:26Z</time>
      </trkpt>
      <trkpt lat="40.246033" lon="-4.900883">
        <ele>1357.0</ele>
        <time>2015-08-01T13:33:28Z</time>
      </trkpt>
      <trkpt lat="40.245900" lon="-4.900917">
        <ele>1358.0</ele>
        <time>2015-08-01T13:33:30Z</time>
      </trkpt>
      <trkpt lat="40.245817" lon="-4.901050">
        <ele>1362.0</ele>
        <time>2015-08-01T13:33:32Z</time>
      </trkpt>
      <trkpt lat="40.245800" lon="-4.901233">
        <ele>1368.0</ele>
        <time>2015-08-01T13:33:34Z</time>
      </trkpt>
      <trkpt lat="40.245833" lon="-4.901383">
        <ele>1371.0</ele>
        <time>2015-08-01T13:33:36Z</time>
      </trkpt>
      <trkpt lat="40.245950" lon="-4.901583">
        <ele>1372.0</ele>
        <time>2015-08-01T13:33:38Z</time>
      </trkpt>
      <trkpt lat="40.246150" lon="-4.901750">
        <ele>1375.0</ele>
        <time>2015-08-01T13:33:40Z</time>
      </trkpt>
      <trkpt lat="40.246383" lon="-4.901767">
        <ele>1380.0</ele>
        <time>2015-08-01T13:33:42Z</time>
      </trkpt>
      <trkpt lat="40.246600" lon="-4.901667">
        <ele>1387.0</ele>
        <time>2015-08-01T13:33:44Z</time>
      </trkpt>
      <trkpt lat="40.246733" lon="-4.901433">
        <ele>1391.0</ele>
        <time>2015-08-01T13:33:46Z</time>
      </trkpt>
      <trkpt lat="40.246767" lon="-4.901167">
        <ele>1398.0</ele>
        <time>2015-08-01T13:33:48Z</time>
      </trkpt>
      <trkpt lat="40.246733" lon="-4.900983">
        <ele>1403.0</ele>
        <time>2015-08-01T13:33:50Z</time>
      </trkpt>
      <trkpt lat="40.246633" lon="-4.900883">
        <ele>1407.0</ele>
        <time>2015-08-01T13:33:52Z</time>
      </trkpt>
      <trkpt lat="40.246517" lon="-4.900900">
        <ele>1412.0</ele>
        <time>2015-08-01T13:33:54Z</time>
      </trkpt>
      <trkpt lat="40.246450" lon="-4.901017">
        <ele>1416.0</ele>
        <time>2015-08-01T13:33:56Z</time>
      </trkpt>
      <trkpt lat="40.246450" lon="-4.901217">
        <ele>1418.0</ele>
        <time>2015-08-01T13:33:58Z</time>
      </trkpt>
      <trkpt lat="40.246550" lon="-4.901433">
        <ele>1422.0</ele>
        <time>2015-08-01T13:34:00Z</time>
      </trkpt>
      <trkpt lat="40.246750" lon="-4.901567">
        <ele>1426.0</ele>
        <time>2015-08-01T13:34:02Z</time>
      </trkpt>
      <trkpt lat="40.247017" lon="-4.901567">
        <ele>1429.0</ele>
        <time>2015-08-01T13:34:04Z</time>
      </trkpt>
      <trkpt lat="40.247267" lon="-4.901417">
        <ele>1434.0</ele>
        <time>2015-08-01T13:34:06Z</time>
      </trkpt>
      <trkpt lat="40.247383" lon="-4.901183">
        <ele>1438.0</ele>
        <time>2015-08-01T13:34:08Z</time>
      </trkpt>
      <trkpt lat="40.247400" lon="-4.900983">
        <ele>1444.0</ele>
        <time>2015-08-01T13:34:10Z</time>
      </trkpt>
      <trkpt lat="40.247350" lon="-4.900867">
        <ele>1450.0</ele>
        <time>2015-08-01T13:34:12Z</time>
      </trkpt>
      <trkpt lat="40.247250" lon="-4.900867">
        <ele>1456.0</ele>
        <time>2015-08-01T13:34:14Z</time>
      </trkpt>
      <trkpt lat="40.247200" lon="-4.900983">
        <ele>1461.0</ele>
        <time>2015-08-01T13:34:16Z</time>
      </trkpt>
      <trkpt lat="40.247250" lon="-4.901150">
        <ele>1464.0</ele>
        <time>2015-08-01T13:34:18Z</time>
      </trkpt>
      <trkpt lat="40.247400" lon="-4.901350">
        <ele>1466.0</ele>
        <time>2015-08-01T13:34:20Z</time>
      </trkpt>
      <trkpt lat="40.247683" lon="-4.901433">
        <ele>1470.0</ele>
        <time>2015-08-01T13:34:22Z</time>
      </trkpt>
      <trkpt lat="40.247933" lon="-4.901367">
        <ele>1473.0</ele>
        <time>2015-08-01T13:34:24Z</time>
      </trkpt>
      <trkpt lat="40.248133" lon="-4.901233">
        <ele>1475.0</ele>
        <time>2015-08-01T13:34:26Z</time>
      </trkpt>
      <trkpt lat="40.248300" lon="-4.901017">
        <ele>1475.0</ele>
        <time>2015-08-01T13:34:28Z</time>
      </trkpt>
      <trkpt lat="40.248350" lon="-4.900733">
        <ele>1479.0</ele>
        <time>2015-08-01T13:34:30Z</time>
      </trkpt>
      <trkpt lat="40.248350" lon="-4.900550">
        <ele>1487.0</ele>
        <time>2015-08-01T13:34:32Z</time>
      </trkpt>
      <trkpt lat="40.248367" lon="-4.900383">
        <ele>1493.0</ele>
        <time>2015-08-01T13:34:34Z</time>
      </trkpt>
      <trkpt lat="40.248300" lon="-4.900250">
        <ele>1496.0</ele>
        <time>2015-08-01T13:34:36Z</time>
      </trkpt>
      <trkpt lat="40.248200" lon="-4.900300">
        <ele>1504.0</ele>
        <time>2015-08-01T13:34:38Z</time>
      </trkpt>
      <trkpt lat="40.248217" lon="-4.900483">
        <ele>1509.0</ele>
        <time>2015-08-01T13:34:40Z</time>
      </trkpt>
      <trkpt lat="40.248283" lon="-4.900650">
        <ele>1514.0</ele>
        <time>2015-08-01T13:34:42Z</time>
      </trkpt>
      <trkpt lat="40.248450" lon="-4.900800">
        <ele>1515.0</ele>
        <time>2015-08-01T13:34:44Z</time>
      </trkpt>
      <trkpt lat="40.248700" lon="-4.900900">
        <ele>1515.0</ele>
        <time>2015-08-01T13:34:46Z</time>
      </trkpt>
      <trkpt lat="40.248983" lon="-4.900833">
        <ele>1516.0</ele>
        <time>2015-08-01T13:34:48Z</time>
      </trkpt>
      <trkpt lat="40.249217" lon="-4.900600">
        <ele>1515.0</ele>
        <time>2015-08-01T13:34:50Z</time>
      </trkpt>
      <trkpt lat="40.249383" lon="-4.900300">
        <ele>1518.0</ele>
        <time>2015-08-01T13:34:52Z</time>
      </trkpt>
      <trkpt lat="40.249433" lon="-4.900083">
        <ele>1523.0</ele>
        <time>2015-08-01T13:34:54Z</time>
      </trkpt>
      <trkpt lat="40.249450" lon="-4.899917">
        <ele>1526.0</ele>
        <time>2015-08-01T13:34:56Z</time>
      </trkpt>
      <trkpt lat="40.249367" lon="-4.899800">
        <ele>1530.0</ele>
        <time>2015-08-01T13:34:58Z</time>
      </trkpt>
      <trkpt lat="40.249283" lon="-4.899683">
        <ele>1538.0</ele>
        <time>2015-08-01T13:35:00Z</time>
      </trkpt>
      <trkpt lat="40.249233" lon="-4.899583">
        <ele>1548.0</ele>
        <time>2015-08-01T13:35:02Z</time>
      </trkpt>
      <trkpt lat="40.249233" lon="-4.899617">
        <ele>1555.0</ele>
        <time>2015-08-01T13:35:04Z</time>
      </trkpt>
      <trkpt lat="40.249283" lon="-4.899733">
        <ele>1558.0</ele>
        <time>2015-08-01T13:35:06Z</time>
      </trkpt>
      <trkpt lat="40.249467" lon="-4.899867">
        <ele>1559.0</ele>
        <time>2015-08-01T13:35:08Z</time>
      </trkpt>
      <trkpt lat="40.249767" lon="-4.899917">
        <ele>1562.0</ele>
        <time>2015-08-01T13:35:10Z</time>
      </trkpt>
      <trkpt lat="40.250050" lon="-4.899817">
        <ele>1567.0</ele>
        <time>2015-08-01T13:35:12Z</time>
      </trkpt>
      <trkpt lat="40.250317" lon="-4.899683">
        <ele>1571.0</ele>
        <time>2015-08-01T13:35:14Z</time>
      </trkpt>
      <trkpt lat="40.250583" lon="-4.899500">
        <ele>1576.0</ele>
        <time>2015-08-01T13:35:16Z</time>
      </trkpt>
      <trkpt lat="40.250783" lon="-4.899233">
        <ele>1579.0</ele>
        <time>2015-08-01T13:35:18Z</time>
      </trkpt>
      <trkpt lat="40.250833" lon="-4.898933">
        <ele>1583.0</ele>
        <time>2015-08-01T13:35:20Z</time>
      </trkpt>
      <trkpt lat="40.250783" lon="-4.898750">
        <ele>1586.0</ele>
        <time>2015-08-01T13:35:22Z</time>
      </trkpt>
      <trkpt lat="40.250717" lon="-4.898717">
        <ele>1589.0</ele>
        <time>2015-08-01T13:35:24Z</time>
      </trkpt>
      <trkpt lat="40.250667" lon="-4.898783">
        <ele>1599.0</ele>
        <time>2015-08-01T13:35:26Z</time>
      </trkpt>
      <trkpt lat="40.250733" lon="-4.898867">
        <ele>1610.0</ele>
        <time>2015-08-01T13:35:28Z</time>
      </trkpt>
      <trkpt lat="40.250883" lon="-4.898950">
        <ele>1613.0</ele>
        <time>2015-08-01T13:35:30Z</time>
      </trkpt>
      <trkpt lat="40.251067" lon="-4.899067">
        <ele>1616.0</ele>
        <time>2015-08-01T13:35:32Z</time>
      </trkpt>
      <trkpt lat="40.251333" lon="-4.899100">
        <ele>1620.0</ele>
        <time>2015-08-01T13:35:34Z</time>
      </trkpt>
      <trkpt lat="40.251633" lon="-4.898967">
        <ele>1619.0</ele>
        <time>2015-08-01T13:35:36Z</time>
      </trkpt>
      <trkpt lat="40.251900" lon="-4.898767">
        <ele>1620.0</ele>
        <time>2015-08-01T13:35:38Z</time>
      </trkpt>
      <trkpt lat="40.252067" lon="-4.898533">
        <ele>1616.0</ele>
        <time>2015-08-01T13:35:40Z</time>
      </trkpt>
      <trkpt lat="40.252200" lon="-4.898217">
        <ele>1607.0</ele>
        <time>2015-08-01T13:35:42Z</time>
      </trkpt>
      <trkpt lat="40.252317" lon="-4.897850">
        <ele>1600.0</ele>
        <time>2015-08-01T13:35:44Z</time>
      </trkpt>
      <trkpt lat="40.252350" lon="-4.897450">
        <ele>1594.0</ele>
        <time>2015-08-01T13:35:46Z</time>
      </trkpt>
      <trkpt lat="40.252400" lon="-4.897167">
        <ele>1592.0</ele>
        <time>2015-08-01T13:35:48Z</time>
      </trkpt>
      <trkpt lat="40.252400" lon="-4.896950">
        <ele>1585.0</ele>
        <time>2015-08-01T13:35:50Z</time>
      </trkpt>
      <trkpt lat="40.252300" lon="-4.896800">
        <ele>1572.0</ele>
        <time>2015-08-01T13:35:52Z</time>
      </trkpt>
      <trkpt lat="40.252117" lon="-4.896717">
        <ele>1563.0</ele>
        <time>2015-08-01T13:35:54Z</time>
      </trkpt>
      <trkpt lat="40.251967" lon="-4.896717">
        <ele>1559.0</ele>
        <time>2015-08-01T13:35:56Z</time>
      </trkpt>
      <trkpt lat="40.251800" lon="-4.896733">
        <ele>1558.0</ele>
        <time>2015-08-01T13:35:58Z</time>
      </trkpt>
      <trkpt lat="40.251650" lon="-4.896750">
        <ele>1560.0</ele>
        <time>2015-08-01T13:36:00Z</time>
      </trkpt>
      <trkpt lat="40.251517" lon="-4.896783">
        <ele>1561.0</ele>
        <time>2015-08-01T13:36:02Z</time>
      </trkpt>
      <trkpt lat="40.251333" lon="-4.896833">
        <ele>1563.0</ele>
        <time>2015-08-01T13:36:04Z</time>
      </trkpt>
      <trkpt lat="40.251183" lon="-4.896883">
        <ele>1571.0</ele>
        <time>2015-08-01T13:36:06Z</time>
      </trkpt>
      <trkpt lat="40.251083" lon="-4.896883">
        <ele>1578.0</ele>
        <time>2015-08-01T13:36:08Z</time>
      </trkpt>
      <trkpt lat="40.251017" lon="-4.896900">
        <ele>1579.0</ele>
        <time>2015-08-01T13:36:10Z</time>
      </trkpt>
      <trkpt lat="40.250933" lon="-4.897000">
        <ele>1578.0</ele>
        <time>2015-08-01T13:36:12Z</time>
      </trkpt>
      <trkpt lat="40.250867" lon="-4.897083">
        <ele>1585.0</ele>
        <time>2015-08-01T13:36:14Z</time>
      </trkpt>
      <trkpt lat="40.250833" lon="-4.897133">
        <ele>1589.0</ele>
        <time>2015-08-01T13:36:16Z</time>
      </trkpt>
      <trkpt lat="40.250833" lon="-4.897250">
        <ele>1592.0</ele>
        <time>2015-08-01T13:36:18Z</time>
      </trkpt>
      <trkpt lat="40.250850" lon="-4.897417">
        <ele>1599.0</ele>
        <time>2015-08-01T13:36:20Z</time>
      </trkpt>
      <trkpt lat="40.250950" lon="-4.897550">
        <ele>1605.0</ele>
        <time>2015-08-01T13:36:22Z</time>
      </trkpt>
      <trkpt lat="40.251133" lon="-4.897650">
        <ele>1609.0</ele>
        <time>2015-08-01T13:36:24Z</time>
      </trkpt>
      <trkpt lat="40.251383" lon="-4.897683">
        <ele>1614.0</ele>
        <time>2015-08-01T13:36:26Z</time>
      </trkpt>
      <trkpt lat="40.251633" lon="-4.897567">
        <ele>1618.0</ele>
        <time>2015-08-01T13:36:28Z</time>
      </trkpt>
      <trkpt lat="40.251817" lon="-4.897350">
        <ele>1624.0</ele>
        <time>2015-08-01T13:36:30Z</time>
      </trkpt>
      <trkpt lat="40.251900" lon="-4.897083">
        <ele>1630.0</ele>
        <time>2015-08-01T13:36:32Z</time>
      </trkpt>
      <trkpt lat="40.251850" lon="-4.896900">
        <ele>1636.0</ele>
        <time>2015-08-01T13:36:34Z</time>
      </trkpt>
      <trkpt lat="40.251767" lon="-4.896767">
        <ele>1641.0</ele>
        <time>2015-08-01T13:36:36Z</time>
      </trkpt>
      <trkpt lat="40.251650" lon="-4.896750">
        <ele>1646.0</ele>
        <time>2015-08-01T13:36:38Z</time>
      </trkpt>
      <trkpt lat="40.251583" lon="-4.896833">
        <ele>1652.0</ele>
        <time>2015-08-01T13:36:40Z</time>
      </trkpt>
      <trkpt lat="40.251600" lon="-4.896950">
        <ele>1655.0</ele>
        <time>2015-08-01T13:36:42Z</time>
      </trkpt>
      <trkpt lat="40.251683" lon="-4.897117">
        <ele>1656.0</ele>
        <time>2015-08-01T13:36:44Z</time>
      </trkpt>
      <trkpt lat="40.251883" lon="-4.897250">
        <ele>1659.0</ele>
        <time>2015-08-01T13:36:46Z</time>
      </trkpt>
      <trkpt lat="40.252117" lon="-4.897317">
        <ele>1664.0</ele>
        <time>2015-08-01T13:36:48Z</time>
      </trkpt>
      <trkpt lat="40.252400" lon="-4.897267">
        <ele>1669.0</ele>
        <time>2015-08-01T13:36:50Z</time>
      </trkpt>
      <trkpt lat="40.252633" lon="-4.897083">
        <ele>1676.0</ele>
        <time>2015-08-01T13:36:52Z</time>
      </trkpt>
      <trkpt lat="40.252750" lon="-4.896867">
        <ele>1682.0</ele>
        <time>2015-08-01T13:36:54Z</time>
      </trkpt>
      <trkpt lat="40.252850" lon="-4.896650">
        <ele>1684.0</ele>
        <time>2015-08-01T13:36:56Z</time>
      </trkpt>
      <trkpt lat="40.252883" lon="-4.896350">
        <ele>1685.0</ele>
        <time>2015-08-01T13:36:58Z</time>
      </trkpt>
      <trkpt lat="40.252817" lon="-4.896117">
        <ele>1691.0</ele>
        <time>2015-08-01T13:37:00Z</time>
      </trkpt>
      <trkpt lat="40.252717" lon="-4.896000">
        <ele>1698.0</ele>
        <time>2015-08-01T13:37:02Z</time>
      </trkpt>
      <trkpt lat="40.252600" lon="-4.895983">
        <ele>1704.0</ele>
        <time>2015-08-01T13:37:04Z</time>
      </trkpt>
      <trkpt lat="40.252517" lon="-4.896017">
        <ele>1710.0</ele>
        <time>2015-08-01T13:37:06Z</time>
      </trkpt>
      <trkpt lat="40.252517" lon="-4.896083">
        <ele>1712.0</ele>
        <time>2015-08-01T13:37:08Z</time>
      </trkpt>
      <trkpt lat="40.252550" lon="-4.896217">
        <ele>1713.0</ele>
        <time>2015-08-01T13:37:10Z</time>
      </trkpt>
      <trkpt lat="40.252633" lon="-4.896350">
        <ele>1715.0</ele>
        <time>2015-08-01T13:37:12Z</time>
      </trkpt>
      <trkpt lat="40.252783" lon="-4.896483">
        <ele>1716.0</ele>
        <time>2015-08-01T13:37:14Z</time>
      </trkpt>
      <trkpt lat="40.253017" lon="-4.896533">
        <ele>1715.0</ele>
        <time>2015-08-01T13:37:16Z</time>
      </trkpt>
      <trkpt lat="40.253300" lon="-4.896500">
        <ele>1715.0</ele>
        <time>2015-08-01T13:37:18Z</time>
      </trkpt>
      <trkpt lat="40.253550" lon="-4.896350">
        <ele>1715.0</ele>
        <time>2015-08-01T13:37:20Z</time>
      </trkpt>
      <trkpt lat="40.253733" lon="-4.896067">
        <ele>1715.0</ele>
        <time>2015-08-01T13:37:22Z</time>
      </trkpt>
      <trkpt lat="40.253850" lon="-4.895750">
        <ele>1723.0</ele>
        <time>2015-08-01T13:37:24Z</time>
      </trkpt>
      <trkpt lat="40.253917" lon="-4.895517">
        <ele>1728.0</ele>
        <time>2015-08-01T13:37:26Z</time>
      </trkpt>
      <trkpt lat="40.253950" lon="-4.895217">
        <ele>1731.0</ele>
        <time>2015-08-01T13:37:28Z</time>
      </trkpt>
      <trkpt lat="40.253917" lon="-4.894933">
        <ele>1734.0</ele>
        <time>2015-08-01T13:37:30Z</time>
      </trkpt>
      <trkpt lat="40.253850" lon="-4.894767">
        <ele>1738.0</ele>
        <time>2015-08-01T13:37:32Z</time>
      </trkpt>
      <trkpt lat="40.253750" lon="-4.894667">
        <ele>1741.0</ele>
        <time>2015-08-01T13:37:34Z</time>
      </trkpt>
      <trkpt lat="40.253650" lon="-4.894600">
        <ele>1744.0</ele>
        <time>2015-08-01T13:37:36Z</time>
      </trkpt>
      <trkpt lat="40.253567" lon="-4.894600">
        <ele>1745.0</ele>
        <time>2015-08-01T13:37:38Z</time>
      </trkpt>
      <trkpt lat="40.253517" lon="-4.894700">
        <ele>1747.0</ele>
        <time>2015-08-01T13:37:40Z</time>
      </trkpt>
      <trkpt lat="40.253550" lon="-4.894833">
        <ele>1751.0</ele>
        <time>2015-08-01T13:37:42Z</time>
      </trkpt>
      <trkpt lat="40.253633" lon="-4.894950">
        <ele>1757.0</ele>
        <time>2015-08-01T13:37:44Z</time>
      </trkpt>
      <trkpt lat="40.253733" lon="-4.895067">
        <ele>1763.0</ele>
        <time>2015-08-01T13:37:46Z</time>
      </trkpt>
      <trkpt lat="40.253850" lon="-4.895200">
        <ele>1768.0</ele>
        <time>2015-08-01T13:37:48Z</time>
      </trkpt>
      <trkpt lat="40.254050" lon="-4.895300">
        <ele>1774.0</ele>
        <time>2015-08-01T13:37:50Z</time>
      </trkpt>
      <trkpt lat="40.254283" lon="-4.895267">
        <ele>1780.0</ele>
        <time>2015-08-01T13:37:52Z</time>
      </trkpt>
      <trkpt lat="40.254483" lon="-4.895067">
        <ele>1781.0</ele>
        <time>2015-08-01T13:37:54Z</time>
      </trkpt>
      <trkpt lat="40.254617" lon="-4.894750">
        <ele>1780.0</ele>
        <time>2015-08-01T13:37:56Z</time>
      </trkpt>
      <trkpt lat="40.254600" lon="-4.894400">
        <ele>1783.0</ele>
        <time>2015-08-01T13:37:58Z</time>
      </trkpt>
      <trkpt lat="40.254583" lon="-4.894117">
        <ele>1790.0</ele>
        <time>2015-08-01T13:38:00Z</time>
      </trkpt>
      <trkpt lat="40.254583" lon="-4.893850">
        <ele>1793.0</ele>
        <time>2015-08-01T13:38:02Z</time>
      </trkpt>
      <trkpt lat="40.254500" lon="-4.893600">
        <ele>1794.0</ele>
        <time>2015-08-01T13:38:04Z</time>
      </trkpt>
      <trkpt lat="40.254383" lon="-4.893417">
        <ele>1797.0</ele>
        <time>2015-08-01T13:38:06Z</time>
      </trkpt>
      <trkpt lat="40.254267" lon="-4.893317">
        <ele>1801.0</ele>
        <time>2015-08-01T13:38:08Z</time>
      </trkpt>
      <trkpt lat="40.254167" lon="-4.893283">
        <ele>1803.0</ele>
        <time>2015-08-01T13:38:10Z</time>
      </trkpt>
      <trkpt lat="40.254083" lon="-4.893317">
        <ele>1804.0</ele>
        <time>2015-08-01T13:38:12Z</time>
      </trkpt>
      <trkpt lat="40.254067" lon="-4.893383">
        <ele>1800.0</ele>
        <time>2015-08-01T13:38:14Z</time>
      </trkpt>
      <trkpt lat="40.254000" lon="-4.893467">
        <ele>1796.0</ele>
        <time>2015-08-01T13:38:16Z</time>
      </trkpt>
      <trkpt lat="40.253883" lon="-4.893500">
        <ele>1793.0</ele>
        <time>2015-08-01T13:38:18Z</time>
      </trkpt>
      <trkpt lat="40.253750" lon="-4.893467">
        <ele>1794.0</ele>
        <time>2015-08-01T13:38:20Z</time>
      </trkpt>
      <trkpt lat="40.253667" lon="-4.893433">
        <ele>1797.0</ele>
        <time>2015-08-01T13:38:22Z</time>
      </trkpt>
      <trkpt lat="40.253600" lon="-4.893400">
        <ele>1795.0</ele>
        <time>2015-08-01T13:38:24Z</time>
      </trkpt>
      <trkpt lat="40.253500" lon="-4.893400">
        <ele>1790.0</ele>
        <time>2015-08-01T13:38:26Z</time>
      </trkpt>
      <trkpt lat="40.253383" lon="-4.893417">
        <ele>1788.0</ele>
        <time>2015-08-01T13:38:28Z</time>
      </trkpt>
      <trkpt lat="40.253267" lon="-4.893400">
        <ele>1788.0</ele>
        <time>2015-08-01T13:38:30Z</time>
      </trkpt>
      <trkpt lat="40.253167" lon="-4.893417">
        <ele>1788.0</ele>
        <time>2015-08-01T13:38:32Z</time>
      </trkpt>
      <trkpt lat="40.253083" lon="-4.893483">
        <ele>1792.0</ele>
        <time>2015-08-01T13:38:34Z</time>
      </trkpt>
      <trkpt lat="40.253017" lon="-4.893500">
        <ele>1799.0</ele>
        <time>2015-08-01T13:38:36Z</time>
      </trkpt>
      <trkpt lat="40.252950" lon="-4.893533">
        <ele>1804.0</ele>
        <time>2015-08-01T13:38:38Z</time>
      </trkpt>
      <trkpt lat="40.252917" lon="-4.893567">
        <ele>1814.0</ele>
        <time>2015-08-01T13:38:40Z</time>
      </trkpt>
      <trkpt lat="40.252967" lon="-4.893650">
        <ele>1822.0</ele>
        <time>2015-08-01T13:38:42Z</time>
      </trkpt>
      <trkpt lat="40.253117" lon="-4.893783">
        <ele>1828.0</ele>
        <time>2015-08-01T13:38:44Z</time>
      </trkpt>
      <trkpt lat="40.253317" lon="-4.893850">
        <ele>1836.0</ele>
        <time>2015-08-01T13:38:46Z</time>
      </trkpt>
      <trkpt lat="40.253567" lon="-4.893750">
        <ele>1840.0</ele>
        <time>2015-08-01T13:38:48Z</time>
      </trkpt>
      <trkpt lat="40.253800" lon="-4.893517">
        <ele>1845.0</ele>
        <time>2015-08-01T13:38:50Z</time>
      </trkpt>
      <trkpt lat="40.253950" lon="-4.893200">
        <ele>1849.0</ele>
        <time>2015-08-01T13:38:52Z</time>
      </trkpt>
      <trkpt lat="40.253967" lon="-4.892883">
        <ele>1851.0</ele>
        <time>2015-08-01T13:38:54Z</time>
      </trkpt>
      <trkpt lat="40.253900" lon="-4.892633">
        <ele>1856.0</ele>
        <time>2015-08-01T13:38:56Z</time>
      </trkpt>
      <trkpt lat="40.253833" lon="-4.892500">
        <ele>1865.0</ele>
        <time>2015-08-01T13:38:58Z</time>
      </trkpt>
      <trkpt lat="40.253783" lon="-4.892450">
        <ele>1871.0</ele>
        <time>2015-08-01T13:39:00Z</time>
      </trkpt>
      <trkpt lat="40.253750" lon="-4.892467">
        <ele>1876.0</ele>
        <time>2015-08-01T13:39:02Z</time>
      </trkpt>
      <trkpt lat="40.253767" lon="-4.892567">
        <ele>1882.0</ele>
        <time>2015-08-01T13:39:04Z</time>
      </trkpt>
      <trkpt lat="40.253900" lon="-4.892633">
        <ele>1890.0</ele>
        <time>2015-08-01T13:39:06Z</time>
      </trkpt>
      <trkpt lat="40.254083" lon="-4.892633">
        <ele>1897.0</ele>
        <time>2015-08-01T13:39:08Z</time>
      </trkpt>
      <trkpt lat="40.254300" lon="-4.892533">
        <ele>1901.0</ele>
        <time>2015-08-01T13:39:10Z</time>
      </trkpt>
      <trkpt lat="40.254550" lon="-4.892300">
        <ele>1903.0</ele>
        <time>2015-08-01T13:39:12Z</time>
      </trkpt>
      <trkpt lat="40.254733" lon="-4.891967">
        <ele>1907.0</ele>
        <time>2015-08-01T13:39:14Z</time>
      </trkpt>
      <trkpt lat="40.254817" lon="-4.891600">
        <ele>1907.0</ele>
        <time>2015-08-01T13:39:16Z</time>
      </trkpt>
      <trkpt lat="40.254833" lon="-4.891200">
        <ele>1908.0</ele>
        <time>2015-08-01T13:39:18Z</time>
      </trkpt>
      <trkpt lat="40.254767" lon="-4.890867">
        <ele>1912.0</ele>
        <time>2015-08-01T13:39:20Z</time>
      </trkpt>
      <trkpt lat="40.254683" lon="-4.890667">
        <ele>1916.0</ele>
        <time>2015-08-01T13:39:22Z</time>
      </trkpt>
      <trkpt lat="40.254567" lon="-4.890533">
        <ele>1917.0</ele>
        <time>2015-08-01T13:39:24Z</time>
      </trkpt>
      <trkpt lat="40.254467" lon="-4.890450">
        <ele>1917.0</ele>
        <time>2015-08-01T13:39:26Z</time>
      </trkpt>
      <trkpt lat="40.254367" lon="-4.890483">
        <ele>1915.0</ele>
        <time>2015-08-01T13:39:28Z</time>
      </trkpt>
      <trkpt lat="40.254267" lon="-4.890517">
        <ele>1919.0</ele>
        <time>2015-08-01T13:39:30Z</time>
      </trkpt>
      <trkpt lat="40.254183" lon="-4.890533">
        <ele>1922.0</ele>
        <time>2015-08-01T13:39:32Z</time>
      </trkpt>
      <trkpt lat="40.254067" lon="-4.890550">
        <ele>1923.0</ele>
        <time>2015-08-01T13:39:34Z</time>
      </trkpt>
      <trkpt lat="40.253950" lon="-4.890567">
        <ele>1925.0</ele>
        <time>2015-08-01T13:39:36Z</time>
      </trkpt>
      <trkpt lat="40.253833" lon="-4.890567">
        <ele>1927.0</ele>
        <time>2015-08-01T13:39:38Z</time>
      </trkpt>
      <trkpt lat="40.253717" lon="-4.890567">
        <ele>1926.0</ele>
        <time>2015-08-01T13:39:40Z</time>
      </trkpt>
      <trkpt lat="40.253617" lon="-4.890617">
        <ele>1927.0</ele>
        <time>2015-08-01T13:39:42Z</time>
      </trkpt>
      <trkpt lat="40.253567" lon="-4.890700">
        <ele>1928.0</ele>
        <time>2015-08-01T13:39:44Z</time>
      </trkpt>
      <trkpt lat="40.253467" lon="-4.890750">
        <ele>1929.0</ele>
        <time>2015-08-01T13:39:46Z</time>
      </trkpt>
      <trkpt lat="40.253383" lon="-4.890800">
        <ele>1930.0</ele>
        <time>2015-08-01T13:39:48Z</time>
      </trkpt>
      <trkpt lat="40.253283" lon="-4.890833">
        <ele>1929.0</ele>
        <time>2015-08-01T13:39:50Z</time>
      </trkpt>
      <trkpt lat="40.253200" lon="-4.890900">
        <ele>1928.0</ele>
        <time>2015-08-01T13:39:52Z</time>
      </trkpt>
      <trkpt lat="40.253117" lon="-4.890983">
        <ele>1929.0</ele>
        <time>2015-08-01T13:39:54Z</time>
      </trkpt>
      <trkpt lat="40.253050" lon="-4.891050">
        <ele>1933.0</ele>
        <time>2015-08-01T13:39:56Z</time>
      </trkpt>
      <trkpt lat="40.253000" lon="-4.891133">
        <ele>1936.0</ele>
        <time>2015-08-01T13:39:58Z</time>
      </trkpt>
      <trkpt lat="40.252950" lon="-4.891217">
        <ele>1941.0</ele>
        <time>2015-08-01T13:40:00Z</time>
      </trkpt>
      <trkpt lat="40.252933" lon="-4.891300">
        <ele>1945.0</ele>
        <time>2015-08-01T13:40:02Z</time>
      </trkpt>
      <trkpt lat="40.252933" lon="-4.891433">
        <ele>1952.0</ele>
        <time>2015-08-01T13:40:04Z</time>
      </trkpt>
      <trkpt lat="40.252983" lon="-4.891517">
        <ele>1962.0</ele>
        <time>2015-08-01T13:40:06Z</time>
      </trkpt>
      <trkpt lat="40.253083" lon="-4.891567">
        <ele>1969.0</ele>
        <time>2015-08-01T13:40:08Z</time>
      </trkpt>
      <trkpt lat="40.253233" lon="-4.891583">
        <ele>1974.0</ele>
        <time>2015-08-01T13:40:10Z</time>
      </trkpt>
      <trkpt lat="40.253450" lon="-4.891517">
        <ele>1979.0</ele>
        <time>2015-08-01T13:40:12Z</time>
      </trkpt>
      <trkpt lat="40.253667" lon="-4.891333">
        <ele>1985.0</ele>
        <time>2015-08-01T13:40:14Z</time>
      </trkpt>
      <trkpt lat="40.253833" lon="-4.891067">
        <ele>1991.0</ele>
        <time>2015-08-01T13:40:16Z</time>
      </trkpt>
      <trkpt lat="40.253917" lon="-4.890700">
        <ele>1995.0</ele>
        <time>2015-08-01T13:40:18Z</time>
      </trkpt>
      <trkpt lat="40.253917" lon="-4.890367">
        <ele>1998.0</ele>
        <time>2015-08-01T13:40:20Z</time>
      </trkpt>
      <trkpt lat="40.253850" lon="-4.890117">
        <ele>1998.0</ele>
        <time>2015-08-01T13:40:22Z</time>
      </trkpt>
      <trkpt lat="40.253750" lon="-4.889883">
        <ele>1997.0</ele>
        <time>2015-08-01T13:40:24Z</time>
      </trkpt>
      <trkpt lat="40.253600" lon="-4.889683">
        <ele>1998.0</ele>
        <time>2015-08-01T13:40:26Z</time>
      </trkpt>
      <trkpt lat="40.253483" lon="-4.889600">
        <ele>2002.0</ele>
        <time>2015-08-01T13:40:28Z</time>
      </trkpt>
      <trkpt lat="40.253383" lon="-4.889567">
        <ele>2003.0</ele>
        <time>2015-08-01T13:40:30Z</time>
      </trkpt>
      <trkpt lat="40.253283" lon="-4.889600">
        <ele>2004.0</ele>
        <time>2015-08-01T13:40:32Z</time>
      </trkpt>
      <trkpt lat="40.253183" lon="-4.889667">
        <ele>2007.0</ele>
        <time>2015-08-01T13:40:34Z</time>
      </trkpt>
      <trkpt lat="40.253133" lon="-4.889733">
        <ele>2011.0</ele>
        <time>2015-08-01T13:40:36Z</time>
      </trkpt>
      <trkpt lat="40.253150" lon="-4.889867">
        <ele>2014.0</ele>
        <time>2015-08-01T13:40:38Z</time>
      </trkpt>
      <trkpt lat="40.253217" lon="-4.889967">
        <ele>2020.0</ele>
        <time>2015-08-01T13:40:40Z</time>
      </trkpt>
      <trkpt lat="40.253317" lon="-4.890000">
        <ele>2024.0</ele>
        <time>2015-08-01T13:40:42Z</time>
      </trkpt>
      <trkpt lat="40.253467" lon="-4.890050">
        <ele>2025.0</ele>
        <time>2015-08-01T13:40:44Z</time>
      </trkpt>
      <trkpt lat="40.253683" lon="-4.890017">
        <ele>2028.0</ele>
        <time>2015-08-01T13:40:46Z</time>
      </trkpt>
      <trkpt lat="40.253900" lon="-4.889850">
        <ele>2029.0</ele>
        <time>2015-08-01T13:40:48Z</time>
      </trkpt>
      <trkpt lat="40.254100" lon="-4.889617">
        <ele>2032.0</ele>
        <time>2015-08-01T13:40:50Z</time>
      </trkpt>
      <trkpt lat="40.254233" lon="-4.889267">
        <ele>2035.0</ele>
        <time>2015-08-01T13:40:52Z</time>
      </trkpt>
      <trkpt lat="40.254250" lon="-4.888883">
        <ele>2037.0</ele>
        <time>2015-08-01T13:40:54Z</time>
      </trkpt>
      <trkpt lat="40.254217" lon="-4.888533">
        <ele>2038.0</ele>
        <time>2015-08-01T13:40:56Z</time>
      </trkpt>
      <trkpt lat="40.254083" lon="-4.888250">
        <ele>2037.0</ele>
        <time>2015-08-01T13:40:58Z</time>
      </trkpt>
      <trkpt lat="40.253900" lon="-4.888067">
        <ele>2038.0</ele>
        <time>2015-08-01T13:41:00Z</time>
      </trkpt>
      <trkpt lat="40.253767" lon="-4.888000">
        <ele>2043.0</ele>
        <time>2015-08-01T13:41:02Z</time>
      </trkpt>
      <trkpt lat="40.253683" lon="-4.887950">
        <ele>2045.0</ele>
        <time>2015-08-01T13:41:04Z</time>
      </trkpt>
      <trkpt lat="40.253633" lon="-4.887983">
        <ele>2043.0</ele>
        <time>2015-08-01T13:41:06Z</time>
      </trkpt>
      <trkpt lat="40.253633" lon="-4.888117">
        <ele>2042.0</ele>
        <time>2015-08-01T13:41:08Z</time>
      </trkpt>
      <trkpt lat="40.253683" lon="-4.888200">
        <ele>2046.0</ele>
        <time>2015-08-01T13:41:10Z</time>
      </trkpt>
      <trkpt lat="40.253733" lon="-4.888233">
        <ele>2048.0</ele>
        <time>2015-08-01T13:41:12Z</time>
      </trkpt>
      <trkpt lat="40.253817" lon="-4.888317">
        <ele>2047.0</ele>
        <time>2015-08-01T13:41:14Z</time>
      </trkpt>
      <trkpt lat="40.253900" lon="-4.888383">
        <ele>2047.0</ele>
        <time>2015-08-01T13:41:16Z</time>
      </trkpt>
      <trkpt lat="40.254050" lon="-4.888433">
        <ele>2045.0</ele>
        <time>2015-08-01T13:41:18Z</time>
      </trkpt>
      <trkpt lat="40.254167" lon="-4.888550">
        <ele>2043.0</ele>
        <time>2015-08-01T13:41:20Z</time>
      </trkpt>
      <trkpt lat="40.254200" lon="-4.888717">
        <ele>2045.0</ele>
        <time>2015-08-01T13:41:22Z</time>
      </trkpt>
      <trkpt lat="40.254183" lon="-4.888833">
        <ele>2050.0</ele>
        <time>2015-08-01T13:41:24Z</time>
      </trkpt>
      <trkpt lat="40.254167" lon="-4.888900">
        <ele>2053.0</ele>
        <time>2015-08-01T13:41:26Z</time>
      </trkpt>
      <trkpt lat="40.254083" lon="-4.888967">
        <ele>2051.0</ele>
        <time>2015-08-01T13:41:28Z</time>
      </trkpt>
      <trkpt lat="40.253983" lon="-4.889033">
        <ele>2053.0</ele>
        <time>2015-08-01T13:41:30Z</time>
      </trkpt>
      <trkpt lat="40.253917" lon="-4.889100">
        <ele>2056.0</ele>
        <time>2015-08-01T13:41:32Z</time>
      </trkpt>
      <trkpt lat="40.253883" lon="-4.889183">
        <ele>2056.0</ele>
        <time>2015-08-01T13:41:34Z</time>
      </trkpt>
      <trkpt lat="40.253883" lon="-4.889283">
        <ele>2059.0</ele>
        <time>2015-08-01T13:41:36Z</time>
      </trkpt>
      <trkpt lat="40.253967" lon="-4.889367">
        <ele>2063.0</ele>
        <time>2015-08-01T13:41:38Z</time>
      </trkpt>
      <trkpt lat="40.254050" lon="-4.889483">
        <ele>2065.0</ele>
        <time>2015-08-01T13:41:40Z</time>
      </trkpt>
      <trkpt lat="40.254167" lon="-4.889583">
        <ele>2068.0</ele>
        <time>2015-08-01T13:41:42Z</time>
      </trkpt>
      <trkpt lat="40.254367" lon="-4.889567">
        <ele>2070.0</ele>
        <time>2015-08-01T13:41:44Z</time>
      </trkpt>
      <trkpt lat="40.254600" lon="-4.889383">
        <ele>2070.0</ele>
        <time>2015-08-01T13:41:46Z</time>
      </trkpt>
      <trkpt lat="40.254783" lon="-4.889117">
        <ele>2075.0</ele>
        <time>2015-08-01T13:41:48Z</time>
      </trkpt>
      <trkpt lat="40.254850" lon="-4.888817">
        <ele>2076.0</ele>
        <time>2015-08-01T13:41:50Z</time>
      </trkpt>
      <trkpt lat="40.254850" lon="-4.888500">
        <ele>2076.0</ele>
        <time>2015-08-01T13:41:52Z</time>
      </trkpt>
      <trkpt lat="40.254750" lon="-4.888267">
        <ele>2077.0</ele>
        <time>2015-08-01T13:41:54Z</time>
      </trkpt>
      <trkpt lat="40.254617" lon="-4.888167">
        <ele>2079.0</ele>
        <time>2015-08-01T13:41:56Z</time>
      </trkpt>
      <trkpt lat="40.254517" lon="-4.888133">
        <ele>2081.0</ele>
        <time>2015-08-01T13:41:58Z</time>
      </trkpt>
      <trkpt lat="40.254433" lon="-4.888183">
        <ele>2081.0</ele>
        <time>2015-08-01T13:42:00Z</time>
      </trkpt>
      <trkpt lat="40.254367" lon="-4.888300">
        <ele>2081.0</ele>
        <time>2015-08-01T13:42:02Z</time>
      </trkpt>
      <trkpt lat="40.254367" lon="-4.888450">
        <ele>2083.0</ele>
        <time>2015-08-01T13:42:04Z</time>
      </trkpt>
      <trkpt lat="40.254367" lon="-4.888583">
        <ele>2087.0</ele>
        <time>2015-08-01T13:42:06Z</time>
      </trkpt>
      <trkpt lat="40.254433" lon="-4.888700">
        <ele>2088.0</ele>
        <time>2015-08-01T13:42:08Z</time>
      </trkpt>
      <trkpt lat="40.254550" lon="-4.888833">
        <ele>2087.0</ele>
        <time>2015-08-01T13:42:10Z</time>
      </trkpt>
      <trkpt lat="40.254650" lon="-4.888983">
        <ele>2090.0</ele>
        <time>2015-08-01T13:42:12Z</time>
      </trkpt>
      <trkpt lat="40.254717" lon="-4.889117">
        <ele>2095.0</ele>
        <time>2015-08-01T13:42:14Z</time>
      </trkpt>
      <trkpt lat="40.254833" lon="-4.889217">
        <ele>2098.0</ele>
        <time>2015-08-01T13:42:16Z</time>
      </trkpt>
      <trkpt lat="40.255000" lon="-4.889267">
        <ele>2103.0</ele>
        <time>2015-08-01T13:42:18Z</time>
      </trkpt>
      <trkpt lat="40.255167" lon="-4.889233">
        <ele>2114.0</ele>
        <time>2015-08-01T13:42:20Z</time>
      </trkpt>
      <trkpt lat="40.255317" lon="-4.889150">
        <ele>2120.0</ele>
        <time>2015-08-01T13:42:22Z</time>
      </trkpt>
      <trkpt lat="40.255500" lon="-4.889000">
        <ele>2122.0</ele>
        <time>2015-08-01T13:42:24Z</time>
      </trkpt>
      <trkpt lat="40.255667" lon="-4.888733">
        <ele>2126.0</ele>
        <time>2015-08-01T13:42:26Z</time>
      </trkpt>
      <trkpt lat="40.255750" lon="-4.888383">
        <ele>2131.0</ele>
        <time>2015-08-01T13:42:28Z</time>
      </trkpt>
      <trkpt lat="40.255767" lon="-4.888067">
        <ele>2137.0</ele>
        <time>2015-08-01T13:42:30Z</time>
      </trkpt>
      <trkpt lat="40.255733" lon="-4.887817">
        <ele>2139.0</ele>
        <time>2015-08-01T13:42:32Z</time>
      </trkpt>
      <trkpt lat="40.255617" lon="-4.887617">
        <ele>2139.0</ele>
        <time>2015-08-01T13:42:34Z</time>
      </trkpt>
      <trkpt lat="40.255483" lon="-4.887467">
        <ele>2141.0</ele>
        <time>2015-08-01T13:42:36Z</time>
      </trkpt>
      <trkpt lat="40.255350" lon="-4.887350">
        <ele>2142.0</ele>
        <time>2015-08-01T13:42:38Z</time>
      </trkpt>
      <trkpt lat="40.255217" lon="-4.887367">
        <ele>2141.0</ele>
        <time>2015-08-01T13:42:40Z</time>
      </trkpt>
      <trkpt lat="40.255117" lon="-4.887450">
        <ele>2142.0</ele>
        <time>2015-08-01T13:42:42Z</time>
      </trkpt>
      <trkpt lat="40.255083" lon="-4.887583">
        <ele>2141.0</ele>
        <time>2015-08-01T13:42:44Z</time>
      </trkpt>
      <trkpt lat="40.255100" lon="-4.887750">
        <ele>2140.0</ele>
        <time>2015-08-01T13:42:46Z</time>
      </trkpt>
      <trkpt lat="40.255183" lon="-4.887900">
        <ele>2143.0</ele>
        <time>2015-08-01T13:42:48Z</time>
      </trkpt>
      <trkpt lat="40.255317" lon="-4.887950">
        <ele>2147.0</ele>
        <time>2015-08-01T13:42:50Z</time>
      </trkpt>
      <trkpt lat="40.255500" lon="-4.887883">
        <ele>2150.0</ele>
        <time>2015-08-01T13:42:52Z</time>
      </trkpt>
      <trkpt lat="40.255700" lon="-4.887750">
        <ele>2153.0</ele>
        <time>2015-08-01T13:42:54Z</time>
      </trkpt>
      <trkpt lat="40.255883" lon="-4.887567">
        <ele>2159.0</ele>
        <time>2015-08-01T13:42:56Z</time>
      </trkpt>
      <trkpt lat="40.256017" lon="-4.887317">
        <ele>2163.0</ele>
        <time>2015-08-01T13:42:58Z</time>
      </trkpt>
      <trkpt lat="40.256050" lon="-4.886967">
        <ele>2163.0</ele>
        <time>2015-08-01T13:43:00Z</time>
      </trkpt>
      <trkpt lat="40.256017" lon="-4.886600">
        <ele>2163.0</ele>
        <time>2015-08-01T13:43:02Z</time>
      </trkpt>
      <trkpt lat="40.255917" lon="-4.886333">
        <ele>2164.0</ele>
        <time>2015-08-01T13:43:04Z</time>
      </trkpt>
      <trkpt lat="40.255817" lon="-4.886133">
        <ele>2167.0</ele>
        <time>2015-08-01T13:43:06Z</time>
      </trkpt>
      <trkpt lat="40.255700" lon="-4.886000">
        <ele>2167.0</ele>
        <time>2015-08-01T13:43:08Z</time>
      </trkpt>
      <trkpt lat="40.255550" lon="-4.885917">
        <ele>2164.0</ele>
        <time>2015-08-01T13:43:10Z</time>
      </trkpt>
      <trkpt lat="40.255400" lon="-4.885900">
        <ele>2162.0</ele>
        <time>2015-08-01T13:43:12Z</time>
      </trkpt>
      <trkpt lat="40.255250" lon="-4.885950">
        <ele>2157.0</ele>
        <time>2015-08-01T13:43:14Z</time>
      </trkpt>
      <trkpt lat="40.255083" lon="-4.886050">
        <ele>2152.0</ele>
        <time>2015-08-01T13:43:16Z</time>
      </trkpt>
      <trkpt lat="40.254917" lon="-4.886117">
        <ele>2150.0</ele>
        <time>2015-08-01T13:43:18Z</time>
      </trkpt>
      <trkpt lat="40.254733" lon="-4.886167">
        <ele>2150.0</ele>
        <time>2015-08-01T13:43:20Z</time>
      </trkpt>
      <trkpt lat="40.254550" lon="-4.886183">
        <ele>2152.0</ele>
        <time>2015-08-01T13:43:22Z</time>
      </trkpt>
      <trkpt lat="40.254367" lon="-4.886150">
        <ele>2154.0</ele>
        <time>2015-08-01T13:43:24Z</time>
      </trkpt>
      <trkpt lat="40.254200" lon="-4.886150">
        <ele>2157.0</ele>
        <time>2015-08-01T13:43:26Z</time>
      </trkpt>
      <trkpt lat="40.254050" lon="-4.886133">
        <ele>2161.0</ele>
        <time>2015-08-01T13:43:28Z</time>
      </trkpt>
      <trkpt lat="40.253900" lon="-4.886083">
        <ele>2162.0</ele>
        <time>2015-08-01T13:43:30Z</time>
      </trkpt>
      <trkpt lat="40.253717" lon="-4.886050">
        <ele>2164.0</ele>
        <time>2015-08-01T13:43:32Z</time>
      </trkpt>
      <trkpt lat="40.253550" lon="-4.886017">
        <ele>2166.0</ele>
        <time>2015-08-01T13:43:34Z</time>
      </trkpt>
      <trkpt lat="40.253417" lon="-4.886033">
        <ele>2165.0</ele>
        <time>2015-08-01T13:43:36Z</time>
      </trkpt>
      <trkpt lat="40.253317" lon="-4.886067">
        <ele>2161.0</ele>
        <time>2015-08-01T13:43:38Z</time>
      </trkpt>
      <trkpt lat="40.253167" lon="-4.886067">
        <ele>2157.0</ele>
        <time>2015-08-01T13:43:40Z</time>
      </trkpt>
      <trkpt lat="40.253033" lon="-4.886050">
        <ele>2156.0</ele>
        <time>2015-08-01T13:43:42Z</time>
      </trkpt>
      <trkpt lat="40.252917" lon="-4.886033">
        <ele>2153.0</ele>
        <time>2015-08-01T13:43:44Z</time>
      </trkpt>
      <trkpt lat="40.252800" lon="-4.886067">
        <ele>2147.0</ele>
        <time>2015-08-01T13:43:46Z</time>
      </trkpt>
      <trkpt lat="40.252683" lon="-4.886117">
        <ele>2142.0</ele>
        <time>2015-08-01T13:43:48Z</time>
      </trkpt>
      <trkpt lat="40.252583" lon="-4.886183">
        <ele>2136.0</ele>
        <time>2015-08-01T13:43:50Z</time>
      </trkpt>
      <trkpt lat="40.252500" lon="-4.886283">
        <ele>2131.0</ele>
        <time>2015-08-01T13:43:52Z</time>
      </trkpt>
      <trkpt lat="40.252433" lon="-4.886367">
        <ele>2128.0</ele>
        <time>2015-08-01T13:43:54Z</time>
      </trkpt>
      <trkpt lat="40.252367" lon="-4.886467">
        <ele>2123.0</ele>
        <time>2015-08-01T13:43:56Z</time>
      </trkpt>
      <trkpt lat="40.252283" lon="-4.886550">
        <ele>2117.0</ele>
        <time>2015-08-01T13:43:58Z</time>
      </trkpt>
      <trkpt lat="40.252183" lon="-4.886633">
        <ele>2112.0</ele>
        <time>2015-08-01T13:44:00Z</time>
      </trkpt>
      <trkpt lat="40.252067" lon="-4.886667">
        <ele>2107.0</ele>
        <time>2015-08-01T13:44:02Z</time>
      </trkpt>
      <trkpt lat="40.251933" lon="-4.886683">
        <ele>2101.0</ele>
        <time>2015-08-01T13:44:04Z</time>
      </trkpt>
      <trkpt lat="40.251767" lon="-4.886683">
        <ele>2095.0</ele>
        <time>2015-08-01T13:44:06Z</time>
      </trkpt>
      <trkpt lat="40.251617" lon="-4.886667">
        <ele>2091.0</ele>
        <time>2015-08-01T13:44:08Z</time>
      </trkpt>
      <trkpt lat="40.251483" lon="-4.886667">
        <ele>2086.0</ele>
        <time>2015-08-01T13:44:10Z</time>
      </trkpt>
      <trkpt lat="40.251350" lon="-4.886667">
        <ele>2083.0</ele>
        <time>2015-08-01T13:44:12Z</time>
      </trkpt>
      <trkpt lat="40.251250" lon="-4.886650">
        <ele>2080.0</ele>
        <time>2015-08-01T13:44:14Z</time>
      </trkpt>
      <trkpt lat="40.251117" lon="-4.886667">
        <ele>2076.0</ele>
        <time>2015-08-01T13:44:16Z</time>
      </trkpt>
      <trkpt lat="40.251000" lon="-4.886667">
        <ele>2074.0</ele>
        <time>2015-08-01T13:44:18Z</time>
      </trkpt>
      <trkpt lat="40.250883" lon="-4.886650">
        <ele>2072.0</ele>
        <time>2015-08-01T13:44:20Z</time>
      </trkpt>
      <trkpt lat="40.250783" lon="-4.886650">
        <ele>2070.0</ele>
        <time>2015-08-01T13:44:22Z</time>
      </trkpt>
      <trkpt lat="40.250683" lon="-4.886667">
        <ele>2068.0</ele>
        <time>2015-08-01T13:44:24Z</time>
      </trkpt>
      <trkpt lat="40.250567" lon="-4.886700">
        <ele>2067.0</ele>
        <time>2015-08-01T13:44:26Z</time>
      </trkpt>
      <trkpt lat="40.250483" lon="-4.886800">
        <ele>2067.0</ele>
        <time>2015-08-01T13:44:28Z</time>
      </trkpt>
      <trkpt lat="40.250417" lon="-4.886867">
        <ele>2069.0</ele>
        <time>2015-08-01T13:44:30Z</time>
      </trkpt>
      <trkpt lat="40.250367" lon="-4.886933">
        <ele>2068.0</ele>
        <time>2015-08-01T13:44:32Z</time>
      </trkpt>
      <trkpt lat="40.250300" lon="-4.887050">
        <ele>2066.0</ele>
        <time>2015-08-01T13:44:34Z</time>
      </trkpt>
      <trkpt lat="40.250217" lon="-4.887183">
        <ele>2065.0</ele>
        <time>2015-08-01T13:44:36Z</time>
      </trkpt>
      <trkpt lat="40.250150" lon="-4.887267">
        <ele>2067.0</ele>
        <time>2015-08-01T13:44:38Z</time>
      </trkpt>
      <trkpt lat="40.250083" lon="-4.887350">
        <ele>2065.0</ele>
        <time>2015-08-01T13:44:40Z</time>
      </trkpt>
      <trkpt lat="40.250000" lon="-4.887417">
        <ele>2060.0</ele>
        <time>2015-08-01T13:44:42Z</time>
      </trkpt>
      <trkpt lat="40.249917" lon="-4.887483">
        <ele>2055.0</ele>
        <time>2015-08-01T13:44:44Z</time>
      </trkpt>
      <trkpt lat="40.249817" lon="-4.887550">
        <ele>2051.0</ele>
        <time>2015-08-01T13:44:46Z</time>
      </trkpt>
      <trkpt lat="40.249717" lon="-4.887617">
        <ele>2048.0</ele>
        <time>2015-08-01T13:44:48Z</time>
      </trkpt>
      <trkpt lat="40.249667" lon="-4.887717">
        <ele>2043.0</ele>
        <time>2015-08-01T13:44:50Z</time>
      </trkpt>
      <trkpt lat="40.249600" lon="-4.887833">
        <ele>2037.0</ele>
        <time>2015-08-01T13:44:52Z</time>
      </trkpt>
      <trkpt lat="40.249517" lon="-4.887917">
        <ele>2034.0</ele>
        <time>2015-08-01T13:44:54Z</time>
      </trkpt>
      <trkpt lat="40.249450" lon="-4.888000">
        <ele>2029.0</ele>
        <time>2015-08-01T13:44:56Z</time>
      </trkpt>
      <trkpt lat="40.249383" lon="-4.888100">
        <ele>2023.0</ele>
        <time>2015-08-01T13:44:58Z</time>
      </trkpt>
      <trkpt lat="40.249317" lon="-4.888183">
        <ele>2019.0</ele>
        <time>2015-08-01T13:45:00Z</time>
      </trkpt>
      <trkpt lat="40.249233" lon="-4.888267">
        <ele>2013.0</ele>
        <time>2015-08-01T13:45:02Z</time>
      </trkpt>
      <trkpt lat="40.249117" lon="-4.888317">
        <ele>2006.0</ele>
        <time>2015-08-01T13:45:04Z</time>
      </trkpt>
      <trkpt lat="40.248967" lon="-4.888317">
        <ele>2001.0</ele>
        <time>2015-08-01T13:45:06Z</time>
      </trkpt>
      <trkpt lat="40.248833" lon="-4.888300">
        <ele>1997.0</ele>
        <time>2015-08-01T13:45:08Z</time>
      </trkpt>
      <trkpt lat="40.248700" lon="-4.888283">
        <ele>1992.0</ele>
        <time>2015-08-01T13:45:10Z</time>
      </trkpt>
      <trkpt lat="40.248567" lon="-4.888233">
        <ele>1987.0</ele>
        <time>2015-08-01T13:45:12Z</time>
      </trkpt>
      <trkpt lat="40.248417" lon="-4.888183">
        <ele>1985.0</ele>
        <time>2015-08-01T13:45:14Z</time>
      </trkpt>
      <trkpt lat="40.248283" lon="-4.888150">
        <ele>1983.0</ele>
        <time>2015-08-01T13:45:16Z</time>
      </trkpt>
      <trkpt lat="40.248150" lon="-4.888117">
        <ele>1980.0</ele>
        <time>2015-08-01T13:45:18Z</time>
      </trkpt>
      <trkpt lat="40.247983" lon="-4.888117">
        <ele>1977.0</ele>
        <time>2015-08-01T13:45:20Z</time>
      </trkpt>
      <trkpt lat="40.247833" lon="-4.888083">
        <ele>1976.0</ele>
        <time>2015-08-01T13:45:22Z</time>
      </trkpt>
      <trkpt lat="40.247700" lon="-4.888067">
        <ele>1974.0</ele>
        <time>2015-08-01T13:45:24Z</time>
      </trkpt>
      <trkpt lat="40.247567" lon="-4.888033">
        <ele>1971.0</ele>
        <time>2015-08-01T13:45:26Z</time>
      </trkpt>
      <trkpt lat="40.247417" lon="-4.888000">
        <ele>1966.0</ele>
        <time>2015-08-01T13:45:28Z</time>
      </trkpt>
      <trkpt lat="40.247250" lon="-4.887950">
        <ele>1962.0</ele>
        <time>2015-08-01T13:45:30Z</time>
      </trkpt>
      <trkpt lat="40.247117" lon="-4.887883">
        <ele>1958.0</ele>
        <time>2015-08-01T13:45:32Z</time>
      </trkpt>
      <trkpt lat="40.246967" lon="-4.887833">
        <ele>1952.0</ele>
        <time>2015-08-01T13:45:34Z</time>
      </trkpt>
      <trkpt lat="40.246800" lon="-4.887783">
        <ele>1948.0</ele>
        <time>2015-08-01T13:45:36Z</time>
      </trkpt>
      <trkpt lat="40.246650" lon="-4.887733">
        <ele>1944.0</ele>
        <time>2015-08-01T13:45:38Z</time>
      </trkpt>
      <trkpt lat="40.246500" lon="-4.887683">
        <ele>1938.0</ele>
        <time>2015-08-01T13:45:40Z</time>
      </trkpt>
      <trkpt lat="40.246333" lon="-4.887667">
        <ele>1933.0</ele>
        <time>2015-08-01T13:45:42Z</time>
      </trkpt>
      <trkpt lat="40.246167" lon="-4.887650">
        <ele>1932.0</ele>
        <time>2015-08-01T13:45:44Z</time>
      </trkpt>
      <trkpt lat="40.246017" lon="-4.887633">
        <ele>1930.0</ele>
        <time>2015-08-01T13:45:46Z</time>
      </trkpt>
      <trkpt lat="40.245867" lon="-4.887600">
        <ele>1926.0</ele>
        <time>2015-08-01T13:45:48Z</time>
      </trkpt>
      <trkpt lat="40.245700" lon="-4.887567">
        <ele>1924.0</ele>
        <time>2015-08-01T13:45:50Z</time>
      </trkpt>
      <trkpt lat="40.245533" lon="-4.887550">
        <ele>1921.0</ele>
        <time>2015-08-01T13:45:52Z</time>
      </trkpt>
      <trkpt lat="40.245400" lon="-4.887500">
        <ele>1917.0</ele>
        <time>2015-08-01T13:45:54Z</time>
      </trkpt>
      <trkpt lat="40.245250" lon="-4.887450">
        <ele>1913.0</ele>
        <time>2015-08-01T13:45:56Z</time>
      </trkpt>
      <trkpt lat="40.245100" lon="-4.887417">
        <ele>1912.0</ele>
        <time>2015-08-01T13:45:58Z</time>
      </trkpt>
      <trkpt lat="40.244967" lon="-4.887350">
        <ele>1911.0</ele>
        <time>2015-08-01T13:46:00Z</time>
      </trkpt>
      <trkpt lat="40.244833" lon="-4.887250">
        <ele>1907.0</ele>
        <time>2015-08-01T13:46:02Z</time>
      </trkpt>
      <trkpt lat="40.244683" lon="-4.887167">
        <ele>1903.0</ele>
        <time>2015-08-01T13:46:04Z</time>
      </trkpt>
      <trkpt lat="40.244533" lon="-4.887083">
        <ele>1902.0</ele>
        <time>2015-08-01T13:46:06Z</time>
      </trkpt>
      <trkpt lat="40.244417" lon="-4.887017">
        <ele>1900.0</ele>
        <time>2015-08-01T13:46:08Z</time>
      </trkpt>
      <trkpt lat="40.244283" lon="-4.886967">
        <ele>1896.0</ele>
        <time>2015-08-01T13:46:10Z</time>
      </trkpt>
      <trkpt lat="40.244133" lon="-4.886917">
        <ele>1895.0</ele>
        <time>2015-08-01T13:46:12Z</time>
      </trkpt>
      <trkpt lat="40.244000" lon="-4.886883">
        <ele>1898.0</ele>
        <time>2015-08-01T13:46:14Z</time>
      </trkpt>
      <trkpt lat="40.243917" lon="-4.886833">
        <ele>1900.0</ele>
        <time>2015-08-01T13:46:16Z</time>
      </trkpt>
      <trkpt lat="40.243800" lon="-4.886800">
        <ele>1901.0</ele>
        <time>2015-08-01T13:46:18Z</time>
      </trkpt>
      <trkpt lat="40.243700" lon="-4.886833">
        <ele>1903.0</ele>
        <time>2015-08-01T13:46:20Z</time>
      </trkpt>
      <trkpt lat="40.243633" lon="-4.886917">
        <ele>1905.0</ele>
        <time>2015-08-01T13:46:22Z</time>
      </trkpt>
      <trkpt lat="40.243583" lon="-4.887017">
        <ele>1906.0</ele>
        <time>2015-08-01T13:46:24Z</time>
      </trkpt>
      <trkpt lat="40.243600" lon="-4.887200">
        <ele>1904.0</ele>
        <time>2015-08-01T13:46:26Z</time>
      </trkpt>
      <trkpt lat="40.243617" lon="-4.887383">
        <ele>1904.0</ele>
        <time>2015-08-01T13:46:28Z</time>
      </trkpt>
      <trkpt lat="40.243550" lon="-4.887500">
        <ele>1904.0</ele>
        <time>2015-08-01T13:46:30Z</time>
      </trkpt>
      <trkpt lat="40.243500" lon="-4.887583">
        <ele>1907.0</ele>
        <time>2015-08-01T13:46:32Z</time>
      </trkpt>
      <trkpt lat="40.243450" lon="-4.887600">
        <ele>1906.0</ele>
        <time>2015-08-01T13:46:34Z</time>
      </trkpt>
      <trkpt lat="40.243350" lon="-4.887600">
        <ele>1902.0</ele>
        <time>2015-08-01T13:46:36Z</time>
      </trkpt>
      <trkpt lat="40.243217" lon="-4.887583">
        <ele>1900.0</ele>
        <time>2015-08-01T13:46:38Z</time>
      </trkpt>
      <trkpt lat="40.243083" lon="-4.887600">
        <ele>1901.0</ele>
        <time>2015-08-01T13:46:40Z</time>
      </trkpt>
      <trkpt lat="40.242950" lon="-4.887667">
        <ele>1905.0</ele>
        <time>2015-08-01T13:46:42Z</time>
      </trkpt>
      <trkpt lat="40.242833" lon="-4.887700">
        <ele>1908.0</ele>
        <time>2015-08-01T13:46:44Z</time>
      </trkpt>
      <trkpt lat="40.242733" lon="-4.887783">
        <ele>1910.0</ele>
        <time>2015-08-01T13:46:46Z</time>
      </trkpt>
      <trkpt lat="40.242667" lon="-4.887983">
        <ele>1912.0</ele>
        <time>2015-08-01T13:46:48Z</time>
      </trkpt>
      <trkpt lat="40.242683" lon="-4.888217">
        <ele>1914.0</ele>
        <time>2015-08-01T13:46:50Z</time>
      </trkpt>
      <trkpt lat="40.242817" lon="-4.888383">
        <ele>1910.0</ele>
        <time>2015-08-01T13:46:52Z</time>
      </trkpt>
      <trkpt lat="40.243033" lon="-4.888417">
        <ele>1904.0</ele>
        <time>2015-08-01T13:46:54Z</time>
      </trkpt>
      <trkpt lat="40.243200" lon="-4.888317">
        <ele>1901.0</ele>
        <time>2015-08-01T13:46:56Z</time>
      </trkpt>
      <trkpt lat="40.243317" lon="-4.888117">
        <ele>1898.0</ele>
        <time>2015-08-01T13:46:58Z</time>
      </trkpt>
      <trkpt lat="40.243350" lon="-4.887867">
        <ele>1893.0</ele>
        <time>2015-08-01T13:47:00Z</time>
      </trkpt>
      <trkpt lat="40.243300" lon="-4.887633">
        <ele>1891.0</ele>
        <time>2015-08-01T13:47:02Z</time>
      </trkpt>
      <trkpt lat="40.243183" lon="-4.887417">
        <ele>1890.0</ele>
        <time>2015-08-01T13:47:04Z</time>
      </trkpt>
      <trkpt lat="40.243033" lon="-4.887267">
        <ele>1895.0</ele>
        <time>2015-08-01T13:47:06Z</time>
      </trkpt>
      <trkpt lat="40.242850" lon="-4.887167">
        <ele>1900.0</ele>
        <time>2015-08-01T13:47:08Z</time>
      </trkpt>
      <trkpt lat="40.242717" lon="-4.887017">
        <ele>1906.0</ele>
        <time>2015-08-01T13:47:10Z</time>
      </trkpt>
      <trkpt lat="40.242583" lon="-4.886917">
        <ele>1912.0</ele>
        <time>2015-08-01T13:47:12Z</time>
      </trkpt>
      <trkpt lat="40.242417" lon="-4.886933">
        <ele>1912.0</ele>
        <time>2015-08-01T13:47:14Z</time>
      </trkpt>
      <trkpt lat="40.242267" lon="-4.887033">
        <ele>1913.0</ele>
        <time>2015-08-01T13:47:16Z</time>
      </trkpt>
      <trkpt lat="40.242183" lon="-4.887167">
        <ele>1915.0</ele>
        <time>2015-08-01T13:47:18Z</time>
      </trkpt>
      <trkpt lat="40.242167" lon="-4.887367">
        <ele>1913.0</ele>
        <time>2015-08-01T13:47:20Z</time>
      </trkpt>
      <trkpt lat="40.242217" lon="-4.887600">
        <ele>1914.0</ele>
        <time>2015-08-01T13:47:22Z</time>
      </trkpt>
      <trkpt lat="40.242350" lon="-4.887733">
        <ele>1913.0</ele>
        <time>2015-08-01T13:47:24Z</time>
      </trkpt>
      <trkpt lat="40.242567" lon="-4.887717">
        <ele>1907.0</ele>
        <time>2015-08-01T13:47:26Z</time>
      </trkpt>
      <trkpt lat="40.242750" lon="-4.887467">
        <ele>1908.0</ele>
        <time>2015-08-01T13:47:28Z</time>
      </trkpt>
      <trkpt lat="40.242817" lon="-4.887267">
        <ele>1918.0</ele>
        <time>2015-08-01T13:47:30Z</time>
      </trkpt>
      <trkpt lat="40.242833" lon="-4.887083">
        <ele>1921.0</ele>
        <time>2015-08-01T13:47:32Z</time>
      </trkpt>
      <trkpt lat="40.242767" lon="-4.886833">
        <ele>1921.0</ele>
        <time>2015-08-01T13:47:34Z</time>
      </trkpt>
      <trkpt lat="40.242633" lon="-4.886650">
        <ele>1926.0</ele>
        <time>2015-08-01T13:47:36Z</time>
      </trkpt>
      <trkpt lat="40.242500" lon="-4.886517">
        <ele>1928.0</ele>
        <time>2015-08-01T13:47:38Z</time>
      </trkpt>
      <trkpt lat="40.242350" lon="-4.886400">
        <ele>1925.0</ele>
        <time>2015-08-01T13:47:40Z</time>
      </trkpt>
      <trkpt lat="40.242167" lon="-4.886383">
        <ele>1922.0</ele>
        <time>2015-08-01T13:47:42Z</time>
      </trkpt>
      <trkpt lat="40.242017" lon="-4.886450">
        <ele>1921.0</ele>
        <time>2015-08-01T13:47:44Z</time>
      </trkpt>
      <trkpt lat="40.241917" lon="-4.886567">
        <ele>1920.0</ele>
        <time>2015-08-01T13:47:46Z</time>
      </trkpt>
      <trkpt lat="40.241867" lon="-4.886750">
        <ele>1918.0</ele>
        <time>2015-08-01T13:47:48Z</time>
      </trkpt>
      <trkpt lat="40.241850" lon="-4.886917">
        <ele>1915.0</ele>
        <time>2015-08-01T13:47:50Z</time>
      </trkpt>
      <trkpt lat="40.241850" lon="-4.887117">
        <ele>1910.0</ele>
        <time>2015-08-01T13:47:52Z</time>
      </trkpt>
      <trkpt lat="40.241933" lon="-4.887333">
        <ele>1903.0</ele>
        <time>2015-08-01T13:47:54Z</time>
      </trkpt>
      <trkpt lat="40.242050" lon="-4.887517">
        <ele>1900.0</ele>
        <time>2015-08-01T13:47:56Z</time>
      </trkpt>
      <trkpt lat="40.242183" lon="-4.887600">
        <ele>1897.0</ele>
        <time>2015-08-01T13:47:58Z</time>
      </trkpt>
      <trkpt lat="40.242317" lon="-4.887550">
        <ele>1891.0</ele>
        <time>2015-08-01T13:48:00Z</time>
      </trkpt>
      <trkpt lat="40.242450" lon="-4.887383">
        <ele>1884.0</ele>
        <time>2015-08-01T13:48:02Z</time>
      </trkpt>
      <trkpt lat="40.242550" lon="-4.887117">
        <ele>1879.0</ele>
        <time>2015-08-01T13:48:04Z</time>
      </trkpt>
      <trkpt lat="40.242567" lon="-4.886883">
        <ele>1878.0</ele>
        <time>2015-08-01T13:48:06Z</time>
      </trkpt>
      <trkpt lat="40.242533" lon="-4.886650">
        <ele>1875.0</ele>
        <time>2015-08-01T13:48:08Z</time>
      </trkpt>
      <trkpt lat="40.242500" lon="-4.886400">
        <ele>1871.0</ele>
        <time>2015-08-01T13:48:10Z</time>
      </trkpt>
      <trkpt lat="40.242400" lon="-4.886217">
        <ele>1873.0</ele>
        <time>2015-08-01T13:48:12Z</time>
      </trkpt>
      <trkpt lat="40.242333" lon="-4.886083">
        <ele>1874.0</ele>
        <time>2015-08-01T13:48:14Z</time>
      </trkpt>
      <trkpt lat="40.242250" lon="-4.885950">
        <ele>1873.0</ele>
        <time>2015-08-01T13:48:16Z</time>
      </trkpt>
      <trkpt lat="40.242150" lon="-4.885867">
        <ele>1872.0</ele>
        <time>2015-08-01T13:48:18Z</time>
      </trkpt>
      <trkpt lat="40.242033" lon="-4.885767">
        <ele>1870.0</ele>
        <time>2015-08-01T13:48:20Z</time>
      </trkpt>
      <trkpt lat="40.241917" lon="-4.885683">
        <ele>1867.0</ele>
        <time>2015-08-01T13:48:22Z</time>
      </trkpt>
      <trkpt lat="40.241767" lon="-4.885583">
        <ele>1865.0</ele>
        <time>2015-08-01T13:48:24Z</time>
      </trkpt>
      <trkpt lat="40.241617" lon="-4.885500">
        <ele>1862.0</ele>
        <time>2015-08-01T13:48:26Z</time>
      </trkpt>
      <trkpt lat="40.241467" lon="-4.885417">
        <ele>1857.0</ele>
        <time>2015-08-01T13:48:28Z</time>
      </trkpt>
      <trkpt lat="40.241300" lon="-4.885333">
        <ele>1850.0</ele>
        <time>2015-08-01T13:48:30Z</time>
      </trkpt>
      <trkpt lat="40.241133" lon="-4.885233">
        <ele>1842.0</ele>
        <time>2015-08-01T13:48:32Z</time>
      </trkpt>
      <trkpt lat="40.240983" lon="-4.885150">
        <ele>1836.0</ele>
        <time>2015-08-01T13:48:34Z</time>
      </trkpt>
      <trkpt lat="40.240850" lon="-4.885083">
        <ele>1831.0</ele>
        <time>2015-08-01T13:48:36Z</time>
      </trkpt>
      <trkpt lat="40.240717" lon="-4.884983">
        <ele>1824.0</ele>
        <time>2015-08-01T13:48:38Z</time>
      </trkpt>
      <trkpt lat="40.240567" lon="-4.884900">
        <ele>1819.0</ele>
        <time>2015-08-01T13:48:40Z</time>
      </trkpt>
      <trkpt lat="40.240450" lon="-4.884817">
        <ele>1815.0</ele>
        <time>2015-08-01T13:48:42Z</time>
      </trkpt>
      <trkpt lat="40.240317" lon="-4.884717">
        <ele>1809.0</ele>
        <time>2015-08-01T13:48:44Z</time>
      </trkpt>
      <trkpt lat="40.240167" lon="-4.884600">
        <ele>1805.0</ele>
        <time>2015-08-01T13:48:46Z</time>
      </trkpt>
      <trkpt lat="40.240050" lon="-4.884467">
        <ele>1803.0</ele>
        <time>2015-08-01T13:48:48Z</time>
      </trkpt>
      <trkpt lat="40.239950" lon="-4.884350">
        <ele>1796.0</ele>
        <time>2015-08-01T13:48:50Z</time>
      </trkpt>
      <trkpt lat="40.239800" lon="-4.884200">
        <ele>1789.0</ele>
        <time>2015-08-01T13:48:52Z</time>
      </trkpt>
      <trkpt lat="40.239633" lon="-4.884067">
        <ele>1787.0</ele>
        <time>2015-08-01T13:48:54Z</time>
      </trkpt>
      <trkpt lat="40.239517" lon="-4.883933">
        <ele>1785.0</ele>
        <time>2015-08-01T13:48:56Z</time>
      </trkpt>
      <trkpt lat="40.239367" lon="-4.883850">
        <ele>1781.0</ele>
        <time>2015-08-01T13:48:58Z</time>
      </trkpt>
      <trkpt lat="40.239217" lon="-4.883750">
        <ele>1779.0</ele>
        <time>2015-08-01T13:49:00Z</time>
      </trkpt>
      <trkpt lat="40.239083" lon="-4.883633">
        <ele>1780.0</ele>
        <time>2015-08-01T13:49:02Z</time>
      </trkpt>
      <trkpt lat="40.238983" lon="-4.883533">
        <ele>1778.0</ele>
        <time>2015-08-01T13:49:04Z</time>
      </trkpt>
      <trkpt lat="40.238850" lon="-4.883433">
        <ele>1775.0</ele>
        <time>2015-08-01T13:49:06Z</time>
      </trkpt>
      <trkpt lat="40.238733" lon="-4.883317">
        <ele>1773.0</ele>
        <time>2015-08-01T13:49:08Z</time>
      </trkpt>
      <trkpt lat="40.238617" lon="-4.883200">
        <ele>1772.0</ele>
        <time>2015-08-01T13:49:10Z</time>
      </trkpt>
      <trkpt lat="40.238483" lon="-4.883117">
        <ele>1770.0</ele>
        <time>2015-08-01T13:49:12Z</time>
      </trkpt>
      <trkpt lat="40.238367" lon="-4.883050">
        <ele>1768.0</ele>
        <time>2015-08-01T13:49:14Z</time>
      </trkpt>
      <trkpt lat="40.238250" lon="-4.882950">
        <ele>1767.0</ele>
        <time>2015-08-01T13:49:16Z</time>
      </trkpt>
      <trkpt lat="40.238133" lon="-4.882833">
        <ele>1765.0</ele>
        <time>2015-08-01T13:49:18Z</time>
      </trkpt>
      <trkpt lat="40.238033" lon="-4.882733">
        <ele>1763.0</ele>
        <time>2015-08-01T13:49:20Z</time>
      </trkpt>
      <trkpt lat="40.237950" lon="-4.882650">
        <ele>1761.0</ele>
        <time>2015-08-01T13:49:22Z</time>
      </trkpt>
      <trkpt lat="40.237850" lon="-4.882550">
        <ele>1756.0</ele>
        <time>2015-08-01T13:49:24Z</time>
      </trkpt>
      <trkpt lat="40.237733" lon="-4.882433">
        <ele>1754.0</ele>
        <time>2015-08-01T13:49:26Z</time>
      </trkpt>
      <trkpt lat="40.237633" lon="-4.882283">
        <ele>1755.0</ele>
        <time>2015-08-01T13:49:28Z</time>
      </trkpt>
      <trkpt lat="40.237533" lon="-4.882133">
        <ele>1756.0</ele>
        <time>2015-08-01T13:49:30Z</time>
      </trkpt>
      <trkpt lat="40.237417" lon="-4.882000">
        <ele>1757.0</ele>
        <time>2015-08-01T13:49:32Z</time>
      </trkpt>
      <trkpt lat="40.237300" lon="-4.881883">
        <ele>1760.0</ele>
        <time>2015-08-01T13:49:34Z</time>
      </trkpt>
      <trkpt lat="40.237183" lon="-4.881833">
        <ele>1763.0</ele>
        <time>2015-08-01T13:49:36Z</time>
      </trkpt>
      <trkpt lat="40.237083" lon="-4.881867">
        <ele>1766.0</ele>
        <time>2015-08-01T13:49:38Z</time>
      </trkpt>
      <trkpt lat="40.236967" lon="-4.881883">
        <ele>1768.0</ele>
        <time>2015-08-01T13:49:40Z</time>
      </trkpt>
      <trkpt lat="40.236867" lon="-4.881783">
        <ele>1767.0</ele>
        <time>2015-08-01T13:49:42Z</time>
      </trkpt>
      <trkpt lat="40.236750" lon="-4.881683">
        <ele>1763.0</ele>
        <time>2015-08-01T13:49:44Z</time>
      </trkpt>
      <trkpt lat="40.236600" lon="-4.881650">
        <ele>1762.0</ele>
        <time>2015-08-01T13:49:46Z</time>
      </trkpt>
      <trkpt lat="40.236500" lon="-4.881600">
        <ele>1760.0</ele>
        <time>2015-08-01T13:49:48Z</time>
      </trkpt>
      <trkpt lat="40.236400" lon="-4.881567">
        <ele>1755.0</ele>
        <time>2015-08-01T13:49:50Z</time>
      </trkpt>
      <trkpt lat="40.236250" lon="-4.881550">
        <ele>1749.0</ele>
        <time>2015-08-01T13:49:52Z</time>
      </trkpt>
      <trkpt lat="40.236117" lon="-4.881533">
        <ele>1748.0</ele>
        <time>2015-08-01T13:49:54Z</time>
      </trkpt>
      <trkpt lat="40.236000" lon="-4.881550">
        <ele>1745.0</ele>
        <time>2015-08-01T13:49:56Z</time>
      </trkpt>
      <trkpt lat="40.235883" lon="-4.881550">
        <ele>1742.0</ele>
        <time>2015-08-01T13:49:58Z</time>
      </trkpt>
      <trkpt lat="40.235750" lon="-4.881533">
        <ele>1740.0</ele>
        <time>2015-08-01T13:50:00Z</time>
      </trkpt>
      <trkpt lat="40.235633" lon="-4.881517">
        <ele>1735.0</ele>
        <time>2015-08-01T13:50:02Z</time>
      </trkpt>
      <trkpt lat="40.235483" lon="-4.881533">
        <ele>1731.0</ele>
        <time>2015-08-01T13:50:04Z</time>
      </trkpt>
      <trkpt lat="40.235333" lon="-4.881517">
        <ele>1730.0</ele>
        <time>2015-08-01T13:50:06Z</time>
      </trkpt>
      <trkpt lat="40.235217" lon="-4.881483">
        <ele>1728.0</ele>
        <time>2015-08-01T13:50:08Z</time>
      </trkpt>
      <trkpt lat="40.235083" lon="-4.881433">
        <ele>1724.0</ele>
        <time>2015-08-01T13:50:10Z</time>
      </trkpt>
      <trkpt lat="40.234933" lon="-4.881383">
        <ele>1721.0</ele>
        <time>2015-08-01T13:50:12Z</time>
      </trkpt>
      <trkpt lat="40.234800" lon="-4.881333">
        <ele>1718.0</ele>
        <time>2015-08-01T13:50:14Z</time>
      </trkpt>
      <trkpt lat="40.234667" lon="-4.881283">
        <ele>1713.0</ele>
        <time>2015-08-01T13:50:16Z</time>
      </trkpt>
      <trkpt lat="40.234517" lon="-4.881233">
        <ele>1709.0</ele>
        <time>2015-08-01T13:50:18Z</time>
      </trkpt>
      <trkpt lat="40.234367" lon="-4.881167">
        <ele>1707.0</ele>
        <time>2015-08-01T13:50:20Z</time>
      </trkpt>
      <trkpt lat="40.234250" lon="-4.881100">
        <ele>1704.0</ele>
        <time>2015-08-01T13:50:22Z</time>
      </trkpt>
      <trkpt lat="40.234100" lon="-4.881033">
        <ele>1701.0</ele>
        <time>2015-08-01T13:50:24Z</time>
      </trkpt>
      <trkpt lat="40.233967" lon="-4.880950">
        <ele>1698.0</ele>
        <time>2015-08-01T13:50:26Z</time>
      </trkpt>
      <trkpt lat="40.233867" lon="-4.880900">
        <ele>1696.0</ele>
        <time>2015-08-01T13:50:28Z</time>
      </trkpt>
      <trkpt lat="40.233733" lon="-4.880833">
        <ele>1690.0</ele>
        <time>2015-08-01T13:50:30Z</time>
      </trkpt>
      <trkpt lat="40.233583" lon="-4.880750">
        <ele>1685.0</ele>
        <time>2015-08-01T13:50:32Z</time>
      </trkpt>
      <trkpt lat="40.233467" lon="-4.880650">
        <ele>1683.0</ele>
        <time>2015-08-01T13:50:34Z</time>
      </trkpt>
      <trkpt lat="40.233383" lon="-4.880550">
        <ele>1677.0</ele>
        <time>2015-08-01T13:50:36Z</time>
      </trkpt>
      <trkpt lat="40.233233" lon="-4.880433">
        <ele>1669.0</ele>
        <time>2015-08-01T13:50:38Z</time>
      </trkpt>
      <trkpt lat="40.233100" lon="-4.880350">
        <ele>1667.0</ele>
        <time>2015-08-01T13:50:40Z</time>
      </trkpt>
      <trkpt lat="40.233000" lon="-4.880300">
        <ele>1662.0</ele>
        <time>2015-08-01T13:50:42Z</time>
      </trkpt>
      <trkpt lat="40.232867" lon="-4.880250">
        <ele>1656.0</ele>
        <time>2015-08-01T13:50:44Z</time>
      </trkpt>
      <trkpt lat="40.232717" lon="-4.880217">
        <ele>1653.0</ele>
        <time>2015-08-01T13:50:46Z</time>
      </trkpt>
      <trkpt lat="40.232600" lon="-4.880167">
        <ele>1649.0</ele>
        <time>2015-08-01T13:50:48Z</time>
      </trkpt>
      <trkpt lat="40.232467" lon="-4.880083">
        <ele>1646.0</ele>
        <time>2015-08-01T13:50:50Z</time>
      </trkpt>
      <trkpt lat="40.232350" lon="-4.880000">
        <ele>1643.0</ele>
        <time>2015-08-01T13:50:52Z</time>
      </trkpt>
      <trkpt lat="40.232233" lon="-4.879883">
        <ele>1639.0</ele>
        <time>2015-08-01T13:50:54Z</time>
      </trkpt>
      <trkpt lat="40.232100" lon="-4.879783">
        <ele>1634.0</ele>
        <time>2015-08-01T13:50:56Z</time>
      </trkpt>
      <trkpt lat="40.231950" lon="-4.879700">
        <ele>1631.0</ele>
        <time>2015-08-01T13:50:58Z</time>
      </trkpt>
      <trkpt lat="40.231833" lon="-4.879583">
        <ele>1628.0</ele>
        <time>2015-08-01T13:51:00Z</time>
      </trkpt>
      <trkpt lat="40.231717" lon="-4.879467">
        <ele>1622.0</ele>
        <time>2015-08-01T13:51:02Z</time>
      </trkpt>
      <trkpt lat="40.231567" lon="-4.879317">
        <ele>1617.0</ele>
        <time>2015-08-01T13:51:04Z</time>
      </trkpt>
      <trkpt lat="40.231433" lon="-4.879200">
        <ele>1615.0</ele>
        <time>2015-08-01T13:51:06Z</time>
      </trkpt>
      <trkpt lat="40.231300" lon="-4.879150">
        <ele>1612.0</ele>
        <time>2015-08-01T13:51:08Z</time>
      </trkpt>
      <trkpt lat="40.231133" lon="-4.879117">
        <ele>1607.0</ele>
        <time>2015-08-01T13:51:10Z</time>
      </trkpt>
      <trkpt lat="40.230967" lon="-4.879067">
        <ele>1604.0</ele>
        <time>2015-08-01T13:51:12Z</time>
      </trkpt>
      <trkpt lat="40.230833" lon="-4.879033">
        <ele>1603.0</ele>
        <time>2015-08-01T13:51:14Z</time>
      </trkpt>
      <trkpt lat="40.230683" lon="-4.879000">
        <ele>1596.0</ele>
        <time>2015-08-01T13:51:16Z</time>
      </trkpt>
      <trkpt lat="40.230533" lon="-4.878967">
        <ele>1591.0</ele>
        <time>2015-08-01T13:51:18Z</time>
      </trkpt>
      <trkpt lat="40.230367" lon="-4.878933">
        <ele>1588.0</ele>
        <time>2015-08-01T13:51:20Z</time>
      </trkpt>
      <trkpt lat="40.230233" lon="-4.878900">
        <ele>1582.0</ele>
        <time>2015-08-01T13:51:22Z</time>
      </trkpt>
      <trkpt lat="40.230083" lon="-4.878867">
        <ele>1575.0</ele>
        <time>2015-08-01T13:51:24Z</time>
      </trkpt>
      <trkpt lat="40.229900" lon="-4.878850">
        <ele>1570.0</ele>
        <time>2015-08-01T13:51:26Z</time>
      </trkpt>
      <trkpt lat="40.229750" lon="-4.878800">
        <ele>1566.0</ele>
        <time>2015-08-01T13:51:28Z</time>
      </trkpt>
      <trkpt lat="40.229600" lon="-4.878767">
        <ele>1562.0</ele>
        <time>2015-08-01T13:51:30Z</time>
      </trkpt>
      <trkpt lat="40.229433" lon="-4.878733">
        <ele>1557.0</ele>
        <time>2015-08-01T13:51:32Z</time>
      </trkpt>
      <trkpt lat="40.229267" lon="-4.878700">
        <ele>1552.0</ele>
        <time>2015-08-01T13:51:34Z</time>
      </trkpt>
      <trkpt lat="40.229083" lon="-4.878683">
        <ele>1548.0</ele>
        <time>2015-08-01T13:51:36Z</time>
      </trkpt>
      <trkpt lat="40.228917" lon="-4.878650">
        <ele>1544.0</ele>
        <time>2015-08-01T13:51:38Z</time>
      </trkpt>
      <trkpt lat="40.228750" lon="-4.878600">
        <ele>1539.0</ele>
        <time>2015-08-01T13:51:40Z</time>
      </trkpt>
      <trkpt lat="40.228583" lon="-4.878517">
        <ele>1533.0</ele>
        <time>2015-08-01T13:51:42Z</time>
      </trkpt>
      <trkpt lat="40.228417" lon="-4.878467">
        <ele>1530.0</ele>
        <time>2015-08-01T13:51:44Z</time>
      </trkpt>
      <trkpt lat="40.228250" lon="-4.878467">
        <ele>1525.0</ele>
        <time>2015-08-01T13:51:46Z</time>
      </trkpt>
      <trkpt lat="40.228067" lon="-4.878450">
        <ele>1519.0</ele>
        <time>2015-08-01T13:51:48Z</time>
      </trkpt>
      <trkpt lat="40.227883" lon="-4.878400">
        <ele>1515.0</ele>
        <time>2015-08-01T13:51:50Z</time>
      </trkpt>
      <trkpt lat="40.227700" lon="-4.878417">
        <ele>1509.0</ele>
        <time>2015-08-01T13:51:52Z</time>
      </trkpt>
      <trkpt lat="40.227517" lon="-4.878400">
        <ele>1505.0</ele>
        <time>2015-08-01T13:51:54Z</time>
      </trkpt>
      <trkpt lat="40.227333" lon="-4.878400">
        <ele>1502.0</ele>
        <time>2015-08-01T13:51:56Z</time>
      </trkpt>
      <trkpt lat="40.227150" lon="-4.878400">
        <ele>1498.0</ele>
        <time>2015-08-01T13:51:58Z</time>
      </trkpt>
      <trkpt lat="40.226967" lon="-4.878383">
        <ele>1494.0</ele>
        <time>2015-08-01T13:52:00Z</time>
      </trkpt>
      <trkpt lat="40.226783" lon="-4.878400">
        <ele>1490.0</ele>
        <time>2015-08-01T13:52:02Z</time>
      </trkpt>
      <trkpt lat="40.226600" lon="-4.878383">
        <ele>1486.0</ele>
        <time>2015-08-01T13:52:04Z</time>
      </trkpt>
      <trkpt lat="40.226450" lon="-4.878317">
        <ele>1484.0</ele>
        <time>2015-08-01T13:52:06Z</time>
      </trkpt>
      <trkpt lat="40.226317" lon="-4.878250">
        <ele>1480.0</ele>
        <time>2015-08-01T13:52:08Z</time>
      </trkpt>
      <trkpt lat="40.226167" lon="-4.878133">
        <ele>1476.0</ele>
        <time>2015-08-01T13:52:10Z</time>
      </trkpt>
      <trkpt lat="40.226033" lon="-4.878000">
        <ele>1472.0</ele>
        <time>2015-08-01T13:52:12Z</time>
      </trkpt>
      <trkpt lat="40.225883" lon="-4.877867">
        <ele>1468.0</ele>
        <time>2015-08-01T13:52:14Z</time>
      </trkpt>
      <trkpt lat="40.225733" lon="-4.877733">
        <ele>1466.0</ele>
        <time>2015-08-01T13:52:16Z</time>
      </trkpt>
      <trkpt lat="40.225567" lon="-4.877550">
        <ele>1462.0</ele>
        <time>2015-08-01T13:52:18Z</time>
      </trkpt>
      <trkpt lat="40.225400" lon="-4.877400">
        <ele>1461.0</ele>
        <time>2015-08-01T13:52:20Z</time>
      </trkpt>
      <trkpt lat="40.225267" lon="-4.877267">
        <ele>1461.0</ele>
        <time>2015-08-01T13:52:22Z</time>
      </trkpt>
      <trkpt lat="40.225133" lon="-4.877117">
        <ele>1457.0</ele>
        <time>2015-08-01T13:52:24Z</time>
      </trkpt>
      <trkpt lat="40.224983" lon="-4.876950">
        <ele>1453.0</ele>
        <time>2015-08-01T13:52:26Z</time>
      </trkpt>
      <trkpt lat="40.224833" lon="-4.876800">
        <ele>1452.0</ele>
        <time>2015-08-01T13:52:28Z</time>
      </trkpt>
      <trkpt lat="40.224717" lon="-4.876650">
        <ele>1451.0</ele>
        <time>2015-08-01T13:52:30Z</time>
      </trkpt>
      <trkpt lat="40.224583" lon="-4.876517">
        <ele>1449.0</ele>
        <time>2015-08-01T13:52:32Z</time>
      </trkpt>
      <trkpt lat="40.224450" lon="-4.876367">
        <ele>1447.0</ele>
        <time>2015-08-01T13:52:34Z</time>
      </trkpt>
      <trkpt lat="40.224317" lon="-4.876217">
        <ele>1444.0</ele>
        <time>2015-08-01T13:52:36Z</time>
      </trkpt>
      <trkpt lat="40.224200" lon="-4.876050">
        <ele>1442.0</ele>
        <time>2015-08-01T13:52:38Z</time>
      </trkpt>
      <trkpt lat="40.224083" lon="-4.875900">
        <ele>1439.0</ele>
        <time>2015-08-01T13:52:40Z</time>
      </trkpt>
      <trkpt lat="40.223967" lon="-4.875783">
        <ele>1437.0</ele>
        <time>2015-08-01T13:52:42Z</time>
      </trkpt>
      <trkpt lat="40.223850" lon="-4.875650">
        <ele>1433.0</ele>
        <time>2015-08-01T13:52:44Z</time>
      </trkpt>
      <trkpt lat="40.223733" lon="-4.875517">
        <ele>1429.0</ele>
        <time>2015-08-01T13:52:46Z</time>
      </trkpt>
      <trkpt lat="40.223600" lon="-4.875367">
        <ele>1425.0</ele>
        <time>2015-08-01T13:52:48Z</time>
      </trkpt>
      <trkpt lat="40.223467" lon="-4.875250">
        <ele>1421.0</ele>
        <time>2015-08-01T13:52:50Z</time>
      </trkpt>
      <trkpt lat="40.223333" lon="-4.875117">
        <ele>1417.0</ele>
        <time>2015-08-01T13:52:52Z</time>
      </trkpt>
      <trkpt lat="40.223200" lon="-4.875000">
        <ele>1414.0</ele>
        <time>2015-08-01T13:52:54Z</time>
      </trkpt>
      <trkpt lat="40.223067" lon="-4.874867">
        <ele>1410.0</ele>
        <time>2015-08-01T13:52:56Z</time>
      </trkpt>
      <trkpt lat="40.222917" lon="-4.874733">
        <ele>1406.0</ele>
        <time>2015-08-01T13:52:58Z</time>
      </trkpt>
      <trkpt lat="40.222783" lon="-4.874633">
        <ele>1403.0</ele>
        <time>2015-08-01T13:53:00Z</time>
      </trkpt>
      <trkpt lat="40.222667" lon="-4.874517">
        <ele>1399.0</ele>
        <time>2015-08-01T13:53:02Z</time>
      </trkpt>
      <trkpt lat="40.222517" lon="-4.874400">
        <ele>1394.0</ele>
        <time>2015-08-01T13:53:04Z</time>
      </trkpt>
      <trkpt lat="40.222400" lon="-4.874267">
        <ele>1391.0</ele>
        <time>2015-08-01T13:53:06Z</time>
      </trkpt>
      <trkpt lat="40.222283" lon="-4.874117">
        <ele>1385.0</ele>
        <time>2015-08-01T13:53:08Z</time>
      </trkpt>
      <trkpt lat="40.222150" lon="-4.873967">
        <ele>1379.0</ele>
        <time>2015-08-01T13:53:10Z</time>
      </trkpt>
      <trkpt lat="40.222017" lon="-4.873833">
        <ele>1375.0</ele>
        <time>2015-08-01T13:53:12Z</time>
      </trkpt>
      <trkpt lat="40.221900" lon="-4.873700">
        <ele>1371.0</ele>
        <time>2015-08-01T13:53:14Z</time>
      </trkpt>
      <trkpt lat="40.221800" lon="-4.873583">
        <ele>1366.0</ele>
        <time>2015-08-01T13:53:16Z</time>
      </trkpt>
      <trkpt lat="40.221667" lon="-4.873500">
        <ele>1360.0</ele>
        <time>2015-08-01T13:53:18Z</time>
      </trkpt>
      <trkpt lat="40.221517" lon="-4.873417">
        <ele>1353.0</ele>
        <time>2015-08-01T13:53:20Z</time>
      </trkpt>
      <trkpt lat="40.221367" lon="-4.873350">
        <ele>1349.0</ele>
        <time>2015-08-01T13:53:22Z</time>
      </trkpt>
      <trkpt lat="40.221233" lon="-4.873267">
        <ele>1345.0</ele>
        <time>2015-08-01T13:53:24Z</time>
      </trkpt>
      <trkpt lat="40.221117" lon="-4.873183">
        <ele>1338.0</ele>
        <time>2015-08-01T13:53:26Z</time>
      </trkpt>
      <trkpt lat="40.221000" lon="-4.873083">
        <ele>1331.0</ele>
        <time>2015-08-01T13:53:28Z</time>
      </trkpt>
      <trkpt lat="40.220867" lon="-4.872983">
        <ele>1326.0</ele>
        <time>2015-08-01T13:53:30Z</time>
      </trkpt>
      <trkpt lat="40.220767" lon="-4.872900">
        <ele>1323.0</ele>
        <time>2015-08-01T13:53:32Z</time>
      </trkpt>
      <trkpt lat="40.220667" lon="-4.872817">
        <ele>1315.0</ele>
        <time>2015-08-01T13:53:34Z</time>
      </trkpt>
      <trkpt lat="40.220550" lon="-4.872700">
        <ele>1309.0</ele>
        <time>2015-08-01T13:53:36Z</time>
      </trkpt>
      <trkpt lat="40.220433" lon="-4.872583">
        <ele>1304.0</ele>
        <time>2015-08-01T13:53:38Z</time>
      </trkpt>
      <trkpt lat="40.220317" lon="-4.872467">
        <ele>1298.0</ele>
        <time>2015-08-01T13:53:40Z</time>
      </trkpt>
      <trkpt lat="40.220183" lon="-4.872350">
        <ele>1295.0</ele>
        <time>2015-08-01T13:53:42Z</time>
      </trkpt>
      <trkpt lat="40.220083" lon="-4.872267">
        <ele>1292.0</ele>
        <time>2015-08-01T13:53:44Z</time>
      </trkpt>
      <trkpt lat="40.220000" lon="-4.872150">
        <ele>1286.0</ele>
        <time>2015-08-01T13:53:46Z</time>
      </trkpt>
      <trkpt lat="40.219867" lon="-4.872033">
        <ele>1280.0</ele>
        <time>2015-08-01T13:53:48Z</time>
      </trkpt>
      <trkpt lat="40.219783" lon="-4.871967">
        <ele>1275.0</ele>
        <time>2015-08-01T13:53:50Z</time>
      </trkpt>
      <trkpt lat="40.219700" lon="-4.871867">
        <ele>1266.0</ele>
        <time>2015-08-01T13:53:52Z</time>
      </trkpt>
      <trkpt lat="40.219583" lon="-4.871767">
        <ele>1258.0</ele>
        <time>2015-08-01T13:53:54Z</time>
      </trkpt>
      <trkpt lat="40.219467" lon="-4.871683">
        <ele>1255.0</ele>
        <time>2015-08-01T13:53:56Z</time>
      </trkpt>
      <trkpt lat="40.219400" lon="-4.871617">
        <ele>1251.0</ele>
        <time>2015-08-01T13:53:58Z</time>
      </trkpt>
      <trkpt lat="40.219317" lon="-4.871567">
        <ele>1244.0</ele>
        <time>2015-08-01T13:54:00Z</time>
      </trkpt>
      <trkpt lat="40.219217" lon="-4.871433">
        <ele>1235.0</ele>
        <time>2015-08-01T13:54:02Z</time>
      </trkpt>
      <trkpt lat="40.219083" lon="-4.871300">
        <ele>1231.0</ele>
        <time>2015-08-01T13:54:04Z</time>
      </trkpt>
      <trkpt lat="40.219000" lon="-4.871200">
        <ele>1229.0</ele>
        <time>2015-08-01T13:54:06Z</time>
      </trkpt>
      <trkpt lat="40.218933" lon="-4.871083">
        <ele>1223.0</ele>
        <time>2015-08-01T13:54:08Z</time>
      </trkpt>
      <trkpt lat="40.218800" lon="-4.870983">
        <ele>1216.0</ele>
        <time>2015-08-01T13:54:10Z</time>
      </trkpt>
      <trkpt lat="40.218717" lon="-4.870883">
        <ele>1213.0</ele>
        <time>2015-08-01T13:54:12Z</time>
      </trkpt>
      <trkpt lat="40.218650" lon="-4.870767">
        <ele>1205.0</ele>
        <time>2015-08-01T13:54:14Z</time>
      </trkpt>
      <trkpt lat="40.218533" lon="-4.870650">
        <ele>1197.0</ele>
        <time>2015-08-01T13:54:16Z</time>
      </trkpt>
      <trkpt lat="40.218433" lon="-4.870517">
        <ele>1191.0</ele>
        <time>2015-08-01T13:54:18Z</time>
      </trkpt>
      <trkpt lat="40.218350" lon="-4.870383">
        <ele>1183.0</ele>
        <time>2015-08-01T13:54:20Z</time>
      </trkpt>
      <trkpt lat="40.218233" lon="-4.870200">
        <ele>1173.0</ele>
        <time>2015-08-01T13:54:22Z</time>
      </trkpt>
      <trkpt lat="40.218083" lon="-4.870017">
        <ele>1168.0</ele>
        <time>2015-08-01T13:54:24Z</time>
      </trkpt>
      <trkpt lat="40.218000" lon="-4.869883">
        <ele>1164.0</ele>
        <time>2015-08-01T13:54:26Z</time>
      </trkpt>
      <trkpt lat="40.217883" lon="-4.869717">
        <ele>1155.0</ele>
        <time>2015-08-01T13:54:28Z</time>
      </trkpt>
      <trkpt lat="40.217750" lon="-4.869550">
        <ele>1146.0</ele>
        <time>2015-08-01T13:54:30Z</time>
      </trkpt>
      <trkpt lat="40.217617" lon="-4.869417">
        <ele>1141.0</ele>
        <time>2015-08-01T13:54:32Z</time>
      </trkpt>
      <trkpt lat="40.217517" lon="-4.869283">
        <ele>1133.0</ele>
        <time>2015-08-01T13:54:34Z</time>
      </trkpt>
      <trkpt lat="40.217383" lon="-4.869150">
        <ele>1123.0</ele>
        <time>2015-08-01T13:54:36Z</time>
      </trkpt>
      <trkpt lat="40.217250" lon="-4.869017">
        <ele>1115.0</ele>
        <time>2015-08-01T13:54:38Z</time>
      </trkpt>
      <trkpt lat="40.217133" lon="-4.868900">
        <ele>1107.0</ele>
        <time>2015-08-01T13:54:40Z</time>
      </trkpt>
      <trkpt lat="40.217000" lon="-4.868783">
        <ele>1098.0</ele>
        <time>2015-08-01T13:54:42Z</time>
      </trkpt>
      <trkpt lat="40.216850" lon="-4.868667">
        <ele>1091.0</ele>
        <time>2015-08-01T13:54:44Z</time>
      </trkpt>
      <trkpt lat="40.216700" lon="-4.868567">
        <ele>1088.0</ele>
        <time>2015-08-01T13:54:46Z</time>
      </trkpt>
      <trkpt lat="40.216517" lon="-4.868517">
        <ele>1085.0</ele>
        <time>2015-08-01T13:54:48Z</time>
      </trkpt>
      <trkpt lat="40.216383" lon="-4.868600">
        <ele>1083.0</ele>
        <time>2015-08-01T13:54:50Z</time>
      </trkpt>
      <trkpt lat="40.216283" lon="-4.868683">
        <ele>1081.0</ele>
        <time>2015-08-01T13:54:52Z</time>
      </trkpt>
      <trkpt lat="40.216167" lon="-4.868767">
        <ele>1075.0</ele>
        <time>2015-08-01T13:54:54Z</time>
      </trkpt>
      <trkpt lat="40.216050" lon="-4.868883">
        <ele>1073.0</ele>
        <time>2015-08-01T13:54:56Z</time>
      </trkpt>
      <trkpt lat="40.215950" lon="-4.868983">
        <ele>1069.0</ele>
        <time>2015-08-01T13:54:58Z</time>
      </trkpt>
      <trkpt lat="40.215800" lon="-4.869133">
        <ele>1068.0</ele>
        <time>2015-08-01T13:55:00Z</time>
      </trkpt>
      <trkpt lat="40.215683" lon="-4.869300">
        <ele>1071.0</ele>
        <time>2015-08-01T13:55:02Z</time>
      </trkpt>
      <trkpt lat="40.215583" lon="-4.869450">
        <ele>1075.0</ele>
        <time>2015-08-01T13:55:04Z</time>
      </trkpt>
      <trkpt lat="40.215583" lon="-4.869633">
        <ele>1079.0</ele>
        <time>2015-08-01T13:55:06Z</time>
      </trkpt>
      <trkpt lat="40.215683" lon="-4.869800">
        <ele>1084.0</ele>
        <time>2015-08-01T13:55:08Z</time>
      </trkpt>
      <trkpt lat="40.215867" lon="-4.869867">
        <ele>1092.0</ele>
        <time>2015-08-01T13:55:10Z</time>
      </trkpt>
      <trkpt lat="40.216050" lon="-4.869783">
        <ele>1101.0</ele>
        <time>2015-08-01T13:55:12Z</time>
      </trkpt>
      <trkpt lat="40.216167" lon="-4.869650">
        <ele>1107.0</ele>
        <time>2015-08-01T13:55:14Z</time>
      </trkpt>
      <trkpt lat="40.216233" lon="-4.869450">
        <ele>1109.0</ele>
        <time>2015-08-01T13:55:16Z</time>
      </trkpt>
      <trkpt lat="40.216233" lon="-4.869183">
        <ele>1112.0</ele>
        <time>2015-08-01T13:55:18Z</time>
      </trkpt>
      <trkpt lat="40.216150" lon="-4.868950">
        <ele>1119.0</ele>
        <time>2015-08-01T13:55:20Z</time>
      </trkpt>
      <trkpt lat="40.216017" lon="-4.868800">
        <ele>1122.0</ele>
        <time>2015-08-01T13:55:22Z</time>
      </trkpt>
      <trkpt lat="40.215833" lon="-4.868733">
        <ele>1124.0</ele>
        <time>2015-08-01T13:55:24Z</time>
      </trkpt>
      <trkpt lat="40.215683" lon="-4.868717">
        <ele>1125.0</ele>
        <time>2015-08-01T13:55:26Z</time>
      </trkpt>
      <trkpt lat="40.215533" lon="-4.868817">
        <ele>1125.0</ele>
        <time>2015-08-01T13:55:28Z</time>
      </trkpt>
      <trkpt lat="40.215467" lon="-4.869033">
        <ele>1127.0</ele>
        <time>2015-08-01T13:55:30Z</time>
      </trkpt>
      <trkpt lat="40.215500" lon="-4.869250">
        <ele>1134.0</ele>
        <time>2015-08-01T13:55:32Z</time>
      </trkpt>
      <trkpt lat="40.215600" lon="-4.869383">
        <ele>1141.0</ele>
        <time>2015-08-01T13:55:34Z</time>
      </trkpt>
      <trkpt lat="40.215750" lon="-4.869467">
        <ele>1145.0</ele>
        <time>2015-08-01T13:55:36Z</time>
      </trkpt>
      <trkpt lat="40.215967" lon="-4.869400">
        <ele>1148.0</ele>
        <time>2015-08-01T13:55:38Z</time>
      </trkpt>
      <trkpt lat="40.216117" lon="-4.869183">
        <ele>1151.0</ele>
        <time>2015-08-01T13:55:40Z</time>
      </trkpt>
      <trkpt lat="40.216167" lon="-4.868900">
        <ele>1156.0</ele>
        <time>2015-08-01T13:55:42Z</time>
      </trkpt>
      <trkpt lat="40.216117" lon="-4.868650">
        <ele>1161.0</ele>
        <time>2015-08-01T13:55:44Z</time>
      </trkpt>
      <trkpt lat="40.216017" lon="-4.868467">
        <ele>1164.0</ele>
        <time>2015-08-01T13:55:46Z</time>
      </trkpt>
      <trkpt lat="40.215850" lon="-4.868417">
        <ele>1165.0</ele>
        <time>2015-08-01T13:55:48Z</time>
      </trkpt>
      <trkpt lat="40.215700" lon="-4.868500">
        <ele>1164.0</ele>
        <time>2015-08-01T13:55:50Z</time>
      </trkpt>
      <trkpt lat="40.215633" lon="-4.868733">
        <ele>1168.0</ele>
        <time>2015-08-01T13:55:52Z</time>
      </trkpt>
      <trkpt lat="40.215617" lon="-4.868900">
        <ele>1180.0</ele>
        <time>2015-08-01T13:55:54Z</time>
      </trkpt>
      <trkpt lat="40.215617" lon="-4.869017">
        <ele>1186.0</ele>
        <time>2015-08-01T13:55:56Z</time>
      </trkpt>
      <trkpt lat="40.215683" lon="-4.869200">
        <ele>1189.0</ele>
        <time>2015-08-01T13:55:58Z</time>
      </trkpt>
      <trkpt lat="40.215817" lon="-4.869333">
        <ele>1194.0</ele>
        <time>2015-08-01T13:56:00Z</time>
      </trkpt>
      <trkpt lat="40.215983" lon="-4.869300">
        <ele>1200.0</ele>
        <time>2015-08-01T13:56:02Z</time>
      </trkpt>
      <trkpt lat="40.216117" lon="-4.869133">
        <ele>1205.0</ele>
        <time>2015-08-01T13:56:04Z</time>
      </trkpt>
      <trkpt lat="40.216133" lon="-4.868883">
        <ele>1209.0</ele>
        <time>2015-08-01T13:56:06Z</time>
      </trkpt>
      <trkpt lat="40.216033" lon="-4.868667">
        <ele>1213.0</ele>
        <time>2015-08-01T13:56:08Z</time>
      </trkpt>
      <trkpt lat="40.215900" lon="-4.868567">
        <ele>1220.0</ele>
        <time>2015-08-01T13:56:10Z</time>
      </trkpt>
      <trkpt lat="40.215767" lon="-4.868517">
        <ele>1226.0</ele>
        <time>2015-08-01T13:56:12Z</time>
      </trkpt>
      <trkpt lat="40.215633" lon="-4.868583">
        <ele>1229.0</ele>
        <time>2015-08-01T13:56:14Z</time>
      </trkpt>
      <trkpt lat="40.215567" lon="-4.868817">
        <ele>1231.0</ele>
        <time>2015-08-01T13:56:16Z</time>
      </trkpt>
      <trkpt lat="40.215633" lon="-4.869100">
        <ele>1235.0</ele>
        <time>2015-08-01T13:56:18Z</time>
      </trkpt>
      <trkpt lat="40.215833" lon="-4.869283">
        <ele>1242.0</ele>
        <time>2015-08-01T13:56:20Z</time>
      </trkpt>
      <trkpt lat="40.216017" lon="-4.869350">
        <ele>1250.0</ele>
        <time>2015-08-01T13:56:22Z</time>
      </trkpt>
      <trkpt lat="40.216200" lon="-4.869333">
        <ele>1255.0</ele>
        <time>2015-08-01T13:56:24Z</time>
      </trkpt>
      <trkpt lat="40.216383" lon="-4.869217">
        <ele>1260.0</ele>
        <time>2015-08-01T13:56:26Z</time>
      </trkpt>
      <trkpt lat="40.216467" lon="-4.869000">
        <ele>1266.0</ele>
        <time>2015-08-01T13:56:28Z</time>
      </trkpt>
      <trkpt lat="40.216433" lon="-4.868750">
        <ele>1270.0</ele>
        <time>2015-08-01T13:56:30Z</time>
      </trkpt>
      <trkpt lat="40.216350" lon="-4.868533">
        <ele>1280.0</ele>
        <time>2015-08-01T13:56:32Z</time>
      </trkpt>
      <trkpt lat="40.216250" lon="-4.868400">
        <ele>1288.0</ele>
        <time>2015-08-01T13:56:34Z</time>
      </trkpt>
      <trkpt lat="40.216117" lon="-4.868367">
        <ele>1294.0</ele>
        <time>2015-08-01T13:56:36Z</time>
      </trkpt>
      <trkpt lat="40.215983" lon="-4.868483">
        <ele>1300.0</ele>
        <time>2015-08-01T13:56:38Z</time>
      </trkpt>
      <trkpt lat="40.215933" lon="-4.868700">
        <ele>1306.0</ele>
        <time>2015-08-01T13:56:40Z</time>
      </trkpt>
      <trkpt lat="40.215983" lon="-4.868950">
        <ele>1311.0</ele>
        <time>2015-08-01T13:56:42Z</time>
      </trkpt>
      <trkpt lat="40.216133" lon="-4.869133">
        <ele>1318.0</ele>
        <time>2015-08-01T13:56:44Z</time>
      </trkpt>
      <trkpt lat="40.216317" lon="-4.869167">
        <ele>1323.0</ele>
        <time>2015-08-01T13:56:46Z</time>
      </trkpt>
      <trkpt lat="40.216500" lon="-4.869050">
        <ele>1326.0</ele>
        <time>2015-08-01T13:56:48Z</time>
      </trkpt>
      <trkpt lat="40.216617" lon="-4.868800">
        <ele>1330.0</ele>
        <time>2015-08-01T13:56:50Z</time>
      </trkpt>
      <trkpt lat="40.216650" lon="-4.868533">
        <ele>1337.0</ele>
        <time>2015-08-01T13:56:52Z</time>
      </trkpt>
      <trkpt lat="40.216617" lon="-4.868333">
        <ele>1342.0</ele>
        <time>2015-08-01T13:56:54Z</time>
      </trkpt>
      <trkpt lat="40.216500" lon="-4.868150">
        <ele>1347.0</ele>
        <time>2015-08-01T13:56:56Z</time>
      </trkpt>
      <trkpt lat="40.216333" lon="-4.868033">
        <ele>1356.0</ele>
        <time>2015-08-01T13:56:58Z</time>
      </trkpt>
      <trkpt lat="40.216250" lon="-4.867983">
        <ele>1367.0</ele>
        <time>2015-08-01T13:57:00Z</time>
      </trkpt>
      <trkpt lat="40.216183" lon="-4.867950">
        <ele>1372.0</ele>
        <time>2015-08-01T13:57:02Z</time>
      </trkpt>
      <trkpt lat="40.216033" lon="-4.867967">
        <ele>1372.0</ele>
        <time>2015-08-01T13:57:04Z</time>
      </trkpt>
      <trkpt lat="40.215867" lon="-4.868100">
        <ele>1375.0</ele>
        <time>2015-08-01T13:57:06Z</time>
      </trkpt>
      <trkpt lat="40.215800" lon="-4.868300">
        <ele>1382.0</ele>
        <time>2015-08-01T13:57:08Z</time>
      </trkpt>
      <trkpt lat="40.215817" lon="-4.868500">
        <ele>1389.0</ele>
        <time>2015-08-01T13:57:10Z</time>
      </trkpt>
      <trkpt lat="40.215883" lon="-4.868650">
        <ele>1394.0</ele>
        <time>2015-08-01T13:57:12Z</time>
      </trkpt>
      <trkpt lat="40.216033" lon="-4.868700">
        <ele>1398.0</ele>
        <time>2015-08-01T13:57:14Z</time>
      </trkpt>
      <trkpt lat="40.216200" lon="-4.868650">
        <ele>1402.0</ele>
        <time>2015-08-01T13:57:16Z</time>
      </trkpt>
      <trkpt lat="40.216333" lon="-4.868467">
        <ele>1404.0</ele>
        <time>2015-08-01T13:57:18Z</time>
      </trkpt>
      <trkpt lat="40.216367" lon="-4.868217">
        <ele>1409.0</ele>
        <time>2015-08-01T13:57:20Z</time>
      </trkpt>
      <trkpt lat="40.216300" lon="-4.868000">
        <ele>1415.0</ele>
        <time>2015-08-01T13:57:22Z</time>
      </trkpt>
      <trkpt lat="40.216183" lon="-4.867867">
        <ele>1419.0</ele>
        <time>2015-08-01T13:57:24Z</time>
      </trkpt>
      <trkpt lat="40.216033" lon="-4.867800">
        <ele>1424.0</ele>
        <time>2015-08-01T13:57:26Z</time>
      </trkpt>
      <trkpt lat="40.215900" lon="-4.867850">
        <ele>1427.0</ele>
        <time>2015-08-01T13:57:28Z</time>
      </trkpt>
      <trkpt lat="40.215817" lon="-4.867967">
        <ele>1429.0</ele>
        <time>2015-08-01T13:57:30Z</time>
      </trkpt>
      <trkpt lat="40.215783" lon="-4.868150">
        <ele>1429.0</ele>
        <time>2015-08-01T13:57:32Z</time>
      </trkpt>
      <trkpt lat="40.215817" lon="-4.868350">
        <ele>1434.0</ele>
        <time>2015-08-01T13:57:34Z</time>
      </trkpt>
      <trkpt lat="40.215883" lon="-4.868500">
        <ele>1438.0</ele>
        <time>2015-08-01T13:57:36Z</time>
      </trkpt>
      <trkpt lat="40.216017" lon="-4.868600">
        <ele>1441.0</ele>
        <time>2015-08-01T13:57:38Z</time>
      </trkpt>
      <trkpt lat="40.216183" lon="-4.868567">
        <ele>1445.0</ele>
        <time>2015-08-01T13:57:40Z</time>
      </trkpt>
      <trkpt lat="40.216317" lon="-4.868417">
        <ele>1448.0</ele>
        <time>2015-08-01T13:57:42Z</time>
      </trkpt>
      <trkpt lat="40.216417" lon="-4.868200">
        <ele>1452.0</ele>
        <time>2015-08-01T13:57:44Z</time>
      </trkpt>
      <trkpt lat="40.216417" lon="-4.867967">
        <ele>1456.0</ele>
        <time>2015-08-01T13:57:46Z</time>
      </trkpt>
      <trkpt lat="40.216333" lon="-4.867750">
        <ele>1460.0</ele>
        <time>2015-08-01T13:57:48Z</time>
      </trkpt>
      <trkpt lat="40.216200" lon="-4.867617">
        <ele>1465.0</ele>
        <time>2015-08-01T13:57:50Z</time>
      </trkpt>
      <trkpt lat="40.216050" lon="-4.867533">
        <ele>1469.0</ele>
        <time>2015-08-01T13:57:52Z</time>
      </trkpt>
      <trkpt lat="40.215917" lon="-4.867483">
        <ele>1469.0</ele>
        <time>2015-08-01T13:57:54Z</time>
      </trkpt>
      <trkpt lat="40.215750" lon="-4.867517">
        <ele>1467.0</ele>
        <time>2015-08-01T13:57:56Z</time>
      </trkpt>
      <trkpt lat="40.215667" lon="-4.867667">
        <ele>1466.0</ele>
        <time>2015-08-01T13:57:58Z</time>
      </trkpt>
      <trkpt lat="40.215600" lon="-4.867850">
        <ele>1470.0</ele>
        <time>2015-08-01T13:58:00Z</time>
      </trkpt>
      <trkpt lat="40.215567" lon="-4.867983">
        <ele>1476.0</ele>
        <time>2015-08-01T13:58:02Z</time>
      </trkpt>
      <trkpt lat="40.215600" lon="-4.868133">
        <ele>1477.0</ele>
        <time>2015-08-01T13:58:04Z</time>
      </trkpt>
      <trkpt lat="40.215683" lon="-4.868267">
        <ele>1481.0</ele>
        <time>2015-08-01T13:58:06Z</time>
      </trkpt>
      <trkpt lat="40.215850" lon="-4.868300">
        <ele>1484.0</ele>
        <time>2015-08-01T13:58:08Z</time>
      </trkpt>
      <trkpt lat="40.216033" lon="-4.868167">
        <ele>1487.0</ele>
        <time>2015-08-01T13:58:10Z</time>
      </trkpt>
      <trkpt lat="40.216117" lon="-4.867900">
        <ele>1493.0</ele>
        <time>2015-08-01T13:58:12Z</time>
      </trkpt>
      <trkpt lat="40.216100" lon="-4.867667">
        <ele>1498.0</ele>
        <time>2015-08-01T13:58:14Z</time>
      </trkpt>
      <trkpt lat="40.216017" lon="-4.867433">
        <ele>1500.0</ele>
        <time>2015-08-01T13:58:16Z</time>
      </trkpt>
      <trkpt lat="40.215850" lon="-4.867267">
        <ele>1503.0</ele>
        <time>2015-08-01T13:58:18Z</time>
      </trkpt>
      <trkpt lat="40.215700" lon="-4.867233">
        <ele>1505.0</ele>
        <time>2015-08-01T13:58:20Z</time>
      </trkpt>
      <trkpt lat="40.215600" lon="-4.867283">
        <ele>1507.0</ele>
        <time>2015-08-01T13:58:22Z</time>
      </trkpt>
      <trkpt lat="40.215550" lon="-4.867417">
        <ele>1508.0</ele>
        <time>2015-08-01T13:58:24Z</time>
      </trkpt>
      <trkpt lat="40.215567" lon="-4.867567">
        <ele>1510.0</ele>
        <time>2015-08-01T13:58:26Z</time>
      </trkpt>
      <trkpt lat="40.215683" lon="-4.867700">
        <ele>1512.0</ele>
        <time>2015-08-01T13:58:28Z</time>
      </trkpt>
      <trkpt lat="40.215867" lon="-4.867717">
        <ele>1516.0</ele>
        <time>2015-08-01T13:58:30Z</time>
      </trkpt>
      <trkpt lat="40.216050" lon="-4.867600">
        <ele>1520.0</ele>
        <time>2015-08-01T13:58:32Z</time>
      </trkpt>
      <trkpt lat="40.216150" lon="-4.867367">
        <ele>1525.0</ele>
        <time>2015-08-01T13:58:34Z</time>
      </trkpt>
      <trkpt lat="40.216167" lon="-4.867117">
        <ele>1527.0</ele>
        <time>2015-08-01T13:58:36Z</time>
      </trkpt>
      <trkpt lat="40.216100" lon="-4.866833">
        <ele>1526.0</ele>
        <time>2015-08-01T13:58:38Z</time>
      </trkpt>
      <trkpt lat="40.215967" lon="-4.866667">
        <ele>1529.0</ele>
        <time>2015-08-01T13:58:40Z</time>
      </trkpt>
      <trkpt lat="40.215867" lon="-4.866550">
        <ele>1533.0</ele>
        <time>2015-08-01T13:58:42Z</time>
      </trkpt>
      <trkpt lat="40.215750" lon="-4.866500">
        <ele>1532.0</ele>
        <time>2015-08-01T13:58:44Z</time>
      </trkpt>
      <trkpt lat="40.215650" lon="-4.866583">
        <ele>1529.0</ele>
        <time>2015-08-01T13:58:46Z</time>
      </trkpt>
      <trkpt lat="40.215700" lon="-4.866767">
        <ele>1529.0</ele>
        <time>2015-08-01T13:58:48Z</time>
      </trkpt>
      <trkpt lat="40.215833" lon="-4.866850">
        <ele>1534.0</ele>
        <time>2015-08-01T13:58:50Z</time>
      </trkpt>
      <trkpt lat="40.215967" lon="-4.866883">
        <ele>1538.0</ele>
        <time>2015-08-01T13:58:52Z</time>
      </trkpt>
      <trkpt lat="40.216150" lon="-4.866850">
        <ele>1538.0</ele>
        <time>2015-08-01T13:58:54Z</time>
      </trkpt>
      <trkpt lat="40.216350" lon="-4.866717">
        <ele>1540.0</ele>
        <time>2015-08-01T13:58:56Z</time>
      </trkpt>
      <trkpt lat="40.216483" lon="-4.866517">
        <ele>1544.0</ele>
        <time>2015-08-01T13:58:58Z</time>
      </trkpt>
      <trkpt lat="40.216583" lon="-4.866333">
        <ele>1545.0</ele>
        <time>2015-08-01T13:59:00Z</time>
      </trkpt>
      <trkpt lat="40.216667" lon="-4.866083">
        <ele>1543.0</ele>
        <time>2015-08-01T13:59:02Z</time>
      </trkpt>
      <trkpt lat="40.216667" lon="-4.865833">
        <ele>1542.0</ele>
        <time>2015-08-01T13:59:04Z</time>
      </trkpt>
      <trkpt lat="40.216600" lon="-4.865650">
        <ele>1541.0</ele>
        <time>2015-08-01T13:59:06Z</time>
      </trkpt>
      <trkpt lat="40.216483" lon="-4.865533">
        <ele>1539.0</ele>
        <time>2015-08-01T13:59:08Z</time>
      </trkpt>
      <trkpt lat="40.216350" lon="-4.865450">
        <ele>1538.0</ele>
        <time>2015-08-01T13:59:10Z</time>
      </trkpt>
      <trkpt lat="40.216233" lon="-4.865367">
        <ele>1539.0</ele>
        <time>2015-08-01T13:59:12Z</time>
      </trkpt>
      <trkpt lat="40.216117" lon="-4.865283">
        <ele>1537.0</ele>
        <time>2015-08-01T13:59:14Z</time>
      </trkpt>
      <trkpt lat="40.216000" lon="-4.865267">
        <ele>1537.0</ele>
        <time>2015-08-01T13:59:16Z</time>
      </trkpt>
      <trkpt lat="40.215917" lon="-4.865367">
        <ele>1537.0</ele>
        <time>2015-08-01T13:59:18Z</time>
      </trkpt>
      <trkpt lat="40.215900" lon="-4.865500">
        <ele>1537.0</ele>
        <time>2015-08-01T13:59:20Z</time>
      </trkpt>
      <trkpt lat="40.215950" lon="-4.865650">
        <ele>1537.0</ele>
        <time>2015-08-01T13:59:22Z</time>
      </trkpt>
      <trkpt lat="40.216067" lon="-4.865767">
        <ele>1538.0</ele>
        <time>2015-08-01T13:59:24Z</time>
      </trkpt>
      <trkpt lat="40.216133" lon="-4.865900">
        <ele>1537.0</ele>
        <time>2015-08-01T13:59:26Z</time>
      </trkpt>
      <trkpt lat="40.216200" lon="-4.866050">
        <ele>1538.0</ele>
        <time>2015-08-01T13:59:28Z</time>
      </trkpt>
      <trkpt lat="40.216267" lon="-4.866183">
        <ele>1537.0</ele>
        <time>2015-08-01T13:59:30Z</time>
      </trkpt>
      <trkpt lat="40.216250" lon="-4.866333">
        <ele>1535.0</ele>
        <time>2015-08-01T13:59:32Z</time>
      </trkpt>
      <trkpt lat="40.216150" lon="-4.866450">
        <ele>1537.0</ele>
        <time>2015-08-01T13:59:34Z</time>
      </trkpt>
      <trkpt lat="40.216050" lon="-4.866500">
        <ele>1541.0</ele>
        <time>2015-08-01T13:59:36Z</time>
      </trkpt>
      <trkpt lat="40.215950" lon="-4.866500">
        <ele>1541.0</ele>
        <time>2015-08-01T13:59:38Z</time>
      </trkpt>
      <trkpt lat="40.215833" lon="-4.866417">
        <ele>1539.0</ele>
        <time>2015-08-01T13:59:40Z</time>
      </trkpt>
      <trkpt lat="40.215700" lon="-4.866250">
        <ele>1537.0</ele>
        <time>2015-08-01T13:59:42Z</time>
      </trkpt>
      <trkpt lat="40.215617" lon="-4.866083">
        <ele>1538.0</ele>
        <time>2015-08-01T13:59:44Z</time>
      </trkpt>
      <trkpt lat="40.215550" lon="-4.865883">
        <ele>1535.0</ele>
        <time>2015-08-01T13:59:46Z</time>
      </trkpt>
      <trkpt lat="40.215533" lon="-4.865583">
        <ele>1531.0</ele>
        <time>2015-08-01T13:59:48Z</time>
      </trkpt>
      <trkpt lat="40.215633" lon="-4.865283">
        <ele>1529.0</ele>
        <time>2015-08-01T13:59:50Z</time>
      </trkpt>
      <trkpt lat="40.215850" lon="-4.865050">
        <ele>1528.0</ele>
        <time>2015-08-01T13:59:52Z</time>
      </trkpt>
      <trkpt lat="40.216017" lon="-4.864817">
        <ele>1531.0</ele>
        <time>2015-08-01T13:59:54Z</time>
      </trkpt>
      <trkpt lat="40.216200" lon="-4.864667">
        <ele>1534.0</ele>
        <time>2015-08-01T13:59:56Z</time>
      </trkpt>
      <trkpt lat="40.216417" lon="-4.864633">
        <ele>1534.0</ele>
        <time>2015-08-01T13:59:58Z</time>
      </trkpt>
      <trkpt lat="40.216600" lon="-4.864667">
        <ele>1536.0</ele>
        <time>2015-08-01T14:00:00Z</time>
      </trkpt>
      <trkpt lat="40.216733" lon="-4.864733">
        <ele>1537.0</ele>
        <time>2015-08-01T14:00:02Z</time>
      </trkpt>
      <trkpt lat="40.216800" lon="-4.864850">
        <ele>1537.0</ele>
        <time>2015-08-01T14:00:04Z</time>
      </trkpt>
      <trkpt lat="40.216767" lon="-4.865000">
        <ele>1535.0</ele>
        <time>2015-08-01T14:00:06Z</time>
      </trkpt>
      <trkpt lat="40.216667" lon="-4.865050">
        <ele>1537.0</ele>
        <time>2015-08-01T14:00:08Z</time>
      </trkpt>
      <trkpt lat="40.216567" lon="-4.865033">
        <ele>1539.0</ele>
        <time>2015-08-01T14:00:10Z</time>
      </trkpt>
      <trkpt lat="40.216467" lon="-4.864967">
        <ele>1538.0</ele>
        <time>2015-08-01T14:00:12Z</time>
      </trkpt>
      <trkpt lat="40.216350" lon="-4.864833">
        <ele>1535.0</ele>
        <time>2015-08-01T14:00:14Z</time>
      </trkpt>
      <trkpt lat="40.216250" lon="-4.864633">
        <ele>1533.0</ele>
        <time>2015-08-01T14:00:16Z</time>
      </trkpt>
      <trkpt lat="40.216183" lon="-4.864450">
        <ele>1531.0</ele>
        <time>2015-08-01T14:00:18Z</time>
      </trkpt>
      <trkpt lat="40.216083" lon="-4.864283">
        <ele>1527.0</ele>
        <time>2015-08-01T14:00:20Z</time>
      </trkpt>
      <trkpt lat="40.215933" lon="-4.864183">
        <ele>1525.0</ele>
        <time>2015-08-01T14:00:22Z</time>
      </trkpt>
      <trkpt lat="40.215833" lon="-4.864050">
        <ele>1524.0</ele>
        <time>2015-08-01T14:00:24Z</time>
      </trkpt>
      <trkpt lat="40.215733" lon="-4.863900">
        <ele>1521.0</ele>
        <time>2015-08-01T14:00:26Z</time>
      </trkpt>
      <trkpt lat="40.215633" lon="-4.863783">
        <ele>1517.0</ele>
        <time>2015-08-01T14:00:28Z</time>
      </trkpt>
      <trkpt lat="40.215533" lon="-4.863667">
        <ele>1512.0</ele>
        <time>2015-08-01T14:00:30Z</time>
      </trkpt>
      <trkpt lat="40.215400" lon="-4.863550">
        <ele>1508.0</ele>
        <time>2015-08-01T14:00:32Z</time>
      </trkpt>
      <trkpt lat="40.215283" lon="-4.863467">
        <ele>1507.0</ele>
        <time>2015-08-01T14:00:34Z</time>
      </trkpt>
      <trkpt lat="40.215167" lon="-4.863400">
        <ele>1503.0</ele>
        <time>2015-08-01T14:00:36Z</time>
      </trkpt>
      <trkpt lat="40.215033" lon="-4.863350">
        <ele>1500.0</ele>
        <time>2015-08-01T14:00:38Z</time>
      </trkpt>
      <trkpt lat="40.214900" lon="-4.863317">
        <ele>1499.0</ele>
        <time>2015-08-01T14:00:40Z</time>
      </trkpt>
      <trkpt lat="40.214817" lon="-4.863283">
        <ele>1497.0</ele>
        <time>2015-08-01T14:00:42Z</time>
      </trkpt>
      <trkpt lat="40.214683" lon="-4.863233">
        <ele>1491.0</ele>
        <time>2015-08-01T14:00:44Z</time>
      </trkpt>
      <trkpt lat="40.214550" lon="-4.863183">
        <ele>1488.0</ele>
        <time>2015-08-01T14:00:46Z</time>
      </trkpt>
      <trkpt lat="40.214450" lon="-4.863133">
        <ele>1485.0</ele>
        <time>2015-08-01T14:00:48Z</time>
      </trkpt>
      <trkpt lat="40.214333" lon="-4.863067">
        <ele>1479.0</ele>
        <time>2015-08-01T14:00:50Z</time>
      </trkpt>
      <trkpt lat="40.214200" lon="-4.862983">
        <ele>1475.0</ele>
        <time>2015-08-01T14:00:52Z</time>
      </trkpt>
      <trkpt lat="40.214083" lon="-4.862917">
        <ele>1472.0</ele>
        <time>2015-08-01T14:00:54Z</time>
      </trkpt>
      <trkpt lat="40.213983" lon="-4.862850">
        <ele>1468.0</ele>
        <time>2015-08-01T14:00:56Z</time>
      </trkpt>
      <trkpt lat="40.213867" lon="-4.862867">
        <ele>1463.0</ele>
        <time>2015-08-01T14:00:58Z</time>
      </trkpt>
      <trkpt lat="40.213717" lon="-4.862933">
        <ele>1458.0</ele>
        <time>2015-08-01T14:01:00Z</time>
      </trkpt>
      <trkpt lat="40.213583" lon="-4.862983">
        <ele>1453.0</ele>
        <time>2015-08-01T14:01:02Z</time>
      </trkpt>
      <trkpt lat="40.213450" lon="-4.863017">
        <ele>1445.0</ele>
        <time>2015-08-01T14:01:04Z</time>
      </trkpt>
      <trkpt lat="40.213300" lon="-4.863033">
        <ele>1437.0</ele>
        <time>2015-08-01T14:01:06Z</time>
      </trkpt>
      <trkpt lat="40.213167" lon="-4.863017">
        <ele>1431.0</ele>
        <time>2015-08-01T14:01:08Z</time>
      </trkpt>
      <trkpt lat="40.213067" lon="-4.863033">
        <ele>1424.0</ele>
        <time>2015-08-01T14:01:10Z</time>
      </trkpt>
      <trkpt lat="40.212933" lon="-4.863033">
        <ele>1415.0</ele>
        <time>2015-08-01T14:01:12Z</time>
      </trkpt>
      <trkpt lat="40.212800" lon="-4.863017">
        <ele>1409.0</ele>
        <time>2015-08-01T14:01:14Z</time>
      </trkpt>
      <trkpt lat="40.212683" lon="-4.863000">
        <ele>1403.0</ele>
        <time>2015-08-01T14:01:16Z</time>
      </trkpt>
      <trkpt lat="40.212567" lon="-4.862950">
        <ele>1396.0</ele>
        <time>2015-08-01T14:01:18Z</time>
      </trkpt>
      <trkpt lat="40.212450" lon="-4.862917">
        <ele>1389.0</ele>
        <time>2015-08-01T14:01:20Z</time>
      </trkpt>
      <trkpt lat="40.212317" lon="-4.862867">
        <ele>1384.0</ele>
        <time>2015-08-01T14:01:22Z</time>
      </trkpt>
      <trkpt lat="40.212217" lon="-4.862817">
        <ele>1379.0</ele>
        <time>2015-08-01T14:01:24Z</time>
      </trkpt>
      <trkpt lat="40.212083" lon="-4.862767">
        <ele>1373.0</ele>
        <time>2015-08-01T14:01:26Z</time>
      </trkpt>
      <trkpt lat="40.211933" lon="-4.862700">
        <ele>1368.0</ele>
        <time>2015-08-01T14:01:28Z</time>
      </trkpt>
      <trkpt lat="40.211783" lon="-4.862633">
        <ele>1366.0</ele>
        <time>2015-08-01T14:01:30Z</time>
      </trkpt>
      <trkpt lat="40.211650" lon="-4.862583">
        <ele>1364.0</ele>
        <time>2015-08-01T14:01:32Z</time>
      </trkpt>
      <trkpt lat="40.211500" lon="-4.862500">
        <ele>1359.0</ele>
        <time>2015-08-01T14:01:34Z</time>
      </trkpt>
      <trkpt lat="40.211367" lon="-4.862417">
        <ele>1355.0</ele>
        <time>2015-08-01T14:01:36Z</time>
      </trkpt>
      <trkpt lat="40.211250" lon="-4.862317">
        <ele>1353.0</ele>
        <time>2015-08-01T14:01:38Z</time>
      </trkpt>
      <trkpt lat="40.211150" lon="-4.862217">
        <ele>1350.0</ele>
        <time>2015-08-01T14:01:40Z</time>
      </trkpt>
      <trkpt lat="40.211017" lon="-4.862133">
        <ele>1345.0</ele>
        <time>2015-08-01T14:01:42Z</time>
      </trkpt>
      <trkpt lat="40.210883" lon="-4.862050">
        <ele>1343.0</ele>
        <time>2015-08-01T14:01:44Z</time>
      </trkpt>
      <trkpt lat="40.210767" lon="-4.861967">
        <ele>1340.0</ele>
        <time>2015-08-01T14:01:46Z</time>
      </trkpt>
      <trkpt lat="40.210633" lon="-4.861900">
        <ele>1335.0</ele>
        <time>2015-08-01T14:01:48Z</time>
      </trkpt>
      <trkpt lat="40.210483" lon="-4.861867">
        <ele>1331.0</ele>
        <time>2015-08-01T14:01:50Z</time>
      </trkpt>
      <trkpt lat="40.210367" lon="-4.861817">
        <ele>1329.0</ele>
        <time>2015-08-01T14:01:52Z</time>
      </trkpt>
      <trkpt lat="40.210250" lon="-4.861750">
        <ele>1322.0</ele>
        <time>2015-08-01T14:01:54Z</time>
      </trkpt>
      <trkpt lat="40.210100" lon="-4.861683">
        <ele>1316.0</ele>
        <time>2015-08-01T14:01:56Z</time>
      </trkpt>
      <trkpt lat="40.209950" lon="-4.861617">
        <ele>1313.0</ele>
        <time>2015-08-01T14:01:58Z</time>
      </trkpt>
      <trkpt lat="40.209833" lon="-4.861533">
        <ele>1309.0</ele>
        <time>2015-08-01T14:02:00Z</time>
      </trkpt>
      <trkpt lat="40.209717" lon="-4.861433">
        <ele>1303.0</ele>
        <time>2015-08-01T14:02:02Z</time>
      </trkpt>
      <trkpt lat="40.209600" lon="-4.861333">
        <ele>1298.0</ele>
        <time>2015-08-01T14:02:04Z</time>
      </trkpt>
      <trkpt lat="40.209517" lon="-4.861233">
        <ele>1294.0</ele>
        <time>2015-08-01T14:02:06Z</time>
      </trkpt>
      <trkpt lat="40.209400" lon="-4.861150">
        <ele>1286.0</ele>
        <time>2015-08-01T14:02:08Z</time>
      </trkpt>
      <trkpt lat="40.209267" lon="-4.861067">
        <ele>1279.0</ele>
        <time>2015-08-01T14:02:10Z</time>
      </trkpt>
      <trkpt lat="40.209133" lon="-4.860983">
        <ele>1274.0</ele>
        <time>2015-08-01T14:02:12Z</time>
      </trkpt>
      <trkpt lat="40.209017" lon="-4.860950">
        <ele>1271.0</ele>
        <time>2015-08-01T14:02:14Z</time>
      </trkpt>
      <trkpt lat="40.208900" lon="-4.860967">
        <ele>1264.0</ele>
        <time>2015-08-01T14:02:16Z</time>
      </trkpt>
      <trkpt lat="40.208750" lon="-4.860950">
        <ele>1258.0</ele>
        <time>2015-08-01T14:02:18Z</time>
      </trkpt>
      <trkpt lat="40.208617" lon="-4.860917">
        <ele>1256.0</ele>
        <time>2015-08-01T14:02:20Z</time>
      </trkpt>
      <trkpt lat="40.208533" lon="-4.860933">
        <ele>1251.0</ele>
        <time>2015-08-01T14:02:22Z</time>
      </trkpt>
      <trkpt lat="40.208417" lon="-4.860917">
        <ele>1242.0</ele>
        <time>2015-08-01T14:02:24Z</time>
      </trkpt>
      <trkpt lat="40.208267" lon="-4.860917">
        <ele>1238.0</ele>
        <time>2015-08-01T14:02:26Z</time>
      </trkpt>
      <trkpt lat="40.208183" lon="-4.860917">
        <ele>1235.0</ele>
        <time>2015-08-01T14:02:28Z</time>
      </trkpt>
      <trkpt lat="40.208100" lon="-4.860883">
        <ele>1229.0</ele>
        <time>2015-08-01T14:02:30Z</time>
      </trkpt>
      <trkpt lat="40.207983" lon="-4.860850">
        <ele>1221.0</ele>
        <time>2015-08-01T14:02:32Z</time>
      </trkpt>
      <trkpt lat="40.207867" lon="-4.860817">
        <ele>1214.0</ele>
        <time>2015-08-01T14:02:34Z</time>
      </trkpt>
      <trkpt lat="40.207750" lon="-4.860767">
        <ele>1208.0</ele>
        <time>2015-08-01T14:02:36Z</time>
      </trkpt>
      <trkpt lat="40.207633" lon="-4.860717">
        <ele>1201.0</ele>
        <time>2015-08-01T14:02:38Z</time>
      </trkpt>
      <trkpt lat="40.207517" lon="-4.860667">
        <ele>1194.0</ele>
        <time>2015-08-01T14:02:40Z</time>
      </trkpt>
      <trkpt lat="40.207367" lon="-4.860633">
        <ele>1186.0</ele>
        <time>2015-08-01T14:02:42Z</time>
      </trkpt>
      <trkpt lat="40.207217" lon="-4.860617">
        <ele>1180.0</ele>
        <time>2015-08-01T14:02:44Z</time>
      </trkpt>
      <trkpt lat="40.207067" lon="-4.860583">
        <ele>1174.0</ele>
        <time>2015-08-01T14:02:46Z</time>
      </trkpt>
      <trkpt lat="40.206917" lon="-4.860533">
        <ele>1167.0</ele>
        <time>2015-08-01T14:02:48Z</time>
      </trkpt>
      <trkpt lat="40.206750" lon="-4.860550">
        <ele>1161.0</ele>
        <time>2015-08-01T14:02:50Z</time>
      </trkpt>
      <trkpt lat="40.206600" lon="-4.860533">
        <ele>1156.0</ele>
        <time>2015-08-01T14:02:52Z</time>
      </trkpt>
      <trkpt lat="40.206483" lon="-4.860500">
        <ele>1150.0</ele>
        <time>2015-08-01T14:02:54Z</time>
      </trkpt>
      <trkpt lat="40.206333" lon="-4.860483">
        <ele>1141.0</ele>
        <time>2015-08-01T14:02:56Z</time>
      </trkpt>
      <trkpt lat="40.206183" lon="-4.860400">
        <ele>1134.0</ele>
        <time>2015-08-01T14:02:58Z</time>
      </trkpt>
      <trkpt lat="40.206033" lon="-4.860333">
        <ele>1127.0</ele>
        <time>2015-08-01T14:03:00Z</time>
      </trkpt>
      <trkpt lat="40.205900" lon="-4.860250">
        <ele>1119.0</ele>
        <time>2015-08-01T14:03:02Z</time>
      </trkpt>
      <trkpt lat="40.205767" lon="-4.860150">
        <ele>1111.0</ele>
        <time>2015-08-01T14:03:04Z</time>
      </trkpt>
      <trkpt lat="40.205617" lon="-4.860050">
        <ele>1104.0</ele>
        <time>2015-08-01T14:03:06Z</time>
      </trkpt>
      <trkpt lat="40.205483" lon="-4.859917">
        <ele>1097.0</ele>
        <time>2015-08-01T14:03:08Z</time>
      </trkpt>
      <trkpt lat="40.205350" lon="-4.859800">
        <ele>1091.0</ele>
        <time>2015-08-01T14:03:10Z</time>
      </trkpt>
      <trkpt lat="40.205200" lon="-4.859700">
        <ele>1084.0</ele>
        <time>2015-08-01T14:03:12Z</time>
      </trkpt>
      <trkpt lat="40.205050" lon="-4.859617">
        <ele>1077.0</ele>
        <time>2015-08-01T14:03:14Z</time>
      </trkpt>
      <trkpt lat="40.204900" lon="-4.859517">
        <ele>1072.0</ele>
        <time>2015-08-01T14:03:16Z</time>
      </trkpt>
      <trkpt lat="40.204767" lon="-4.859450">
        <ele>1067.0</ele>
        <time>2015-08-01T14:03:18Z</time>
      </trkpt>
      <trkpt lat="40.204617" lon="-4.859383">
        <ele>1060.0</ele>
        <time>2015-08-01T14:03:20Z</time>
      </trkpt>
      <trkpt lat="40.204467" lon="-4.859300">
        <ele>1053.0</ele>
        <time>2015-08-01T14:03:22Z</time>
      </trkpt>
      <trkpt lat="40.204300" lon="-4.859233">
        <ele>1047.0</ele>
        <time>2015-08-01T14:03:24Z</time>
      </trkpt>
      <trkpt lat="40.204150" lon="-4.859133">
        <ele>1041.0</ele>
        <time>2015-08-01T14:03:26Z</time>
      </trkpt>
      <trkpt lat="40.204000" lon="-4.859033">
        <ele>1035.0</ele>
        <time>2015-08-01T14:03:28Z</time>
      </trkpt>
      <trkpt lat="40.203833" lon="-4.858933">
        <ele>1029.0</ele>
        <time>2015-08-01T14:03:30Z</time>
      </trkpt>
      <trkpt lat="40.203700" lon="-4.858850">
        <ele>1024.0</ele>
        <time>2015-08-01T14:03:32Z</time>
      </trkpt>
      <trkpt lat="40.203567" lon="-4.858767">
        <ele>1016.0</ele>
        <time>2015-08-01T14:03:34Z</time>
      </trkpt>
      <trkpt lat="40.203417" lon="-4.858683">
        <ele>1007.0</ele>
        <time>2015-08-01T14:03:36Z</time>
      </trkpt>
      <trkpt lat="40.203283" lon="-4.858583">
        <ele>1000.0</ele>
        <time>2015-08-01T14:03:38Z</time>
      </trkpt>
      <trkpt lat="40.203150" lon="-4.858483">
        <ele>994.0</ele>
        <time>2015-08-01T14:03:40Z</time>
      </trkpt>
      <trkpt lat="40.203017" lon="-4.858400">
        <ele>986.0</ele>
        <time>2015-08-01T14:03:42Z</time>
      </trkpt>
      <trkpt lat="40.202867" lon="-4.858300">
        <ele>980.0</ele>
        <time>2015-08-01T14:03:44Z</time>
      </trkpt>
      <trkpt lat="40.202717" lon="-4.858233">
        <ele>976.0</ele>
        <time>2015-08-01T14:03:46Z</time>
      </trkpt>
      <trkpt lat="40.202600" lon="-4.858150">
        <ele>969.0</ele>
        <time>2015-08-01T14:03:48Z</time>
      </trkpt>
      <trkpt lat="40.202450" lon="-4.858067">
        <ele>962.0</ele>
        <time>2015-08-01T14:03:50Z</time>
      </trkpt>
      <trkpt lat="40.202317" lon="-4.858000">
        <ele>957.0</ele>
        <time>2015-08-01T14:03:52Z</time>
      </trkpt>
      <trkpt lat="40.202200" lon="-4.857933">
        <ele>950.0</ele>
        <time>2015-08-01T14:03:54Z</time>
      </trkpt>
      <trkpt lat="40.202050" lon="-4.857883">
        <ele>942.0</ele>
        <time>2015-08-01T14:03:56Z</time>
      </trkpt>
      <trkpt lat="40.201917" lon="-4.857783">
        <ele>934.0</ele>
        <time>2015-08-01T14:03:58Z</time>
      </trkpt>
      <trkpt lat="40.201800" lon="-4.857683">
        <ele>929.0</ele>
        <time>2015-08-01T14:04:00Z</time>
      </trkpt>
      <trkpt lat="40.201683" lon="-4.857583">
        <ele>921.0</ele>
        <time>2015-08-01T14:04:02Z</time>
      </trkpt>
      <trkpt lat="40.201533" lon="-4.857500">
        <ele>912.0</ele>
        <time>2015-08-01T14:04:04Z</time>
      </trkpt>
      <trkpt lat="40.201383" lon="-4.857383">
        <ele>906.0</ele>
        <time>2015-08-01T14:04:06Z</time>
      </trkpt>
      <trkpt lat="40.201250" lon="-4.857283">
        <ele>900.0</ele>
        <time>2015-08-01T14:04:08Z</time>
      </trkpt>
      <trkpt lat="40.201117" lon="-4.857217">
        <ele>894.0</ele>
        <time>2015-08-01T14:04:10Z</time>
      </trkpt>
      <trkpt lat="40.200983" lon="-4.857117">
        <ele>888.0</ele>
        <time>2015-08-01T14:04:12Z</time>
      </trkpt>
      <trkpt lat="40.200850" lon="-4.857033">
        <ele>882.0</ele>
        <time>2015-08-01T14:04:14Z</time>
      </trkpt>
      <trkpt lat="40.200700" lon="-4.856967">
        <ele>874.0</ele>
        <time>2015-08-01T14:04:16Z</time>
      </trkpt>
      <trkpt lat="40.200550" lon="-4.856917">
        <ele>868.0</ele>
        <time>2015-08-01T14:04:18Z</time>
      </trkpt>
      <trkpt lat="40.200417" lon="-4.856867">
        <ele>862.0</ele>
        <time>2015-08-01T14:04:20Z</time>
      </trkpt>
      <trkpt lat="40.200267" lon="-4.856817">
        <ele>856.0</ele>
        <time>2015-08-01T14:04:22Z</time>
      </trkpt>
      <trkpt lat="40.200133" lon="-4.856750">
        <ele>850.0</ele>
        <time>2015-08-01T14:04:24Z</time>
      </trkpt>
      <trkpt lat="40.199983" lon="-4.856717">
        <ele>844.0</ele>
        <time>2015-08-01T14:04:26Z</time>
      </trkpt>
      <trkpt lat="40.199833" lon="-4.856700">
        <ele>840.0</ele>
        <time>2015-08-01T14:04:28Z</time>
      </trkpt>
      <trkpt lat="40.199700" lon="-4.856650">
        <ele>837.0</ele>
        <time>2015-08-01T14:04:30Z</time>
      </trkpt>
      <trkpt lat="40.199567" lon="-4.856600">
        <ele>830.0</ele>
        <time>2015-08-01T14:04:32Z</time>
      </trkpt>
      <trkpt lat="40.199400" lon="-4.856567">
        <ele>822.0</ele>
        <time>2015-08-01T14:04:34Z</time>
      </trkpt>
      <trkpt lat="40.199250" lon="-4.856533">
        <ele>818.0</ele>
        <time>2015-08-01T14:04:36Z</time>
      </trkpt>
      <trkpt lat="40.199100" lon="-4.856517">
        <ele>813.0</ele>
        <time>2015-08-01T14:04:38Z</time>
      </trkpt>
      <trkpt lat="40.198967" lon="-4.856500">
        <ele>806.0</ele>
        <time>2015-08-01T14:04:40Z</time>
      </trkpt>
      <trkpt lat="40.198800" lon="-4.856517">
        <ele>800.0</ele>
        <time>2015-08-01T14:04:42Z</time>
      </trkpt>
      <trkpt lat="40.198667" lon="-4.856500">
        <ele>795.0</ele>
        <time>2015-08-01T14:04:44Z</time>
      </trkpt>
      <trkpt lat="40.198533" lon="-4.856517">
        <ele>790.0</ele>
        <time>2015-08-01T14:04:46Z</time>
      </trkpt>
      <trkpt lat="40.198400" lon="-4.856533">
        <ele>783.0</ele>
        <time>2015-08-01T14:04:48Z</time>
      </trkpt>
      <trkpt lat="40.198250" lon="-4.856533">
        <ele>776.0</ele>
        <time>2015-08-01T14:04:50Z</time>
      </trkpt>
      <trkpt lat="40.198100" lon="-4.856533">
        <ele>768.0</ele>
        <time>2015-08-01T14:04:52Z</time>
      </trkpt>
      <trkpt lat="40.197967" lon="-4.856533">
        <ele>762.0</ele>
        <time>2015-08-01T14:04:54Z</time>
      </trkpt>
      <trkpt lat="40.197817" lon="-4.856517">
        <ele>756.0</ele>
        <time>2015-08-01T14:04:56Z</time>
      </trkpt>
      <trkpt lat="40.197667" lon="-4.856517">
        <ele>749.0</ele>
        <time>2015-08-01T14:04:58Z</time>
      </trkpt>
      <trkpt lat="40.197517" lon="-4.856533">
        <ele>743.0</ele>
        <time>2015-08-01T14:05:00Z</time>
      </trkpt>
      <trkpt lat="40.197367" lon="-4.856550">
        <ele>736.0</ele>
        <time>2015-08-01T14:05:02Z</time>
      </trkpt>
      <trkpt lat="40.197217" lon="-4.856567">
        <ele>729.0</ele>
        <time>2015-08-01T14:05:04Z</time>
      </trkpt>
      <trkpt lat="40.197050" lon="-4.856583">
        <ele>723.0</ele>
        <time>2015-08-01T14:05:06Z</time>
      </trkpt>
      <trkpt lat="40.196883" lon="-4.856567">
        <ele>716.0</ele>
        <time>2015-08-01T14:05:08Z</time>
      </trkpt>
      <trkpt lat="40.196717" lon="-4.856550">
        <ele>710.0</ele>
        <time>2015-08-01T14:05:10Z</time>
      </trkpt>
      <trkpt lat="40.196550" lon="-4.856533">
        <ele>703.0</ele>
        <time>2015-08-01T14:05:12Z</time>
      </trkpt>
      <trkpt lat="40.196383" lon="-4.856517">
        <ele>698.0</ele>
        <time>2015-08-01T14:05:14Z</time>
      </trkpt>
      <trkpt lat="40.196233" lon="-4.856500">
        <ele>694.0</ele>
        <time>2015-08-01T14:05:16Z</time>
      </trkpt>
      <trkpt lat="40.196067" lon="-4.856483">
        <ele>689.0</ele>
        <time>2015-08-01T14:05:18Z</time>
      </trkpt>
      <trkpt lat="40.195900" lon="-4.856483">
        <ele>684.0</ele>
        <time>2015-08-01T14:05:20Z</time>
      </trkpt>
      <trkpt lat="40.195750" lon="-4.856450">
        <ele>678.0</ele>
        <time>2015-08-01T14:05:22Z</time>
      </trkpt>
      <trkpt lat="40.195600" lon="-4.856417">
        <ele>672.0</ele>
        <time>2015-08-01T14:05:24Z</time>
      </trkpt>
      <trkpt lat="40.195433" lon="-4.856383">
        <ele>667.0</ele>
        <time>2015-08-01T14:05:26Z</time>
      </trkpt>
      <trkpt lat="40.195283" lon="-4.856400">
        <ele>665.0</ele>
        <time>2015-08-01T14:05:28Z</time>
      </trkpt>
      <trkpt lat="40.195133" lon="-4.856450">
        <ele>662.0</ele>
        <time>2015-08-01T14:05:30Z</time>
      </trkpt>
      <trkpt lat="40.194983" lon="-4.856517">
        <ele>660.0</ele>
        <time>2015-08-01T14:05:32Z</time>
      </trkpt>
      <trkpt lat="40.194817" lon="-4.856583">
        <ele>656.0</ele>
        <time>2015-08-01T14:05:34Z</time>
      </trkpt>
      <trkpt lat="40.194600" lon="-4.856683">
        <ele>651.0</ele>
        <time>2015-08-01T14:05:36Z</time>
      </trkpt>
      <trkpt lat="40.194383" lon="-4.856767">
        <ele>652.0</ele>
        <time>2015-08-01T14:05:38Z</time>
      </trkpt>
      <trkpt lat="40.194200" lon="-4.856833">
        <ele>653.0</ele>
        <time>2015-08-01T14:05:40Z</time>
      </trkpt>
      <trkpt lat="40.194050" lon="-4.856967">
        <ele>654.0</ele>
        <time>2015-08-01T14:05:42Z</time>
      </trkpt>
      <trkpt lat="40.193933" lon="-4.857133">
        <ele>657.0</ele>
        <time>2015-08-01T14:05:44Z</time>
      </trkpt>
      <trkpt lat="40.193800" lon="-4.857267">
        <ele>660.0</ele>
        <time>2015-08-01T14:05:46Z</time>
      </trkpt>
      <trkpt lat="40.193650" lon="-4.857300">
        <ele>659.0</ele>
        <time>2015-08-01T14:05:48Z</time>
      </trkpt>
      <trkpt lat="40.193467" lon="-4.857283">
        <ele>655.0</ele>
        <time>2015-08-01T14:05:50Z</time>
      </trkpt>
      <trkpt lat="40.193283" lon="-4.857133">
        <ele>652.0</ele>
        <time>2015-08-01T14:05:52Z</time>
      </trkpt>
      <trkpt lat="40.193200" lon="-4.856900">
        <ele>647.0</ele>
        <time>2015-08-01T14:05:54Z</time>
      </trkpt>
      <trkpt lat="40.193200" lon="-4.856683">
        <ele>642.0</ele>
        <time>2015-08-01T14:05:56Z</time>
      </trkpt>
      <trkpt lat="40.193267" lon="-4.856483">
        <ele>634.0</ele>
        <time>2015-08-01T14:05:58Z</time>
      </trkpt>
      <trkpt lat="40.193433" lon="-4.856433">
        <ele>626.0</ele>
        <time>2015-08-01T14:06:00Z</time>
      </trkpt>
      <trkpt lat="40.193583" lon="-4.856550">
        <ele>624.0</ele>
        <time>2015-08-01T14:06:02Z</time>
      </trkpt>
      <trkpt lat="40.193683" lon="-4.856667">
        <ele>625.0</ele>
        <time>2015-08-01T14:06:04Z</time>
      </trkpt>
      <trkpt lat="40.193767" lon="-4.856800">
        <ele>625.0</ele>
        <time>2015-08-01T14:06:06Z</time>
      </trkpt>
      <trkpt lat="40.193817" lon="-4.856983">
        <ele>625.0</ele>
        <time>2015-08-01T14:06:08Z</time>
      </trkpt>
      <trkpt lat="40.193867" lon="-4.857167">
        <ele>628.0</ele>
        <time>2015-08-01T14:06:10Z</time>
      </trkpt>
      <trkpt lat="40.193933" lon="-4.857317">
        <ele>630.0</ele>
        <time>2015-08-01T14:06:12Z</time>
      </trkpt>
      <trkpt lat="40.194083" lon="-4.857400">
        <ele>632.0</ele>
        <time>2015-08-01T14:06:14Z</time>
      </trkpt>
      <trkpt lat="40.194250" lon="-4.857317">
        <ele>636.0</ele>
        <time>2015-08-01T14:06:16Z</time>
      </trkpt>
      <trkpt lat="40.194333" lon="-4.857117">
        <ele>641.0</ele>
        <time>2015-08-01T14:06:18Z</time>
      </trkpt>
      <trkpt lat="40.194333" lon="-4.856883">
        <ele>643.0</ele>
        <time>2015-08-01T14:06:20Z</time>
      </trkpt>
      <trkpt lat="40.194233" lon="-4.856667">
        <ele>645.0</ele>
        <time>2015-08-01T14:06:22Z</time>
      </trkpt>
      <trkpt lat="40.194050" lon="-4.856517">
        <ele>646.0</ele>
        <time>2015-08-01T14:06:24Z</time>
      </trkpt>
      <trkpt lat="40.193867" lon="-4.856517">
        <ele>649.0</ele>
        <time>2015-08-01T14:06:26Z</time>
      </trkpt>
      <trkpt lat="40.193717" lon="-4.856600">
        <ele>650.0</ele>
        <time>2015-08-01T14:06:28Z</time>
      </trkpt>
      <trkpt lat="40.193600" lon="-4.856750">
        <ele>653.0</ele>
        <time>2015-08-01T14:06:30Z</time>
      </trkpt>
      <trkpt lat="40.193600" lon="-4.856933">
        <ele>656.0</ele>
        <time>2015-08-01T14:06:32Z</time>
      </trkpt>
      <trkpt lat="40.193650" lon="-4.857083">
        <ele>660.0</ele>
        <time>2015-08-01T14:06:34Z</time>
      </trkpt>
      <trkpt lat="40.193783" lon="-4.857217">
        <ele>664.0</ele>
        <time>2015-08-01T14:06:36Z</time>
      </trkpt>
      <trkpt lat="40.193933" lon="-4.857217">
        <ele>670.0</ele>
        <time>2015-08-01T14:06:38Z</time>
      </trkpt>
      <trkpt lat="40.194067" lon="-4.857067">
        <ele>675.0</ele>
        <time>2015-08-01T14:06:40Z</time>
      </trkpt>
      <trkpt lat="40.194117" lon="-4.856833">
        <ele>680.0</ele>
        <time>2015-08-01T14:06:42Z</time>
      </trkpt>
      <trkpt lat="40.194050" lon="-4.856600">
        <ele>683.0</ele>
        <time>2015-08-01T14:06:44Z</time>
      </trkpt>
      <trkpt lat="40.193900" lon="-4.856433">
        <ele>687.0</ele>
        <time>2015-08-01T14:06:46Z</time>
      </trkpt>
      <trkpt lat="40.193717" lon="-4.856383">
        <ele>689.0</ele>
        <time>2015-08-01T14:06:48Z</time>
      </trkpt>
      <trkpt lat="40.193567" lon="-4.856433">
        <ele>691.0</ele>
        <time>2015-08-01T14:06:50Z</time>
      </trkpt>
      <trkpt lat="40.193433" lon="-4.856567">
        <ele>694.0</ele>
        <time>2015-08-01T14:06:52Z</time>
      </trkpt>
      <trkpt lat="40.193367" lon="-4.856733">
        <ele>696.0</ele>
        <time>2015-08-01T14:06:54Z</time>
      </trkpt>
      <trkpt lat="40.193417" lon="-4.856917">
        <ele>696.0</ele>
        <time>2015-08-01T14:06:56Z</time>
      </trkpt>
      <trkpt lat="40.193567" lon="-4.857000">
        <ele>698.0</ele>
        <time>2015-08-01T14:06:58Z</time>
      </trkpt>
      <trkpt lat="40.193733" lon="-4.856983">
        <ele>707.0</ele>
        <time>2015-08-01T14:07:00Z</time>
      </trkpt>
      <trkpt lat="40.193833" lon="-4.856950">
        <ele>711.0</ele>
        <time>2015-08-01T14:07:02Z</time>
      </trkpt>
      <trkpt lat="40.193983" lon="-4.856850">
        <ele>712.0</ele>
        <time>2015-08-01T14:07:04Z</time>
      </trkpt>
      <trkpt lat="40.194050" lon="-4.856583">
        <ele>715.0</ele>
        <time>2015-08-01T14:07:06Z</time>
      </trkpt>
      <trkpt lat="40.194000" lon="-4.856350">
        <ele>721.0</ele>
        <time>2015-08-01T14:07:08Z</time>
      </trkpt>
      <trkpt lat="40.193867" lon="-4.856200">
        <ele>725.0</ele>
        <time>2015-08-01T14:07:10Z</time>
      </trkpt>
      <trkpt lat="40.193717" lon="-4.856117">
        <ele>726.0</ele>
        <time>2015-08-01T14:07:12Z</time>
      </trkpt>
      <trkpt lat="40.193550" lon="-4.856150">
        <ele>727.0</ele>
        <time>2015-08-01T14:07:14Z</time>
      </trkpt>
      <trkpt lat="40.193383" lon="-4.856250">
        <ele>729.0</ele>
        <time>2015-08-01T14:07:16Z</time>
      </trkpt>
      <trkpt lat="40.193267" lon="-4.856400">
        <ele>735.0</ele>
        <time>2015-08-01T14:07:18Z</time>
      </trkpt>
      <trkpt lat="40.193250" lon="-4.856550">
        <ele>737.0</ele>
        <time>2015-08-01T14:07:20Z</time>
      </trkpt>
      <trkpt lat="40.193300" lon="-4.856717">
        <ele>739.0</ele>
        <time>2015-08-01T14:07:22Z</time>
      </trkpt>
      <trkpt lat="40.193433" lon="-4.856817">
        <ele>740.0</ele>
        <time>2015-08-01T14:07:24Z</time>
      </trkpt>
      <trkpt lat="40.193583" lon="-4.856750">
        <ele>744.0</ele>
        <time>2015-08-01T14:07:26Z</time>
      </trkpt>
      <trkpt lat="40.193683" lon="-4.856600">
        <ele>749.0</ele>
        <time>2015-08-01T14:07:28Z</time>
      </trkpt>
      <trkpt lat="40.193733" lon="-4.856400">
        <ele>751.0</ele>
        <time>2015-08-01T14:07:30Z</time>
      </trkpt>
      <trkpt lat="40.193683" lon="-4.856150">
        <ele>754.0</ele>
        <time>2015-08-01T14:07:32Z</time>
      </trkpt>
      <trkpt lat="40.193550" lon="-4.855967">
        <ele>757.0</ele>
        <time>2015-08-01T14:07:34Z</time>
      </trkpt>
      <trkpt lat="40.193367" lon="-4.855883">
        <ele>760.0</ele>
        <time>2015-08-01T14:07:36Z</time>
      </trkpt>
      <trkpt lat="40.193183" lon="-4.855933">
        <ele>761.0</ele>
        <time>2015-08-01T14:07:38Z</time>
      </trkpt>
      <trkpt lat="40.193067" lon="-4.856067">
        <ele>764.0</ele>
        <time>2015-08-01T14:07:40Z</time>
      </trkpt>
      <trkpt lat="40.193050" lon="-4.856233">
        <ele>765.0</ele>
        <time>2015-08-01T14:07:42Z</time>
      </trkpt>
      <trkpt lat="40.193117" lon="-4.856400">
        <ele>765.0</ele>
        <time>2015-08-01T14:07:44Z</time>
      </trkpt>
      <trkpt lat="40.193250" lon="-4.856500">
        <ele>766.0</ele>
        <time>2015-08-01T14:07:46Z</time>
      </trkpt>
      <trkpt lat="40.193417" lon="-4.856500">
        <ele>768.0</ele>
        <time>2015-08-01T14:07:48Z</time>
      </trkpt>
      <trkpt lat="40.193567" lon="-4.856367">
        <ele>773.0</ele>
        <time>2015-08-01T14:07:50Z</time>
      </trkpt>
      <trkpt lat="40.193617" lon="-4.856183">
        <ele>778.0</ele>
        <time>2015-08-01T14:07:52Z</time>
      </trkpt>
      <trkpt lat="40.193617" lon="-4.855950">
        <ele>781.0</ele>
        <time>2015-08-01T14:07:54Z</time>
      </trkpt>
      <trkpt lat="40.193517" lon="-4.855717">
        <ele>783.0</ele>
        <time>2015-08-01T14:07:56Z</time>
      </trkpt>
      <trkpt lat="40.193333" lon="-4.855667">
        <ele>783.0</ele>
        <time>2015-08-01T14:07:58Z</time>
      </trkpt>
      <trkpt lat="40.193150" lon="-4.855733">
        <ele>788.0</ele>
        <time>2015-08-01T14:08:00Z</time>
      </trkpt>
      <trkpt lat="40.193067" lon="-4.855833">
        <ele>792.0</ele>
        <time>2015-08-01T14:08:02Z</time>
      </trkpt>
      <trkpt lat="40.193000" lon="-4.855983">
        <ele>790.0</ele>
        <time>2015-08-01T14:08:04Z</time>
      </trkpt>
      <trkpt lat="40.193000" lon="-4.856200">
        <ele>788.0</ele>
        <time>2015-08-01T14:08:06Z</time>
      </trkpt>
      <trkpt lat="40.193100" lon="-4.856400">
        <ele>788.0</ele>
        <time>2015-08-01T14:08:08Z</time>
      </trkpt>
      <trkpt lat="40.193233" lon="-4.856533">
        <ele>790.0</ele>
        <time>2015-08-01T14:08:10Z</time>
      </trkpt>
      <trkpt lat="40.193400" lon="-4.856567">
        <ele>792.0</ele>
        <time>2015-08-01T14:08:12Z</time>
      </trkpt>
      <trkpt lat="40.193567" lon="-4.856533">
        <ele>795.0</ele>
        <time>2015-08-01T14:08:14Z</time>
      </trkpt>
      <trkpt lat="40.193667" lon="-4.856417">
        <ele>797.0</ele>
        <time>2015-08-01T14:08:16Z</time>
      </trkpt>
      <trkpt lat="40.193717" lon="-4.856200">
        <ele>797.0</ele>
        <time>2015-08-01T14:08:18Z</time>
      </trkpt>
      <trkpt lat="40.193650" lon="-4.855967">
        <ele>799.0</ele>
        <time>2015-08-01T14:08:20Z</time>
      </trkpt>
      <trkpt lat="40.193500" lon="-4.855833">
        <ele>803.0</ele>
        <time>2015-08-01T14:08:22Z</time>
      </trkpt>
      <trkpt lat="40.193350" lon="-4.855800">
        <ele>808.0</ele>
        <time>2015-08-01T14:08:24Z</time>
      </trkpt>
      <trkpt lat="40.193233" lon="-4.855883">
        <ele>811.0</ele>
        <time>2015-08-01T14:08:26Z</time>
      </trkpt>
      <trkpt lat="40.193150" lon="-4.856067">
        <ele>813.0</ele>
        <time>2015-08-01T14:08:28Z</time>
      </trkpt>
      <trkpt lat="40.193183" lon="-4.856267">
        <ele>812.0</ele>
        <time>2015-08-01T14:08:30Z</time>
      </trkpt>
      <trkpt lat="40.193350" lon="-4.856417">
        <ele>812.0</ele>
        <time>2015-08-01T14:08:32Z</time>
      </trkpt>
      <trkpt lat="40.193500" lon="-4.856433">
        <ele>816.0</ele>
        <time>2015-08-01T14:08:34Z</time>
      </trkpt>
      <trkpt lat="40.193633" lon="-4.856400">
        <ele>818.0</ele>
        <time>2015-08-01T14:08:36Z</time>
      </trkpt>
      <trkpt lat="40.193767" lon="-4.856250">
        <ele>818.0</ele>
        <time>2015-08-01T14:08:38Z</time>
      </trkpt>
      <trkpt lat="40.193817" lon="-4.856017">
        <ele>819.0</ele>
        <time>2015-08-01T14:08:40Z</time>
      </trkpt>
      <trkpt lat="40.193767" lon="-4.855800">
        <ele>821.0</ele>
        <time>2015-08-01T14:08:42Z</time>
      </trkpt>
      <trkpt lat="40.193683" lon="-4.855617">
        <ele>826.0</ele>
        <time>2015-08-01T14:08:44Z</time>
      </trkpt>
      <trkpt lat="40.193550" lon="-4.855533">
        <ele>828.0</ele>
        <time>2015-08-01T14:08:46Z</time>
      </trkpt>
      <trkpt lat="40.193367" lon="-4.855550">
        <ele>831.0</ele>
        <time>2015-08-01T14:08:48Z</time>
      </trkpt>
      <trkpt lat="40.193250" lon="-4.855667">
        <ele>835.0</ele>
        <time>2015-08-01T14:08:50Z</time>
      </trkpt>
      <trkpt lat="40.193217" lon="-4.855867">
        <ele>834.0</ele>
        <time>2015-08-01T14:08:52Z</time>
      </trkpt>
      <trkpt lat="40.193267" lon="-4.856100">
        <ele>834.0</ele>
        <time>2015-08-01T14:08:54Z</time>
      </trkpt>
      <trkpt lat="40.193433" lon="-4.856200">
        <ele>832.0</ele>
        <time>2015-08-01T14:08:56Z</time>
      </trkpt>
      <trkpt lat="40.193633" lon="-4.856167">
        <ele>833.0</ele>
        <time>2015-08-01T14:08:58Z</time>
      </trkpt>
      <trkpt lat="40.193783" lon="-4.856033">
        <ele>835.0</ele>
        <time>2015-08-01T14:09:00Z</time>
      </trkpt>
      <trkpt lat="40.193850" lon="-4.855833">
        <ele>836.0</ele>
        <time>2015-08-01T14:09:02Z</time>
      </trkpt>
      <trkpt lat="40.193850" lon="-4.855600">
        <ele>835.0</ele>
        <time>2015-08-01T14:09:04Z</time>
      </trkpt>
      <trkpt lat="40.193717" lon="-4.855400">
        <ele>836.0</ele>
        <time>2015-08-01T14:09:06Z</time>
      </trkpt>
      <trkpt lat="40.193567" lon="-4.855333">
        <ele>841.0</ele>
        <time>2015-08-01T14:09:08Z</time>
      </trkpt>
      <trkpt lat="40.193450" lon="-4.855300">
        <ele>844.0</ele>
        <time>2015-08-01T14:09:10Z</time>
      </trkpt>
      <trkpt lat="40.193317" lon="-4.855300">
        <ele>844.0</ele>
        <time>2015-08-01T14:09:12Z</time>
      </trkpt>
      <trkpt lat="40.193217" lon="-4.855400">
        <ele>838.0</ele>
        <time>2015-08-01T14:09:14Z</time>
      </trkpt>
      <trkpt lat="40.193183" lon="-4.855567">
        <ele>830.0</ele>
        <time>2015-08-01T14:09:16Z</time>
      </trkpt>
      <trkpt lat="40.193117" lon="-4.855733">
        <ele>826.0</ele>
        <time>2015-08-01T14:09:18Z</time>
      </trkpt>
      <trkpt lat="40.193117" lon="-4.855867">
        <ele>819.0</ele>
        <time>2015-08-01T14:09:20Z</time>
      </trkpt>
      <trkpt lat="40.193233" lon="-4.856033">
        <ele>811.0</ele>
        <time>2015-08-01T14:09:22Z</time>
      </trkpt>
      <trkpt lat="40.193333" lon="-4.856200">
        <ele>809.0</ele>
        <time>2015-08-01T14:09:24Z</time>
      </trkpt>
      <trkpt lat="40.193467" lon="-4.856333">
        <ele>811.0</ele>
        <time>2015-08-01T14:09:26Z</time>
      </trkpt>
      <trkpt lat="40.193617" lon="-4.856433">
        <ele>811.0</ele>
        <time>2015-08-01T14:09:28Z</time>
      </trkpt>
      <trkpt lat="40.193750" lon="-4.856517">
        <ele>810.0</ele>
        <time>2015-08-01T14:09:30Z</time>
      </trkpt>
      <trkpt lat="40.193917" lon="-4.856567">
        <ele>805.0</ele>
        <time>2015-08-01T14:09:32Z</time>
      </trkpt>
      <trkpt lat="40.194117" lon="-4.856500">
        <ele>800.0</ele>
        <time>2015-08-01T14:09:34Z</time>
      </trkpt>
      <trkpt lat="40.194283" lon="-4.856367">
        <ele>799.0</ele>
        <time>2015-08-01T14:09:36Z</time>
      </trkpt>
      <trkpt lat="40.194433" lon="-4.856183">
        <ele>798.0</ele>
        <time>2015-08-01T14:09:38Z</time>
      </trkpt>
      <trkpt lat="40.194400" lon="-4.855933">
        <ele>797.0</ele>
        <time>2015-08-01T14:09:40Z</time>
      </trkpt>
      <trkpt lat="40.194300" lon="-4.855767">
        <ele>801.0</ele>
        <time>2015-08-01T14:09:42Z</time>
      </trkpt>
      <trkpt lat="40.194200" lon="-4.855700">
        <ele>800.0</ele>
        <time>2015-08-01T14:09:44Z</time>
      </trkpt>
      <trkpt lat="40.194033" lon="-4.855633">
        <ele>797.0</ele>
        <time>2015-08-01T14:09:46Z</time>
      </trkpt>
      <trkpt lat="40.193850" lon="-4.855633">
        <ele>798.0</ele>
        <time>2015-08-01T14:09:48Z</time>
      </trkpt>
      <trkpt lat="40.193700" lon="-4.855683">
        <ele>799.0</ele>
        <time>2015-08-01T14:09:50Z</time>
      </trkpt>
      <trkpt lat="40.193583" lon="-4.855750">
        <ele>794.0</ele>
        <time>2015-08-01T14:09:52Z</time>
      </trkpt>
      <trkpt lat="40.193450" lon="-4.855883">
        <ele>787.0</ele>
        <time>2015-08-01T14:09:54Z</time>
      </trkpt>
      <trkpt lat="40.193367" lon="-4.856067">
        <ele>780.0</ele>
        <time>2015-08-01T14:09:56Z</time>
      </trkpt>
      <trkpt lat="40.193367" lon="-4.856317">
        <ele>775.0</ele>
        <time>2015-08-01T14:09:58Z</time>
      </trkpt>
      <trkpt lat="40.193300" lon="-4.856583">
        <ele>775.0</ele>
        <time>2015-08-01T14:10:00Z</time>
      </trkpt>
      <trkpt lat="40.193233" lon="-4.856783">
        <ele>779.0</ele>
        <time>2015-08-01T14:10:02Z</time>
      </trkpt>
      <trkpt lat="40.193233" lon="-4.856967">
        <ele>776.0</ele>
        <time>2015-08-01T14:10:04Z</time>
      </trkpt>
      <trkpt lat="40.193317" lon="-4.857133">
        <ele>769.0</ele>
        <time>2015-08-01T14:10:06Z</time>
      </trkpt>
      <trkpt lat="40.193483" lon="-4.857250">
        <ele>761.0</ele>
        <time>2015-08-01T14:10:08Z</time>
      </trkpt>
      <trkpt lat="40.193667" lon="-4.857350">
        <ele>755.0</ele>
        <time>2015-08-01T14:10:10Z</time>
      </trkpt>
      <trkpt lat="40.193800" lon="-4.857500">
        <ele>749.0</ele>
        <time>2015-08-01T14:10:12Z</time>
      </trkpt>
      <trkpt lat="40.193850" lon="-4.857717">
        <ele>742.0</ele>
        <time>2015-08-01T14:10:14Z</time>
      </trkpt>
      <trkpt lat="40.193783" lon="-4.857900">
        <ele>736.0</ele>
        <time>2015-08-01T14:10:16Z</time>
      </trkpt>
      <trkpt lat="40.193683" lon="-4.858000">
        <ele>731.0</ele>
        <time>2015-08-01T14:10:18Z</time>
      </trkpt>
      <trkpt lat="40.193533" lon="-4.858017">
        <ele>723.0</ele>
        <time>2015-08-01T14:10:20Z</time>
      </trkpt>
      <trkpt lat="40.193367" lon="-4.858000">
        <ele>717.0</ele>
        <time>2015-08-01T14:10:22Z</time>
      </trkpt>
      <trkpt lat="40.193233" lon="-4.857967">
        <ele>713.0</ele>
        <time>2015-08-01T14:10:24Z</time>
      </trkpt>
      <trkpt lat="40.193067" lon="-4.857917">
        <ele>707.0</ele>
        <time>2015-08-01T14:10:26Z</time>
      </trkpt>
      <trkpt lat="40.192900" lon="-4.857867">
        <ele>704.0</ele>
        <time>2015-08-01T14:10:28Z</time>
      </trkpt>
      <trkpt lat="40.192750" lon="-4.857800">
        <ele>699.0</ele>
        <time>2015-08-01T14:10:30Z</time>
      </trkpt>
      <trkpt lat="40.192600" lon="-4.857733">
        <ele>693.0</ele>
        <time>2015-08-01T14:10:32Z</time>
      </trkpt>
      <trkpt lat="40.192417" lon="-4.857633">
        <ele>688.0</ele>
        <time>2015-08-01T14:10:34Z</time>
      </trkpt>
      <trkpt lat="40.192250" lon="-4.857517">
        <ele>684.0</ele>
        <time>2015-08-01T14:10:36Z</time>
      </trkpt>
      <trkpt lat="40.192083" lon="-4.857400">
        <ele>679.0</ele>
        <time>2015-08-01T14:10:38Z</time>
      </trkpt>
      <trkpt lat="40.191900" lon="-4.857283">
        <ele>673.0</ele>
        <time>2015-08-01T14:10:40Z</time>
      </trkpt>
      <trkpt lat="40.191717" lon="-4.857150">
        <ele>670.0</ele>
        <time>2015-08-01T14:10:42Z</time>
      </trkpt>
      <trkpt lat="40.191533" lon="-4.857033">
        <ele>667.0</ele>
        <time>2015-08-01T14:10:44Z</time>
      </trkpt>
      <trkpt lat="40.191350" lon="-4.856933">
        <ele>664.0</ele>
        <time>2015-08-01T14:10:46Z</time>
      </trkpt>
      <trkpt lat="40.191167" lon="-4.856817">
        <ele>661.0</ele>
        <time>2015-08-01T14:10:48Z</time>
      </trkpt>
      <trkpt lat="40.190967" lon="-4.856700">
        <ele>660.0</ele>
        <time>2015-08-01T14:10:50Z</time>
      </trkpt>
      <trkpt lat="40.190767" lon="-4.856583">
        <ele>662.0</ele>
        <time>2015-08-01T14:10:52Z</time>
      </trkpt>
      <trkpt lat="40.190583" lon="-4.856450">
        <ele>666.0</ele>
        <time>2015-08-01T14:10:54Z</time>
      </trkpt>
      <trkpt lat="40.190417" lon="-4.856367">
        <ele>668.0</ele>
        <time>2015-08-01T14:10:56Z</time>
      </trkpt>
      <trkpt lat="40.190233" lon="-4.856450">
        <ele>668.0</ele>
        <time>2015-08-01T14:10:58Z</time>
      </trkpt>
      <trkpt lat="40.190167" lon="-4.856633">
        <ele>669.0</ele>
        <time>2015-08-01T14:11:00Z</time>
      </trkpt>
      <trkpt lat="40.190133" lon="-4.856800">
        <ele>669.0</ele>
        <time>2015-08-01T14:11:02Z</time>
      </trkpt>
      <trkpt lat="40.190167" lon="-4.857017">
        <ele>667.0</ele>
        <time>2015-08-01T14:11:04Z</time>
      </trkpt>
      <trkpt lat="40.190267" lon="-4.857183">
        <ele>668.0</ele>
        <time>2015-08-01T14:11:06Z</time>
      </trkpt>
      <trkpt lat="40.190367" lon="-4.857250">
        <ele>672.0</ele>
        <time>2015-08-01T14:11:08Z</time>
      </trkpt>
      <trkpt lat="40.190483" lon="-4.857267">
        <ele>671.0</ele>
        <time>2015-08-01T14:11:10Z</time>
      </trkpt>
      <trkpt lat="40.190633" lon="-4.857200">
        <ele>670.0</ele>
        <time>2015-08-01T14:11:12Z</time>
      </trkpt>
      <trkpt lat="40.190683" lon="-4.857017">
        <ele>672.0</ele>
        <time>2015-08-01T14:11:14Z</time>
      </trkpt>
      <trkpt lat="40.190650" lon="-4.856817">
        <ele>674.0</ele>
        <time>2015-08-01T14:11:16Z</time>
      </trkpt>
      <trkpt lat="40.190583" lon="-4.856600">
        <ele>675.0</ele>
        <time>2015-08-01T14:11:18Z</time>
      </trkpt>
      <trkpt lat="40.190467" lon="-4.856400">
        <ele>676.0</ele>
        <time>2015-08-01T14:11:20Z</time>
      </trkpt>
      <trkpt lat="40.190317" lon="-4.856250">
        <ele>680.0</ele>
        <time>2015-08-01T14:11:22Z</time>
      </trkpt>
      <trkpt lat="40.190150" lon="-4.856167">
        <ele>681.0</ele>
        <time>2015-08-01T14:11:24Z</time>
      </trkpt>
      <trkpt lat="40.189967" lon="-4.856167">
        <ele>680.0</ele>
        <time>2015-08-01T14:11:26Z</time>
      </trkpt>
      <trkpt lat="40.189817" lon="-4.856300">
        <ele>678.0</ele>
        <time>2015-08-01T14:11:28Z</time>
      </trkpt>
      <trkpt lat="40.189717" lon="-4.856500">
        <ele>680.0</ele>
        <time>2015-08-01T14:11:30Z</time>
      </trkpt>
      <trkpt lat="40.189683" lon="-4.856683">
        <ele>682.0</ele>
        <time>2015-08-01T14:11:32Z</time>
      </trkpt>
      <trkpt lat="40.189700" lon="-4.856867">
        <ele>681.0</ele>
        <time>2015-08-01T14:11:34Z</time>
      </trkpt>
      <trkpt lat="40.189833" lon="-4.857000">
        <ele>681.0</ele>
        <time>2015-08-01T14:11:36Z</time>
      </trkpt>
      <trkpt lat="40.189967" lon="-4.857033">
        <ele>683.0</ele>
        <time>2015-08-01T14:11:38Z</time>
      </trkpt>
      <trkpt lat="40.190100" lon="-4.856967">
        <ele>683.0</ele>
        <time>2015-08-01T14:11:40Z</time>
      </trkpt>
      <trkpt lat="40.190217" lon="-4.856850">
        <ele>681.0</ele>
        <time>2015-08-01T14:11:42Z</time>
      </trkpt>
      <trkpt lat="40.190267" lon="-4.856650">
        <ele>681.0</ele>
        <time>2015-08-01T14:11:44Z</time>
      </trkpt>
      <trkpt lat="40.190233" lon="-4.856467">
        <ele>681.0</ele>
        <time>2015-08-01T14:11:46Z</time>
      </trkpt>
      <trkpt lat="40.190133" lon="-4.856300">
        <ele>681.0</ele>
        <time>2015-08-01T14:11:48Z</time>
      </trkpt>
      <trkpt lat="40.190033" lon="-4.856167">
        <ele>682.0</ele>
        <time>2015-08-01T14:11:50Z</time>
      </trkpt>
      <trkpt lat="40.189883" lon="-4.856050">
        <ele>681.0</ele>
        <time>2015-08-01T14:11:52Z</time>
      </trkpt>
      <trkpt lat="40.189717" lon="-4.855983">
        <ele>684.0</ele>
        <time>2015-08-01T14:11:54Z</time>
      </trkpt>
      <trkpt lat="40.189583" lon="-4.855933">
        <ele>688.0</ele>
        <time>2015-08-01T14:11:56Z</time>
      </trkpt>
      <trkpt lat="40.189483" lon="-4.855883">
        <ele>690.0</ele>
        <time>2015-08-01T14:11:58Z</time>
      </trkpt>
      <trkpt lat="40.189333" lon="-4.855917">
        <ele>691.0</ele>
        <time>2015-08-01T14:12:00Z</time>
      </trkpt>
      <trkpt lat="40.189250" lon="-4.856033">
        <ele>697.0</ele>
        <time>2015-08-01T14:12:02Z</time>
      </trkpt>
      <trkpt lat="40.189200" lon="-4.856200">
        <ele>698.0</ele>
        <time>2015-08-01T14:12:04Z</time>
      </trkpt>
      <trkpt lat="40.189200" lon="-4.856450">
        <ele>697.0</ele>
        <time>2015-08-01T14:12:06Z</time>
      </trkpt>
      <trkpt lat="40.189333" lon="-4.856633">
        <ele>697.0</ele>
        <time>2015-08-01T14:12:08Z</time>
      </trkpt>
      <trkpt lat="40.189500" lon="-4.856683">
        <ele>700.0</ele>
        <time>2015-08-01T14:12:10Z</time>
      </trkpt>
      <trkpt lat="40.189633" lon="-4.856667">
        <ele>701.0</ele>
        <time>2015-08-01T14:12:12Z</time>
      </trkpt>
      <trkpt lat="40.189767" lon="-4.856550">
        <ele>700.0</ele>
        <time>2015-08-01T14:12:14Z</time>
      </trkpt>
      <trkpt lat="40.189833" lon="-4.856333">
        <ele>700.0</ele>
        <time>2015-08-01T14:12:16Z</time>
      </trkpt>
      <trkpt lat="40.189800" lon="-4.856100">
        <ele>701.0</ele>
        <time>2015-08-01T14:12:18Z</time>
      </trkpt>
      <trkpt lat="40.189733" lon="-4.855917">
        <ele>707.0</ele>
        <time>2015-08-01T14:12:20Z</time>
      </trkpt>
      <trkpt lat="40.189650" lon="-4.855800">
        <ele>714.0</ele>
        <time>2015-08-01T14:12:22Z</time>
      </trkpt>
      <trkpt lat="40.189550" lon="-4.855733">
        <ele>718.0</ele>
        <time>2015-08-01T14:12:24Z</time>
      </trkpt>
      <trkpt lat="40.189433" lon="-4.855783">
        <ele>721.0</ele>
        <time>2015-08-01T14:12:26Z</time>
      </trkpt>
      <trkpt lat="40.189333" lon="-4.855950">
        <ele>725.0</ele>
        <time>2015-08-01T14:12:28Z</time>
      </trkpt>
      <trkpt lat="40.189333" lon="-4.856200">
        <ele>730.0</ele>
        <time>2015-08-01T14:12:30Z</time>
      </trkpt>
      <trkpt lat="40.189433" lon="-4.856400">
        <ele>734.0</ele>
        <time>2015-08-01T14:12:32Z</time>
      </trkpt>
      <trkpt lat="40.189617" lon="-4.856500">
        <ele>735.0</ele>
        <time>2015-08-01T14:12:34Z</time>
      </trkpt>
      <trkpt lat="40.189783" lon="-4.856500">
        <ele>737.0</ele>
        <time>2015-08-01T14:12:36Z</time>
      </trkpt>
      <trkpt lat="40.189933" lon="-4.856400">
        <ele>737.0</ele>
        <time>2015-08-01T14:12:38Z</time>
      </trkpt>
      <trkpt lat="40.190000" lon="-4.856200">
        <ele>737.0</ele>
        <time>2015-08-01T14:12:40Z</time>
      </trkpt>
      <trkpt lat="40.190017" lon="-4.855967">
        <ele>738.0</ele>
        <time>2015-08-01T14:12:42Z</time>
      </trkpt>
      <trkpt lat="40.189950" lon="-4.855733">
        <ele>742.0</ele>
        <time>2015-08-01T14:12:44Z</time>
      </trkpt>
      <trkpt lat="40.189883" lon="-4.855600">
        <ele>751.0</ele>
        <time>2015-08-01T14:12:46Z</time>
      </trkpt>
      <trkpt lat="40.189800" lon="-4.855517">
        <ele>755.0</ele>
        <time>2015-08-01T14:12:48Z</time>
      </trkpt>
      <trkpt lat="40.189650" lon="-4.855500">
        <ele>757.0</ele>
        <time>2015-08-01T14:12:50Z</time>
      </trkpt>
      <trkpt lat="40.189517" lon="-4.855617">
        <ele>760.0</ele>
        <time>2015-08-01T14:12:52Z</time>
      </trkpt>
      <trkpt lat="40.189467" lon="-4.855817">
        <ele>764.0</ele>
        <time>2015-08-01T14:12:54Z</time>
      </trkpt>
      <trkpt lat="40.189483" lon="-4.856050">
        <ele>766.0</ele>
        <time>2015-08-01T14:12:56Z</time>
      </trkpt>
      <trkpt lat="40.189583" lon="-4.856283">
        <ele>769.0</ele>
        <time>2015-08-01T14:12:58Z</time>
      </trkpt>
      <trkpt lat="40.189750" lon="-4.856400">
        <ele>772.0</ele>
        <time>2015-08-01T14:13:00Z</time>
      </trkpt>
      <trkpt lat="40.189933" lon="-4.856400">
        <ele>776.0</ele>
        <time>2015-08-01T14:13:02Z</time>
      </trkpt>
      <trkpt lat="40.190067" lon="-4.856317">
        <ele>778.0</ele>
        <time>2015-08-01T14:13:04Z</time>
      </trkpt>
      <trkpt lat="40.190167" lon="-4.856133">
        <ele>779.0</ele>
        <time>2015-08-01T14:13:06Z</time>
      </trkpt>
      <trkpt lat="40.190150" lon="-4.855900">
        <ele>782.0</ele>
        <time>2015-08-01T14:13:08Z</time>
      </trkpt>
      <trkpt lat="40.190033" lon="-4.855767">
        <ele>786.0</ele>
        <time>2015-08-01T14:13:10Z</time>
      </trkpt>
      <trkpt lat="40.189883" lon="-4.855700">
        <ele>791.0</ele>
        <time>2015-08-01T14:13:12Z</time>
      </trkpt>
      <trkpt lat="40.189750" lon="-4.855717">
        <ele>794.0</ele>
        <time>2015-08-01T14:13:14Z</time>
      </trkpt>
      <trkpt lat="40.189633" lon="-4.855833">
        <ele>796.0</ele>
        <time>2015-08-01T14:13:16Z</time>
      </trkpt>
      <trkpt lat="40.189567" lon="-4.856033">
        <ele>797.0</ele>
        <time>2015-08-01T14:13:18Z</time>
      </trkpt>
      <trkpt lat="40.189600" lon="-4.856283">
        <ele>799.0</ele>
        <time>2015-08-01T14:13:20Z</time>
      </trkpt>
      <trkpt lat="40.189717" lon="-4.856467">
        <ele>802.0</ele>
        <time>2015-08-01T14:13:22Z</time>
      </trkpt>
      <trkpt lat="40.189883" lon="-4.856567">
        <ele>804.0</ele>
        <time>2015-08-01T14:13:24Z</time>
      </trkpt>
      <trkpt lat="40.190067" lon="-4.856550">
        <ele>807.0</ele>
        <time>2015-08-01T14:13:26Z</time>
      </trkpt>
      <trkpt lat="40.190200" lon="-4.856417">
        <ele>808.0</ele>
        <time>2015-08-01T14:13:28Z</time>
      </trkpt>
      <trkpt lat="40.190283" lon="-4.856233">
        <ele>811.0</ele>
        <time>2015-08-01T14:13:30Z</time>
      </trkpt>
      <trkpt lat="40.190250" lon="-4.856033">
        <ele>814.0</ele>
        <time>2015-08-01T14:13:32Z</time>
      </trkpt>
      <trkpt lat="40.190133" lon="-4.855917">
        <ele>817.0</ele>
        <time>2015-08-01T14:13:34Z</time>
      </trkpt>
      <trkpt lat="40.190000" lon="-4.855883">
        <ele>819.0</ele>
        <time>2015-08-01T14:13:36Z</time>
      </trkpt>
      <trkpt lat="40.189833" lon="-4.855933">
        <ele>821.0</ele>
        <time>2015-08-01T14:13:38Z</time>
      </trkpt>
      <trkpt lat="40.189700" lon="-4.856050">
        <ele>823.0</ele>
        <time>2015-08-01T14:13:40Z</time>
      </trkpt>
      <trkpt lat="40.189617" lon="-4.856217">
        <ele>824.0</ele>
        <time>2015-08-01T14:13:42Z</time>
      </trkpt>
      <trkpt lat="40.189600" lon="-4.856450">
        <ele>823.0</ele>
        <time>2015-08-01T14:13:44Z</time>
      </trkpt>
      <trkpt lat="40.189683" lon="-4.856700">
        <ele>824.0</ele>
        <time>2015-08-01T14:13:46Z</time>
      </trkpt>
      <trkpt lat="40.189850" lon="-4.856867">
        <ele>825.0</ele>
        <time>2015-08-01T14:13:48Z</time>
      </trkpt>
      <trkpt lat="40.190050" lon="-4.856933">
        <ele>827.0</ele>
        <time>2015-08-01T14:13:50Z</time>
      </trkpt>
      <trkpt lat="40.190233" lon="-4.856883">
        <ele>830.0</ele>
        <time>2015-08-01T14:13:52Z</time>
      </trkpt>
      <trkpt lat="40.190350" lon="-4.856733">
        <ele>832.0</ele>
        <time>2015-08-01T14:13:54Z</time>
      </trkpt>
      <trkpt lat="40.190433" lon="-4.856550">
        <ele>836.0</ele>
        <time>2015-08-01T14:13:56Z</time>
      </trkpt>
      <trkpt lat="40.190433" lon="-4.856367">
        <ele>840.0</ele>
        <time>2015-08-01T14:13:58Z</time>
      </trkpt>
      <trkpt lat="40.190350" lon="-4.856217">
        <ele>843.0</ele>
        <time>2015-08-01T14:14:00Z</time>
      </trkpt>
      <trkpt lat="40.190200" lon="-4.856133">
        <ele>847.0</ele>
        <time>2015-08-01T14:14:02Z</time>
      </trkpt>
      <trkpt lat="40.190067" lon="-4.856133">
        <ele>851.0</ele>
        <time>2015-08-01T14:14:04Z</time>
      </trkpt>
      <trkpt lat="40.189950" lon="-4.856233">
        <ele>852.0</ele>
        <time>2015-08-01T14:14:06Z</time>
      </trkpt>
      <trkpt lat="40.189833" lon="-4.856433">
        <ele>853.0</ele>
        <time>2015-08-01T14:14:08Z</time>
      </trkpt>
      <trkpt lat="40.189817" lon="-4.856700">
        <ele>857.0</ele>
        <time>2015-08-01T14:14:10Z</time>
      </trkpt>
      <trkpt lat="40.189917" lon="-4.856917">
        <ele>860.0</ele>
        <time>2015-08-01T14:14:12Z</time>
      </trkpt>
      <trkpt lat="40.190067" lon="-4.857067">
        <ele>861.0</ele>
        <time>2015-08-01T14:14:14Z</time>
      </trkpt>
      <trkpt lat="40.190250" lon="-4.857133">
        <ele>863.0</ele>
        <time>2015-08-01T14:14:16Z</time>
      </trkpt>
      <trkpt lat="40.190417" lon="-4.857050">
        <ele>867.0</ele>
        <time>2015-08-01T14:14:18Z</time>
      </trkpt>
      <trkpt lat="40.190517" lon="-4.856900">
        <ele>872.0</ele>
        <time>2015-08-01T14:14:20Z</time>
      </trkpt>
      <trkpt lat="40.190517" lon="-4.856717">
        <ele>877.0</ele>
        <time>2015-08-01T14:14:22Z</time>
      </trkpt>
      <trkpt lat="40.190433" lon="-4.856567">
        <ele>881.0</ele>
        <time>2015-08-01T14:14:24Z</time>
      </trkpt>
      <trkpt lat="40.190300" lon="-4.856533">
        <ele>886.0</ele>
        <time>2015-08-01T14:14:26Z</time>
      </trkpt>
      <trkpt lat="40.190167" lon="-4.856600">
        <ele>889.0</ele>
        <time>2015-08-01T14:14:28Z</time>
      </trkpt>
      <trkpt lat="40.190050" lon="-4.856750">
        <ele>892.0</ele>
        <time>2015-08-01T14:14:30Z</time>
      </trkpt>
      <trkpt lat="40.190000" lon="-4.857000">
        <ele>897.0</ele>
        <time>2015-08-01T14:14:32Z</time>
      </trkpt>
      <trkpt lat="40.190083" lon="-4.857233">
        <ele>900.0</ele>
        <time>2015-08-01T14:14:34Z</time>
      </trkpt>
      <trkpt lat="40.190217" lon="-4.857383">
        <ele>903.0</ele>
        <time>2015-08-01T14:14:36Z</time>
      </trkpt>
      <trkpt lat="40.190400" lon="-4.857467">
        <ele>905.0</ele>
        <time>2015-08-01T14:14:38Z</time>
      </trkpt>
      <trkpt lat="40.190583" lon="-4.857450">
        <ele>909.0</ele>
        <time>2015-08-01T14:14:40Z</time>
      </trkpt>
      <trkpt lat="40.190700" lon="-4.857300">
        <ele>912.0</ele>
        <time>2015-08-01T14:14:42Z</time>
      </trkpt>
      <trkpt lat="40.190717" lon="-4.857083">
        <ele>912.0</ele>
        <time>2015-08-01T14:14:44Z</time>
      </trkpt>
      <trkpt lat="40.190667" lon="-4.856833">
        <ele>914.0</ele>
        <time>2015-08-01T14:14:46Z</time>
      </trkpt>
      <trkpt lat="40.190550" lon="-4.856667">
        <ele>921.0</ele>
        <time>2015-08-01T14:14:48Z</time>
      </trkpt>
      <trkpt lat="40.190417" lon="-4.856617">
        <ele>928.0</ele>
        <time>2015-08-01T14:14:50Z</time>
      </trkpt>
      <trkpt lat="40.190283" lon="-4.856633">
        <ele>933.0</ele>
        <time>2015-08-01T14:14:52Z</time>
      </trkpt>
      <trkpt lat="40.190133" lon="-4.856783">
        <ele>937.0</ele>
        <time>2015-08-01T14:14:54Z</time>
      </trkpt>
      <trkpt lat="40.190083" lon="-4.857033">
        <ele>943.0</ele>
        <time>2015-08-01T14:14:56Z</time>
      </trkpt>
      <trkpt lat="40.190100" lon="-4.857250">
        <ele>948.0</ele>
        <time>2015-08-01T14:14:58Z</time>
      </trkpt>
      <trkpt lat="40.190217" lon="-4.857433">
        <ele>951.0</ele>
        <time>2015-08-01T14:15:00Z</time>
      </trkpt>
      <trkpt lat="40.190417" lon="-4.857500">
        <ele>954.0</ele>
        <time>2015-08-01T14:15:02Z</time>
      </trkpt>
      <trkpt lat="40.190567" lon="-4.857417">
        <ele>958.0</ele>
        <time>2015-08-01T14:15:04Z</time>
      </trkpt>
      <trkpt lat="40.190617" lon="-4.857200">
        <ele>963.0</ele>
        <time>2015-08-01T14:15:06Z</time>
      </trkpt>
      <trkpt lat="40.190533" lon="-4.857000">
        <ele>968.0</ele>
        <time>2015-08-01T14:15:08Z</time>
      </trkpt>
      <trkpt lat="40.190417" lon="-4.856900">
        <ele>975.0</ele>
        <time>2015-08-01T14:15:10Z</time>
      </trkpt>
      <trkpt lat="40.190267" lon="-4.856900">
        <ele>981.0</ele>
        <time>2015-08-01T14:15:12Z</time>
      </trkpt>
      <trkpt lat="40.190117" lon="-4.857000">
        <ele>989.0</ele>
        <time>2015-08-01T14:15:14Z</time>
      </trkpt>
      <trkpt lat="40.190050" lon="-4.857167">
        <ele>992.0</ele>
        <time>2015-08-01T14:15:16Z</time>
      </trkpt>
      <trkpt lat="40.190083" lon="-4.857383">
        <ele>990.0</ele>
        <time>2015-08-01T14:15:18Z</time>
      </trkpt>
      <trkpt lat="40.190250" lon="-4.857550">
        <ele>990.0</ele>
        <time>2015-08-01T14:15:20Z</time>
      </trkpt>
      <trkpt lat="40.190433" lon="-4.857583">
        <ele>997.0</ele>
        <time>2015-08-01T14:15:22Z</time>
      </trkpt>
      <trkpt lat="40.190600" lon="-4.857583">
        <ele>1004.0</ele>
        <time>2015-08-01T14:15:24Z</time>
      </trkpt>
      <trkpt lat="40.190700" lon="-4.857450">
        <ele>1006.0</ele>
        <time>2015-08-01T14:15:26Z</time>
      </trkpt>
      <trkpt lat="40.190717" lon="-4.857217">
        <ele>1007.0</ele>
        <time>2015-08-01T14:15:28Z</time>
      </trkpt>
      <trkpt lat="40.190617" lon="-4.857017">
        <ele>1008.0</ele>
        <time>2015-08-01T14:15:30Z</time>
      </trkpt>
      <trkpt lat="40.190450" lon="-4.856867">
        <ele>1014.0</ele>
        <time>2015-08-01T14:15:32Z</time>
      </trkpt>
      <trkpt lat="40.190283" lon="-4.856817">
        <ele>1023.0</ele>
        <time>2015-08-01T14:15:34Z</time>
      </trkpt>
      <trkpt lat="40.190133" lon="-4.856850">
        <ele>1030.0</ele>
        <time>2015-08-01T14:15:36Z</time>
      </trkpt>
      <trkpt lat="40.190000" lon="-4.856950">
        <ele>1033.0</ele>
        <time>2015-08-01T14:15:38Z</time>
      </trkpt>
      <trkpt lat="40.189933" lon="-4.857150">
        <ele>1031.0</ele>
        <time>2015-08-01T14:15:40Z</time>
      </trkpt>
      <trkpt lat="40.189983" lon="-4.857383">
        <ele>1031.0</ele>
        <time>2015-08-01T14:15:42Z</time>
      </trkpt>
      <trkpt lat="40.190133" lon="-4.857517">
        <ele>1031.0</ele>
        <time>2015-08-01T14:15:44Z</time>
      </trkpt>
      <trkpt lat="40.190317" lon="-4.857533">
        <ele>1032.0</ele>
        <time>2015-08-01T14:15:46Z</time>
      </trkpt>
      <trkpt lat="40.190450" lon="-4.857417">
        <ele>1036.0</ele>
        <time>2015-08-01T14:15:48Z</time>
      </trkpt>
      <trkpt lat="40.190467" lon="-4.857217">
        <ele>1041.0</ele>
        <time>2015-08-01T14:15:50Z</time>
      </trkpt>
      <trkpt lat="40.190383" lon="-4.857033">
        <ele>1047.0</ele>
        <time>2015-08-01T14:15:52Z</time>
      </trkpt>
      <trkpt lat="40.190250" lon="-4.856950">
        <ele>1053.0</ele>
        <time>2015-08-01T14:15:54Z</time>
      </trkpt>
      <trkpt lat="40.190100" lon="-4.856917">
        <ele>1058.0</ele>
        <time>2015-08-01T14:15:56Z</time>
      </trkpt>
      <trkpt lat="40.189917" lon="-4.856917">
        <ele>1060.0</ele>
        <time>2015-08-01T14:15:58Z</time>
      </trkpt>
      <trkpt lat="40.189767" lon="-4.857050">
        <ele>1060.0</ele>
        <time>2015-08-01T14:16:00Z</time>
      </trkpt>
      <trkpt lat="40.189733" lon="-4.857283">
        <ele>1063.0</ele>
        <time>2015-08-01T14:16:02Z</time>
      </trkpt>
      <trkpt lat="40.189800" lon="-4.857450">
        <ele>1066.0</ele>
        <time>2015-08-01T14:16:04Z</time>
      </trkpt>
      <trkpt lat="40.189917" lon="-4.857567">
        <ele>1067.0</ele>
        <time>2015-08-01T14:16:06Z</time>
      </trkpt>
      <trkpt lat="40.190083" lon="-4.857600">
        <ele>1068.0</ele>
        <time>2015-08-01T14:16:08Z</time>
      </trkpt>
      <trkpt lat="40.190233" lon="-4.857483">
        <ele>1069.0</ele>
        <time>2015-08-01T14:16:10Z</time>
      </trkpt>
      <trkpt lat="40.190317" lon="-4.857283">
        <ele>1072.0</ele>
        <time>2015-08-01T14:16:12Z</time>
      </trkpt>
      <trkpt lat="40.190333" lon="-4.857083">
        <ele>1079.0</ele>
        <time>2015-08-01T14:16:14Z</time>
      </trkpt>
      <trkpt lat="40.190300" lon="-4.856900">
        <ele>1084.0</ele>
        <time>2015-08-01T14:16:16Z</time>
      </trkpt>
      <trkpt lat="40.190183" lon="-4.856767">
        <ele>1088.0</ele>
        <time>2015-08-01T14:16:18Z</time>
      </trkpt>
      <trkpt lat="40.190017" lon="-4.856767">
        <ele>1095.0</ele>
        <time>2015-08-01T14:16:20Z</time>
      </trkpt>
      <trkpt lat="40.189917" lon="-4.856883">
        <ele>1100.0</ele>
        <time>2015-08-01T14:16:22Z</time>
      </trkpt>
      <trkpt lat="40.189867" lon="-4.857067">
        <ele>1102.0</ele>
        <time>2015-08-01T14:16:24Z</time>
      </trkpt>
      <trkpt lat="40.189917" lon="-4.857300">
        <ele>1105.0</ele>
        <time>2015-08-01T14:16:26Z</time>
      </trkpt>
      <trkpt lat="40.190050" lon="-4.857450">
        <ele>1110.0</ele>
        <time>2015-08-01T14:16:28Z</time>
      </trkpt>
      <trkpt lat="40.190183" lon="-4.857450">
        <ele>1116.0</ele>
        <time>2015-08-01T14:16:30Z</time>
      </trkpt>
      <trkpt lat="40.190350" lon="-4.857383">
        <ele>1118.0</ele>
        <time>2015-08-01T14:16:32Z</time>
      </trkpt>
      <trkpt lat="40.190467" lon="-4.857183">
        <ele>1122.0</ele>
        <time>2015-08-01T14:16:34Z</time>
      </trkpt>
      <trkpt lat="40.190467" lon="-4.856950">
        <ele>1130.0</ele>
        <time>2015-08-01T14:16:36Z</time>
      </trkpt>
      <trkpt lat="40.190417" lon="-4.856767">
        <ele>1137.0</ele>
        <time>2015-08-01T14:16:38Z</time>
      </trkpt>
      <trkpt lat="40.190267" lon="-4.856633">
        <ele>1141.0</ele>
        <time>2015-08-01T14:16:40Z</time>
      </trkpt>
      <trkpt lat="40.190067" lon="-4.856633">
        <ele>1146.0</ele>
        <time>2015-08-01T14:16:42Z</time>
      </trkpt>
      <trkpt lat="40.189917" lon="-4.856767">
        <ele>1155.0</ele>
        <time>2015-08-01T14:16:44Z</time>
      </trkpt>
      <trkpt lat="40.189850" lon="-4.856950">
        <ele>1163.0</ele>
        <time>2015-08-01T14:16:46Z</time>
      </trkpt>
      <trkpt lat="40.189883" lon="-4.857150">
        <ele>1166.0</ele>
        <time>2015-08-01T14:16:48Z</time>
      </trkpt>
      <trkpt lat="40.189983" lon="-4.857350">
        <ele>1171.0</ele>
        <time>2015-08-01T14:16:50Z</time>
      </trkpt>
      <trkpt lat="40.190150" lon="-4.857383">
        <ele>1177.0</ele>
        <time>2015-08-01T14:16:52Z</time>
      </trkpt>
      <trkpt lat="40.190300" lon="-4.857267">
        <ele>1182.0</ele>
        <time>2015-08-01T14:16:54Z</time>
      </trkpt>
      <trkpt lat="40.190350" lon="-4.857033">
        <ele>1187.0</ele>
        <time>2015-08-01T14:16:56Z</time>
      </trkpt>
      <trkpt lat="40.190283" lon="-4.856783">
        <ele>1192.0</ele>
        <time>2015-08-01T14:16:58Z</time>
      </trkpt>
      <trkpt lat="40.190133" lon="-4.856650">
        <ele>1198.0</ele>
        <time>2015-08-01T14:17:00Z</time>
      </trkpt>
      <trkpt lat="40.189950" lon="-4.856583">
        <ele>1205.0</ele>
        <time>2015-08-01T14:17:02Z</time>
      </trkpt>
      <trkpt lat="40.189767" lon="-4.856567">
        <ele>1211.0</ele>
        <time>2015-08-01T14:17:04Z</time>
      </trkpt>
      <trkpt lat="40.189617" lon="-4.856733">
        <ele>1215.0</ele>
        <time>2015-08-01T14:17:06Z</time>
      </trkpt>
      <trkpt lat="40.189550" lon="-4.856983">
        <ele>1222.0</ele>
        <time>2015-08-01T14:17:08Z</time>
      </trkpt>
      <trkpt lat="40.189600" lon="-4.857200">
        <ele>1231.0</ele>
        <time>2015-08-01T14:17:10Z</time>
      </trkpt>
      <trkpt lat="40.189733" lon="-4.857300">
        <ele>1237.0</ele>
        <time>2015-08-01T14:17:12Z</time>
      </trkpt>
      <trkpt lat="40.189883" lon="-4.857283">
        <ele>1243.0</ele>
        <time>2015-08-01T14:17:14Z</time>
      </trkpt>
      <trkpt lat="40.190000" lon="-4.857083">
        <ele>1248.0</ele>
        <time>2015-08-01T14:17:16Z</time>
      </trkpt>
      <trkpt lat="40.189983" lon="-4.856850">
        <ele>1257.0</ele>
        <time>2015-08-01T14:17:18Z</time>
      </trkpt>
      <trkpt lat="40.189917" lon="-4.856667">
        <ele>1263.0</ele>
        <time>2015-08-01T14:17:20Z</time>
      </trkpt>
      <trkpt lat="40.189767" lon="-4.856500">
        <ele>1267.0</ele>
        <time>2015-08-01T14:17:22Z</time>
      </trkpt>
      <trkpt lat="40.189550" lon="-4.856467">
        <ele>1272.0</ele>
        <time>2015-08-01T14:17:24Z</time>
      </trkpt>
      <trkpt lat="40.189367" lon="-4.856583">
        <ele>1279.0</ele>
        <time>2015-08-01T14:17:26Z</time>
      </trkpt>
      <trkpt lat="40.189283" lon="-4.856783">
        <ele>1286.0</ele>
        <time>2015-08-01T14:17:28Z</time>
      </trkpt>
      <trkpt lat="40.189233" lon="-4.857000">
        <ele>1293.0</ele>
        <time>2015-08-01T14:17:30Z</time>
      </trkpt>
      <trkpt lat="40.189333" lon="-4.857183">
        <ele>1298.0</ele>
        <time>2015-08-01T14:17:32Z</time>
      </trkpt>
      <trkpt lat="40.189483" lon="-4.857217">
        <ele>1304.0</ele>
        <time>2015-08-01T14:17:34Z</time>
      </trkpt>
      <trkpt lat="40.189617" lon="-4.857100">
        <ele>1310.0</ele>
        <time>2015-08-01T14:17:36Z</time>
      </trkpt>
      <trkpt lat="40.189667" lon="-4.856900">
        <ele>1316.0</ele>
        <time>2015-08-01T14:17:38Z</time>
      </trkpt>
      <trkpt lat="40.189617" lon="-4.856667">
        <ele>1321.0</ele>
        <time>2015-08-01T14:17:40Z</time>
      </trkpt>
      <trkpt lat="40.189500" lon="-4.856467">
        <ele>1326.0</ele>
        <time>2015-08-01T14:17:42Z</time>
      </trkpt>
      <trkpt lat="40.189333" lon="-4.856333">
        <ele>1330.0</ele>
        <time>2015-08-01T14:17:44Z</time>
      </trkpt>
      <trkpt lat="40.189117" lon="-4.856367">
        <ele>1332.0</ele>
        <time>2015-08-01T14:17:46Z</time>
      </trkpt>
      <trkpt lat="40.188950" lon="-4.856483">
        <ele>1338.0</ele>
        <time>2015-08-01T14:17:48Z</time>
      </trkpt>
      <trkpt lat="40.188900" lon="-4.856567">
        <ele>1340.0</ele>
        <time>2015-08-01T14:17:49Z</time>
      </trkpt>
      <trkpt lat="40.188850" lon="-4.856800">
        <ele>1342.0</ele>
        <time>2015-08-01T14:17:51Z</time>
      </trkpt>
      <trkpt lat="40.188883" lon="-4.857050">
        <ele>1345.0</ele>
        <time>2015-08-01T14:17:53Z</time>
      </trkpt>
      <trkpt lat="40.189000" lon="-4.857200">
        <ele>1349.0</ele>
        <time>2015-08-01T14:17:55Z</time>
      </trkpt>
      <trkpt lat="40.189150" lon="-4.857200">
        <ele>1353.0</ele>
        <time>2015-08-01T14:17:57Z</time>
      </trkpt>
      <trkpt lat="40.189250" lon="-4.857033">
        <ele>1358.0</ele>
        <time>2015-08-01T14:17:59Z</time>
      </trkpt>
      <trkpt lat="40.189250" lon="-4.856800">
        <ele>1363.0</ele>
        <time>2015-08-01T14:18:01Z</time>
      </trkpt>
      <trkpt lat="40.189183" lon="-4.856583">
        <ele>1368.0</ele>
        <time>2015-08-01T14:18:03Z</time>
      </trkpt>
      <trkpt lat="40.189050" lon="-4.856450">
        <ele>1369.0</ele>
        <time>2015-08-01T14:18:05Z</time>
      </trkpt>
      <trkpt lat="40.188850" lon="-4.856417">
        <ele>1370.0</ele>
        <time>2015-08-01T14:18:07Z</time>
      </trkpt>
      <trkpt lat="40.188667" lon="-4.856533">
        <ele>1370.0</ele>
        <time>2015-08-01T14:18:09Z</time>
      </trkpt>
      <trkpt lat="40.188533" lon="-4.856733">
        <ele>1372.0</ele>
        <time>2015-08-01T14:18:11Z</time>
      </trkpt>
      <trkpt lat="40.188517" lon="-4.856967">
        <ele>1374.0</ele>
        <time>2015-08-01T14:18:13Z</time>
      </trkpt>
      <trkpt lat="40.188583" lon="-4.857117">
        <ele>1377.0</ele>
        <time>2015-08-01T14:18:15Z</time>
      </trkpt>
      <trkpt lat="40.188717" lon="-4.857183">
        <ele>1376.0</ele>
        <time>2015-08-01T14:18:17Z</time>
      </trkpt>
      <trkpt lat="40.188867" lon="-4.857150">
        <ele>1376.0</ele>
        <time>2015-08-01T14:18:19Z</time>
      </trkpt>
      <trkpt lat="40.188983" lon="-4.857000">
        <ele>1377.0</ele>
        <time>2015-08-01T14:18:21Z</time>
      </trkpt>
      <trkpt lat="40.189033" lon="-4.856767">
        <ele>1378.0</ele>
        <time>2015-08-01T14:18:23Z</time>
      </trkpt>
      <trkpt lat="40.189017" lon="-4.856550">
        <ele>1382.0</ele>
        <time>2015-08-01T14:18:25Z</time>
      </trkpt>
      <trkpt lat="40.188983" lon="-4.856350">
        <ele>1380.0</ele>
        <time>2015-08-01T14:18:27Z</time>
      </trkpt>
      <trkpt lat="40.188833" lon="-4.856150">
        <ele>1376.0</ele>
        <time>2015-08-01T14:18:29Z</time>
      </trkpt>
      <trkpt lat="40.188617" lon="-4.856067">
        <ele>1373.0</ele>
        <time>2015-08-01T14:18:31Z</time>
      </trkpt>
      <trkpt lat="40.188400" lon="-4.856083">
        <ele>1372.0</ele>
        <time>2015-08-01T14:18:33Z</time>
      </trkpt>
      <trkpt lat="40.188233" lon="-4.856167">
        <ele>1372.0</ele>
        <time>2015-08-01T14:18:35Z</time>
      </trkpt>
      <trkpt lat="40.188067" lon="-4.856283">
        <ele>1369.0</ele>
        <time>2015-08-01T14:18:37Z</time>
      </trkpt>
      <trkpt lat="40.187967" lon="-4.856483">
        <ele>1366.0</ele>
        <time>2015-08-01T14:18:39Z</time>
      </trkpt>
      <trkpt lat="40.187933" lon="-4.856683">
        <ele>1362.0</ele>
        <time>2015-08-01T14:18:41Z</time>
      </trkpt>
      <trkpt lat="40.187933" lon="-4.856900">
        <ele>1357.0</ele>
        <time>2015-08-01T14:18:43Z</time>
      </trkpt>
      <trkpt lat="40.188033" lon="-4.857100">
        <ele>1351.0</ele>
        <time>2015-08-01T14:18:45Z</time>
      </trkpt>
      <trkpt lat="40.188233" lon="-4.857167">
        <ele>1347.0</ele>
        <time>2015-08-01T14:18:47Z</time>
      </trkpt>
      <trkpt lat="40.188417" lon="-4.857083">
        <ele>1343.0</ele>
        <time>2015-08-01T14:18:49Z</time>
      </trkpt>
      <trkpt lat="40.188533" lon="-4.856833">
        <ele>1337.0</ele>
        <time>2015-08-01T14:18:51Z</time>
      </trkpt>
      <trkpt lat="40.188500" lon="-4.856550">
        <ele>1333.0</ele>
        <time>2015-08-01T14:18:53Z</time>
      </trkpt>
      <trkpt lat="40.188400" lon="-4.856350">
        <ele>1331.0</ele>
        <time>2015-08-01T14:18:55Z</time>
      </trkpt>
      <trkpt lat="40.188300" lon="-4.856133">
        <ele>1325.0</ele>
        <time>2015-08-01T14:18:57Z</time>
      </trkpt>
      <trkpt lat="40.188150" lon="-4.855917">
        <ele>1320.0</ele>
        <time>2015-08-01T14:18:59Z</time>
      </trkpt>
      <trkpt lat="40.188000" lon="-4.855783">
        <ele>1318.0</ele>
        <time>2015-08-01T14:19:01Z</time>
      </trkpt>
      <trkpt lat="40.187867" lon="-4.855617">
        <ele>1313.0</ele>
        <time>2015-08-01T14:19:03Z</time>
      </trkpt>
      <trkpt lat="40.187700" lon="-4.855417">
        <ele>1306.0</ele>
        <time>2015-08-01T14:19:05Z</time>
      </trkpt>
      <trkpt lat="40.187567" lon="-4.855250">
        <ele>1302.0</ele>
        <time>2015-08-01T14:19:07Z</time>
      </trkpt>
      <trkpt lat="40.187450" lon="-4.855083">
        <ele>1294.0</ele>
        <time>2015-08-01T14:19:09Z</time>
      </trkpt>
      <trkpt lat="40.187317" lon="-4.854900">
        <ele>1283.0</ele>
        <time>2015-08-01T14:19:11Z</time>
      </trkpt>
      <trkpt lat="40.187167" lon="-4.854700">
        <ele>1275.0</ele>
        <time>2015-08-01T14:19:13Z</time>
      </trkpt>
      <trkpt lat="40.187033" lon="-4.854517">
        <ele>1270.0</ele>
        <time>2015-08-01T14:19:15Z</time>
      </trkpt>
      <trkpt lat="40.186883" lon="-4.854367">
        <ele>1261.0</ele>
        <time>2015-08-01T14:19:17Z</time>
      </trkpt>
      <trkpt lat="40.186717" lon="-4.854217">
        <ele>1252.0</ele>
        <time>2015-08-01T14:19:19Z</time>
      </trkpt>
      <trkpt lat="40.186567" lon="-4.854083">
        <ele>1246.0</ele>
        <time>2015-08-01T14:19:21Z</time>
      </trkpt>
      <trkpt lat="40.186417" lon="-4.853933">
        <ele>1237.0</ele>
        <time>2015-08-01T14:19:23Z</time>
      </trkpt>
      <trkpt lat="40.186267" lon="-4.853767">
        <ele>1229.0</ele>
        <time>2015-08-01T14:19:25Z</time>
      </trkpt>
      <trkpt lat="40.186100" lon="-4.853617">
        <ele>1223.0</ele>
        <time>2015-08-01T14:19:27Z</time>
      </trkpt>
      <trkpt lat="40.185967" lon="-4.853467">
        <ele>1217.0</ele>
        <time>2015-08-01T14:19:29Z</time>
      </trkpt>
      <trkpt lat="40.185833" lon="-4.853300">
        <ele>1210.0</ele>
        <time>2015-08-01T14:19:31Z</time>
      </trkpt>
      <trkpt lat="40.185700" lon="-4.853150">
        <ele>1200.0</ele>
        <time>2015-08-01T14:19:33Z</time>
      </trkpt>
      <trkpt lat="40.185583" lon="-4.852983">
        <ele>1190.0</ele>
        <time>2015-08-01T14:19:35Z</time>
      </trkpt>
      <trkpt lat="40.185450" lon="-4.852817">
        <ele>1180.0</ele>
        <time>2015-08-01T14:19:37Z</time>
      </trkpt>
      <trkpt lat="40.185333" lon="-4.852650">
        <ele>1172.0</ele>
        <time>2015-08-01T14:19:39Z</time>
      </trkpt>
      <trkpt lat="40.185217" lon="-4.852500">
        <ele>1162.0</ele>
        <time>2015-08-01T14:19:41Z</time>
      </trkpt>
      <trkpt lat="40.185083" lon="-4.852350">
        <ele>1152.0</ele>
        <time>2015-08-01T14:19:43Z</time>
      </trkpt>
      <trkpt lat="40.184967" lon="-4.852200">
        <ele>1145.0</ele>
        <time>2015-08-01T14:19:45Z</time>
      </trkpt>
      <trkpt lat="40.184833" lon="-4.852067">
        <ele>1136.0</ele>
        <time>2015-08-01T14:19:47Z</time>
      </trkpt>
      <trkpt lat="40.184717" lon="-4.851917">
        <ele>1127.0</ele>
        <time>2015-08-01T14:19:49Z</time>
      </trkpt>
      <trkpt lat="40.184583" lon="-4.851783">
        <ele>1119.0</ele>
        <time>2015-08-01T14:19:51Z</time>
      </trkpt>
      <trkpt lat="40.184433" lon="-4.851683">
        <ele>1112.0</ele>
        <time>2015-08-01T14:19:53Z</time>
      </trkpt>
      <trkpt lat="40.184300" lon="-4.851600">
        <ele>1105.0</ele>
        <time>2015-08-01T14:19:55Z</time>
      </trkpt>
      <trkpt lat="40.184150" lon="-4.851517">
        <ele>1097.0</ele>
        <time>2015-08-01T14:19:57Z</time>
      </trkpt>
      <trkpt lat="40.184017" lon="-4.851400">
        <ele>1091.0</ele>
        <time>2015-08-01T14:19:59Z</time>
      </trkpt>
      <trkpt lat="40.183900" lon="-4.851300">
        <ele>1084.0</ele>
        <time>2015-08-01T14:20:01Z</time>
      </trkpt>
      <trkpt lat="40.183767" lon="-4.851183">
        <ele>1076.0</ele>
        <time>2015-08-01T14:20:03Z</time>
      </trkpt>
      <trkpt lat="40.183650" lon="-4.851033">
        <ele>1067.0</ele>
        <time>2015-08-01T14:20:05Z</time>
      </trkpt>
      <trkpt lat="40.183550" lon="-4.850883">
        <ele>1059.0</ele>
        <time>2015-08-01T14:20:07Z</time>
      </trkpt>
      <trkpt lat="40.183450" lon="-4.850683">
        <ele>1050.0</ele>
        <time>2015-08-01T14:20:09Z</time>
      </trkpt>
      <trkpt lat="40.183383" lon="-4.850467">
        <ele>1042.0</ele>
        <time>2015-08-01T14:20:11Z</time>
      </trkpt>
      <trkpt lat="40.183333" lon="-4.850217">
        <ele>1036.0</ele>
        <time>2015-08-01T14:20:13Z</time>
      </trkpt>
      <trkpt lat="40.183300" lon="-4.849983">
        <ele>1030.0</ele>
        <time>2015-08-01T14:20:15Z</time>
      </trkpt>
      <trkpt lat="40.183267" lon="-4.849767">
        <ele>1024.0</ele>
        <time>2015-08-01T14:20:17Z</time>
      </trkpt>
      <trkpt lat="40.183250" lon="-4.849533">
        <ele>1019.0</ele>
        <time>2015-08-01T14:20:19Z</time>
      </trkpt>
      <trkpt lat="40.183183" lon="-4.849350">
        <ele>1015.0</ele>
        <time>2015-08-01T14:20:21Z</time>
      </trkpt>
      <trkpt lat="40.183083" lon="-4.849233">
        <ele>1009.0</ele>
        <time>2015-08-01T14:20:23Z</time>
      </trkpt>
      <trkpt lat="40.182983" lon="-4.849117">
        <ele>1002.0</ele>
        <time>2015-08-01T14:20:25Z</time>
      </trkpt>
      <trkpt lat="40.182900" lon="-4.848967">
        <ele>996.0</ele>
        <time>2015-08-01T14:20:27Z</time>
      </trkpt>
      <trkpt lat="40.182817" lon="-4.848850">
        <ele>988.0</ele>
        <time>2015-08-01T14:20:29Z</time>
      </trkpt>
      <trkpt lat="40.182700" lon="-4.848700">
        <ele>981.0</ele>
        <time>2015-08-01T14:20:31Z</time>
      </trkpt>
      <trkpt lat="40.182567" lon="-4.848583">
        <ele>977.0</ele>
        <time>2015-08-01T14:20:33Z</time>
      </trkpt>
      <trkpt lat="40.182467" lon="-4.848450">
        <ele>973.0</ele>
        <time>2015-08-01T14:20:35Z</time>
      </trkpt>
      <trkpt lat="40.182350" lon="-4.848300">
        <ele>969.0</ele>
        <time>2015-08-01T14:20:37Z</time>
      </trkpt>
      <trkpt lat="40.182250" lon="-4.848183">
        <ele>967.0</ele>
        <time>2015-08-01T14:20:39Z</time>
      </trkpt>
      <trkpt lat="40.182133" lon="-4.848100">
        <ele>963.0</ele>
        <time>2015-08-01T14:20:41Z</time>
      </trkpt>
      <trkpt lat="40.181983" lon="-4.848017">
        <ele>958.0</ele>
        <time>2015-08-01T14:20:43Z</time>
      </trkpt>
      <trkpt lat="40.181833" lon="-4.847933">
        <ele>955.0</ele>
        <time>2015-08-01T14:20:45Z</time>
      </trkpt>
      <trkpt lat="40.181717" lon="-4.847833">
        <ele>951.0</ele>
        <time>2015-08-01T14:20:47Z</time>
      </trkpt>
      <trkpt lat="40.181600" lon="-4.847700">
        <ele>946.0</ele>
        <time>2015-08-01T14:20:49Z</time>
      </trkpt>
      <trkpt lat="40.181533" lon="-4.847500">
        <ele>939.0</ele>
        <time>2015-08-01T14:20:51Z</time>
      </trkpt>
      <trkpt lat="40.181550" lon="-4.847250">
        <ele>932.0</ele>
        <time>2015-08-01T14:20:53Z</time>
      </trkpt>
      <trkpt lat="40.181583" lon="-4.846983">
        <ele>929.0</ele>
        <time>2015-08-01T14:20:55Z</time>
      </trkpt>
      <trkpt lat="40.181650" lon="-4.846733">
        <ele>924.0</ele>
        <time>2015-08-01T14:20:57Z</time>
      </trkpt>
      <trkpt lat="40.181750" lon="-4.846467">
        <ele>918.0</ele>
        <time>2015-08-01T14:20:59Z</time>
      </trkpt>
      <trkpt lat="40.181867" lon="-4.846200">
        <ele>913.0</ele>
        <time>2015-08-01T14:21:01Z</time>
      </trkpt>
      <trkpt lat="40.182000" lon="-4.845950">
        <ele>909.0</ele>
        <time>2015-08-01T14:21:03Z</time>
      </trkpt>
      <trkpt lat="40.182100" lon="-4.845717">
        <ele>904.0</ele>
        <time>2015-08-01T14:21:05Z</time>
      </trkpt>
      <trkpt lat="40.182233" lon="-4.845450">
        <ele>900.0</ele>
        <time>2015-08-01T14:21:07Z</time>
      </trkpt>
      <trkpt lat="40.182350" lon="-4.845217">
        <ele>897.0</ele>
        <time>2015-08-01T14:21:09Z</time>
      </trkpt>
      <trkpt lat="40.182467" lon="-4.845033">
        <ele>894.0</ele>
        <time>2015-08-01T14:21:11Z</time>
      </trkpt>
      <trkpt lat="40.182600" lon="-4.844867">
        <ele>887.0</ele>
        <time>2015-08-01T14:21:13Z</time>
      </trkpt>
      <trkpt lat="40.182767" lon="-4.844667">
        <ele>879.0</ele>
        <time>2015-08-01T14:21:15Z</time>
      </trkpt>
      <trkpt lat="40.182917" lon="-4.844467">
        <ele>874.0</ele>
        <time>2015-08-01T14:21:17Z</time>
      </trkpt>
      <trkpt lat="40.183050" lon="-4.844283">
        <ele>868.0</ele>
        <time>2015-08-01T14:21:19Z</time>
      </trkpt>
      <trkpt lat="40.183200" lon="-4.844100">
        <ele>860.0</ele>
        <time>2015-08-01T14:21:21Z</time>
      </trkpt>
      <trkpt lat="40.183367" lon="-4.843900">
        <ele>853.0</ele>
        <time>2015-08-01T14:21:23Z</time>
      </trkpt>
      <trkpt lat="40.183517" lon="-4.843733">
        <ele>847.0</ele>
        <time>2015-08-01T14:21:25Z</time>
      </trkpt>
      <trkpt lat="40.183667" lon="-4.843583">
        <ele>840.0</ele>
        <time>2015-08-01T14:21:27Z</time>
      </trkpt>
      <trkpt lat="40.183833" lon="-4.843400">
        <ele>835.0</ele>
        <time>2015-08-01T14:21:29Z</time>
      </trkpt>
      <trkpt lat="40.184000" lon="-4.843233">
        <ele>830.0</ele>
        <time>2015-08-01T14:21:31Z</time>
      </trkpt>
      <trkpt lat="40.184150" lon="-4.843067">
        <ele>825.0</ele>
        <time>2015-08-01T14:21:33Z</time>
      </trkpt>
      <trkpt lat="40.184317" lon="-4.842900">
        <ele>820.0</ele>
        <time>2015-08-01T14:21:35Z</time>
      </trkpt>
      <trkpt lat="40.184500" lon="-4.842717">
        <ele>816.0</ele>
        <time>2015-08-01T14:21:37Z</time>
      </trkpt>
      <trkpt lat="40.184650" lon="-4.842533">
        <ele>813.0</ele>
        <time>2015-08-01T14:21:39Z</time>
      </trkpt>
      <trkpt lat="40.184800" lon="-4.842383">
        <ele>809.0</ele>
        <time>2015-08-01T14:21:41Z</time>
      </trkpt>
      <trkpt lat="40.184967" lon="-4.842233">
        <ele>803.0</ele>
        <time>2015-08-01T14:21:43Z</time>
      </trkpt>
      <trkpt lat="40.185133" lon="-4.842067">
        <ele>798.0</ele>
        <time>2015-08-01T14:21:45Z</time>
      </trkpt>
      <trkpt lat="40.185300" lon="-4.841900">
        <ele>793.0</ele>
        <time>2015-08-01T14:21:47Z</time>
      </trkpt>
      <trkpt lat="40.185467" lon="-4.841750">
        <ele>787.0</ele>
        <time>2015-08-01T14:21:49Z</time>
      </trkpt>
      <trkpt lat="40.185633" lon="-4.841600">
        <ele>782.0</ele>
        <time>2015-08-01T14:21:51Z</time>
      </trkpt>
      <trkpt lat="40.185783" lon="-4.841450">
        <ele>777.0</ele>
        <time>2015-08-01T14:21:53Z</time>
      </trkpt>
      <trkpt lat="40.185967" lon="-4.841300">
        <ele>772.0</ele>
        <time>2015-08-01T14:21:55Z</time>
      </trkpt>
      <trkpt lat="40.186133" lon="-4.841150">
        <ele>767.0</ele>
        <time>2015-08-01T14:21:57Z</time>
      </trkpt>
      <trkpt lat="40.186300" lon="-4.840983">
        <ele>763.0</ele>
        <time>2015-08-01T14:21:59Z</time>
      </trkpt>
      <trkpt lat="40.186433" lon="-4.840833">
        <ele>760.0</ele>
        <time>2015-08-01T14:22:01Z</time>
      </trkpt>
      <trkpt lat="40.186550" lon="-4.840700">
        <ele>754.0</ele>
        <time>2015-08-01T14:22:03Z</time>
      </trkpt>
      <trkpt lat="40.186700" lon="-4.840567">
        <ele>750.0</ele>
        <time>2015-08-01T14:22:05Z</time>
      </trkpt>
      <trkpt lat="40.186850" lon="-4.840467">
        <ele>750.0</ele>
        <time>2015-08-01T14:22:07Z</time>
      </trkpt>
      <trkpt lat="40.187000" lon="-4.840417">
        <ele>752.0</ele>
        <time>2015-08-01T14:22:09Z</time>
      </trkpt>
      <trkpt lat="40.187150" lon="-4.840433">
        <ele>752.0</ele>
        <time>2015-08-01T14:22:11Z</time>
      </trkpt>
      <trkpt lat="40.187300" lon="-4.840517">
        <ele>749.0</ele>
        <time>2015-08-01T14:22:13Z</time>
      </trkpt>
      <trkpt lat="40.187433" lon="-4.840650">
        <ele>743.0</ele>
        <time>2015-08-01T14:22:15Z</time>
      </trkpt>
      <trkpt lat="40.187650" lon="-4.840717">
        <ele>734.0</ele>
        <time>2015-08-01T14:22:17Z</time>
      </trkpt>
      <trkpt lat="40.187867" lon="-4.840700">
        <ele>730.0</ele>
        <time>2015-08-01T14:22:19Z</time>
      </trkpt>
      <trkpt lat="40.188050" lon="-4.840633">
        <ele>724.0</ele>
        <time>2015-08-01T14:22:21Z</time>
      </trkpt>
      <trkpt lat="40.188267" lon="-4.840517">
        <ele>716.0</ele>
        <time>2015-08-01T14:22:23Z</time>
      </trkpt>
      <trkpt lat="40.188500" lon="-4.840400">
        <ele>710.0</ele>
        <time>2015-08-01T14:22:25Z</time>
      </trkpt>
      <trkpt lat="40.188683" lon="-4.840250">
        <ele>705.0</ele>
        <time>2015-08-01T14:22:27Z</time>
      </trkpt>
      <trkpt lat="40.188883" lon="-4.840083">
        <ele>699.0</ele>
        <time>2015-08-01T14:22:29Z</time>
      </trkpt>
      <trkpt lat="40.189083" lon="-4.839917">
        <ele>693.0</ele>
        <time>2015-08-01T14:22:31Z</time>
      </trkpt>
      <trkpt lat="40.189267" lon="-4.839750">
        <ele>688.0</ele>
        <time>2015-08-01T14:22:33Z</time>
      </trkpt>
      <trkpt lat="40.189450" lon="-4.839600">
        <ele>683.0</ele>
        <time>2015-08-01T14:22:35Z</time>
      </trkpt>
      <trkpt lat="40.189650" lon="-4.839450">
        <ele>677.0</ele>
        <time>2015-08-01T14:22:37Z</time>
      </trkpt>
      <trkpt lat="40.189833" lon="-4.839283">
        <ele>672.0</ele>
        <time>2015-08-01T14:22:39Z</time>
      </trkpt>
      <trkpt lat="40.190017" lon="-4.839133">
        <ele>666.0</ele>
        <time>2015-08-01T14:22:41Z</time>
      </trkpt>
      <trkpt lat="40.190200" lon="-4.839000">
        <ele>660.0</ele>
        <time>2015-08-01T14:22:43Z</time>
      </trkpt>
      <trkpt lat="40.190383" lon="-4.838833">
        <ele>653.0</ele>
        <time>2015-08-01T14:22:45Z</time>
      </trkpt>
      <trkpt lat="40.190583" lon="-4.838683">
        <ele>647.0</ele>
        <time>2015-08-01T14:22:47Z</time>
      </trkpt>
      <trkpt lat="40.190767" lon="-4.838533">
        <ele>641.0</ele>
        <time>2015-08-01T14:22:49Z</time>
      </trkpt>
      <trkpt lat="40.190933" lon="-4.838350">
        <ele>633.0</ele>
        <time>2015-08-01T14:22:51Z</time>
      </trkpt>
      <trkpt lat="40.191100" lon="-4.838183">
        <ele>626.0</ele>
        <time>2015-08-01T14:22:53Z</time>
      </trkpt>
      <trkpt lat="40.191267" lon="-4.838017">
        <ele>618.0</ele>
        <time>2015-08-01T14:22:55Z</time>
      </trkpt>
      <trkpt lat="40.191450" lon="-4.837850">
        <ele>610.0</ele>
        <time>2015-08-01T14:22:57Z</time>
      </trkpt>
      <trkpt lat="40.191617" lon="-4.837700">
        <ele>602.0</ele>
        <time>2015-08-01T14:22:59Z</time>
      </trkpt>
      <trkpt lat="40.191783" lon="-4.837550">
        <ele>592.0</ele>
        <time>2015-08-01T14:23:01Z</time>
      </trkpt>
      <trkpt lat="40.191967" lon="-4.837367">
        <ele>583.0</ele>
        <time>2015-08-01T14:23:03Z</time>
      </trkpt>
      <trkpt lat="40.192167" lon="-4.837200">
        <ele>576.0</ele>
        <time>2015-08-01T14:23:05Z</time>
      </trkpt>
      <trkpt lat="40.192350" lon="-4.837067">
        <ele>570.0</ele>
        <time>2015-08-01T14:23:07Z</time>
      </trkpt>
      <trkpt lat="40.192550" lon="-4.836933">
        <ele>564.0</ele>
        <time>2015-08-01T14:23:09Z</time>
      </trkpt>
      <trkpt lat="40.192750" lon="-4.836817">
        <ele>558.0</ele>
        <time>2015-08-01T14:23:11Z</time>
      </trkpt>
      <trkpt lat="40.192933" lon="-4.836683">
        <ele>551.0</ele>
        <time>2015-08-01T14:23:13Z</time>
      </trkpt>
      <trkpt lat="40.193167" lon="-4.836550">
        <ele>543.0</ele>
        <time>2015-08-01T14:23:15Z</time>
      </trkpt>
      <trkpt lat="40.193383" lon="-4.836417">
        <ele>539.0</ele>
        <time>2015-08-01T14:23:17Z</time>
      </trkpt>
      <trkpt lat="40.193550" lon="-4.836300">
        <ele>533.0</ele>
        <time>2015-08-01T14:23:19Z</time>
      </trkpt>
      <trkpt lat="40.193750" lon="-4.836133">
        <ele>524.0</ele>
        <time>2015-08-01T14:23:21Z</time>
      </trkpt>
      <trkpt lat="40.193967" lon="-4.835950">
        <ele>519.0</ele>
        <time>2015-08-01T14:23:23Z</time>
      </trkpt>
      <trkpt lat="40.194150" lon="-4.835800">
        <ele>515.0</ele>
        <time>2015-08-01T14:23:25Z</time>
      </trkpt>
      <trkpt lat="40.194350" lon="-4.835617">
        <ele>507.0</ele>
        <time>2015-08-01T14:23:27Z</time>
      </trkpt>
      <trkpt lat="40.194567" lon="-4.835417">
        <ele>501.0</ele>
        <time>2015-08-01T14:23:29Z</time>
      </trkpt>
      <trkpt lat="40.194767" lon="-4.835217">
        <ele>496.0</ele>
        <time>2015-08-01T14:23:31Z</time>
      </trkpt>
      <trkpt lat="40.194983" lon="-4.835033">
        <ele>491.0</ele>
        <time>2015-08-01T14:23:33Z</time>
      </trkpt>
      <trkpt lat="40.195183" lon="-4.834783">
        <ele>488.0</ele>
        <time>2015-08-01T14:23:35Z</time>
      </trkpt>
      <trkpt lat="40.195367" lon="-4.834583">
        <ele>487.0</ele>
        <time>2015-08-01T14:23:37Z</time>
      </trkpt>
      <trkpt lat="40.195533" lon="-4.834367">
        <ele>484.0</ele>
        <time>2015-08-01T14:23:39Z</time>
      </trkpt>
      <trkpt lat="40.195717" lon="-4.834150">
        <ele>478.0</ele>
        <time>2015-08-01T14:23:41Z</time>
      </trkpt>
      <trkpt lat="40.195900" lon="-4.833950">
        <ele>475.0</ele>
        <time>2015-08-01T14:23:43Z</time>
      </trkpt>
      <trkpt lat="40.196133" lon="-4.833817">
        <ele>471.0</ele>
        <time>2015-08-01T14:23:45Z</time>
      </trkpt>
      <trkpt lat="40.196383" lon="-4.833833">
        <ele>468.0</ele>
        <time>2015-08-01T14:23:47Z</time>
      </trkpt>
      <trkpt lat="40.196483" lon="-4.834050">
        <ele>466.0</ele>
        <time>2015-08-01T14:23:49Z</time>
      </trkpt>
      <trkpt lat="40.196400" lon="-4.834167">
        <ele>464.0</ele>
        <time>2015-08-01T14:23:51Z</time>
      </trkpt>
      <trkpt lat="40.196350" lon="-4.834117">
        <ele>464.0</ele>
        <time>2015-08-01T14:23:53Z</time>
      </trkpt>
      <trkpt lat="40.196317" lon="-4.834050">
        <ele>462.0</ele>
        <time>2015-08-01T14:23:55Z</time>
      </trkpt>
      <trkpt lat="40.196250" lon="-4.834033">
        <ele>459.0</ele>
        <time>2015-08-01T14:23:57Z</time>
      </trkpt>
      <trkpt lat="40.196200" lon="-4.834033">
        <ele>457.0</ele>
        <time>2015-08-01T14:23:59Z</time>
      </trkpt>
      <trkpt lat="40.196183" lon="-4.834033">
        <ele>454.0</ele>
        <time>2015-08-01T14:24:01Z</time>
      </trkpt>
      <trkpt lat="40.196150" lon="-4.834083">
        <ele>451.0</ele>
        <time>2015-08-01T14:24:03Z</time>
      </trkpt>
      <trkpt lat="40.196117" lon="-4.834100">
        <ele>448.0</ele>
        <time>2015-08-01T14:24:05Z</time>
      </trkpt>
      <trkpt lat="40.196117" lon="-4.834133">
        <ele>445.0</ele>
        <time>2015-08-01T14:24:07Z</time>
      </trkpt>
      <trkpt lat="40.196083" lon="-4.834133">
        <ele>440.0</ele>
        <time>2015-08-01T14:24:09Z</time>
      </trkpt>
      <trkpt lat="40.196083" lon="-4.834150">
        <ele>438.0</ele>
        <time>2015-08-01T14:24:11Z</time>
      </trkpt>
      <trkpt lat="40.196117" lon="-4.834183">
        <ele>439.0</ele>
        <time>2015-08-01T14:24:13Z</time>
      </trkpt>
      <trkpt lat="40.196117" lon="-4.834183">
        <ele>440.0</ele>
        <time>2015-08-01T14:24:15Z</time>
      </trkpt>
      <trkpt lat="40.196117" lon="-4.834183">
        <ele>439.0</ele>
        <time>2015-08-01T14:24:17Z</time>
      </trkpt>
      <trkpt lat="40.196117" lon="-4.834183">
        <ele>439.0</ele>
        <time>2015-08-01T14:24:19Z</time>
      </trkpt>
      <trkpt lat="40.196117" lon="-4.834183">
        <ele>439.0</ele>
        <time>2015-08-01T14:24:21Z</time>
      </trkpt>
      <trkpt lat="40.196117" lon="-4.834183">
        <ele>439.0</ele>
        <time>2015-08-01T14:24:23Z</time>
      </trkpt>
      <trkpt lat="40.196117" lon="-4.834183">
        <ele>438.0</ele>
        <time>2015-08-01T14:24:25Z</time>
      </trkpt>
      <trkpt lat="40.196117" lon="-4.834200">
        <ele>438.0</ele>
        <time>2015-08-01T14:24:27Z</time>
      </trkpt>
      <trkpt lat="40.196117" lon="-4.834200">
        <ele>438.0</ele>
        <time>2015-08-01T14:24:29Z</time>
      </trkpt>
      <trkpt lat="40.196117" lon="-4.834200">
        <ele>438.0</ele>
        <time>2015-08-01T14:24:31Z</time>
      </trkpt>
      <trkpt lat="40.196117" lon="-4.834200">
        <ele>438.0</ele>
        <time>2015-08-01T14:24:33Z</time>
      </trkpt>
      <trkpt lat="40.196117" lon="-4.834200">
        <ele>438.0</ele>
        <time>2015-08-01T14:24:35Z</time>
      </trkpt>
      <trkpt lat="40.196117" lon="-4.834183">
        <ele>438.0</ele>
        <time>2015-08-01T14:24:37Z</time>
      </trkpt>
      <trkpt lat="40.196117" lon="-4.834183">
        <ele>438.0</ele>
        <time>2015-08-01T14:24:39Z</time>
      </trkpt>
      <trkpt lat="40.196117" lon="-4.834183">
        <ele>437.0</ele>
        <time>2015-08-01T14:24:41Z</time>
      </trkpt>
      <trkpt lat="40.196117" lon="-4.834183">
        <ele>437.0</ele>
        <time>2015-08-01T14:24:43Z</time>
      </trkpt>
      <trkpt lat="40.196117" lon="-4.834183">
        <ele>437.0</ele>
        <time>2015-08-01T14:24:45Z</time>
      </trkpt>
      <trkpt lat="40.196117" lon="-4.834183">
        <ele>437.0</ele>
        <time>2015-08-01T14:24:47Z</time>
      </trkpt>
      <trkpt lat="40.196133" lon="-4.834183">
        <ele>437.0</ele>
        <time>2015-08-01T14:24:49Z</time>
      </trkpt>
      <trkpt lat="40.196133" lon="-4.834183">
        <ele>437.0</ele>
        <time>2015-08-01T14:24:51Z</time>
      </trkpt>
      <trkpt lat="40.196133" lon="-4.834183">
        <ele>437.0</ele>
        <time>2015-08-01T14:24:53Z</time>
      </trkpt>
      <trkpt lat="40.196133" lon="-4.834183">
        <ele>437.0</ele>
        <time>2015-08-01T14:24:55Z</time>
      </trkpt>
      <trkpt lat="40.196133" lon="-4.834183">
        <ele>437.0</ele>
        <time>2015-08-01T14:24:57Z</time>
      </trkpt>
      <trkpt lat="40.196133" lon="-4.834183">
        <ele>437.0</ele>
        <time>2015-08-01T14:24:59Z</time>
      </trkpt>
      <trkpt lat="40.196133" lon="-4.834183">
        <ele>438.0</ele>
        <time>2015-08-01T14:25:01Z</time>
      </trkpt>
      <trkpt lat="40.196133" lon="-4.834183">
        <ele>438.0</ele>
        <time>2015-08-01T14:25:03Z</time>
      </trkpt>
      <trkpt lat="40.196133" lon="-4.834183">
        <ele>438.0</ele>
        <time>2015-08-01T14:25:05Z</time>
      </trkpt>
      <trkpt lat="40.196133" lon="-4.834183">
        <ele>438.0</ele>
        <time>2015-08-01T14:25:07Z</time>
      </trkpt>
      <trkpt lat="40.196133" lon="-4.834183">
        <ele>438.0</ele>
        <time>2015-08-01T14:25:09Z</time>
      </trkpt>
      <trkpt lat="40.196133" lon="-4.834183">
        <ele>438.0</ele>
        <time>2015-08-01T14:25:11Z</time>
      </trkpt>
      <trkpt lat="40.196133" lon="-4.834183">
        <ele>438.0</ele>
        <time>2015-08-01T14:25:13Z</time>
      </trkpt>
      <trkpt lat="40.196133" lon="-4.834183">
        <ele>438.0</ele>
        <time>2015-08-01T14:25:15Z</time>
      </trkpt>
      <trkpt lat="40.196133" lon="-4.834183">
        <ele>438.0</ele>
        <time>2015-08-01T14:25:17Z</time>
      </trkpt>
      <trkpt lat="40.196133" lon="-4.834183">
        <ele>438.0</ele>
        <time>2015-08-01T14:25:19Z</time>
      </trkpt>
      <trkpt lat="40.196133" lon="-4.834183">
        <ele>439.0</ele>
        <time>2015-08-01T14:25:21Z</time>
      </trkpt>
      <trkpt lat="40.196133" lon="-4.834183">
        <ele>439.0</ele>
        <time>2015-08-01T14:25:23Z</time>
      </trkpt>
    </trkseg>
  </trk>
</gpx>
